GFSSW_sfc_wetblb_000.txt.gz
Wetbulb
60.04 59.95 59.88 59.73 59.83 60.33 60.62 61.26 61.91 62.44 62.70 62.38 62.62 64.16 64.53 63.64 62.78 58.18 56.26 59.91 63.57 68.25 68.21 64.92 62.61 63.26 63.87 64.11 65.58 65.63 54.94 50.68 52.97 54.97 54.81 54.70 52.60 54.77 55.75 53.56 55.37 55.84 54.80 55.71 57.26
61.82 61.31 60.75 60.28 60.45 60.85 61.13 61.39 61.59 61.79 62.74 63.38 63.98 64.43 64.04 63.81 57.20 56.22 60.13 65.86 66.44 68.13 62.79 59.81 59.28 60.94 59.80 61.50 61.39 58.11 52.46 53.86 56.92 56.84 54.82 54.12 52.97 52.35 52.34 52.85 53.22 53.67 54.68 55.54 56.39
61.77 61.80 61.54 61.41 61.37 61.57 61.83 61.97 62.08 62.71 63.36 63.98 64.23 63.53 63.68 61.81 55.02 54.62 64.28 64.20 65.56 65.54 62.82 60.28 60.29 60.08 58.37 61.42 58.18 57.37 53.88 57.32 56.29 56.35 57.52 53.68 52.80 53.84 51.44 50.38 53.46 52.58 52.43 53.95 53.82
61.45 61.67 61.68 61.53 61.50 61.56 61.70 61.90 62.08 62.63 63.14 64.16 64.05 63.72 63.72 57.24 47.16 56.01 63.96 65.45 66.57 62.01 60.70 58.39 58.11 56.94 56.49 53.72 57.58 52.76 56.27 56.09 56.99 55.41 56.41 52.62 54.03 51.53 51.92 53.39 55.72 54.80 53.88 53.43 52.38
61.10 61.33 61.32 61.21 61.30 61.49 61.71 62.04 62.20 62.66 63.22 63.73 63.86 64.39 59.65 52.15 50.96 57.54 65.24 65.87 59.94 59.14 58.45 57.41 55.60 56.01 53.62 54.66 55.17 52.01 53.82 55.65 55.37 54.82 53.68 54.62 51.60 51.19 52.19 55.21 55.72 54.71 54.09 52.26 51.80
60.95 61.15 61.12 60.93 60.98 61.14 61.46 61.83 62.15 62.30 62.80 63.04 63.91 63.86 55.39 48.31 54.59 56.78 56.86 56.88 57.55 58.29 58.24 58.67 56.82 56.72 54.08 55.37 52.29 54.32 53.40 53.64 53.54 52.54 53.94 51.84 51.36 51.73 52.51 54.91 53.88 52.43 51.59 51.49 51.61
60.51 60.94 61.01 60.72 60.68 60.92 61.34 61.66 61.71 61.60 62.03 62.73 64.06 60.49 54.05 49.54 54.78 56.19 56.30 56.14 57.52 58.29 57.34 59.10 58.61 55.27 57.00 53.98 54.90 54.14 49.55 50.88 50.97 51.39 51.02 52.20 49.08 48.96 53.02 53.20 50.89 50.40 50.47 51.31 51.50
59.58 60.31 60.31 60.14 60.39 60.70 61.13 61.43 61.37 61.57 62.26 63.34 63.76 57.86 51.08 54.60 56.56 54.73 56.06 55.74 58.30 59.14 59.54 60.98 59.78 57.33 55.87 54.90 52.95 49.18 49.38 44.95 50.15 50.90 51.59 50.34 43.57 50.79 52.50 51.09 49.47 50.05 50.23 50.62 50.86
59.40 59.49 59.48 59.58 59.68 60.25 60.57 60.76 61.07 62.33 63.10 63.39 58.39 56.34 49.69 56.78 52.65 55.36 56.07 54.42 56.75 57.69 60.36 58.13 58.74 55.89 56.11 49.42 46.58 47.96 42.64 44.88 47.49 51.16 50.88 48.41 45.36 51.33 52.33 50.99 49.42 49.66 50.23 50.58 50.15
58.33 58.65 58.67 58.74 59.29 59.82 59.99 59.24 61.47 61.30 60.91 61.02 58.81 50.78 50.86 49.04 53.40 54.12 55.84 55.88 55.07 55.96 54.70 54.17 53.51 50.18 49.07 46.59 40.69 44.00 43.30 45.64 45.77 49.00 49.28 47.12 45.98 50.34 51.32 50.43 49.30 49.92 50.32 50.58 50.46
58.25 58.59 58.52 58.48 59.10 59.39 57.42 57.66 54.00 53.18 54.38 51.70 51.95 50.92 51.04 52.63 54.18 52.04 54.71 54.33 54.69 53.54 48.90 51.99 47.56 44.90 47.41 48.42 48.82 48.51 46.44 45.62 48.20 51.06 48.03 46.38 46.72 48.70 51.08 50.07 48.85 49.22 50.25 50.58 50.92
57.86 58.71 58.67 58.59 58.75 58.64 55.87 55.59 55.07 55.30 47.82 53.98 53.69 52.62 53.80 53.51 48.61 50.83 54.71 50.65 51.21 47.88 50.70 49.40 44.50 49.97 51.83 51.41 49.00 48.08 45.61 44.70 48.01 49.84 47.96 46.95 46.42 48.99 50.17 50.15 49.55 49.28 49.63 50.63 51.05
57.14 57.56 58.38 58.51 58.10 55.89 55.65 56.29 59.90 57.65 48.69 51.85 53.14 51.61 51.77 52.43 48.46 49.10 51.85 51.56 50.18 48.52 48.85 46.84 49.82 51.46 49.98 49.28 47.44 46.91 44.89 44.72 44.78 48.32 48.03 45.65 43.06 45.32 48.65 50.23 51.56 51.28 51.08 51.45 51.26
57.63 56.73 57.34 57.04 53.42 56.39 54.22 58.73 60.74 59.43 44.54 46.86 47.78 50.55 51.32 51.98 47.98 53.13 53.04 52.58 50.54 47.50 49.10 48.87 51.07 48.56 47.69 46.48 47.47 43.25 48.66 47.55 46.67 43.44 37.92 45.62 35.96 43.68 46.77 47.65 48.86 50.64 50.64 50.70 51.02
58.83 57.07 56.36 56.08 53.87 53.96 57.45 60.27 60.23 56.23 38.53 48.22 48.03 53.72 52.09 48.57 50.25 50.05 55.72 52.67 47.79 48.03 49.02 47.04 46.77 46.14 45.76 46.39 48.33 45.72 49.34 47.61 46.50 42.93 41.32 42.31 37.82 41.01 47.13 45.32 47.66 49.06 50.21 50.97 51.29
58.65 57.95 55.80 56.11 56.26 58.96 60.45 59.36 56.30 44.60 38.49 45.79 48.58 46.25 46.86 48.24 49.31 50.88 50.15 52.95 53.91 48.66 48.84 48.02 50.28 49.01 47.82 49.71 49.40 49.07 46.82 46.61 45.10 41.78 34.56 40.61 40.63 40.08 44.20 46.58 47.77 49.13 49.94 50.46 50.81
56.30 57.40 54.94 56.88 56.46 62.61 60.63 54.50 44.08 39.73 48.96 45.27 45.62 47.04 45.92 46.15 46.27 48.40 46.77 45.31 43.59 40.64 41.72 46.31 46.69 48.85 49.82 45.99 48.41 46.75 42.30 35.51 34.42 34.25 33.61 43.37 40.56 42.63 46.79 47.03 46.58 47.68 48.61 49.51 49.83
54.63 56.15 58.06 57.67 59.33 62.16 57.68 47.53 38.39 46.52 47.77 49.74 47.59 47.13 44.17 46.80 46.80 47.05 46.13 43.89 47.15 45.96 43.47 41.52 39.67 45.79 48.19 46.22 43.70 43.12 42.56 36.73 30.85 33.03 37.41 41.87 35.71 41.53 48.12 47.87 47.62 49.30 49.20 49.49 48.71
54.22 60.44 58.92 60.41 60.22 60.56 52.43 40.70 43.60 47.42 48.91 47.60 47.25 44.42 44.77 46.83 46.85 46.33 45.34 44.76 47.26 47.26 42.05 41.94 42.15 49.62 48.31 48.38 47.64 44.21 39.64 44.93 39.47 40.63 35.94 39.07 42.77 46.27 47.15 45.20 46.48 46.88 47.33 47.83 47.99
53.99 56.06 56.99 61.33 59.89 55.79 48.02 43.20 46.66 50.94 50.81 49.98 43.25 46.76 43.94 46.84 45.14 45.10 45.29 48.54 46.94 49.58 49.52 46.23 40.81 47.93 47.76 48.40 47.89 45.61 47.36 38.50 38.39 30.45 29.06 36.32 38.09 39.78 43.41 44.47 44.49 44.34 44.72 46.95 48.32
54.90 51.44 57.56 60.98 58.68 49.68 43.05 45.91 49.02 52.54 52.51 47.43 45.78 44.35 44.60 44.28 45.63 45.55 45.50 49.01 50.75 50.18 50.07 47.70 44.43 44.08 44.24 42.56 41.94 41.86 40.93 42.63 41.79 38.54 31.59 31.88 36.17 44.46 43.53 44.56 45.11 44.30 44.99 46.50 47.47
52.10 45.08 58.29 59.27 48.24 48.80 45.26 47.78 49.35 50.37 52.43 50.22 49.04 47.34 45.32 45.38 44.70 44.82 44.64 48.58 51.55 51.08 47.14 48.89 45.30 40.25 41.22 47.00 47.74 45.79 43.00 43.23 37.01 35.04 38.76 38.10 38.12 47.76 45.33 45.69 46.18 45.47 46.57 46.69 47.73
46.35 47.66 57.75 56.73 42.23 43.46 46.68 46.21 48.26 48.65 49.60 48.32 46.77 48.63 49.22 45.91 42.35 45.67 46.46 50.59 51.09 50.09 47.79 48.33 43.29 37.30 39.92 42.79 44.82 42.61 44.54 44.36 43.43 41.48 37.74 35.38 38.17 45.96 44.56 45.58 45.58 45.13 45.84 46.62 47.11
45.99 40.14 47.41 51.23 50.01 45.49 43.90 44.14 44.27 49.56 48.22 48.55 46.88 48.69 47.09 45.29 47.35 43.98 45.18 49.27 47.97 50.24 55.20 51.23 44.68 41.27 36.26 40.50 43.48 39.54 42.60 44.22 42.81 37.75 38.02 38.70 41.09 44.30 43.47 43.84 44.52 44.68 45.90 46.01 46.71
46.08 43.03 45.56 39.06 42.22 43.29 42.65 41.90 40.60 41.24 46.43 47.78 44.45 43.88 43.75 40.70 42.38 42.46 45.49 46.03 48.13 49.73 49.15 47.57 40.61 42.88 43.99 45.40 46.02 45.13 43.13 42.72 41.15 41.88 38.35 41.21 41.94 45.52 47.25 46.90 45.14 46.35 46.25 45.77 46.15
43.10 41.71 43.68 40.58 41.62 39.44 39.08 37.50 37.93 40.54 42.03 41.55 41.88 43.89 43.49 40.55 42.07 40.31 42.40 42.73 42.43 45.10 41.56 44.11 39.50 42.35 40.54 44.38 44.62 42.91 45.04 45.41 43.05 43.07 42.80 43.18 42.33 48.29 48.11 47.28 46.54 46.76 46.94 46.36 46.20
48.87 47.68 42.57 39.99 38.96 37.62 38.07 38.78 38.88 40.39 41.20 42.01 40.92 39.67 41.24 43.15 45.12 45.12 45.38 44.27 42.73 39.44 36.45 36.36 36.87 37.48 35.52 42.28 42.48 38.74 43.12 44.75 45.33 45.45 43.78 39.88 44.15 46.55 47.08 47.90 48.58 47.48 46.79 46.17 46.14

GFSSW_sfc_wetblb_003.txt.gz
Wetbulb
60.40 60.06 59.90 59.84 59.72 60.26 60.74 61.31 61.83 62.26 62.60 62.27 62.60 64.17 64.55 63.66 62.59 56.14 53.61 57.77 61.80 67.63 67.90 63.57 62.72 60.27 60.50 57.59 59.23 57.26 47.96 44.54 47.32 48.71 49.70 50.77 49.47 51.93 52.83 50.82 52.58 52.16 50.74 52.16 54.84
61.80 61.45 61.16 60.75 60.86 61.49 61.88 61.75 61.64 61.93 63.00 63.39 64.03 64.24 64.06 63.56 55.74 52.67 61.44 65.38 65.53 67.55 61.64 58.91 56.67 57.92 53.92 54.46 55.53 51.67 44.40 47.40 53.23 51.36 48.93 50.50 49.48 49.36 49.73 49.62 49.42 49.62 51.52 53.55 54.18
61.70 61.85 61.64 61.58 61.61 61.97 62.33 62.45 62.25 62.94 63.63 64.01 64.00 63.63 63.68 62.23 51.50 52.36 65.16 65.66 65.57 66.41 60.83 60.11 57.59 57.86 52.13 53.19 52.10 50.76 48.26 53.53 52.98 54.24 53.62 50.81 49.81 50.97 48.30 46.78 50.01 48.77 50.02 51.87 51.45
61.51 61.59 61.41 61.21 61.29 61.44 61.75 62.27 62.27 62.63 63.14 63.93 63.64 63.49 63.51 56.86 43.97 54.72 66.02 66.00 67.45 63.71 58.87 57.50 55.28 51.36 49.67 48.62 52.70 47.31 52.73 52.93 53.79 53.62 52.88 49.56 50.70 48.48 48.87 49.25 52.94 51.54 51.09 50.81 49.96
61.29 61.44 61.34 61.07 61.09 61.19 61.42 61.78 62.17 62.43 62.70 63.00 63.45 64.34 57.48 49.06 48.68 56.69 66.00 64.14 61.84 57.98 56.15 55.86 51.57 50.73 47.85 50.06 50.52 47.63 49.96 52.99 52.15 51.83 50.65 51.75 48.86 48.13 49.51 51.35 51.98 52.25 51.82 50.34 49.37
60.69 61.14 61.22 60.96 60.91 61.11 61.46 61.82 62.16 62.28 62.37 62.47 63.42 63.98 52.94 44.50 53.05 56.80 56.77 54.99 56.41 57.03 55.29 55.72 53.49 52.91 49.40 48.87 47.36 49.88 50.57 50.77 51.04 50.16 50.15 49.45 48.45 49.09 49.85 52.04 50.65 50.66 49.47 49.17 49.24
59.90 60.33 60.53 60.30 60.27 60.54 61.03 61.50 61.84 61.42 61.53 62.19 63.58 60.79 52.23 49.07 51.86 52.59 55.00 53.85 56.03 56.72 55.52 56.48 55.82 51.76 50.44 47.64 51.27 50.19 46.10 47.00 47.81 48.58 47.94 49.26 45.95 46.87 49.77 51.45 49.37 48.22 47.24 48.37 48.92
59.60 60.04 59.79 59.66 59.71 59.97 60.49 60.85 61.05 61.15 61.55 62.62 63.24 55.03 47.27 53.14 51.72 52.96 53.28 53.32 56.09 56.58 57.89 56.85 56.56 53.95 51.16 50.25 48.96 45.03 43.89 38.82 46.00 47.96 48.89 47.31 38.87 47.31 49.73 49.15 47.02 46.43 45.42 47.31 48.38
58.99 58.94 59.22 59.17 59.08 59.69 60.11 60.40 60.16 61.17 62.30 63.17 56.22 51.75 46.90 56.75 50.41 52.66 52.85 53.06 54.69 55.51 56.03 57.88 55.68 50.29 49.92 43.45 39.76 41.10 35.42 39.09 43.41 48.34 48.13 44.87 40.59 47.22 49.27 49.62 46.79 44.71 45.58 47.00 46.59
58.74 58.66 58.89 58.82 58.91 59.43 59.38 59.36 59.54 59.89 59.33 58.91 58.55 46.83 48.96 47.30 51.65 52.46 51.56 54.60 53.21 53.34 53.74 51.40 48.19 44.08 42.84 39.87 33.83 37.29 37.18 40.67 40.51 45.59 46.40 43.58 42.89 46.38 47.32 48.34 46.86 46.05 46.44 46.67 47.52
57.92 58.37 58.73 58.83 58.88 58.96 55.74 53.21 50.54 49.91 51.45 48.81 50.35 48.08 49.05 50.72 52.14 49.41 52.76 52.59 52.68 49.80 43.64 46.99 41.38 38.60 41.28 42.95 43.59 42.62 41.51 40.91 43.15 47.69 44.72 43.68 44.04 45.16 47.53 46.94 45.83 45.31 45.79 47.29 47.94
58.07 57.58 58.03 58.70 58.53 57.95 54.92 50.95 51.54 51.16 44.19 51.77 51.90 51.76 52.74 50.54 46.58 48.19 52.18 47.50 47.40 43.08 45.37 43.20 39.56 44.95 47.52 46.66 45.20 43.79 41.02 40.41 43.87 47.65 45.08 42.93 43.30 46.15 46.18 47.55 48.03 47.24 46.92 47.65 47.91
59.15 58.32 57.31 58.12 57.13 52.79 50.87 52.79 55.90 53.73 44.31 49.22 51.53 50.85 50.13 50.31 46.76 46.39 50.05 47.78 45.40 43.67 44.09 40.18 44.85 49.03 47.22 45.72 44.24 43.39 41.15 40.55 40.83 44.71 44.56 42.24 39.26 42.16 46.23 47.29 49.11 49.32 49.25 49.00 48.61
57.47 58.08 57.53 56.64 53.01 52.50 51.21 55.44 55.15 53.75 39.05 44.35 47.62 49.49 50.34 50.54 45.71 50.95 51.03 49.20 46.43 43.85 44.28 43.51 48.28 47.05 44.98 43.98 44.87 39.82 45.62 45.47 43.93 39.58 33.84 41.30 33.81 38.94 43.81 44.55 45.28 48.02 47.57 47.69 48.74
56.62 57.20 57.82 55.14 47.75 51.42 54.27 55.51 53.56 50.76 30.80 46.73 46.97 52.29 49.97 46.48 48.27 48.83 52.37 49.65 44.71 45.21 44.03 42.50 43.85 43.68 43.20 44.12 45.18 41.68 46.32 44.28 43.64 38.77 36.14 37.36 33.59 35.89 41.70 41.55 43.95 45.21 47.81 48.03 48.99
55.80 55.89 56.93 52.29 51.51 53.16 57.11 54.94 51.05 39.68 32.16 43.69 46.22 44.98 44.17 45.79 46.80 49.90 48.53 49.91 49.76 45.49 45.34 43.73 47.69 46.15 45.64 47.17 47.01 47.00 44.02 42.85 40.99 37.23 30.15 36.13 35.89 38.51 38.95 43.29 43.66 44.42 46.45 48.73 48.63
55.15 55.00 55.11 55.20 52.26 57.47 56.45 49.09 37.65 31.96 46.27 42.96 43.34 44.86 43.40 42.61 43.83 46.25 44.15 41.62 38.74 35.74 35.84 41.94 44.08 45.54 47.60 43.06 45.19 43.74 38.10 30.39 29.55 29.24 29.15 38.58 35.79 40.02 42.19 44.55 45.16 46.04 45.01 47.53 48.89
54.15 55.03 56.63 54.93 53.33 55.44 52.06 41.89 30.60 42.23 43.36 47.65 46.75 44.51 41.16 43.80 43.19 43.66 42.47 38.89 42.15 40.21 37.05 34.60 33.98 43.08 45.48 44.15 40.34 39.93 38.65 31.01 25.76 27.59 32.86 39.30 32.98 39.65 45.27 48.45 46.54 46.74 46.65 45.98 46.97
53.72 54.23 53.41 54.96 55.38 53.52 45.70 33.83 36.82 42.27 47.44 45.68 46.02 40.62 40.27 43.78 42.60 41.61 40.32 40.55 43.15 43.19 37.07 36.45 37.11 45.43 45.60 46.04 45.63 39.36 37.06 41.68 33.88 33.60 29.72 34.15 37.74 42.27 43.52 43.10 44.06 44.78 45.32 45.47 46.46
47.95 50.74 51.83 56.23 53.58 49.91 41.68 39.22 41.02 47.66 48.46 47.46 40.64 43.03 38.72 41.48 40.25 40.48 39.34 43.87 43.83 46.38 46.31 40.98 36.86 43.94 45.33 45.50 44.81 41.67 42.92 34.70 33.83 27.04 24.31 31.46 32.89 35.49 40.74 44.27 43.03 42.24 43.91 44.88 45.84
50.06 44.86 53.67 56.71 52.08 42.87 35.76 39.12 45.23 49.72 49.60 45.78 42.21 41.32 41.10 40.29 41.44 40.17 41.08 45.33 47.04 47.25 46.69 44.47 39.23 40.23 41.55 39.47 39.95 38.99 39.28 38.59 37.11 32.83 26.72 27.29 30.24 39.97 42.94 43.62 41.81 44.49 43.18 45.04 45.48
44.61 39.40 53.81 53.59 42.66 40.59 37.69 43.08 46.65 45.45 47.74 46.75 46.69 44.90 42.69 42.86 41.54 41.24 41.09 44.22 48.96 47.58 43.60 45.74 41.54 37.55 40.23 43.29 45.10 43.76 41.39 41.58 34.97 30.10 34.10 35.91 35.91 42.13 41.93 43.51 43.61 42.81 44.32 44.02 46.47
40.98 39.99 49.94 51.06 35.90 35.78 40.83 44.09 45.66 45.12 45.35 45.87 45.36 47.27 46.95 43.65 40.03 42.15 43.70 48.07 47.58 46.94 44.81 46.14 41.03 35.33 37.60 38.71 40.63 38.74 41.59 41.29 41.95 35.86 35.36 33.27 36.49 44.62 46.58 45.36 42.99 43.32 43.00 44.63 46.10
40.19 33.03 39.28 43.59 42.27 38.96 37.95 37.32 38.04 42.89 42.62 43.50 42.81 44.78 43.64 41.36 43.84 42.07 42.71 46.95 48.15 46.83 49.42 47.43 42.65 39.38 34.41 38.39 40.17 36.80 39.83 41.84 39.68 35.47 36.76 37.03 39.06 41.04 40.86 41.65 41.85 41.84 43.13 44.09 46.05
39.78 35.19 39.06 33.48 35.03 35.44 34.16 35.31 33.93 34.15 39.67 40.43 38.70 39.26 36.51 35.56 38.86 38.90 41.48 42.61 44.96 46.99 42.82 41.18 37.86 39.66 37.97 37.96 39.92 40.96 41.54 41.11 39.00 40.01 36.32 39.51 39.52 42.96 44.46 43.07 42.25 42.89 43.25 42.57 43.76
37.16 36.46 37.64 35.20 35.86 33.48 34.77 31.96 34.67 36.49 36.23 35.39 34.59 37.00 36.64 32.84 34.66 33.12 37.67 38.47 38.83 40.50 39.36 40.39 32.87 34.05 30.80 36.18 36.90 35.07 38.67 40.24 41.72 42.03 41.29 41.54 41.12 44.36 46.19 44.73 43.83 42.47 43.85 43.26 44.47
43.20 43.86 41.40 37.82 33.75 32.14 32.18 34.70 36.12 37.70 37.77 39.25 37.56 35.78 34.63 36.60 38.31 38.99 38.93 40.22 40.41 38.28 36.71 36.05 34.46 31.28 26.78 34.12 33.13 28.89 36.68 40.81 42.72 43.85 42.74 38.41 43.18 45.39 46.23 46.91 47.61 45.71 42.73 44.04 44.73

GFSSW_sfc_wetblb_006.txt.gz
Wetbulb
60.27 59.93 59.85 60.12 60.11 60.33 60.78 61.28 61.91 62.30 62.36 62.15 62.45 63.96 64.15 63.38 62.31 54.18 52.06 58.38 60.29 66.77 67.05 61.98 62.13 59.42 58.88 56.18 57.78 55.62 46.60 43.38 46.05 47.05 49.21 50.25 48.25 50.90 51.53 50.26 50.74 50.37 49.19 51.31 54.03
61.71 61.30 60.98 60.80 61.07 61.42 61.77 61.77 61.86 61.98 62.90 63.41 63.55 63.75 63.63 63.50 54.36 50.67 60.66 65.16 65.96 66.97 60.41 57.33 54.80 56.57 52.48 53.06 54.02 49.33 42.19 45.22 51.48 50.46 47.98 49.33 48.32 49.04 49.49 48.74 47.57 47.71 49.94 51.94 52.65
61.18 61.72 61.46 61.37 61.48 61.63 62.00 61.90 61.91 62.40 62.97 63.84 63.60 63.30 63.30 62.15 50.06 51.68 66.36 65.91 66.77 65.46 59.48 58.53 57.19 56.02 50.18 51.67 50.52 49.48 46.06 51.33 51.67 53.12 51.34 49.50 48.34 49.93 48.21 45.92 48.31 47.81 49.75 51.36 50.68
60.63 61.48 61.27 61.10 61.14 61.34 61.51 61.82 61.94 62.30 62.84 63.21 63.06 63.32 63.38 55.69 42.67 53.49 67.07 67.84 67.92 62.03 57.35 56.47 54.23 49.74 47.87 47.16 50.92 46.54 51.36 51.66 52.20 52.63 51.58 48.51 50.12 47.10 48.69 48.37 51.70 50.90 51.44 50.59 49.87
60.69 61.16 61.25 61.07 61.04 61.19 61.42 61.70 62.07 62.44 62.49 62.57 62.93 63.93 55.66 47.71 48.04 55.28 67.48 65.66 59.64 56.95 54.96 54.66 49.92 49.29 46.04 48.52 49.00 46.47 48.38 51.61 51.54 50.66 49.70 50.59 47.83 47.17 46.98 50.78 51.04 51.01 50.45 49.28 48.83
60.15 60.49 60.67 60.45 60.35 60.54 60.92 61.40 61.89 62.01 62.04 61.81 62.89 63.30 51.13 43.50 52.53 55.05 57.57 53.91 56.17 55.45 53.83 53.91 52.12 51.92 47.88 47.31 46.96 48.26 48.98 49.66 49.97 49.64 48.87 48.04 47.41 47.64 48.10 49.15 49.14 49.85 49.06 48.50 48.79
59.83 60.19 60.10 59.84 59.75 59.98 60.46 60.83 61.10 61.14 61.09 61.83 62.87 60.56 50.46 48.24 50.61 53.69 54.40 52.17 54.44 55.23 54.00 55.37 54.75 50.81 49.11 45.96 49.57 48.79 45.32 45.94 46.90 47.50 46.61 48.05 45.03 45.45 48.13 49.04 47.72 47.22 46.67 47.71 47.86
59.43 59.35 59.40 59.47 59.38 59.65 60.21 60.44 60.93 61.21 61.50 62.47 62.66 54.11 45.86 53.12 50.45 51.17 51.92 51.52 54.26 54.90 56.01 55.69 55.72 52.99 49.80 48.84 47.10 44.05 42.45 37.14 43.78 46.59 47.48 46.47 38.85 45.10 48.34 48.24 46.17 46.31 45.39 46.55 47.45
59.08 59.05 59.08 59.18 59.08 59.41 59.81 59.94 60.28 60.85 61.95 62.51 55.24 49.98 46.24 56.24 47.86 51.13 51.05 50.94 52.78 53.78 54.23 56.44 54.17 49.20 48.62 42.22 38.62 39.12 33.61 36.94 40.86 46.77 46.31 43.37 39.63 44.74 47.30 49.11 47.74 46.46 46.01 46.70 46.09
58.36 58.41 58.88 59.01 59.11 59.30 59.12 59.06 59.54 58.59 58.41 58.53 57.53 46.15 48.25 46.09 49.94 50.95 50.17 52.72 51.74 51.87 51.76 49.67 46.41 42.67 41.02 38.45 32.37 35.06 35.03 37.56 37.90 43.73 44.84 42.33 41.98 44.06 46.06 48.17 48.34 47.29 46.69 46.49 46.93
59.49 58.59 57.97 58.69 58.97 58.56 54.17 52.60 49.40 48.88 49.84 47.12 48.47 46.39 47.73 49.04 50.88 47.91 51.23 50.80 50.99 48.09 42.24 45.28 40.04 37.66 40.23 41.70 40.59 39.41 38.25 38.32 41.16 45.34 43.47 42.51 43.42 45.12 45.87 45.65 46.17 45.09 45.50 45.69 47.27
58.12 58.21 58.67 57.75 58.13 57.41 53.65 50.24 49.91 49.84 44.00 50.09 50.31 50.63 51.71 48.89 45.08 46.52 51.03 46.05 45.59 41.37 43.58 41.29 37.95 43.15 44.77 44.31 42.69 41.15 38.47 37.72 41.70 45.28 43.29 41.59 41.96 45.39 44.28 45.26 46.62 46.92 45.86 45.90 47.20
56.74 57.28 57.65 58.37 57.28 52.39 48.97 50.87 54.38 52.04 41.99 46.36 50.37 49.21 49.55 48.85 45.32 44.97 48.71 46.22 43.69 41.46 41.87 37.84 42.67 46.92 45.06 43.37 42.19 41.38 39.65 38.20 39.73 42.55 42.42 40.57 39.61 41.00 44.44 46.17 48.21 48.64 48.56 48.07 47.47
56.30 56.77 56.40 57.44 52.49 50.09 50.70 54.55 53.78 51.52 37.84 42.99 46.48 48.43 49.12 49.19 44.99 50.14 49.96 47.44 43.76 41.65 41.99 41.42 46.41 45.39 43.23 42.33 43.17 38.84 43.70 43.56 42.60 38.72 33.50 40.46 34.25 37.21 40.76 42.38 43.47 46.90 48.43 48.08 48.18
56.18 56.17 56.02 56.14 45.49 50.53 53.34 54.27 51.87 49.64 29.42 44.99 45.76 50.99 48.05 45.22 46.32 47.45 50.14 48.17 42.66 43.21 41.62 40.22 42.63 42.03 42.44 43.77 43.84 41.28 45.09 43.17 42.14 37.17 34.11 36.20 32.37 34.35 39.15 39.69 42.85 43.63 46.13 48.08 49.43
55.76 55.70 55.77 51.97 50.20 51.13 55.41 52.96 49.63 38.54 30.47 42.37 45.20 43.84 42.87 44.38 44.77 48.43 47.25 48.87 48.33 44.33 43.23 42.29 45.97 44.37 43.57 45.78 45.16 45.15 42.06 40.48 38.27 35.07 29.04 36.23 34.84 38.38 38.33 41.91 44.35 45.83 44.85 46.00 47.97
55.14 55.30 54.25 55.78 50.19 53.77 54.43 47.19 36.57 30.99 43.90 41.02 42.22 43.35 41.73 41.16 42.16 44.48 42.68 40.65 37.88 34.27 33.32 38.64 41.21 44.68 46.49 41.98 43.92 42.45 36.86 29.35 27.93 27.50 29.45 36.88 34.14 39.47 39.88 41.26 42.51 44.54 45.68 43.92 46.97
54.43 55.04 56.32 55.13 51.49 53.01 48.28 40.69 30.20 39.99 41.19 46.71 46.04 44.11 39.73 41.96 41.43 41.87 40.76 37.74 40.92 38.49 35.10 33.52 33.71 41.19 44.62 43.97 40.62 38.95 37.91 30.71 25.05 26.15 32.13 35.74 31.16 38.03 42.54 46.59 47.44 46.24 45.45 43.85 45.12
53.48 50.83 51.76 54.03 54.48 52.01 43.18 33.17 35.34 39.04 45.66 44.37 44.72 39.62 38.24 42.06 41.31 39.77 38.83 38.40 41.35 41.28 35.17 33.79 34.96 43.35 44.21 45.99 44.56 39.38 35.33 40.22 33.30 30.53 27.51 31.66 35.98 40.52 42.21 42.67 42.92 42.92 43.37 44.29 45.10
47.84 49.83 51.50 55.70 51.55 48.48 40.29 37.67 38.89 45.88 45.52 45.11 38.56 41.71 37.39 39.82 39.60 38.97 38.20 41.79 41.95 43.82 43.66 38.32 34.68 42.34 44.14 43.64 42.87 41.47 41.75 33.26 31.75 26.72 25.00 30.78 30.13 34.71 37.63 42.97 43.91 42.01 42.62 44.45 44.59
46.74 44.62 52.38 54.19 49.35 42.10 35.19 37.15 43.13 46.41 46.29 42.83 40.42 39.89 40.36 39.18 40.09 38.60 39.22 43.72 46.33 45.68 45.76 40.90 37.26 38.61 40.40 38.40 37.93 37.51 37.89 36.84 35.06 32.76 29.65 29.30 33.49 38.57 42.05 42.99 41.91 42.25 43.74 45.06 44.43
42.16 39.41 50.50 51.58 41.73 38.02 36.72 41.41 45.78 44.44 45.18 45.11 44.50 43.98 41.06 40.44 39.85 39.49 39.46 42.29 47.99 46.44 42.08 44.83 41.58 35.25 38.25 43.80 44.69 43.25 40.84 40.58 35.02 32.37 30.09 34.62 35.50 40.27 40.55 41.47 42.08 44.32 43.36 42.92 44.70
39.31 37.75 46.02 48.44 33.25 34.45 38.62 40.42 42.17 39.65 39.36 40.78 41.37 43.41 41.74 39.96 36.85 41.29 42.57 47.04 47.80 45.15 41.94 44.15 39.69 34.86 36.24 39.65 39.80 37.20 39.70 40.54 39.55 39.06 34.94 32.42 35.89 43.48 44.50 44.95 42.59 41.93 42.18 43.06 44.95
37.84 33.46 38.27 38.59 37.48 33.99 32.20 33.64 34.90 39.46 38.10 38.55 37.61 39.17 35.83 34.01 37.53 35.39 37.82 42.60 41.88 44.09 47.89 44.59 39.46 37.99 33.28 35.46 35.36 33.75 33.73 38.21 35.68 34.20 35.56 36.04 38.21 42.67 41.55 40.45 42.20 42.04 41.75 42.18 44.09
37.83 34.85 36.38 30.49 31.76 32.31 32.28 32.87 32.31 32.53 37.12 37.25 35.13 35.32 33.57 30.16 31.89 32.67 34.54 35.99 39.50 42.41 42.91 41.50 34.08 35.43 35.50 36.16 36.07 34.25 33.54 32.80 33.02 33.35 30.05 34.31 37.66 42.96 45.10 45.37 46.06 45.23 41.47 40.81 41.88
35.93 34.64 36.55 33.40 34.03 31.94 32.97 29.54 32.73 34.86 34.66 33.39 32.83 35.50 34.89 30.90 32.34 30.56 34.03 34.58 33.54 37.81 37.34 38.32 30.32 34.28 31.64 34.49 33.59 30.92 33.17 34.98 34.57 34.04 35.15 38.87 38.27 46.03 47.07 45.06 45.07 45.71 42.50 41.90 42.20
40.99 41.30 37.98 35.22 31.67 29.70 30.34 32.88 34.94 35.74 36.72 37.66 35.85 34.42 33.43 35.24 36.91 37.86 38.39 37.85 36.76 34.74 33.75 33.15 31.88 27.61 24.86 31.45 31.62 26.84 32.03 33.83 35.41 37.65 37.18 33.44 39.59 41.64 39.06 41.69 45.37 44.41 44.69 44.29 44.48

GFSSW_sfc_wetblb_009.txt.gz
Wetbulb
59.96 59.70 59.66 60.00 59.90 60.15 60.67 61.22 61.72 62.11 62.23 62.10 62.31 63.37 63.96 63.56 62.08 52.76 50.71 56.91 58.96 65.97 67.20 60.54 60.34 58.32 56.91 54.32 56.38 53.78 46.08 42.38 44.40 45.41 47.73 49.84 47.65 49.73 50.64 48.88 49.79 50.47 48.85 50.26 53.36
61.60 61.29 60.95 60.71 60.86 61.19 61.51 61.66 61.81 61.93 62.34 62.87 63.14 63.05 62.89 63.41 53.59 49.77 58.96 66.19 64.86 66.06 58.73 56.18 53.64 54.92 51.81 51.85 52.22 47.22 42.40 45.03 49.83 49.92 49.01 49.58 47.62 48.47 48.87 47.63 47.06 47.20 48.93 50.27 52.04
59.92 60.94 61.18 61.03 61.09 61.20 61.44 61.55 61.65 61.97 62.51 63.12 63.54 63.10 63.03 61.52 49.04 49.79 66.46 66.12 64.63 64.50 58.01 56.78 56.17 54.51 49.45 51.14 49.75 48.01 43.57 46.98 51.38 51.63 51.38 49.13 47.70 49.40 47.41 45.13 47.83 47.98 49.12 50.14 49.89
60.29 60.68 60.95 60.89 60.90 61.01 61.17 61.45 61.75 62.11 62.64 62.48 62.78 63.10 63.12 53.95 39.56 51.72 67.99 67.07 65.51 60.95 55.52 55.00 52.75 48.50 46.35 46.27 49.92 45.36 49.84 50.97 51.83 51.67 50.03 47.51 48.74 46.43 47.93 48.14 50.43 50.42 50.71 51.16 49.64
60.00 60.43 60.53 60.33 60.27 60.46 60.73 61.13 61.69 62.03 62.09 61.55 62.17 63.67 55.28 46.27 47.47 53.98 67.75 65.60 57.93 55.61 53.64 53.12 48.53 47.77 44.60 46.97 47.46 45.18 47.11 50.78 50.90 50.43 49.08 49.49 47.82 46.92 46.44 49.18 49.26 50.36 50.15 50.77 50.74
59.78 59.93 59.95 59.80 59.80 59.99 60.30 60.70 61.11 61.27 61.17 61.22 62.20 62.86 49.70 42.04 51.53 54.01 56.84 53.13 55.11 54.07 52.41 52.68 50.62 50.69 46.96 45.74 45.70 47.23 48.00 48.14 49.20 48.54 48.15 46.94 46.50 46.38 46.94 48.78 49.05 48.76 48.64 49.96 50.13
59.79 59.86 59.83 59.65 59.58 59.56 60.02 60.52 60.75 60.81 60.83 61.34 62.17 59.55 48.81 47.87 49.97 51.71 54.15 50.65 52.71 53.88 52.47 54.12 53.35 49.53 47.82 44.88 48.12 47.51 44.12 45.15 46.08 46.74 46.45 46.71 44.16 43.98 47.42 47.94 47.62 46.67 48.16 49.07 49.21
59.55 59.54 59.44 59.49 59.55 59.57 59.97 60.26 60.70 60.77 60.69 62.02 62.10 51.71 44.29 52.87 49.22 51.40 51.04 50.27 52.32 53.45 54.51 54.32 54.32 51.60 48.65 48.17 45.29 42.53 41.12 36.91 42.55 45.76 46.82 45.63 38.33 43.96 46.92 46.53 45.96 45.32 45.41 46.86 47.75
59.08 58.80 59.01 59.24 59.34 59.64 59.81 59.93 60.17 60.40 61.20 61.99 53.03 49.06 45.40 55.26 46.45 49.58 49.39 49.38 50.87 52.15 52.70 55.46 52.81 47.96 47.02 41.28 38.06 37.60 33.11 35.53 39.67 45.03 44.80 43.21 38.51 43.32 44.70 46.88 46.24 45.45 45.95 46.59 47.16
58.31 58.72 58.54 58.25 58.99 59.17 58.66 58.42 58.66 58.52 58.43 58.21 56.15 43.65 46.71 45.03 48.11 49.25 48.15 51.15 50.07 50.36 50.09 48.24 45.19 41.47 39.58 37.87 32.83 33.74 33.68 35.43 35.62 41.00 42.51 40.53 40.40 43.96 43.71 46.13 46.49 46.52 46.04 46.51 47.30
57.73 57.89 57.70 58.94 58.14 58.20 53.31 51.48 47.74 47.20 47.99 43.45 45.28 43.03 46.03 48.12 49.42 46.73 49.80 49.29 49.50 47.20 40.42 43.61 38.80 36.65 39.31 40.73 38.59 37.50 35.90 35.35 38.38 43.03 42.09 40.72 42.13 44.56 45.34 44.59 45.54 45.55 45.93 46.18 46.90
56.84 56.81 57.48 57.74 58.32 57.33 52.89 50.16 48.14 48.53 43.11 49.10 48.57 49.29 50.85 47.90 43.72 45.10 49.97 44.08 44.11 40.09 41.93 39.85 36.15 41.29 42.92 42.75 41.29 39.22 36.55 36.13 39.33 42.59 41.89 40.50 41.15 44.25 45.64 43.22 46.22 46.33 46.48 46.72 47.91
56.36 56.37 56.78 57.48 57.64 51.63 48.02 49.96 53.30 51.29 41.47 44.74 48.92 47.85 48.37 49.35 44.30 43.84 48.04 44.63 42.03 40.00 40.27 36.94 40.86 45.29 43.10 40.78 39.65 39.57 37.92 36.72 37.42 41.14 40.90 38.69 39.65 39.52 43.14 45.26 45.90 46.66 48.36 48.64 47.72
55.96 56.00 56.22 56.53 51.56 48.04 49.51 53.45 52.84 49.98 36.67 41.40 45.36 47.21 47.79 48.14 44.27 49.03 48.36 46.27 42.15 39.67 39.79 39.35 44.56 43.29 41.15 40.44 41.10 36.77 42.10 41.97 40.59 36.95 34.23 38.66 33.25 36.55 39.84 42.08 43.03 45.67 46.40 46.88 47.58
56.20 56.00 55.87 55.24 44.04 49.04 52.08 53.87 50.73 47.76 28.90 43.25 44.43 49.75 46.79 44.80 44.62 46.38 48.80 46.76 41.21 41.67 41.00 39.26 40.95 40.90 40.16 41.51 42.62 39.47 43.64 41.51 40.56 36.21 33.33 34.97 32.31 33.37 37.31 38.17 41.08 43.43 44.50 46.64 48.29
55.80 55.59 55.79 51.52 48.65 50.64 54.57 50.96 48.44 36.42 29.40 40.89 44.07 42.71 41.76 43.20 43.50 47.21 45.64 47.09 46.08 42.28 41.11 41.29 44.51 43.38 42.77 44.32 44.35 43.98 40.53 39.22 36.88 33.75 29.22 35.69 33.97 37.49 39.20 40.47 42.16 44.19 44.56 44.43 46.34
55.25 54.98 53.90 55.29 48.90 50.80 52.17 46.00 35.95 30.63 42.49 39.77 41.52 43.34 40.01 39.52 40.78 42.49 41.19 39.08 36.60 32.92 32.27 36.82 39.35 42.60 44.57 40.43 42.36 40.87 35.80 28.84 27.28 26.58 30.52 35.48 33.39 38.70 38.70 40.42 41.29 43.84 45.34 45.31 42.85
54.47 55.34 56.00 56.09 53.08 51.42 46.67 40.46 28.65 38.04 39.46 45.60 44.65 43.76 38.80 40.34 39.88 40.52 38.98 36.61 40.30 36.75 33.14 32.08 32.91 39.09 42.31 41.41 38.72 38.29 38.23 32.27 24.60 25.46 31.87 33.65 29.98 37.87 41.69 44.01 45.10 44.76 45.02 45.61 45.03
53.33 50.86 51.35 54.61 53.54 49.98 42.45 33.02 32.98 38.68 42.46 41.63 42.31 37.94 37.11 40.87 41.39 40.39 36.49 37.28 39.50 38.92 33.87 32.76 32.70 41.83 43.18 43.55 42.56 37.17 33.69 40.71 33.36 36.65 27.21 34.41 35.57 39.89 41.33 41.13 42.86 42.35 42.96 44.01 46.51
49.41 49.22 50.33 54.02 49.39 46.74 38.85 36.79 37.85 43.36 43.77 42.70 36.41 39.32 34.72 38.09 38.17 38.18 37.40 41.03 42.67 45.25 44.83 37.54 32.73 40.68 42.61 42.44 41.68 39.76 40.46 32.51 30.29 26.23 26.18 31.92 28.83 33.70 37.09 39.21 41.92 41.96 42.56 43.06 44.17
45.15 45.35 51.22 51.19 48.53 42.72 34.49 35.33 41.15 45.32 42.79 40.87 38.16 38.39 38.43 36.58 37.70 36.98 38.53 42.68 45.70 44.81 45.13 42.37 36.98 38.02 40.13 38.16 38.89 39.13 35.34 35.35 34.78 32.49 29.47 28.28 32.80 39.59 41.18 43.34 43.24 41.92 41.42 42.56 43.70
40.31 39.43 47.52 48.48 40.34 36.54 35.96 39.11 44.24 41.05 40.27 39.58 40.02 41.11 38.24 36.46 36.28 38.09 38.44 40.92 42.62 44.03 40.11 43.63 40.98 35.44 37.84 43.90 45.41 42.86 38.66 36.44 32.87 31.52 31.52 33.24 34.27 40.14 38.96 40.88 41.10 41.25 42.47 43.00 42.39
37.42 36.91 43.57 45.25 32.98 32.91 34.23 35.79 38.74 36.58 36.46 37.46 36.59 38.24 36.68 35.62 30.49 37.41 34.31 42.00 40.98 38.70 38.82 41.66 37.53 29.68 31.25 36.50 37.41 34.80 35.93 36.45 34.66 33.96 30.97 28.89 32.93 42.81 41.58 40.67 44.08 44.06 43.86 44.13 42.87
36.48 31.03 35.25 36.60 34.26 30.87 30.03 30.79 33.21 37.50 36.44 36.83 35.35 36.87 34.02 31.79 34.68 31.58 32.41 37.96 39.59 39.08 44.16 42.51 36.60 32.82 27.69 32.19 35.39 32.42 34.97 35.93 33.81 27.87 27.67 28.71 30.36 35.11 37.67 38.03 41.50 42.64 45.31 44.98 41.96
36.56 33.70 34.77 28.14 29.68 30.55 30.50 30.85 30.51 31.14 36.02 35.77 33.23 33.92 31.87 28.49 30.02 29.60 33.08 34.52 37.62 40.59 39.52 37.36 29.54 31.34 32.05 33.04 33.30 32.33 33.58 34.08 31.25 31.58 27.59 29.26 30.78 34.51 37.71 40.32 40.21 41.46 42.26 41.80 44.14
35.12 33.85 35.68 31.67 32.27 29.57 30.51 27.26 30.76 33.52 33.50 32.26 31.14 34.19 33.39 29.65 30.98 29.49 32.16 32.24 31.67 35.21 34.13 35.11 28.97 30.84 27.57 31.13 31.12 29.16 31.77 32.52 32.78 32.65 32.16 33.03 32.00 38.38 40.15 42.03 40.36 40.34 41.15 41.94 43.08
39.67 39.42 35.56 32.44 29.81 27.72 28.57 31.19 33.52 33.35 34.47 36.02 34.78 33.33 32.10 33.57 35.99 36.00 36.63 35.99 35.17 33.08 31.81 30.74 28.39 25.75 23.14 28.67 28.29 24.55 28.75 30.25 31.81 33.94 33.95 30.65 36.21 39.95 39.24 39.03 38.54 38.06 40.54 41.88 42.27

GFSSW_sfc_wetblb_015.txt.gz
Wetbulb
59.61 59.52 59.51 59.63 59.60 59.72 60.25 61.03 61.50 61.63 61.79 62.16 62.68 63.01 62.92 63.43 61.90 54.30 50.51 57.04 59.82 66.56 65.85 59.75 59.32 58.31 58.54 57.67 58.67 56.36 52.00 47.96 50.15 49.23 52.81 53.14 52.36 52.34 53.54 52.95 52.95 54.97 54.12 55.12 57.44
61.10 60.81 60.72 60.46 60.54 60.68 60.87 60.99 61.19 61.38 61.85 62.44 62.76 62.29 62.28 63.32 55.10 50.84 57.70 64.06 64.62 66.09 58.70 56.57 55.35 56.60 54.51 55.17 55.11 53.27 49.29 49.04 52.43 52.62 52.50 53.23 52.06 52.07 51.64 51.24 51.72 52.84 54.29 54.05 58.19
60.11 60.45 60.36 60.27 60.27 60.41 60.45 60.60 61.03 61.31 62.02 62.44 62.13 62.06 62.61 61.87 49.75 49.33 64.52 65.63 64.83 61.27 58.16 57.07 56.39 55.53 52.83 54.27 52.51 49.66 48.51 48.83 51.01 53.94 54.00 52.71 50.65 52.10 51.39 49.85 52.96 53.49 54.86 53.61 56.66
60.20 60.32 60.23 60.07 60.07 60.29 60.33 60.58 61.06 61.45 61.95 61.78 61.56 62.59 62.66 54.65 42.53 51.41 67.31 66.44 64.44 60.21 56.68 55.97 54.57 52.73 50.43 48.99 51.79 48.47 50.71 51.58 53.80 54.02 51.83 50.92 51.20 50.19 50.99 55.34 54.42 55.13 54.04 53.38 55.22
59.37 60.24 60.23 60.03 59.97 60.11 60.23 60.50 60.87 61.28 61.41 61.14 61.53 62.81 55.10 47.36 48.25 53.76 66.08 62.40 56.36 55.95 54.60 54.59 51.86 51.10 48.22 48.83 50.36 48.92 49.98 51.48 53.13 52.76 51.87 51.10 50.32 50.49 49.59 52.93 53.19 53.10 52.91 53.04 55.15
59.63 59.94 60.02 59.99 59.95 60.02 60.10 60.40 60.86 61.18 61.17 61.04 61.74 62.13 51.83 43.72 51.34 56.12 55.40 52.70 55.49 55.22 54.39 54.94 52.56 52.74 49.85 48.51 48.23 48.48 49.05 49.41 50.49 51.18 50.81 49.35 50.30 49.71 50.94 52.29 51.08 51.99 52.88 53.35 54.01
59.69 59.67 59.61 59.59 59.73 59.81 60.03 60.22 60.44 60.58 60.56 60.89 61.79 56.51 48.75 45.57 52.15 52.28 53.55 51.72 53.62 55.59 54.04 55.71 55.23 52.90 50.97 48.15 49.13 47.98 46.12 47.28 48.16 49.50 50.03 49.86 47.73 47.00 52.24 51.24 51.11 50.72 52.50 52.93 53.11
59.13 58.87 58.85 59.09 58.98 59.46 59.96 60.07 60.13 60.49 60.45 60.65 61.24 52.47 44.99 51.49 53.10 52.15 53.23 51.88 53.80 55.26 55.93 56.77 56.94 54.00 51.25 51.08 48.41 44.89 44.85 42.25 46.35 47.45 49.50 49.63 44.07 49.56 49.78 49.79 50.32 50.86 51.15 51.33 52.38
58.37 58.13 58.37 58.66 59.09 58.84 58.96 59.21 59.25 59.62 60.12 61.45 54.04 50.87 43.94 56.37 48.10 49.99 52.23 50.32 52.17 53.82 54.60 54.65 54.22 49.26 49.24 45.35 43.07 42.13 39.65 38.96 41.58 46.08 46.76 46.40 44.78 48.29 47.54 46.79 47.95 48.94 49.48 49.73 50.95
57.35 57.26 57.30 57.73 58.19 58.81 58.63 57.69 58.48 58.61 58.31 57.62 53.13 44.73 46.97 46.01 48.64 49.31 50.82 52.00 50.89 51.80 50.59 49.85 47.07 44.39 43.19 43.21 36.36 37.26 38.18 38.51 38.69 43.50 44.30 43.86 43.21 46.85 48.98 47.24 48.40 49.21 49.64 49.44 49.98
57.24 57.15 57.11 57.42 57.88 58.13 53.59 50.83 46.58 46.11 48.55 43.83 44.42 42.80 45.78 48.75 49.58 47.95 50.34 50.54 51.38 48.48 42.89 45.41 42.05 38.66 40.80 43.07 41.66 39.78 38.28 38.03 41.52 43.76 42.31 42.59 42.90 45.00 47.51 46.80 47.32 48.48 49.16 49.29 50.04
57.15 57.16 57.20 57.33 57.64 56.82 51.16 48.43 48.05 49.31 43.79 48.35 47.85 48.17 49.88 50.49 46.82 46.46 50.82 45.81 46.55 42.07 44.12 41.87 38.84 42.04 42.01 41.91 41.57 40.79 38.97 38.74 41.86 43.52 41.87 41.47 41.33 44.72 46.05 46.65 48.17 48.10 49.05 49.83 50.97
56.64 56.94 57.07 57.69 56.95 51.58 50.35 50.37 52.52 51.20 42.34 44.83 48.07 47.74 48.27 49.60 45.99 46.28 48.26 45.97 43.93 40.84 41.15 38.19 40.61 43.36 42.41 41.05 39.36 39.36 38.11 38.41 38.77 41.67 42.60 40.35 40.62 43.41 45.38 46.97 47.96 48.05 49.70 50.55 50.87
56.24 56.29 56.55 56.56 49.76 47.61 50.69 54.19 52.71 50.79 38.02 42.05 45.13 46.98 47.69 48.66 45.61 48.78 48.79 47.26 44.73 41.03 40.03 40.28 43.14 42.34 40.98 39.74 40.79 36.36 41.72 41.11 39.77 38.18 35.46 42.27 34.99 42.22 44.44 45.70 45.36 47.09 48.22 49.35 50.67
55.95 55.68 55.84 53.18 46.66 49.57 51.58 53.39 51.38 47.59 31.00 43.19 44.53 50.21 47.16 45.56 45.65 46.77 48.75 47.94 41.68 41.72 42.76 40.21 41.51 41.60 40.49 41.57 42.01 40.84 42.78 40.92 40.38 38.31 37.44 39.17 36.70 42.01 44.39 43.39 45.50 48.20 48.77 47.88 49.48
55.60 55.30 55.49 52.69 49.72 50.37 50.88 51.17 47.75 37.43 31.00 41.16 45.36 44.37 43.52 43.60 43.89 46.07 46.60 48.30 46.93 43.36 41.97 41.55 44.00 43.94 42.99 44.09 43.65 44.59 42.36 40.59 38.23 37.98 32.58 38.70 37.49 39.01 42.08 42.69 44.69 46.84 47.79 48.27 48.60
56.12 55.90 54.49 53.72 49.11 52.45 49.50 45.98 36.19 31.41 41.47 39.52 40.96 43.10 41.77 40.46 41.52 42.24 41.76 40.16 37.51 35.03 34.54 37.50 39.13 43.02 44.50 41.21 42.63 42.43 37.98 31.78 31.09 30.77 31.57 37.76 36.96 40.22 43.61 45.94 45.52 45.61 46.27 45.87 48.13
54.86 55.82 55.43 50.37 50.71 51.01 46.15 40.10 31.43 37.27 37.60 43.09 42.34 41.41 38.87 40.98 41.00 41.23 40.19 37.67 42.48 38.43 34.53 32.41 33.53 40.26 44.00 42.69 40.77 39.53 38.96 33.35 27.06 29.24 32.78 37.81 33.74 39.72 44.24 44.76 44.33 44.86 45.21 46.57 47.72
53.90 50.59 48.02 48.23 49.89 47.54 42.68 32.10 33.59 37.63 40.65 39.98 40.21 36.71 37.25 40.35 40.11 38.59 37.84 38.27 42.00 42.63 37.83 36.86 34.32 43.45 44.97 44.79 42.80 39.00 36.49 40.23 34.33 36.99 32.20 35.78 39.51 43.65 46.21 43.14 42.00 42.25 43.12 43.64 45.84
49.30 47.67 46.19 47.28 47.35 45.17 38.91 35.16 37.88 40.27 38.71 40.85 35.76 38.53 35.04 36.26 36.61 35.45 35.41 42.49 41.88 41.54 44.23 40.19 32.19 41.23 43.11 44.34 43.10 41.12 41.69 33.48 35.05 27.13 25.86 32.89 35.03 36.39 41.61 38.00 40.55 41.02 41.85 42.17 45.03
46.44 42.70 47.16 45.38 47.21 41.98 34.31 36.00 40.45 41.64 38.53 37.96 38.12 36.30 37.19 33.59 34.38 34.11 34.64 36.40 38.59 37.27 41.20 39.90 37.58 35.27 38.18 36.42 35.21 35.67 33.35 34.36 35.48 33.60 27.09 26.00 31.79 37.51 37.92 39.72 38.46 39.13 41.83 42.33 44.50
40.49 35.83 44.60 45.09 38.31 34.93 34.12 36.95 40.68 36.80 37.57 37.29 38.68 36.01 34.27 33.65 31.70 34.32 35.10 35.04 38.77 38.15 33.54 38.20 36.57 28.29 30.18 36.73 38.67 37.22 35.35 32.74 25.31 23.80 26.42 23.77 22.65 38.47 40.04 38.65 38.72 40.38 41.77 43.26 44.35
36.05 34.85 40.29 40.48 28.56 26.50 30.62 33.46 36.48 34.76 35.01 34.78 34.26 36.08 35.23 33.23 28.59 32.36 33.54 38.54 37.46 35.75 33.01 36.14 30.37 23.26 25.79 30.35 34.00 31.39 32.78 32.40 31.64 29.49 22.85 19.71 23.18 37.04 37.38 37.64 39.94 39.96 42.21 43.45 44.41
33.76 30.00 32.85 34.37 32.22 29.30 28.28 29.55 30.63 36.42 35.58 35.37 34.19 35.17 32.73 30.62 33.36 29.82 31.56 36.12 36.79 36.78 41.54 39.48 32.93 28.55 21.66 25.61 31.20 27.38 29.70 31.39 30.00 23.43 24.33 25.00 27.09 32.44 35.05 36.03 37.94 39.91 41.63 42.60 44.01
34.11 32.38 33.29 25.82 29.70 30.57 30.05 30.03 29.21 30.80 34.92 33.91 32.25 32.82 31.37 28.40 29.30 29.13 31.64 32.17 35.68 38.24 36.82 34.64 27.61 29.45 29.77 30.52 30.58 29.61 28.99 29.39 27.48 28.31 24.11 27.07 28.08 32.39 34.96 35.16 36.90 38.87 40.43 41.26 42.45
32.20 30.78 31.01 30.42 31.08 27.55 28.97 27.90 30.55 31.88 32.15 30.16 30.43 32.31 32.09 28.99 30.03 27.63 30.55 31.52 31.01 33.97 33.71 34.27 26.84 29.39 26.17 29.57 29.35 26.97 29.22 29.80 29.89 30.11 30.10 30.63 30.07 36.77 36.82 38.16 37.65 38.37 39.45 39.87 41.55
36.95 37.66 30.67 30.67 28.53 25.70 27.36 30.59 31.83 32.50 32.54 34.84 33.32 31.83 30.57 32.09 34.75 35.67 35.65 35.29 34.36 31.72 30.33 30.20 28.25 26.08 21.47 27.54 26.86 22.93 28.23 29.08 29.58 31.11 30.78 26.89 32.20 36.61 35.37 36.48 37.72 38.56 39.61 40.05 41.70

GFSSW_sfc_wetblb_018.txt.gz
Wetbulb
59.48 59.59 59.62 59.56 59.68 60.07 60.15 61.01 61.76 61.89 61.93 62.25 62.79 63.15 62.95 63.47 62.65 56.68 52.39 59.62 62.47 66.99 66.69 61.51 61.26 61.42 61.92 61.19 62.64 61.97 54.03 51.73 53.37 53.86 55.22 58.85 58.33 58.75 60.62 61.98 59.27 60.44 61.01 60.46 62.92
60.76 60.41 60.15 60.11 60.43 60.78 61.02 61.26 61.45 61.59 61.95 62.49 62.75 62.53 62.51 63.30 57.15 53.57 61.32 64.13 64.84 66.07 60.49 58.97 56.92 59.00 57.43 57.20 59.51 56.79 52.47 51.85 56.05 56.94 55.98 57.70 57.73 58.58 56.28 58.33 58.32 59.33 60.78 59.41 63.82
60.61 60.57 60.46 60.34 60.40 60.60 60.79 60.82 60.99 61.55 62.17 62.57 62.42 62.17 62.67 62.26 53.07 53.96 66.01 64.32 64.24 63.04 60.46 60.10 59.15 57.97 53.58 56.81 55.07 54.51 49.86 53.04 52.96 55.76 57.50 56.99 56.33 57.52 56.26 56.44 58.60 58.75 60.70 59.78 61.96
58.90 59.44 60.26 60.07 60.03 60.28 60.52 60.71 60.96 61.62 62.12 62.00 61.87 62.86 62.74 57.39 45.72 54.91 65.07 63.95 63.64 61.10 59.00 57.95 57.08 53.96 52.50 50.62 54.67 51.00 52.94 53.90 54.15 55.41 55.65 54.71 56.43 55.58 56.72 58.01 59.52 59.58 60.57 60.47 59.70
58.82 59.41 60.13 60.20 60.12 60.22 60.38 60.61 61.05 61.55 61.75 61.49 61.97 63.08 58.73 50.67 51.59 57.03 63.91 62.17 58.59 57.98 56.87 56.00 53.79 54.07 50.26 51.61 52.76 51.82 52.20 53.48 54.76 54.80 55.22 55.73 54.26 54.32 54.91 57.83 59.24 58.97 57.45 58.42 59.30
59.54 59.81 59.97 59.98 59.97 60.03 60.23 60.44 60.89 61.30 61.27 61.29 62.07 62.03 54.36 47.20 54.54 58.07 57.61 55.53 56.90 57.07 56.50 57.09 55.16 55.83 52.84 51.77 51.16 52.22 52.12 52.29 53.10 53.29 54.36 52.81 53.18 54.06 54.28 57.20 57.11 57.59 57.63 58.38 58.84
59.43 59.45 59.52 59.39 59.39 59.77 60.17 60.48 60.69 60.65 60.66 60.89 61.79 58.07 51.27 49.29 56.66 56.04 56.06 54.89 56.17 56.57 55.59 57.59 57.62 55.07 54.10 51.07 53.21 52.17 49.08 51.17 51.77 52.50 52.15 53.74 50.41 51.33 55.19 55.84 54.80 54.95 55.91 57.53 58.78
58.78 58.76 58.81 58.99 59.37 59.32 59.62 59.92 60.09 60.32 60.63 60.65 61.30 55.71 49.20 54.84 57.17 54.76 55.66 53.70 55.74 56.81 56.57 58.09 58.32 55.64 53.61 54.42 52.16 48.84 48.82 45.84 50.36 51.09 52.04 51.64 46.40 51.81 54.09 53.50 53.58 54.00 54.94 56.03 56.91
58.06 58.03 58.12 58.37 58.64 59.21 59.18 59.24 59.09 59.29 60.06 61.01 56.32 53.32 48.55 59.29 51.63 52.87 54.63 51.92 53.95 56.09 57.17 56.74 56.63 53.29 52.62 48.81 46.58 48.04 42.95 45.03 46.69 49.75 49.80 50.25 47.45 51.15 52.67 51.82 51.66 52.24 52.78 53.64 55.04
57.81 57.73 57.55 57.71 58.25 58.74 58.82 57.92 60.03 60.35 59.79 59.10 56.04 48.96 51.09 49.20 51.69 52.03 53.73 54.21 53.21 54.01 53.07 52.55 52.46 49.28 49.28 47.20 40.70 42.39 42.56 43.83 43.97 47.16 47.82 46.56 46.30 49.31 51.17 51.23 51.54 52.30 52.73 53.06 53.51
57.50 57.75 57.73 57.78 57.98 58.05 57.26 58.16 54.37 52.91 53.34 47.72 48.29 47.04 49.38 52.95 52.62 51.43 52.73 53.02 53.32 51.29 46.69 49.87 46.31 44.68 45.91 47.05 46.20 44.71 43.34 42.94 45.82 48.27 46.70 45.99 46.37 48.24 50.54 50.86 50.95 51.81 52.25 52.56 52.90
57.31 57.26 57.50 57.66 57.87 56.75 57.59 54.29 52.96 53.87 48.74 51.45 51.09 51.30 52.66 54.01 49.66 50.24 53.54 48.65 48.17 45.39 47.69 47.10 44.69 47.12 45.59 45.45 44.98 44.91 43.19 43.28 45.91 47.23 46.30 46.18 45.85 48.98 50.43 50.97 51.81 51.84 52.18 53.07 54.24
57.01 56.91 57.07 57.61 57.16 56.93 56.75 54.46 57.23 55.32 49.60 48.71 50.77 51.13 51.21 52.26 48.83 49.28 50.93 48.99 46.51 44.57 45.33 44.10 45.64 46.24 44.86 44.64 43.47 44.64 43.24 43.83 43.54 46.44 47.71 47.03 46.09 49.40 51.21 51.15 52.14 52.70 53.60 53.89 54.14
56.72 56.54 56.59 56.28 54.94 56.09 56.42 57.85 58.64 55.14 47.87 46.40 48.21 49.90 50.90 51.57 47.79 51.15 51.44 49.41 47.31 44.67 45.18 45.64 46.96 44.87 44.75 44.20 45.44 42.57 46.49 44.97 44.15 43.47 41.26 46.65 39.38 47.10 49.60 49.61 50.25 51.86 53.05 53.30 53.56
56.22 55.83 55.81 53.31 55.36 56.06 54.93 57.28 57.70 55.11 39.76 46.56 48.10 53.12 51.82 48.51 48.59 49.72 51.50 49.50 45.55 45.41 45.53 45.08 44.78 44.61 44.02 45.02 45.75 44.13 46.90 45.33 44.79 43.52 43.47 43.87 40.72 45.12 48.78 47.69 48.70 50.70 50.65 51.65 52.79
56.67 55.25 55.87 57.10 57.44 55.71 57.55 56.92 55.16 45.67 38.40 44.98 49.23 47.63 48.21 48.15 47.87 50.06 49.63 50.48 49.08 45.52 46.08 45.83 48.74 46.21 46.03 46.50 46.42 47.22 45.57 46.05 45.17 43.14 37.34 42.97 42.33 43.12 45.53 46.29 48.71 49.63 49.67 49.60 49.33
56.55 57.26 57.70 57.12 54.99 57.37 57.43 53.97 45.15 41.40 46.11 43.40 44.14 46.35 45.77 45.54 46.62 47.65 46.05 46.82 45.08 41.32 42.11 44.52 44.56 45.90 47.40 44.99 47.26 47.01 44.48 38.38 37.30 37.22 37.47 42.79 40.79 43.45 47.60 48.03 46.90 46.38 47.24 47.34 47.79
55.16 55.42 54.98 52.13 55.17 55.84 54.39 48.93 39.60 40.85 42.03 45.79 44.88 44.94 43.34 44.90 44.75 45.11 44.57 43.30 46.54 45.38 42.58 40.11 38.90 43.54 47.27 44.84 42.65 43.89 42.71 37.65 30.92 33.66 36.27 42.09 37.20 42.68 48.82 50.25 49.05 48.78 48.10 46.51 45.89
54.01 57.90 52.89 51.63 54.27 55.29 51.50 43.72 41.36 42.01 42.61 42.44 43.53 41.32 41.91 43.57 42.46 42.25 43.15 43.16 41.84 42.96 40.19 39.40 39.01 46.28 44.96 46.55 45.71 42.61 39.89 43.44 37.97 39.22 34.88 38.19 42.20 46.08 47.84 47.52 44.20 45.02 45.60 43.59 45.38
58.95 56.10 49.56 50.88 53.98 54.31 49.25 40.64 42.20 42.47 40.68 42.61 39.22 42.00 38.59 39.87 39.46 39.52 38.80 42.15 40.67 40.85 43.51 41.18 33.06 40.71 44.07 44.68 45.57 40.93 41.85 33.24 35.65 27.11 27.82 34.52 35.28 36.44 40.30 38.92 40.70 41.00 41.95 43.62 45.31
56.78 50.96 49.46 50.77 54.95 51.27 44.10 42.54 43.58 41.96 42.04 40.75 40.22 38.35 39.43 37.66 37.96 35.74 37.60 38.10 39.76 39.34 41.54 39.61 37.09 37.58 39.19 36.38 35.22 35.40 34.88 35.99 35.83 34.04 27.36 25.49 30.93 40.25 37.17 38.07 38.20 40.39 42.50 43.70 45.19
51.97 43.88 49.48 51.15 46.76 45.39 42.33 41.04 41.99 39.30 41.92 40.89 41.80 39.78 37.80 36.50 34.10 35.14 36.26 37.89 39.75 39.55 35.20 38.07 34.69 29.84 33.08 37.90 38.74 37.47 35.35 34.21 27.82 26.00 29.21 27.63 26.56 38.52 38.27 39.06 40.70 41.39 43.07 44.38 45.50
45.32 44.32 48.25 47.98 38.31 36.83 37.70 38.40 39.02 38.75 38.71 38.59 37.49 38.80 38.75 35.79 31.88 34.66 36.45 39.90 39.88 38.31 35.46 37.53 33.12 26.77 31.49 35.48 38.31 34.02 34.85 34.36 33.38 32.35 25.80 23.46 26.58 39.40 39.37 39.57 41.58 41.79 42.93 43.84 44.68
44.58 40.61 42.14 44.00 41.95 38.36 36.24 35.03 34.93 40.18 37.94 39.00 37.49 38.40 35.88 33.96 36.21 33.76 34.25 37.38 39.27 38.26 40.69 39.77 34.35 30.81 26.37 29.49 33.70 30.22 31.81 33.44 32.24 26.29 27.33 27.81 29.91 34.69 37.17 38.52 40.72 41.55 42.51 43.23 43.89
44.28 38.91 39.17 37.03 37.34 37.89 37.66 36.01 34.34 34.11 38.36 37.92 35.89 35.71 33.60 31.11 32.21 31.89 34.68 35.57 37.46 38.43 38.34 37.23 30.05 32.59 32.83 33.09 32.71 31.58 30.92 31.79 30.30 31.19 27.19 30.06 30.21 34.44 37.16 38.95 40.27 41.95 41.97 42.00 42.82
41.86 41.25 40.93 38.77 37.58 36.77 36.12 34.79 34.48 34.86 35.14 33.52 34.19 34.37 34.54 31.51 32.75 30.70 33.49 34.34 33.53 36.33 35.11 36.76 28.16 31.24 27.98 31.48 31.67 29.34 31.79 32.31 32.45 32.63 32.19 32.10 31.50 38.55 39.90 41.56 40.34 40.65 40.75 40.64 42.08
45.43 44.82 42.16 35.00 36.06 36.26 36.01 35.54 34.59 35.49 36.01 37.83 35.85 34.47 33.81 35.23 37.83 38.92 39.23 38.57 37.37 34.84 34.00 33.25 30.62 27.59 23.73 30.55 30.11 25.96 31.39 32.23 32.74 34.04 33.31 29.18 34.27 38.51 38.16 38.25 39.33 40.15 40.66 40.80 41.94

GFSSW_sfc_wetblb_021.txt.gz
Wetbulb
59.52 59.58 59.30 59.28 59.71 60.14 60.40 60.71 61.78 62.20 62.26 62.46 62.95 63.39 63.20 63.81 63.02 60.90 54.35 61.09 64.15 69.03 67.06 61.89 61.34 60.33 61.39 60.35 62.77 62.74 53.40 50.64 52.54 53.27 55.14 58.20 57.53 60.14 62.26 60.99 61.93 63.26 62.71 63.18 64.66
60.67 60.39 60.11 59.94 60.06 60.44 61.05 61.31 61.55 61.76 62.10 62.63 63.07 62.88 62.77 63.47 60.06 54.72 62.30 63.79 65.64 68.64 60.33 58.39 57.02 58.32 57.03 56.73 58.68 55.90 51.86 51.10 54.66 56.42 55.28 56.69 56.78 57.72 57.29 57.67 57.37 60.28 62.79 63.05 63.73
60.55 60.73 60.57 60.56 60.54 60.69 60.87 60.95 61.08 61.64 62.27 62.90 62.78 62.45 62.94 62.59 55.40 55.57 65.09 64.46 65.60 65.66 60.05 60.08 59.04 57.45 54.59 56.86 55.59 54.18 50.87 52.95 54.42 54.39 55.82 54.80 54.67 56.56 56.01 55.34 56.14 56.21 58.98 62.33 62.34
58.76 59.09 60.25 60.17 60.06 60.33 60.64 60.76 61.03 61.58 62.28 62.45 62.24 63.07 63.31 60.92 48.12 56.90 65.22 64.21 65.75 61.70 59.11 57.60 57.08 54.64 53.40 52.16 55.34 51.71 53.06 53.70 54.17 54.93 54.80 53.32 55.11 54.00 55.47 55.96 58.09 58.76 60.88 60.91 61.72
59.25 59.81 60.14 60.28 60.26 60.39 60.58 60.78 61.08 61.72 62.02 61.92 62.20 63.46 61.11 54.22 53.15 59.59 63.09 62.38 59.41 58.67 57.04 56.30 54.17 54.21 51.66 52.44 53.25 52.30 53.14 54.12 54.71 54.65 54.76 55.00 53.56 53.59 54.15 56.37 57.47 58.31 58.72 59.64 60.54
59.85 59.97 60.06 60.14 60.14 60.25 60.45 60.62 61.00 61.45 61.52 61.51 62.27 62.02 57.67 49.62 55.99 58.68 57.32 56.11 57.16 57.56 56.82 57.30 55.88 56.43 53.26 52.73 52.03 53.80 53.50 52.89 53.53 53.39 53.92 52.38 53.16 54.32 54.65 56.72 56.24 56.82 56.94 57.58 59.04
59.31 59.35 59.34 59.54 59.64 59.72 60.19 60.59 60.85 60.85 60.84 61.38 61.92 59.72 53.17 52.29 57.60 57.44 56.68 55.60 56.80 56.87 55.85 57.82 58.10 55.17 55.59 52.35 55.11 53.17 49.97 51.71 52.46 52.74 52.54 54.27 50.87 51.48 55.47 56.37 55.33 55.33 55.76 56.59 57.21
58.82 59.08 58.90 59.03 59.25 59.65 59.62 59.74 59.92 60.24 60.55 61.13 61.71 58.36 51.00 56.91 58.64 55.84 56.44 54.81 56.29 57.17 56.55 58.52 58.75 56.10 54.08 55.12 52.26 50.27 50.58 46.84 51.57 52.39 52.46 51.77 46.50 51.69 54.55 54.30 53.32 53.89 54.17 54.78 55.86
58.46 58.33 58.16 58.26 58.66 59.13 59.46 59.61 59.75 59.91 60.34 61.26 58.27 54.65 51.00 57.59 53.42 54.72 56.20 53.21 54.47 56.37 57.60 56.89 56.63 54.13 53.74 50.25 48.11 49.23 45.46 46.91 47.83 51.53 50.08 50.01 47.91 52.09 53.71 52.79 52.30 53.03 53.65 54.18 54.63
57.99 58.08 58.06 57.88 58.21 58.81 59.01 58.81 60.04 59.84 59.97 58.52 55.93 51.33 51.40 50.53 53.38 53.27 55.10 54.41 53.66 54.08 53.94 53.42 52.81 50.53 50.84 48.50 42.94 44.23 44.10 45.17 45.00 48.55 49.69 48.18 47.71 50.46 52.13 52.24 52.07 52.68 53.35 53.94 54.23
57.92 57.83 57.92 58.02 58.30 58.44 57.91 58.94 56.60 54.61 55.57 50.41 50.18 49.62 51.74 54.22 54.55 52.72 53.82 53.68 53.79 52.58 48.73 51.81 47.26 46.25 47.74 48.46 47.34 46.17 44.54 43.95 46.86 49.70 48.21 47.32 47.97 50.11 52.57 53.02 53.08 53.62 53.73 53.97 54.31
57.58 57.54 57.47 57.77 58.07 57.34 59.36 55.41 55.01 56.62 50.38 53.32 52.99 53.09 54.09 55.03 50.79 51.88 54.65 50.31 49.78 47.86 49.72 48.80 47.23 48.81 47.88 47.58 46.18 45.96 45.13 45.80 48.92 50.39 49.03 48.26 47.88 50.78 52.58 53.52 53.89 53.29 53.11 53.85 54.91
57.35 57.17 57.15 57.53 57.34 56.85 58.41 56.44 59.68 57.98 52.49 51.08 52.99 52.53 52.30 53.90 50.32 50.55 52.38 50.87 48.92 47.50 47.95 46.76 49.33 48.53 46.49 46.75 46.21 46.95 45.80 46.01 45.42 47.73 49.25 48.62 47.25 49.67 52.18 53.76 53.35 53.67 54.04 54.07 53.92
56.94 56.70 56.63 56.52 54.65 59.51 57.70 59.79 61.06 58.27 49.76 48.01 49.73 51.70 53.15 52.82 49.44 52.98 53.18 51.01 49.67 47.25 48.13 48.30 49.41 46.53 47.24 46.41 47.57 44.46 47.89 46.86 45.67 44.77 41.63 48.22 39.75 47.12 49.75 50.55 50.92 51.62 51.70 50.58 50.67
56.56 56.10 56.04 51.94 57.71 57.81 57.29 60.27 60.90 57.51 41.96 48.18 50.29 55.41 53.35 50.63 50.63 51.36 53.47 51.35 47.72 48.07 47.19 46.52 46.97 46.15 45.27 46.18 47.38 44.66 47.89 46.33 46.14 44.64 44.41 45.02 42.52 46.79 49.48 47.99 49.13 49.41 48.93 48.62 48.68
57.80 56.32 56.33 58.66 59.37 58.34 60.60 60.15 57.68 47.67 40.74 47.05 50.92 49.38 50.04 50.98 50.60 52.41 51.39 52.97 51.87 47.85 48.65 47.64 50.81 48.02 46.94 47.99 47.90 48.54 47.41 47.58 47.40 45.84 38.98 44.58 43.59 44.34 46.44 47.47 47.77 48.88 49.63 49.77 48.03
56.34 56.61 59.44 59.10 57.29 59.53 60.51 56.35 47.59 43.08 47.92 45.75 46.54 48.14 47.65 47.38 48.09 49.07 48.44 48.17 46.03 42.81 44.04 46.69 46.34 48.07 49.83 46.66 49.32 47.88 43.97 38.13 38.38 38.63 39.26 45.26 41.63 44.35 48.46 48.18 47.13 45.59 46.61 46.70 46.87
55.10 55.83 54.74 54.89 59.13 58.75 57.47 50.97 42.21 44.08 45.28 48.00 46.58 46.37 45.35 46.44 46.51 45.60 45.86 45.14 46.09 45.05 43.86 42.28 40.74 45.28 47.53 44.98 43.56 44.23 43.10 37.66 31.97 35.30 37.71 42.69 37.64 43.09 49.53 48.79 47.48 45.70 44.91 44.90 45.98
53.42 58.74 55.12 53.72 57.55 58.27 53.58 45.94 44.57 45.01 44.53 44.14 45.55 43.37 44.48 45.51 42.98 42.92 44.65 44.44 43.07 43.22 40.18 39.82 40.74 46.58 45.14 46.51 45.54 43.07 39.53 42.99 38.13 39.31 35.26 38.77 42.36 46.08 47.49 44.33 42.72 41.99 42.58 43.18 45.01
60.03 55.77 50.77 53.52 57.78 56.61 50.77 43.66 44.09 43.61 42.80 43.73 41.85 43.17 40.75 41.55 40.97 40.63 40.14 42.55 41.43 42.82 44.54 41.57 33.45 41.46 44.04 43.66 45.47 43.39 41.50 34.06 37.04 28.89 29.23 35.46 36.21 36.89 39.81 38.67 39.97 40.29 41.35 43.17 45.45
58.52 52.70 49.75 53.83 57.07 52.80 47.89 45.51 43.84 42.66 44.04 42.73 41.10 39.46 40.86 39.13 38.42 37.44 39.08 41.06 41.33 41.20 43.20 40.46 37.02 38.03 42.67 38.83 37.51 37.89 36.34 37.36 37.24 35.35 29.54 27.84 32.42 41.56 38.37 38.84 39.03 40.41 41.43 42.73 44.92
54.71 47.08 50.02 52.60 48.82 48.98 46.00 43.19 42.64 40.73 42.77 43.09 42.95 41.24 39.36 38.22 36.55 37.01 37.98 40.35 41.76 41.80 37.06 39.06 35.57 31.58 35.09 40.35 40.28 38.33 36.83 35.98 30.32 28.72 31.84 29.76 28.83 40.40 40.16 40.33 40.78 40.54 42.06 44.29 45.33
48.02 46.85 50.08 50.29 42.94 40.79 41.92 39.81 41.30 40.11 40.33 39.96 39.31 40.07 39.82 37.61 34.44 36.66 37.94 42.60 41.53 39.56 37.32 38.50 35.07 29.56 34.59 37.50 39.48 36.70 38.04 37.03 36.08 34.66 27.88 24.11 27.60 40.54 40.55 40.20 40.61 40.52 42.09 43.72 44.44
48.06 44.98 45.62 46.58 45.48 42.09 39.78 38.23 37.73 41.67 39.59 40.57 39.56 40.23 37.96 36.50 38.28 36.10 36.75 39.23 40.70 39.52 40.78 39.67 34.62 31.88 28.58 32.63 36.22 32.88 34.95 35.87 33.75 28.61 28.80 29.35 30.95 35.73 37.74 38.07 39.63 41.27 42.46 43.32 43.85
48.39 42.47 43.03 41.82 40.78 41.22 40.87 38.81 37.22 37.08 40.08 40.19 38.10 37.48 35.97 33.84 35.79 35.05 37.13 37.96 39.51 40.32 39.44 38.09 31.74 34.79 35.14 35.35 34.87 33.47 32.73 33.18 31.48 32.17 27.95 31.05 31.32 35.16 37.32 38.45 40.09 41.72 42.40 42.23 42.62
46.60 45.31 44.42 41.62 40.41 40.29 39.08 38.18 37.43 37.06 37.68 36.39 36.15 37.46 37.16 34.72 35.81 33.75 36.06 36.44 35.71 38.67 37.11 38.55 30.92 33.19 29.93 33.41 33.19 30.81 33.32 33.84 33.60 33.63 33.32 33.52 32.57 38.53 39.99 40.70 40.70 41.10 41.03 40.83 41.70
48.80 47.26 46.49 37.62 39.47 40.00 39.34 38.83 37.55 37.93 38.40 39.73 38.24 36.88 36.56 38.02 40.16 40.55 40.69 40.05 39.05 36.72 35.66 35.20 33.32 30.50 25.55 32.22 31.53 27.32 33.02 33.90 34.25 35.11 34.14 30.12 34.62 38.52 38.23 39.34 39.76 40.20 41.22 41.33 42.32

GFSSW_sfc_wetblb_024.txt.gz
Wetbulb
59.42 59.53 59.20 59.16 59.73 60.17 60.57 60.57 61.60 62.23 62.37 62.59 63.07 63.69 64.10 63.96 62.90 60.37 56.63 60.50 64.48 70.40 69.04 63.93 62.54 63.66 62.44 62.80 64.48 65.79 52.50 48.10 49.67 51.58 54.01 56.92 54.55 57.42 59.50 58.25 58.52 58.41 60.23 60.71 64.07
60.70 60.30 60.08 59.98 60.10 60.42 61.01 61.40 61.61 61.75 62.15 62.67 63.25 63.29 63.02 63.72 60.44 57.47 63.58 66.73 69.05 70.27 60.92 58.55 58.98 59.65 57.89 59.95 60.05 56.37 51.52 51.60 54.27 54.00 52.79 54.52 53.82 54.90 53.87 54.52 54.42 54.92 58.65 61.15 63.08
60.24 60.66 60.49 60.42 60.43 60.58 60.86 61.02 61.25 61.54 62.26 62.88 63.69 63.39 63.24 62.27 58.53 57.25 67.22 68.38 68.68 66.44 60.30 59.17 59.12 58.72 56.76 59.19 56.46 55.95 51.00 54.59 53.46 54.97 54.63 53.70 53.00 54.52 52.13 50.97 54.81 54.07 54.66 58.25 59.62
58.95 59.39 60.17 60.23 60.17 60.34 60.66 60.95 61.18 61.64 62.33 62.91 63.21 63.22 63.54 59.78 48.29 58.26 67.82 67.41 68.43 63.10 58.88 57.47 57.74 57.25 56.56 53.22 56.72 52.07 53.77 53.24 54.90 55.06 54.20 52.44 54.07 51.86 52.30 52.71 55.57 54.95 55.72 56.33 58.84
59.96 60.19 60.36 60.47 60.45 60.59 60.75 61.00 61.33 61.82 62.33 62.60 62.62 63.51 60.13 55.69 52.67 60.97 66.98 66.69 59.81 58.64 56.80 56.71 54.63 56.96 52.51 53.52 53.35 50.96 52.16 53.91 55.01 54.43 53.69 54.16 52.12 52.03 52.41 54.72 55.33 55.60 55.65 54.87 56.37
59.99 60.02 60.20 60.20 60.21 60.31 60.59 60.91 61.27 61.70 62.09 61.88 62.53 62.21 58.42 50.15 56.37 58.40 56.85 56.49 56.76 57.46 57.57 57.84 55.74 56.19 52.45 52.54 51.66 53.07 52.55 52.13 52.23 52.16 52.61 51.36 51.64 52.30 52.79 54.69 54.06 54.22 53.61 53.79 54.02
59.63 59.80 59.74 59.60 59.68 60.02 60.19 60.67 61.09 61.17 61.31 61.56 62.55 59.19 54.61 51.50 57.38 57.57 56.81 55.97 56.73 56.39 56.05 57.80 57.55 54.91 54.92 52.51 55.48 53.70 48.58 50.22 51.17 51.53 51.93 52.67 48.44 49.17 52.93 54.16 53.13 52.64 51.61 53.10 53.94
59.17 59.19 58.97 58.96 59.17 59.58 60.15 60.34 60.60 60.90 61.10 62.04 62.42 57.49 50.64 56.93 58.56 55.74 56.52 55.19 56.86 58.10 57.81 60.08 58.65 55.96 54.25 54.83 51.38 48.60 48.74 44.65 51.29 52.25 52.80 50.62 43.62 51.11 52.14 51.10 50.56 50.66 49.91 51.14 51.73
58.58 58.64 58.56 58.38 58.62 59.24 59.74 59.93 60.43 61.20 61.29 61.95 57.66 56.08 50.48 59.01 53.73 54.83 56.45 53.48 54.99 56.64 59.79 56.44 57.50 54.98 55.07 49.32 46.55 48.20 42.23 45.11 47.30 51.34 51.52 49.12 44.65 50.06 52.03 50.78 49.62 49.37 49.46 50.12 50.25
58.31 58.22 58.20 58.30 58.52 59.02 59.46 59.47 60.65 59.75 59.21 58.56 56.26 51.08 51.40 50.64 53.68 53.66 56.03 54.88 53.94 54.77 54.44 54.46 52.97 49.50 49.34 47.12 40.45 41.99 41.74 43.25 42.48 46.97 48.25 46.72 46.12 48.94 50.44 50.63 49.98 49.64 49.30 50.08 50.60
58.01 58.00 57.90 58.08 58.41 58.85 57.79 56.47 55.35 54.08 55.48 50.74 50.62 50.37 52.13 54.04 54.86 52.90 54.31 53.69 53.82 52.72 48.87 53.61 46.67 44.26 46.09 46.85 45.92 44.21 42.61 42.00 45.50 49.54 48.02 46.72 46.74 48.34 50.52 50.67 50.30 50.68 50.78 50.71 51.26
57.77 57.68 57.72 57.80 58.49 58.28 57.04 56.46 55.06 56.44 49.96 54.11 53.25 53.31 54.36 55.03 50.92 52.09 54.74 50.35 51.21 47.42 50.46 48.26 44.95 48.45 48.62 48.22 46.63 45.66 43.88 43.62 47.10 49.70 46.74 45.52 45.13 48.19 50.24 50.47 50.16 49.40 48.16 48.37 48.66
57.65 57.37 57.29 57.80 57.49 54.87 58.23 56.71 60.15 58.79 51.87 51.08 53.49 52.56 52.34 54.39 50.56 50.63 52.48 51.41 48.92 47.41 48.35 45.95 48.65 49.85 47.14 46.72 45.51 45.46 43.92 44.02 43.34 46.38 47.15 45.51 43.68 46.79 48.94 49.67 48.92 47.44 46.82 46.29 45.68
57.01 56.79 56.72 56.58 54.86 59.44 57.03 59.86 61.33 59.31 48.12 47.55 50.26 52.01 53.55 53.22 49.61 53.72 53.69 50.93 49.93 47.08 47.69 47.17 49.61 47.21 46.94 45.44 46.45 41.64 47.23 45.51 44.50 42.08 37.04 45.09 34.56 42.87 46.36 45.92 45.90 45.16 45.19 45.19 45.00
56.63 56.15 56.51 53.80 57.09 56.98 57.63 60.78 61.30 57.40 41.23 48.56 50.35 56.30 53.43 50.77 51.26 51.42 54.29 51.98 47.19 47.14 47.58 45.44 46.65 46.02 44.30 45.05 46.83 43.18 47.55 45.24 44.72 42.05 40.81 42.09 38.00 42.20 46.33 43.50 44.16 45.42 45.65 43.65 44.46
57.38 57.68 56.80 57.40 59.08 58.53 60.71 60.27 57.42 46.52 39.29 47.04 51.17 49.62 50.00 50.98 51.01 52.74 52.42 54.47 53.75 48.44 48.53 46.64 50.45 48.67 46.37 48.35 48.44 48.29 46.09 44.33 42.99 40.95 34.86 41.12 40.60 40.14 42.30 42.70 41.61 42.07 42.27 42.22 43.22
56.32 57.28 58.33 59.15 56.18 60.08 60.21 56.09 46.51 41.89 48.29 45.85 46.84 48.29 47.87 46.97 48.07 48.64 48.10 45.65 42.35 39.17 42.13 45.96 46.68 48.30 48.85 43.96 48.91 46.24 40.71 33.53 33.38 33.60 34.42 41.87 38.06 39.38 42.47 41.84 40.04 39.61 40.30 41.54 42.24
55.30 55.24 57.88 55.73 59.35 59.88 57.56 50.36 42.17 45.31 45.32 48.52 47.03 46.55 45.31 45.73 46.51 44.40 45.68 43.84 43.79 41.83 40.34 39.82 39.03 45.02 46.59 43.79 41.14 40.68 39.94 33.87 27.64 30.11 33.23 40.16 33.76 39.57 42.69 41.15 41.10 41.45 41.33 41.31 41.52
53.34 58.60 54.83 53.78 58.82 58.40 52.95 44.90 42.66 44.37 44.34 43.56 45.99 43.58 44.67 45.69 42.65 42.81 43.58 43.64 42.42 41.81 36.05 37.15 39.78 45.68 44.56 45.67 44.13 40.89 36.66 38.91 34.44 36.48 31.88 35.09 39.17 42.71 40.74 39.19 39.57 39.88 40.52 40.21 41.25
57.74 53.77 51.36 54.09 58.70 55.84 49.87 44.04 42.68 43.38 43.54 44.15 42.33 42.89 40.88 41.38 40.53 40.10 40.96 42.15 41.40 42.22 43.00 39.25 31.08 39.95 43.56 44.48 43.64 41.42 41.67 32.26 32.91 25.09 24.06 31.00 31.72 32.77 34.32 35.80 38.16 38.32 38.93 39.79 41.56
56.55 53.01 50.20 54.42 55.96 52.35 46.21 44.23 42.13 42.85 44.68 42.35 41.39 39.91 41.16 38.94 38.13 37.47 39.28 40.61 41.73 41.19 41.95 39.40 35.19 36.87 39.39 38.23 35.76 36.44 34.49 35.49 34.39 31.78 24.33 23.60 28.59 37.14 35.56 36.94 37.15 38.53 39.20 39.71 40.68
54.95 47.71 51.11 52.53 47.78 48.31 44.62 44.28 42.72 41.27 43.28 42.87 43.08 41.13 39.44 38.53 37.05 37.08 38.24 40.37 42.14 41.22 35.74 38.34 33.69 28.77 33.36 39.65 40.59 37.85 34.65 34.84 28.28 26.52 28.13 24.57 25.53 38.83 37.87 38.70 39.43 39.15 39.53 40.22 41.85
48.95 48.33 52.50 51.11 41.93 40.69 42.16 40.56 42.04 40.87 40.53 40.91 39.92 40.17 39.90 37.93 34.73 37.44 38.20 42.19 42.03 38.99 35.98 37.12 32.46 25.76 32.07 35.91 38.83 36.37 37.67 37.47 34.61 31.69 26.05 22.45 25.03 39.14 38.94 38.49 39.52 38.78 38.85 40.47 41.78
49.35 45.45 46.99 47.24 46.31 42.67 40.19 39.05 37.93 41.90 39.99 40.93 39.97 40.48 38.44 37.07 38.89 36.24 37.00 40.48 41.59 39.57 40.55 38.72 32.58 29.49 24.96 29.57 33.96 31.17 33.80 34.93 32.60 25.41 25.99 26.54 28.72 33.76 35.95 36.59 38.18 37.97 39.16 40.10 40.83
48.46 42.62 44.29 41.51 40.85 41.31 41.31 40.01 38.30 37.88 40.14 40.62 38.61 38.20 36.11 33.75 35.63 35.65 37.67 38.26 40.04 41.02 39.09 37.49 29.96 32.80 33.74 34.35 33.74 32.20 31.72 32.23 30.01 30.38 25.53 28.40 29.57 33.47 35.86 35.98 37.03 38.56 39.72 39.88 40.29
46.55 45.66 45.38 41.74 41.22 40.88 39.59 38.70 38.63 37.38 38.34 37.37 36.41 38.63 37.42 34.47 35.79 33.29 35.88 35.73 35.25 38.81 37.02 37.82 29.35 32.23 29.28 33.05 33.04 30.60 32.62 32.59 32.55 32.64 32.03 32.06 30.66 36.83 37.84 38.02 37.70 38.52 38.92 38.87 39.60
49.09 48.47 46.27 38.42 41.01 40.07 39.44 39.42 38.73 38.66 38.89 40.21 38.99 36.93 36.47 38.09 39.34 39.29 38.99 38.65 37.89 35.66 34.57 33.85 31.79 29.09 23.74 31.28 30.37 25.09 31.90 32.90 33.19 34.28 32.97 27.49 32.28 36.91 36.27 37.28 37.31 37.77 38.92 38.65 39.44

GFSSW_sfc_wetblb_027.txt.gz
Wetbulb
59.21 59.30 59.25 59.08 59.71 60.19 60.52 60.78 61.44 62.06 62.24 62.61 63.09 63.74 64.15 63.80 62.88 59.21 54.54 59.22 63.79 70.73 69.59 62.34 62.15 59.88 59.02 56.32 58.71 56.47 44.81 42.19 44.05 46.39 49.02 52.36 50.37 53.43 53.84 53.29 55.39 54.98 56.56 58.77 62.04
60.24 59.92 59.91 59.92 60.03 60.52 61.11 61.28 61.37 61.56 61.94 62.70 63.23 63.33 62.86 63.56 58.70 55.73 62.42 67.45 69.48 70.35 60.29 56.80 55.40 55.84 52.07 53.16 54.57 49.77 44.22 45.12 49.96 48.96 47.52 50.71 50.47 50.89 49.96 49.04 50.05 51.70 53.83 58.89 61.27
60.19 60.38 60.28 60.26 60.25 60.42 60.73 60.81 61.00 61.40 61.92 62.72 63.79 63.31 63.08 62.20 55.80 55.33 67.50 68.21 68.44 67.78 59.91 57.30 56.63 56.39 50.95 52.13 50.75 49.18 44.64 49.88 51.04 51.27 52.97 50.38 50.16 52.44 48.67 46.73 48.65 50.17 53.08 56.65 57.82
59.03 59.52 59.94 60.03 59.92 60.10 60.54 61.00 61.04 61.57 62.18 63.03 63.22 62.95 62.99 58.04 45.18 57.05 67.72 67.02 67.97 64.48 59.18 55.89 54.40 51.21 48.88 47.98 51.57 46.40 50.86 51.06 51.61 53.27 52.07 49.74 51.69 49.33 49.76 49.89 51.57 51.89 51.33 53.41 56.52
59.98 59.98 60.06 60.21 60.22 60.31 60.60 60.89 61.18 61.70 62.23 62.80 62.55 63.14 57.88 51.97 49.41 59.49 66.90 64.33 62.78 57.32 55.86 54.46 50.90 49.77 46.70 47.59 48.83 46.12 48.12 51.70 51.99 51.54 50.54 51.08 49.16 49.12 49.66 51.60 52.43 52.99 53.24 51.66 51.39
59.63 59.63 59.69 59.81 59.94 59.93 60.22 60.64 61.12 61.66 62.30 61.99 62.16 62.60 55.10 46.91 53.87 58.27 55.46 54.62 56.02 55.23 54.43 54.36 52.11 52.46 48.29 47.95 46.95 48.71 49.58 49.49 50.04 49.64 49.51 48.83 48.27 49.21 50.12 51.24 51.47 51.15 50.82 50.60 51.14
59.23 59.30 59.30 59.32 59.52 59.73 60.22 60.53 60.68 61.00 61.34 61.19 62.16 58.55 52.28 48.61 54.03 52.78 55.22 53.40 54.69 55.51 53.78 55.13 54.43 50.94 50.19 47.63 51.26 49.53 46.16 46.53 47.46 48.64 48.17 49.59 45.43 46.22 49.35 49.59 48.78 48.24 44.87 46.38 48.47
58.92 59.02 58.88 58.68 58.97 59.34 59.88 60.50 60.79 60.72 61.02 61.90 61.91 53.82 45.69 55.00 53.68 54.06 54.65 53.31 54.48 54.97 56.11 56.00 55.17 52.89 50.00 50.54 49.18 43.79 42.92 38.56 46.22 48.71 50.02 46.89 40.17 47.52 49.92 47.61 47.30 47.24 46.32 47.89 48.91
58.54 58.51 58.46 58.61 58.64 59.00 59.64 60.07 60.49 61.16 61.85 62.06 54.98 51.27 46.23 58.20 52.08 52.38 53.15 52.36 53.11 53.71 54.60 56.13 54.62 49.77 48.97 43.87 39.88 41.50 35.78 38.51 41.25 46.34 48.70 45.42 41.19 46.09 48.78 48.14 46.36 45.23 45.43 49.09 48.86
58.11 58.17 58.08 58.10 58.51 59.09 59.63 59.55 60.71 59.99 58.71 57.64 56.39 46.31 48.80 48.85 52.35 52.40 50.92 53.42 52.55 52.18 52.03 51.59 47.85 43.27 42.45 40.46 33.97 35.06 35.16 37.79 37.13 43.15 45.56 43.65 42.71 46.17 47.18 47.49 46.11 46.77 46.92 46.40 46.59
57.99 58.11 58.13 57.89 58.24 58.81 57.02 52.70 51.53 49.30 51.99 47.53 48.64 48.68 50.56 51.21 52.60 50.45 52.47 51.49 51.60 48.92 42.65 47.36 41.10 37.40 39.78 41.88 42.25 40.64 38.47 38.12 41.54 46.13 43.48 41.94 42.49 45.30 47.58 45.68 43.27 42.75 42.40 42.86 44.11
57.97 57.98 57.81 57.80 58.03 57.54 54.46 52.87 51.65 51.91 45.82 52.73 51.82 51.78 53.67 52.83 49.20 49.87 52.33 47.09 46.87 42.32 44.93 41.94 38.64 44.51 47.25 46.14 43.92 42.13 39.58 38.44 42.60 46.63 44.06 41.82 42.03 44.18 43.80 42.99 42.66 41.80 41.47 42.30 43.66
57.81 57.79 57.42 57.54 56.95 52.76 53.96 53.88 56.67 54.99 46.30 49.89 52.42 51.16 51.37 52.66 48.59 48.04 50.59 48.05 44.56 43.11 43.25 39.41 44.41 48.48 46.35 44.19 42.78 41.26 39.33 39.07 39.31 43.01 43.13 40.83 38.35 41.63 43.05 43.45 44.03 42.78 42.24 42.90 42.86
57.28 57.21 57.20 56.87 53.10 55.06 53.32 56.89 57.13 54.93 40.80 45.08 49.45 50.84 52.40 52.56 47.96 53.04 52.04 48.90 46.31 43.13 43.88 42.21 46.90 46.19 43.81 42.83 42.74 37.23 44.27 43.55 42.00 38.33 32.60 41.21 30.41 37.98 39.91 40.63 41.68 39.37 38.62 40.10 41.76
57.63 56.45 56.54 55.99 50.75 52.65 54.93 56.35 55.47 52.27 34.06 47.71 49.28 54.76 51.51 49.03 49.49 50.51 52.53 49.33 43.99 44.53 42.56 40.63 42.68 42.57 42.07 43.28 44.87 40.40 45.03 42.54 41.77 37.44 35.32 37.47 33.13 34.58 40.29 36.28 35.88 36.98 38.62 38.64 41.00
57.10 57.04 56.49 54.68 52.91 54.19 56.44 55.60 52.58 40.90 33.81 45.71 50.33 48.45 47.39 48.87 48.82 51.59 50.59 50.60 49.82 45.55 44.70 42.80 46.97 45.25 43.71 45.87 45.50 46.12 42.80 39.70 37.72 35.32 29.18 35.89 36.04 33.79 34.81 33.74 34.96 36.07 37.73 38.47 39.36
56.33 56.50 55.90 56.51 51.75 54.78 54.88 50.61 39.80 35.14 46.23 43.77 45.09 46.59 45.24 43.75 45.23 45.97 43.54 39.54 36.58 33.56 35.24 41.21 42.77 45.77 45.39 41.15 44.12 40.57 34.02 27.38 27.98 28.23 28.81 37.50 34.00 31.12 33.95 35.94 36.52 36.57 37.01 38.10 38.66
55.04 54.95 55.08 53.62 53.95 54.38 51.69 43.79 34.74 42.99 42.16 47.47 45.81 44.56 42.61 42.69 43.17 42.31 41.95 38.31 40.05 37.11 33.71 32.14 33.32 42.33 42.46 40.79 37.23 36.45 34.73 28.50 23.67 24.44 28.55 36.46 29.59 32.22 36.50 37.56 37.54 37.98 37.62 38.11 38.35
53.94 52.49 49.21 47.82 54.09 52.20 46.49 37.36 35.49 39.10 41.66 41.10 42.89 39.66 40.87 43.86 39.40 39.55 38.43 39.12 38.08 37.34 30.90 31.36 34.76 40.26 43.42 42.97 40.45 36.37 31.17 35.07 29.33 30.50 25.67 30.16 32.99 34.23 36.32 35.65 36.49 36.56 37.37 36.85 37.86
50.06 46.31 43.89 48.42 52.48 49.50 42.24 39.04 36.60 41.13 42.03 42.19 37.65 39.24 35.64 36.82 35.74 34.24 36.78 39.50 39.24 39.95 38.28 33.55 27.15 36.43 41.57 41.72 40.62 36.64 38.26 29.26 27.25 20.56 18.41 24.93 27.55 29.45 31.00 32.76 36.12 36.82 37.41 36.88 37.59
50.09 45.11 44.85 47.05 49.71 44.98 37.93 36.59 39.29 41.97 42.85 39.81 37.83 37.63 37.44 34.80 34.34 33.16 36.32 38.42 40.23 39.01 38.51 33.78 30.18 30.92 34.96 33.54 31.27 32.20 30.14 30.92 29.50 26.55 19.54 17.74 23.41 31.64 30.67 34.81 35.73 37.42 38.57 38.45 38.17
45.81 39.23 45.20 45.64 39.72 37.37 34.66 40.11 43.13 40.66 41.69 40.89 39.86 38.22 35.58 35.50 33.36 33.65 36.07 37.05 40.67 38.80 33.30 33.77 28.98 23.54 28.52 35.64 38.46 34.69 30.68 30.43 21.02 22.69 23.46 18.25 22.76 34.38 35.61 37.32 37.86 37.64 38.66 37.89 38.93
38.53 38.52 44.51 44.19 33.29 31.73 35.88 39.03 39.56 39.99 38.70 39.42 38.23 38.42 37.21 34.80 30.65 34.26 36.92 40.82 39.98 37.07 33.17 33.66 26.45 18.80 26.19 31.78 35.41 32.03 33.79 33.15 30.61 25.95 19.78 16.45 24.23 37.71 37.12 36.90 38.13 37.70 36.54 37.21 38.78
40.99 37.28 39.47 38.73 36.34 34.74 33.55 34.90 35.40 40.03 38.67 39.12 37.78 38.24 35.70 33.67 34.93 32.66 34.61 39.81 39.76 38.29 42.04 37.04 28.34 24.23 19.18 24.69 30.04 27.42 30.67 31.82 28.31 15.78 22.87 24.54 26.92 32.00 34.20 35.34 36.74 34.34 35.00 36.45 37.85
39.70 34.48 37.43 31.67 34.11 34.11 33.90 36.05 35.27 34.98 37.11 37.11 35.43 35.93 33.45 29.70 31.67 32.10 34.93 35.20 38.20 41.39 37.37 33.60 26.05 28.57 30.40 31.83 31.85 30.59 30.18 30.67 28.05 28.37 22.29 26.98 27.77 31.88 33.75 32.31 33.43 35.81 37.45 37.84 38.44
38.81 36.37 36.12 33.85 34.92 33.72 34.23 32.24 35.66 34.79 34.88 34.31 33.69 36.53 34.10 30.20 31.87 29.90 32.67 31.37 31.38 34.98 33.09 32.84 25.14 28.40 26.60 30.97 31.04 28.70 30.70 30.57 30.32 30.32 29.73 30.09 28.55 33.49 35.59 35.76 35.94 35.85 36.91 37.13 38.02
41.03 41.24 38.35 35.75 33.55 32.46 32.11 34.36 36.31 36.20 36.26 38.13 36.22 33.42 33.02 35.30 35.44 34.57 33.99 33.84 32.81 30.90 30.51 29.60 26.75 23.75 17.55 28.46 28.05 21.83 28.59 30.20 30.46 31.29 30.15 25.41 30.30 34.29 34.51 35.63 35.57 36.50 37.18 37.33 38.40

GFSSW_sfc_wetblb_030.txt.gz
Wetbulb
59.28 59.24 59.38 59.04 59.51 60.13 60.35 60.76 61.08 61.95 61.98 62.36 62.98 63.43 63.41 63.48 62.75 57.77 53.61 58.50 62.77 70.85 69.45 61.41 61.17 60.00 58.24 54.41 57.18 53.80 42.44 41.01 42.82 44.12 46.19 49.93 48.65 51.60 51.88 48.54 50.17 53.52 52.36 57.06 59.86
59.87 59.68 59.72 59.74 59.86 60.28 60.70 61.10 61.39 61.34 61.67 62.29 62.97 63.15 62.61 63.40 57.65 54.57 62.12 67.34 69.42 69.77 58.25 55.92 53.99 54.86 50.79 52.38 53.68 48.69 41.84 42.35 47.46 47.44 46.13 48.98 48.63 49.32 48.67 47.39 46.69 48.45 51.92 58.57 60.46
60.07 59.98 60.22 60.21 60.32 60.42 60.59 60.66 60.84 61.09 61.80 62.50 63.42 62.98 62.56 61.79 53.97 53.77 67.59 68.18 68.35 66.34 59.08 57.34 55.01 54.99 49.80 50.72 50.14 48.34 43.27 47.11 49.81 50.40 51.22 49.05 48.50 51.11 47.49 45.31 46.74 47.13 50.95 51.81 56.68
59.13 59.50 59.83 59.92 59.90 59.98 60.31 60.69 60.83 61.21 61.96 62.49 62.98 62.79 62.53 56.88 43.14 55.46 67.01 67.27 68.55 63.06 57.56 55.33 53.23 49.64 47.56 46.75 50.35 44.88 49.40 49.81 50.69 51.99 50.54 48.40 50.11 47.76 48.30 48.51 50.37 50.27 49.90 50.94 56.10
59.10 59.87 59.97 60.01 60.10 60.20 60.46 60.73 60.95 61.35 61.88 62.18 62.06 62.89 56.60 49.53 47.99 57.27 66.88 63.71 58.58 56.55 54.22 53.24 49.52 48.39 45.21 46.43 47.24 44.80 46.71 49.93 50.74 50.36 49.32 49.65 47.63 47.07 48.24 50.35 50.51 50.97 50.89 49.21 49.09
59.11 59.42 59.43 59.48 59.60 59.79 60.06 60.35 60.69 61.22 61.90 61.44 61.75 62.07 53.52 44.46 52.55 57.63 55.32 53.53 54.85 53.82 53.48 53.03 50.67 51.02 47.05 46.10 45.38 46.93 48.13 48.30 48.89 48.34 48.30 47.35 46.65 47.51 48.84 49.25 48.63 49.20 47.73 47.44 48.35
58.95 58.88 58.90 58.83 59.06 59.47 59.84 60.29 60.57 60.78 60.82 60.88 61.69 58.50 50.28 47.18 52.81 51.99 53.89 51.95 52.99 53.97 52.65 54.00 53.25 49.21 48.73 45.83 49.81 47.92 43.59 44.64 45.77 47.41 47.13 47.80 44.14 45.30 49.08 48.04 46.74 45.42 45.81 47.50 47.78
58.55 58.63 58.63 58.56 58.66 59.02 59.60 60.10 60.66 60.82 60.96 61.58 61.48 52.87 43.98 53.46 52.53 52.65 53.15 52.26 53.15 53.40 54.40 53.96 53.47 51.46 48.39 48.83 47.48 42.69 41.29 37.66 44.30 45.38 48.35 45.54 38.93 45.68 47.75 46.19 45.06 45.10 44.20 46.12 46.33
58.14 58.16 58.14 58.29 58.43 58.78 59.30 59.73 60.10 61.22 61.55 62.02 53.76 49.32 44.75 57.31 50.34 50.96 51.60 51.03 51.71 52.30 52.87 55.42 52.83 48.24 47.45 42.04 38.15 38.72 34.05 36.33 39.86 44.39 45.65 44.02 40.32 45.04 47.06 46.24 43.61 42.47 42.61 44.52 44.59
58.03 57.94 57.78 57.68 58.09 58.72 59.29 59.25 59.73 59.15 58.64 56.96 55.81 44.49 47.14 47.32 50.68 50.82 49.48 52.01 51.05 50.78 50.37 50.05 45.76 41.49 40.20 38.88 32.70 33.93 33.48 36.16 35.83 42.15 44.75 42.35 40.02 41.67 44.06 43.48 41.51 39.60 39.52 42.34 43.07
57.97 58.00 57.78 57.51 57.77 58.24 56.14 52.35 49.61 46.87 49.84 45.95 46.78 47.05 48.90 50.05 51.18 48.99 50.89 50.26 49.97 47.04 41.31 45.93 40.21 36.38 39.06 40.62 40.78 38.80 36.83 36.70 39.50 44.53 42.10 40.08 38.94 39.59 40.97 40.56 39.45 38.45 38.90 40.08 41.41
58.09 57.97 57.64 57.42 57.64 57.05 53.28 51.03 50.13 50.05 45.17 51.01 50.17 50.31 52.02 51.29 47.27 48.80 51.35 45.69 45.22 40.74 42.85 40.60 37.13 43.25 44.86 44.65 42.67 40.61 37.43 36.67 40.79 44.70 41.95 39.86 37.25 39.64 40.25 39.65 39.70 39.00 38.57 39.60 40.58
57.46 57.61 57.36 57.36 56.64 52.29 52.80 52.61 55.83 53.27 44.36 48.27 50.83 49.52 49.93 51.28 46.91 46.85 49.08 46.42 43.08 41.48 41.44 38.07 42.80 46.85 45.05 42.49 40.81 38.94 37.33 36.97 37.91 41.35 40.68 38.79 35.41 37.36 40.42 39.71 39.73 39.20 39.70 40.17 40.13
57.02 57.01 57.08 56.96 52.85 53.33 51.99 55.55 55.74 53.30 39.83 43.64 48.06 49.71 51.05 51.16 46.68 51.61 50.60 47.51 44.90 41.23 42.10 40.32 45.37 44.74 42.26 41.18 41.20 35.70 42.55 42.06 40.62 37.34 31.20 39.65 27.86 35.03 37.02 34.93 35.74 35.27 35.52 37.79 39.28
57.22 56.63 56.55 55.76 49.32 51.43 53.87 54.88 53.37 51.03 32.68 45.90 47.79 53.21 49.94 47.61 48.45 49.32 51.22 48.54 42.47 43.31 41.67 39.08 41.07 40.95 40.57 41.70 43.52 39.73 43.50 41.39 40.37 36.21 33.70 34.75 31.25 32.13 35.02 32.20 33.46 34.87 36.23 36.28 38.32
57.02 56.91 56.21 53.84 51.68 52.87 54.50 53.76 51.53 38.54 31.81 44.21 48.69 46.75 45.87 47.19 47.02 49.86 46.81 47.64 46.68 42.94 42.41 41.98 45.48 43.75 42.34 44.09 44.02 43.67 39.61 36.87 35.89 33.69 27.02 32.80 33.31 31.25 29.89 31.24 32.73 34.54 36.34 37.27 37.17
56.15 56.05 55.56 55.47 51.30 53.47 53.65 49.46 37.01 34.48 44.71 42.15 43.37 44.92 43.67 42.08 43.13 44.14 40.55 37.29 34.70 31.82 32.50 38.47 41.37 43.27 43.77 39.57 41.82 38.74 32.76 26.33 26.89 26.33 26.94 35.25 31.07 27.87 32.23 33.72 34.04 34.88 36.04 36.81 36.91
54.93 55.19 54.60 52.34 52.44 53.04 49.69 42.55 32.19 40.93 39.75 44.97 43.30 43.04 41.11 40.84 40.84 41.32 39.90 36.60 37.93 35.32 32.06 30.08 31.42 37.90 41.57 38.86 35.00 34.83 32.96 26.67 22.51 22.84 26.23 33.82 26.75 28.52 34.79 36.26 35.46 36.18 36.80 36.99 36.60
54.19 50.78 46.37 46.47 52.52 51.09 45.24 36.50 35.85 37.10 40.16 39.52 41.93 37.89 39.00 41.29 37.50 39.18 35.83 36.37 36.20 35.64 29.91 28.25 31.29 38.47 41.53 40.83 38.10 33.93 29.70 34.02 28.09 26.83 23.86 27.53 27.99 32.72 34.23 33.83 33.87 35.11 36.10 36.09 36.54
49.11 43.39 42.62 46.39 50.90 47.98 40.82 36.98 34.83 39.52 40.82 40.83 36.33 37.59 34.58 34.43 33.93 32.79 34.55 37.52 37.37 38.02 35.74 31.20 25.56 34.16 38.09 39.94 37.90 34.62 36.60 28.98 26.36 20.69 19.03 22.86 24.28 26.47 29.29 30.88 33.57 34.69 34.14 35.53 36.85
49.07 40.80 44.12 45.09 48.99 43.38 36.18 34.58 37.28 40.73 41.91 38.71 36.43 35.54 34.42 32.98 32.22 31.23 34.29 36.57 38.89 37.20 36.09 31.43 28.71 29.64 33.01 31.49 29.87 31.25 29.27 29.70 28.27 24.73 19.64 16.67 22.60 30.37 30.36 31.59 33.36 34.99 36.98 37.55 34.93
42.53 35.47 42.70 44.52 38.16 33.31 33.12 37.88 42.49 39.38 40.36 39.49 37.80 36.06 33.84 33.61 31.53 32.03 34.47 36.08 39.23 36.97 31.68 32.04 27.73 23.10 27.13 33.37 36.40 32.63 29.22 28.08 20.94 21.04 21.71 17.21 20.64 34.24 32.15 35.59 36.34 36.07 36.82 35.96 37.10
36.70 36.75 42.34 42.34 32.67 30.25 34.05 37.56 38.32 38.35 37.15 37.88 36.62 37.13 35.62 33.04 28.97 32.67 35.27 39.76 38.50 35.68 31.68 31.57 25.05 19.11 23.81 30.66 33.24 30.29 31.73 31.44 28.86 24.09 18.78 16.75 23.68 34.21 36.59 36.28 36.77 33.29 34.15 35.50 37.19
39.50 36.25 38.31 36.00 33.50 33.16 31.92 33.02 33.52 38.43 37.23 37.58 35.87 36.69 34.02 31.94 33.44 31.41 34.08 38.73 38.55 37.10 42.09 36.17 26.39 23.32 20.50 23.94 28.02 26.27 29.33 30.03 27.35 15.81 21.61 24.03 27.57 32.27 33.54 34.07 33.27 33.65 34.76 35.05 36.35
36.48 33.78 35.47 30.93 33.13 31.84 31.98 34.93 33.41 33.41 35.58 35.68 33.95 34.46 31.99 28.47 30.14 30.44 33.28 34.03 36.95 40.54 35.90 32.17 24.91 26.82 28.44 29.94 30.19 29.50 29.05 29.45 26.55 27.18 21.66 26.53 26.45 31.02 33.56 31.68 32.62 35.02 35.77 36.47 37.26
37.69 34.87 34.12 32.10 33.12 31.68 33.86 30.94 34.45 33.50 33.50 32.88 32.55 34.93 32.39 29.48 30.93 29.77 31.79 30.41 30.10 34.13 32.50 31.36 24.22 26.39 24.42 29.27 29.17 27.33 29.63 29.86 29.57 29.51 28.77 29.24 28.06 34.02 33.28 33.81 34.06 34.32 35.33 35.95 36.86
39.39 39.63 36.23 34.59 31.34 31.40 31.23 32.85 35.04 34.90 34.55 36.32 35.71 32.77 31.63 33.67 34.45 33.44 33.02 32.81 31.74 31.03 29.61 28.63 26.09 22.77 17.65 25.93 25.73 21.05 26.86 28.65 29.41 30.66 29.35 24.43 30.05 31.98 32.63 33.82 33.91 35.06 35.58 35.61 37.00

GFSSW_sfc_wetblb_033.txt.gz
Wetbulb
59.14 59.10 59.23 59.18 59.44 60.24 60.29 60.48 60.83 61.56 61.84 61.99 62.55 63.14 63.02 63.38 62.53 56.83 52.56 57.71 62.04 70.86 69.36 59.58 59.31 57.43 55.86 53.50 55.83 51.91 41.78 39.84 41.91 42.76 44.12 48.14 47.29 49.71 50.21 46.79 47.98 48.64 48.90 53.74 57.91
59.46 59.61 59.64 59.69 59.98 60.19 60.39 60.66 61.10 61.37 61.36 61.96 62.65 62.70 62.32 63.02 56.86 53.48 63.07 67.36 69.11 69.93 56.61 54.54 52.83 53.51 49.91 51.21 52.40 47.07 39.10 40.22 45.35 45.91 44.65 47.59 46.92 47.96 47.61 45.97 44.67 46.45 48.57 51.26 59.59
60.16 60.14 60.06 60.18 60.37 60.46 60.45 60.60 60.71 60.87 61.37 62.24 62.79 62.29 62.14 61.39 52.76 52.29 68.07 67.88 68.56 65.03 57.57 56.31 54.73 53.36 48.69 50.24 49.40 47.18 42.43 45.76 48.36 49.51 49.76 48.06 47.26 49.36 46.63 44.63 45.85 46.16 47.98 49.41 56.15
59.05 59.30 59.67 59.98 59.99 60.02 60.14 60.43 60.56 61.01 61.70 62.17 62.20 62.50 62.30 55.76 41.91 53.57 67.83 67.63 68.95 61.04 55.41 54.09 51.94 48.29 46.37 45.67 48.45 43.96 48.06 48.26 49.67 50.59 49.06 46.86 48.75 46.75 46.54 47.63 48.60 47.79 47.30 47.66 47.09
58.58 59.52 59.80 60.01 60.11 60.12 60.27 60.48 60.77 61.19 61.60 61.65 61.59 62.46 55.83 46.84 47.05 55.47 66.70 61.67 53.32 54.50 52.70 51.95 48.57 47.16 43.93 44.94 46.11 43.32 45.40 48.52 49.46 49.26 48.37 48.24 45.78 45.47 46.75 47.15 47.75 48.09 47.44 46.53 46.72
58.36 59.30 59.50 59.67 59.67 59.75 59.85 60.11 60.44 60.97 61.42 60.97 61.32 61.55 52.07 42.69 51.64 55.62 54.04 52.41 52.94 52.90 52.31 51.92 49.37 49.79 45.86 44.76 43.79 45.65 46.32 46.45 46.46 46.68 46.75 46.02 45.35 45.87 46.83 46.06 46.09 45.78 44.79 45.12 45.60
58.95 59.05 59.19 59.15 59.00 59.19 59.49 60.01 60.33 60.47 60.35 60.63 61.29 58.27 47.87 45.90 52.22 51.08 52.51 51.04 51.56 52.47 51.21 52.45 51.88 46.87 47.19 44.02 48.15 46.57 42.15 43.43 43.86 44.94 45.90 46.27 42.40 44.22 45.33 45.88 43.91 43.00 42.87 43.96 44.46
58.65 58.82 58.89 58.72 58.59 58.75 59.20 59.72 60.26 60.36 60.59 61.11 60.93 51.75 42.66 51.74 51.58 51.40 51.89 51.10 51.98 52.02 52.90 52.48 52.12 49.75 46.53 47.30 45.03 41.51 39.60 36.19 42.59 44.27 45.70 44.72 37.49 42.04 44.65 43.92 41.37 41.22 39.98 42.44 43.24
58.17 58.34 58.28 58.25 58.17 58.46 59.05 59.37 59.99 60.89 61.02 61.54 52.45 47.55 42.44 55.99 48.91 49.84 50.07 49.47 50.44 51.06 51.49 54.56 51.43 46.43 46.11 40.30 37.04 37.39 33.44 34.52 38.97 43.58 44.77 43.28 36.75 40.30 43.76 42.15 39.83 38.10 39.01 41.61 41.87
58.07 57.94 57.73 57.52 57.69 58.36 58.92 58.90 59.38 59.12 57.94 56.59 54.54 42.69 45.92 45.91 49.12 49.70 48.34 50.55 49.45 49.47 49.07 48.47 43.93 40.02 38.79 37.40 31.14 32.81 32.37 34.57 34.73 41.23 43.14 38.07 36.01 38.27 39.79 39.59 37.48 37.06 37.38 39.13 40.62
58.04 57.90 57.70 57.19 57.45 58.01 55.45 50.93 48.09 45.58 48.00 44.01 45.10 45.48 47.43 49.79 49.91 47.75 49.77 49.23 48.49 45.90 40.33 44.16 39.65 35.44 37.97 39.70 39.53 37.32 35.40 34.96 37.91 42.64 40.16 36.08 35.49 37.00 38.55 38.05 37.19 36.97 37.39 38.58 39.89
58.10 57.91 57.48 57.00 57.13 56.63 52.49 49.30 47.95 48.02 44.28 49.46 48.88 48.89 50.49 49.76 45.41 47.98 50.39 44.63 43.93 39.52 41.35 39.61 36.03 41.51 43.24 43.02 41.16 39.05 36.03 35.14 39.08 42.95 40.17 35.60 34.62 36.91 38.02 37.52 37.67 37.46 37.12 38.19 38.90
57.42 57.54 56.93 56.77 56.53 52.22 51.81 51.48 54.57 51.58 43.47 46.95 49.43 47.96 48.54 49.72 45.41 45.95 48.23 45.03 41.79 39.93 39.91 36.90 41.20 45.40 43.55 40.73 39.67 37.57 35.67 35.32 36.55 39.71 39.38 35.95 32.85 34.07 36.49 36.54 37.37 37.30 37.80 38.23 37.93
56.69 56.59 56.77 57.03 52.58 51.99 50.75 54.01 54.37 51.66 38.99 42.12 46.39 48.34 49.63 49.66 45.79 50.42 49.41 46.19 43.63 39.93 40.52 38.97 43.92 43.31 40.81 39.67 39.81 34.30 40.94 40.57 39.28 36.21 30.55 37.25 27.06 31.51 33.04 32.87 34.04 33.36 33.82 36.34 37.50
57.00 56.05 56.29 55.73 49.48 51.04 52.67 53.84 52.14 49.41 29.83 44.47 46.31 51.87 48.33 46.45 47.07 47.74 49.97 47.97 41.38 41.77 40.88 37.43 39.64 39.79 39.22 40.19 42.04 38.74 42.37 39.85 38.64 34.47 31.83 32.49 30.01 29.53 32.04 30.55 31.52 33.50 35.29 35.35 37.44
56.70 56.69 55.62 52.76 51.10 51.69 52.94 52.29 49.59 36.78 29.52 42.58 47.03 44.99 44.40 45.81 45.17 48.23 45.02 45.41 44.61 41.69 40.12 40.32 44.35 42.03 40.89 42.64 42.07 41.29 37.57 35.52 34.31 32.02 26.18 29.97 31.39 28.68 29.73 30.91 31.36 32.76 35.78 36.03 36.12
55.68 56.13 54.96 54.45 50.42 52.35 52.39 47.90 36.45 31.60 43.08 40.80 42.01 43.35 42.32 40.32 41.65 42.51 38.93 35.24 33.24 30.67 30.66 36.21 39.36 41.65 42.17 37.99 39.93 38.01 30.82 24.99 25.28 25.37 25.77 32.80 30.05 27.13 31.36 32.79 33.73 33.20 34.79 35.75 36.18
54.92 54.93 53.87 51.30 51.45 52.25 48.70 42.49 31.37 39.25 38.35 42.79 41.74 41.91 39.49 38.78 38.83 40.50 38.89 34.72 35.94 33.26 30.13 29.04 29.90 36.54 41.12 37.41 33.20 33.47 31.31 25.17 22.57 21.89 24.05 31.32 25.66 27.81 33.25 35.00 34.97 35.27 35.19 35.53 36.24
54.26 49.13 43.94 44.99 51.65 50.02 44.67 35.35 34.16 36.44 39.10 38.40 40.62 36.71 37.39 39.21 36.45 37.30 34.18 34.04 34.26 33.26 28.64 27.23 28.90 36.52 39.22 38.47 36.56 31.93 28.45 32.22 26.96 24.43 21.72 25.46 28.25 29.68 32.58 32.47 32.63 33.88 34.55 34.95 35.81
48.68 41.31 41.52 44.86 49.93 46.63 39.84 36.87 33.81 38.03 39.54 39.37 35.68 36.03 35.42 33.61 32.47 32.82 33.27 35.72 35.99 36.26 34.16 29.55 25.32 32.31 36.48 37.86 36.38 33.09 35.32 27.68 25.04 20.97 19.22 21.36 22.64 26.09 28.29 29.64 32.27 32.08 32.79 34.22 35.44
48.31 37.95 42.47 45.14 47.05 42.15 35.99 33.47 35.82 39.64 40.57 37.44 35.18 34.23 33.25 32.22 30.87 30.59 32.57 35.40 37.62 35.38 34.45 29.88 27.36 28.37 31.26 30.04 28.29 29.90 27.94 28.20 27.33 23.75 19.91 16.64 21.99 29.31 29.60 31.57 30.87 32.10 33.81 34.49 34.15
40.16 35.22 41.47 43.64 37.99 31.27 33.21 36.16 41.73 37.93 39.31 37.88 36.56 35.00 32.93 32.20 30.31 30.83 32.91 34.88 37.87 35.44 30.17 30.72 26.80 22.59 27.31 31.89 33.37 31.10 27.70 27.08 21.54 20.79 20.21 16.49 19.96 32.29 32.05 32.85 33.31 33.06 34.12 34.84 36.22
36.06 35.75 41.36 41.30 32.38 29.47 32.65 36.13 37.16 36.99 35.65 36.46 34.95 35.72 34.32 31.92 28.00 31.67 33.88 38.54 37.31 34.38 31.29 30.50 24.56 20.10 23.84 29.05 31.70 28.75 30.01 29.75 26.25 23.05 17.67 16.41 21.54 31.43 30.84 32.86 35.18 32.49 33.14 35.12 36.63
38.43 35.52 37.08 34.53 31.85 32.15 30.53 31.28 32.30 37.19 35.91 36.27 34.40 35.19 32.65 30.48 31.85 30.30 32.87 37.51 37.26 36.04 41.39 35.19 24.51 23.67 22.12 24.65 26.86 24.93 27.78 28.80 26.13 16.01 19.50 23.02 27.42 32.45 33.77 32.32 34.79 34.58 33.23 35.04 36.14
35.35 33.21 33.92 30.54 32.12 30.46 31.19 32.98 31.33 31.55 34.32 34.51 32.48 33.40 31.17 27.74 29.22 29.78 32.51 34.16 35.75 39.40 34.40 30.73 23.92 25.15 26.69 27.68 27.83 27.54 28.06 28.27 25.68 24.79 21.52 25.62 24.76 30.19 32.65 33.57 33.92 32.94 34.81 35.44 35.89
36.74 34.23 32.05 30.89 31.42 30.06 32.50 30.33 33.63 32.51 32.18 31.32 30.81 33.54 30.89 28.01 29.80 28.79 30.91 29.59 29.86 32.82 31.75 30.15 23.60 25.14 23.78 27.79 27.62 25.97 28.39 28.40 28.73 28.64 27.80 28.28 27.20 34.58 35.34 31.23 32.38 33.28 34.23 34.53 35.81
38.11 37.93 35.96 33.79 30.31 30.50 30.60 31.91 34.32 33.92 33.39 34.84 34.01 32.04 30.27 32.13 33.48 32.20 31.82 31.71 30.92 31.44 28.58 27.56 25.40 21.81 16.55 24.45 24.44 21.27 26.29 27.75 27.89 28.99 28.98 24.43 30.00 31.11 30.66 31.87 32.05 33.20 34.26 35.47 36.22

GFSSW_sfc_wetblb_036.txt.gz
Wetbulb
59.19 58.81 58.93 59.30 59.39 59.77 60.22 60.37 60.61 60.87 61.81 61.87 62.29 62.91 62.90 63.28 62.55 56.59 53.40 56.75 61.69 70.67 68.49 57.46 56.36 54.88 54.37 53.23 54.56 50.02 41.16 38.78 40.56 41.77 42.70 46.61 46.23 48.40 48.93 45.54 46.21 47.30 47.85 49.19 53.38
59.33 59.27 59.37 59.69 59.90 60.04 60.17 60.40 60.62 61.16 61.29 61.63 62.46 62.62 62.16 62.80 57.92 54.63 62.98 67.80 69.47 68.86 55.70 53.67 51.86 52.63 49.28 50.42 51.02 45.34 38.16 39.31 43.99 44.28 43.51 46.91 45.50 46.60 46.36 45.04 44.64 44.66 47.73 48.77 52.76
60.11 60.02 59.93 60.01 60.22 60.10 60.22 60.37 60.57 60.68 61.15 61.97 62.45 62.00 62.00 61.01 53.92 52.84 67.06 67.77 68.80 64.10 56.16 55.22 54.03 52.21 47.53 49.21 48.54 46.02 41.47 44.51 47.28 48.36 48.26 46.75 46.48 48.17 45.40 42.82 42.30 42.24 44.26 46.00 46.67
58.97 59.15 59.47 59.91 59.87 59.78 60.01 60.22 60.31 60.69 61.49 61.98 61.84 62.44 62.19 54.58 41.48 52.01 66.67 67.67 68.25 58.56 53.89 52.68 50.77 47.34 45.33 44.45 46.66 43.41 46.93 47.29 48.66 49.33 47.78 45.78 47.43 43.37 42.21 41.90 45.34 44.93 44.70 45.31 44.73
58.38 59.13 59.69 59.90 59.79 59.88 60.10 60.25 60.45 60.92 61.39 61.48 61.38 62.02 54.88 45.76 45.94 53.41 65.52 59.73 52.73 53.52 52.42 51.31 47.82 46.26 42.94 43.88 45.02 42.00 43.94 47.31 47.98 47.15 46.35 47.16 44.90 42.49 41.98 44.53 44.38 45.28 44.83 43.97 44.51
57.75 59.25 59.53 59.45 59.44 59.56 59.65 59.87 60.11 60.66 61.02 60.67 61.21 61.27 50.70 41.75 50.62 52.64 52.00 51.51 52.00 52.72 51.31 51.12 48.25 48.46 44.75 43.47 42.21 44.32 44.96 45.03 44.75 45.48 46.14 45.02 44.41 43.88 42.91 43.99 42.85 42.81 41.96 42.33 43.01
58.40 59.24 58.96 58.96 58.96 58.98 59.24 59.67 60.01 60.27 60.33 60.52 61.13 57.39 46.15 44.68 51.01 50.59 51.37 50.10 50.71 51.60 49.90 51.04 50.43 44.99 45.59 42.17 46.66 45.12 41.29 42.04 42.37 43.16 44.24 44.58 40.30 38.44 42.37 42.47 40.51 39.26 39.18 41.78 42.17
58.43 58.67 58.61 58.68 58.60 58.66 58.95 59.44 59.86 60.11 60.18 60.85 60.71 51.57 41.08 50.20 50.85 49.86 50.74 49.73 51.25 51.18 51.85 51.41 51.18 48.55 44.78 45.76 43.39 40.09 38.49 35.10 40.87 44.39 44.78 43.30 34.39 38.85 41.94 40.17 38.10 38.36 37.83 39.93 41.53
57.93 58.13 58.23 58.25 58.27 58.34 58.78 59.17 59.72 60.33 61.02 61.09 50.74 46.00 40.50 55.27 47.90 48.84 48.76 47.96 49.74 50.54 51.03 53.84 50.50 45.08 44.86 39.14 35.71 36.27 32.43 33.17 38.02 43.35 43.11 40.33 34.04 37.91 40.19 39.62 37.47 36.22 37.11 39.61 40.01
57.82 57.89 57.78 57.67 57.55 58.03 58.60 58.62 58.63 58.99 57.23 56.18 53.29 41.92 45.53 44.58 47.86 48.81 47.26 49.52 48.36 48.24 48.39 47.46 42.59 38.93 37.95 36.16 30.16 31.87 32.63 33.46 33.92 39.95 39.00 35.00 33.37 36.38 37.99 37.57 36.15 35.56 35.98 37.89 39.15
58.02 57.89 57.70 57.30 57.23 57.54 54.62 49.56 46.72 45.06 47.15 42.21 43.63 43.97 46.00 49.05 49.05 47.44 48.94 48.14 47.39 45.01 39.32 42.32 38.93 34.54 36.61 38.10 38.10 36.25 34.20 33.51 36.62 41.04 36.31 33.48 33.47 35.07 36.94 36.10 35.79 35.47 35.94 37.09 38.42
58.01 57.91 57.70 56.99 56.84 56.50 51.64 48.55 45.74 46.32 43.23 48.13 47.72 47.66 49.31 48.49 44.20 47.48 49.35 43.72 42.67 38.35 39.97 38.80 34.77 39.87 42.03 41.63 39.82 37.65 34.49 33.55 37.60 41.45 36.57 33.51 32.41 35.16 36.24 36.07 36.24 35.85 35.12 36.34 37.53
57.46 57.58 57.17 56.63 56.44 51.81 50.46 50.46 53.64 49.80 42.84 45.78 48.16 46.59 47.37 48.24 44.14 45.73 47.30 43.85 41.00 38.81 38.46 35.87 39.82 44.15 42.20 39.51 38.47 36.23 33.91 33.69 35.28 38.46 36.17 33.54 30.53 32.33 34.79 35.31 36.60 36.21 36.75 37.79 37.53
56.68 56.65 56.50 56.81 52.31 51.03 49.46 53.05 53.15 50.12 37.49 40.43 44.89 46.98 48.34 48.33 44.61 49.30 48.91 45.11 42.60 38.67 39.28 37.85 42.47 41.94 39.54 38.34 38.60 33.38 39.35 39.36 37.99 34.67 28.79 35.09 26.46 29.46 31.61 31.79 32.74 33.21 33.12 34.72 37.27
56.46 55.79 56.21 55.86 49.29 50.21 51.41 52.87 51.14 47.77 28.34 43.06 44.99 50.75 47.12 45.71 46.13 46.77 47.81 47.22 40.47 40.23 39.67 35.85 38.19 38.93 38.14 38.84 40.69 37.75 39.73 37.50 37.01 33.39 29.69 30.78 29.52 29.45 30.63 29.48 30.68 32.48 34.04 34.42 35.10
56.57 56.06 55.46 52.03 50.03 50.55 51.82 50.76 47.73 36.35 28.41 41.06 45.53 43.76 43.16 44.53 43.61 46.51 43.42 43.96 42.93 39.89 39.31 38.47 42.59 40.27 39.44 41.44 40.74 40.00 36.14 33.98 32.85 30.68 25.43 27.85 29.58 27.85 27.13 29.80 30.79 31.77 34.38 35.01 35.63
55.79 55.79 54.74 53.49 49.44 51.34 51.05 45.77 35.92 30.51 41.69 39.32 40.65 42.18 40.98 38.94 40.20 41.07 38.26 34.14 32.77 31.36 29.74 35.24 37.57 39.29 40.98 36.39 38.27 36.62 28.96 24.73 25.20 24.98 25.49 31.04 28.81 29.37 31.35 31.74 33.13 32.32 32.62 35.19 35.22
55.17 54.83 52.52 50.14 50.35 51.07 47.49 41.79 28.89 37.23 37.30 41.14 40.55 41.00 38.31 37.82 36.96 39.52 37.59 33.35 34.27 31.72 29.07 28.73 30.52 35.51 39.23 35.57 31.85 32.25 30.10 25.04 22.86 21.61 22.88 29.45 25.47 29.15 32.21 33.65 34.43 33.82 33.42 34.38 34.90
53.92 46.66 42.35 44.07 50.65 48.98 43.80 33.89 32.38 35.71 37.92 37.58 39.61 35.83 35.96 37.58 35.49 35.95 33.53 32.84 32.94 31.74 27.07 26.10 27.92 35.07 36.73 36.36 35.13 30.35 27.65 31.17 25.75 22.85 20.75 23.90 27.91 29.48 30.82 31.45 32.50 31.86 33.16 33.54 34.55
46.62 39.91 40.80 42.92 48.86 46.00 40.11 37.04 33.30 36.92 38.58 38.21 34.89 34.97 33.97 33.32 31.36 31.53 31.51 34.62 34.68 34.76 32.49 28.24 25.07 30.89 35.07 36.22 35.13 32.03 34.19 26.59 24.16 20.73 19.43 20.52 21.97 25.65 27.29 28.94 31.10 30.86 31.55 33.03 34.42
45.38 38.11 41.59 42.18 45.91 41.66 36.14 33.35 34.86 38.79 39.44 36.55 34.75 33.39 32.92 31.67 30.16 29.39 31.16 34.46 36.54 33.72 32.61 28.74 26.42 27.09 30.13 29.03 27.50 29.23 27.47 27.37 26.33 23.30 20.12 16.89 22.34 28.11 30.81 31.17 30.47 31.23 32.50 33.58 33.77
38.12 35.49 40.70 42.43 38.14 30.01 32.85 34.90 40.91 36.86 38.62 36.75 35.59 34.31 32.43 31.35 29.03 29.58 31.99 33.74 36.56 34.15 28.71 29.19 25.66 22.82 25.71 29.80 31.81 29.69 26.85 27.08 21.76 20.84 18.91 16.00 20.34 30.96 30.39 32.04 32.50 32.25 33.50 33.47 34.65
35.24 35.09 40.69 40.64 32.29 29.24 31.51 35.03 36.26 35.84 34.64 35.27 33.53 34.47 33.24 30.77 27.39 30.69 32.81 37.21 36.02 33.25 30.04 29.63 24.19 21.01 24.97 27.77 30.58 27.40 29.19 28.07 24.73 22.64 17.15 16.47 22.22 31.15 29.16 30.14 31.47 31.99 32.65 32.75 35.04
37.30 34.05 35.95 33.24 30.71 31.83 30.18 30.19 31.34 36.01 34.76 35.17 33.11 33.76 31.32 29.12 30.84 29.59 31.50 36.22 35.95 35.27 41.25 34.55 24.04 24.02 23.15 24.38 26.21 25.38 26.64 27.48 25.27 16.34 19.95 22.29 26.96 30.46 30.33 30.49 31.53 33.15 32.00 32.87 34.68
34.87 32.73 33.12 30.67 31.26 29.76 30.33 31.83 30.46 30.84 33.10 33.28 31.11 32.31 30.37 26.75 27.90 27.70 31.71 33.04 35.04 39.08 33.06 29.74 23.78 22.92 25.13 26.61 25.93 25.68 26.54 27.06 24.67 24.07 22.11 27.75 24.45 30.06 30.26 30.26 32.05 31.73 33.02 33.43 33.68
35.53 33.64 30.98 29.78 30.36 30.43 31.53 29.89 32.66 31.83 31.38 30.24 30.08 32.37 29.76 27.45 29.41 28.28 30.28 29.15 29.52 31.35 30.36 28.94 23.25 24.37 22.85 25.94 25.86 25.25 27.72 27.83 28.12 28.27 26.60 27.81 26.90 34.11 33.88 29.12 30.53 31.25 31.79 32.63 34.75
37.01 36.46 35.79 32.44 29.48 30.38 30.05 31.10 33.76 33.29 32.36 33.66 32.20 31.11 29.24 31.06 32.08 30.95 30.91 30.62 30.05 30.94 28.61 26.70 24.79 21.31 16.86 23.00 23.74 21.49 25.59 26.69 26.91 28.03 27.97 23.79 29.19 29.52 28.76 30.89 30.69 30.86 32.56 33.93 34.63

GFSSW_sfc_wetblb_039.txt.gz
Wetbulb
59.12 58.83 58.90 59.10 59.31 59.59 59.97 60.26 60.41 60.63 61.36 61.88 62.25 62.92 63.20 63.27 62.70 58.76 53.18 58.18 63.70 70.79 67.87 58.61 58.70 57.43 57.85 58.01 57.75 53.44 49.29 45.63 46.49 46.66 47.51 50.38 50.18 52.21 52.31 50.66 50.34 49.91 48.97 50.03 53.52
59.33 59.10 59.30 59.42 59.66 59.92 60.19 60.30 60.35 60.69 61.17 61.53 62.32 62.84 62.39 62.88 58.51 54.25 63.70 68.20 68.98 69.08 57.14 55.88 55.13 56.00 54.23 55.33 55.32 50.76 47.13 45.13 47.98 48.91 49.03 50.28 50.00 50.18 50.61 47.80 47.86 48.30 49.77 50.41 52.36
59.88 59.77 59.81 59.70 59.80 59.99 60.19 60.18 60.37 60.63 61.03 61.83 62.43 62.31 62.36 61.72 53.81 53.59 67.12 68.20 69.35 65.49 57.72 56.68 55.73 55.31 52.76 54.22 52.47 50.03 47.71 48.25 50.10 51.01 50.89 49.58 47.61 47.66 47.52 45.13 45.14 44.33 46.25 48.18 49.67
59.04 59.17 59.41 59.48 59.68 59.91 60.01 60.10 60.28 60.57 61.34 61.87 61.91 62.48 62.20 56.75 45.24 52.91 68.44 67.69 67.48 58.79 56.47 55.40 54.03 52.78 50.47 49.58 49.57 48.78 49.61 50.02 51.46 50.66 49.26 48.29 47.67 44.78 44.82 44.38 46.51 46.52 47.05 47.87 48.03
58.17 58.87 59.48 59.60 59.71 60.08 60.05 60.10 60.32 60.67 61.16 61.42 61.30 62.16 57.12 49.24 48.62 53.17 64.60 59.67 54.20 56.02 54.09 54.22 51.43 50.82 48.64 48.36 48.71 47.53 47.68 49.29 49.60 48.78 47.99 47.57 44.80 44.04 43.25 45.32 45.99 46.49 46.57 46.41 47.30
57.59 58.58 59.36 59.39 59.70 59.52 59.46 59.70 60.18 60.54 60.99 60.95 61.24 61.57 54.01 46.20 52.47 52.98 52.23 52.73 53.11 54.75 53.45 53.65 51.71 51.80 48.94 47.62 47.16 48.05 47.86 47.29 47.22 47.10 47.81 44.69 43.17 45.50 44.47 45.19 44.50 44.94 45.08 45.77 46.37
57.45 58.59 59.05 59.37 59.04 58.74 59.05 59.40 59.83 60.22 60.26 60.59 61.20 57.22 49.47 47.72 53.23 52.43 52.38 52.08 52.63 54.44 52.52 54.24 53.88 50.17 49.62 46.98 49.02 47.79 45.35 46.12 45.49 46.81 46.81 46.49 42.06 40.16 44.16 43.71 43.06 43.16 44.20 45.19 45.69
57.58 58.44 58.76 58.89 58.45 58.55 58.82 59.23 59.67 59.95 60.21 60.95 60.73 53.13 45.35 51.22 52.93 50.90 52.16 52.24 52.81 53.67 54.01 55.57 54.30 51.45 49.04 49.43 45.86 43.63 43.43 41.69 43.98 46.85 46.73 46.55 38.92 41.03 43.47 42.50 41.70 42.53 43.36 44.43 44.96
57.73 58.15 58.52 58.15 58.06 58.18 58.54 58.98 59.56 60.14 60.89 61.46 53.87 50.29 45.46 55.90 49.60 50.77 52.00 50.49 52.52 52.86 53.88 53.85 52.64 48.08 47.90 43.81 41.02 41.30 39.40 39.56 41.59 44.70 44.97 44.21 38.41 40.25 42.36 41.67 41.11 41.59 42.55 43.70 44.64
57.87 58.04 57.81 57.40 57.44 57.67 58.29 58.50 58.45 59.10 57.11 56.37 52.89 45.82 47.70 46.26 49.46 50.02 51.52 51.52 50.13 50.99 51.05 49.85 45.76 43.52 42.27 41.78 36.75 37.84 38.91 39.34 39.10 43.06 42.25 39.37 36.97 39.51 40.79 40.61 40.43 40.96 41.72 42.65 43.61
58.09 57.86 57.52 57.14 57.08 57.29 54.64 50.30 47.60 46.88 49.25 44.61 45.54 45.05 46.81 50.42 50.62 49.56 50.87 50.83 50.73 47.62 44.26 45.47 43.23 40.70 41.94 42.81 42.11 41.12 39.70 38.92 40.77 43.05 40.20 37.32 37.16 38.69 40.29 39.92 40.11 40.78 41.41 42.18 42.94
57.81 57.68 57.48 57.03 56.67 56.37 52.13 49.16 46.81 48.45 44.81 48.77 48.29 48.58 49.99 49.84 46.31 49.08 51.22 47.17 46.23 42.76 45.08 42.97 41.22 44.06 44.36 43.91 43.22 41.67 39.64 39.01 40.91 42.50 40.82 36.45 36.36 38.68 39.79 39.83 40.70 40.93 41.27 42.10 42.94
57.66 57.79 57.35 56.50 56.22 52.45 51.29 51.51 54.20 51.79 44.20 46.82 48.96 47.73 48.92 49.43 45.98 46.98 48.92 46.94 44.52 43.13 42.74 40.96 43.68 45.38 44.22 42.93 41.53 40.44 39.02 38.42 39.34 40.39 38.23 36.42 35.61 36.11 39.00 40.23 40.76 41.57 41.93 42.44 42.70
57.25 57.08 56.37 56.37 52.64 51.67 50.23 53.86 53.76 51.76 38.52 41.71 46.14 48.70 49.37 49.40 46.17 50.13 48.87 48.03 45.60 42.56 42.61 42.64 44.61 43.67 42.88 41.65 41.72 38.39 41.78 41.46 40.27 38.90 35.66 38.13 33.30 34.11 35.55 36.47 37.65 39.25 39.05 39.63 40.46
55.65 55.76 56.19 55.85 50.27 50.22 52.05 53.37 52.61 48.31 30.82 43.61 46.23 51.91 48.43 47.27 47.24 48.11 47.82 48.50 43.48 43.48 43.92 41.29 41.58 41.83 41.88 41.85 43.68 40.64 41.17 39.65 39.97 38.02 36.25 35.22 34.52 37.17 34.64 33.37 35.84 38.07 38.98 39.76 40.70
56.45 55.53 55.16 51.96 50.14 51.39 52.10 51.97 48.19 37.49 30.83 42.34 46.53 45.07 44.78 45.12 44.47 46.43 44.18 45.00 45.39 41.54 43.00 41.52 44.29 43.21 42.67 43.21 42.71 41.33 38.63 36.96 36.50 35.32 31.34 33.51 34.79 36.73 32.15 34.46 35.71 38.22 38.97 39.85 40.57
55.55 56.01 54.48 53.11 49.18 51.60 50.95 46.64 37.41 32.32 42.66 40.32 41.81 43.68 42.21 40.52 41.27 41.87 39.27 35.79 36.33 36.22 36.62 38.68 40.24 41.25 42.77 40.33 40.78 39.12 34.25 31.99 31.34 30.90 31.88 34.58 33.18 37.84 36.09 35.58 37.86 37.84 38.93 40.10 40.40
54.96 54.99 51.35 48.66 50.13 51.12 47.97 41.65 31.35 37.63 39.04 41.89 41.64 42.14 40.25 39.09 39.16 40.39 39.07 35.38 35.96 34.99 32.88 33.10 33.95 38.41 40.02 39.31 36.79 36.17 34.69 32.01 28.67 28.37 29.33 31.72 31.76 36.80 36.78 37.61 38.73 39.12 39.10 39.05 39.72
53.28 44.41 42.46 43.73 49.92 49.04 43.50 34.56 33.49 37.87 39.31 39.29 40.88 38.34 38.54 38.77 37.68 37.75 36.49 35.23 35.52 34.88 32.64 31.05 32.25 36.90 37.57 38.54 38.66 35.12 33.05 35.83 29.67 28.17 27.84 30.47 33.24 36.22 35.09 35.07 35.97 37.53 37.85 38.47 39.17
44.13 40.50 41.15 42.00 47.69 46.63 40.54 36.92 36.07 37.70 39.17 39.33 37.09 37.49 35.86 36.91 34.72 35.39 35.04 37.26 35.94 36.04 36.08 32.24 30.46 33.83 36.95 38.70 37.21 36.47 36.69 31.09 30.42 27.33 25.14 28.40 27.98 32.47 31.71 33.52 35.17 36.05 37.14 38.00 38.97
41.66 39.47 41.94 41.29 45.88 42.86 36.65 35.03 36.14 39.11 39.93 38.05 36.91 35.54 36.25 34.77 33.56 33.07 33.56 36.25 38.40 35.24 35.71 33.14 30.82 32.27 34.35 33.22 32.78 33.35 32.15 30.35 31.14 29.70 27.44 25.01 30.03 34.46 34.72 35.83 35.44 36.31 37.55 37.96 38.64
37.81 36.69 41.19 43.00 39.08 31.37 34.15 35.89 40.75 37.59 39.21 38.03 37.19 36.54 34.94 33.37 31.93 32.42 33.68 35.85 37.58 36.37 32.51 33.08 29.32 28.45 30.96 33.24 34.38 33.90 32.09 32.10 30.50 26.79 25.01 24.51 27.23 35.60 35.29 35.75 36.18 36.93 37.20 38.18 38.35
35.40 35.62 40.61 41.01 33.82 30.97 33.01 35.58 36.72 36.42 35.38 36.21 34.97 35.79 35.06 32.67 30.55 33.18 34.88 38.14 37.24 35.60 32.53 33.24 29.05 28.40 31.03 32.26 33.99 31.60 31.76 29.57 28.44 27.76 24.51 26.17 31.11 34.94 34.36 34.14 36.01 36.30 36.85 37.78 38.07
36.79 34.45 36.06 33.28 31.20 32.98 31.98 31.88 32.54 36.32 35.51 35.62 34.31 34.99 33.31 31.33 32.57 31.42 33.48 37.16 37.27 37.33 40.19 35.74 27.71 29.28 29.69 30.63 30.77 29.52 29.92 29.81 30.24 25.92 26.83 28.38 33.22 36.18 34.71 34.84 36.30 36.54 37.18 37.15 37.48
34.78 33.15 32.80 31.85 32.06 31.00 31.63 31.78 31.12 31.45 34.10 34.45 32.78 33.53 31.94 29.44 30.39 30.24 34.01 34.99 36.23 41.11 34.99 32.95 28.35 26.57 27.45 28.01 28.21 28.62 29.18 28.84 27.90 30.05 28.63 32.73 29.74 34.02 34.90 34.98 35.99 36.49 36.08 36.37 36.78
35.60 33.87 31.15 29.98 30.92 31.12 32.75 31.19 32.03 32.63 32.60 31.57 31.27 33.37 31.69 29.62 31.13 29.89 32.20 32.46 32.29 34.40 33.46 31.02 28.14 27.57 25.95 28.10 28.12 26.88 29.39 29.12 29.43 30.47 28.10 30.29 30.06 36.98 37.54 35.82 34.70 35.73 35.34 35.32 36.65
36.39 35.55 36.19 31.65 30.17 31.01 31.40 32.16 34.28 34.13 33.24 34.54 33.36 32.33 31.07 32.75 33.75 33.52 33.18 32.24 33.11 32.84 31.00 29.86 27.97 24.90 23.51 24.78 25.71 24.75 27.66 29.96 29.33 30.12 31.12 27.59 33.68 34.28 32.91 33.95 34.76 35.09 35.49 35.68 36.25

GFSSW_sfc_wetblb_042.txt.gz
Wetbulb
59.33 59.35 59.45 59.32 59.33 59.28 59.81 60.01 60.50 60.66 61.13 61.85 62.26 62.98 63.47 63.53 62.92 62.00 54.46 60.16 63.60 70.74 68.64 60.58 60.54 60.33 61.97 61.62 61.67 58.04 56.07 52.36 49.66 49.16 50.95 53.59 51.94 55.03 55.08 53.21 52.71 53.21 53.13 55.06 59.82
59.44 59.16 59.36 59.47 59.63 59.96 60.27 60.29 60.35 60.58 61.27 61.57 62.22 62.86 62.67 63.24 61.28 53.91 63.57 68.42 69.65 70.60 58.74 58.36 57.11 58.59 58.76 58.46 59.67 56.70 54.75 49.40 51.72 53.12 52.19 52.77 52.39 52.83 52.72 52.44 51.64 52.41 54.48 56.62 59.61
59.73 59.55 59.40 59.64 59.92 59.94 60.07 60.20 60.44 60.67 61.16 61.77 62.36 62.67 62.37 62.05 56.70 53.50 68.22 69.36 69.91 67.24 59.51 59.23 58.21 57.64 55.79 57.79 56.40 55.07 52.47 52.35 53.07 54.22 53.44 51.99 50.91 51.56 52.02 50.39 49.34 48.96 51.12 54.49 56.69
59.26 59.51 59.49 59.49 59.94 59.92 59.94 60.27 60.42 60.76 61.31 61.90 62.06 62.54 62.52 60.25 47.36 55.35 68.33 66.83 67.60 59.92 58.44 57.43 56.84 55.08 54.42 52.81 54.10 52.18 53.11 52.95 53.31 52.05 51.70 51.02 51.58 48.80 50.07 48.53 49.83 50.34 51.68 53.23 53.68
58.30 58.81 59.26 59.58 59.77 59.99 60.14 60.29 60.33 60.84 61.25 61.41 61.47 62.28 60.20 52.83 51.20 56.42 65.07 62.56 57.28 58.13 57.16 56.23 54.49 54.39 51.79 52.70 52.36 51.33 51.54 52.21 51.71 51.75 51.67 51.71 49.31 48.12 47.19 48.61 50.21 50.72 51.39 51.73 52.48
57.68 58.17 59.17 59.55 59.64 59.60 59.81 59.71 60.20 60.63 61.04 61.09 61.42 61.43 57.46 49.10 55.44 56.69 55.56 54.90 56.31 57.57 56.45 56.63 55.00 55.24 53.24 51.51 50.81 51.71 50.83 50.18 51.50 51.48 51.08 49.58 48.00 48.98 47.06 48.85 49.01 49.55 50.02 50.87 51.01
57.39 58.32 59.15 59.23 59.20 59.26 59.34 59.51 59.92 60.42 60.61 60.68 61.18 59.20 53.11 51.15 56.52 56.59 55.44 54.86 55.02 55.86 54.30 55.68 55.04 52.06 52.54 50.35 52.21 50.99 48.16 49.77 50.23 50.62 48.94 50.96 46.93 45.48 47.32 48.22 47.81 48.20 49.05 49.02 49.13
57.19 58.36 58.60 58.70 59.15 59.05 59.08 59.23 59.67 60.02 60.40 61.06 61.01 57.28 50.29 54.76 57.15 54.26 55.44 54.53 56.06 56.87 56.88 56.81 56.95 54.24 51.77 52.92 50.04 48.33 48.49 46.30 48.29 50.05 49.22 49.66 45.52 45.86 47.42 47.40 46.69 47.20 47.85 48.02 47.69
57.64 57.97 58.02 58.71 58.82 58.60 58.35 58.97 59.53 60.33 60.99 61.50 57.73 53.76 48.61 59.01 52.42 53.96 54.83 52.93 54.83 55.86 56.81 56.06 55.74 52.79 52.22 49.03 47.13 47.58 44.22 44.74 45.66 48.82 48.72 48.29 46.01 46.46 47.23 46.71 46.10 46.94 47.11 47.19 47.29
57.48 57.49 58.04 58.40 58.01 57.71 58.18 58.31 59.35 60.09 58.86 58.65 55.77 50.82 51.21 49.19 52.44 53.04 54.70 54.47 53.01 53.81 53.81 53.69 52.95 50.06 49.76 47.87 42.25 43.03 43.74 44.47 45.00 47.34 47.62 46.08 44.72 45.27 45.98 46.25 46.32 46.33 46.57 46.70 46.70
57.65 58.13 58.32 57.82 57.26 56.98 56.99 56.84 54.03 52.37 53.92 49.17 49.47 49.01 50.04 53.39 54.20 53.44 54.38 53.04 52.96 52.07 48.38 50.59 48.42 46.10 46.88 47.43 46.60 46.03 45.03 44.29 45.86 46.67 45.65 44.50 44.60 44.82 45.07 45.24 45.39 45.94 45.90 45.97 46.14
58.37 58.47 57.96 57.26 56.58 56.78 57.44 54.22 52.06 54.85 49.51 52.41 51.77 52.02 53.12 53.50 50.18 53.32 54.85 50.15 49.55 47.26 48.39 48.27 45.99 47.70 47.72 47.36 46.50 45.92 44.62 44.64 45.05 45.88 45.74 45.49 44.68 45.31 44.79 44.87 45.73 45.75 45.81 45.82 46.24
58.17 58.25 57.69 56.73 56.49 56.46 56.96 55.48 58.73 56.40 50.35 50.27 52.03 51.22 52.35 52.76 49.90 51.16 52.73 50.63 48.48 46.84 47.12 46.03 47.09 47.90 47.00 46.21 45.35 45.49 44.12 43.60 43.20 44.98 44.30 43.41 43.81 42.75 44.07 44.87 45.10 45.68 46.41 46.22 46.50
58.06 57.97 56.96 56.55 55.16 57.83 55.91 58.01 59.16 56.60 46.73 46.06 49.04 51.34 52.27 52.95 49.47 52.46 51.86 50.93 49.32 46.50 47.00 46.84 47.56 46.54 46.24 45.07 45.83 43.08 45.05 44.36 43.29 42.95 41.04 43.28 38.84 42.19 43.43 42.13 43.40 44.57 45.17 45.71 45.99
57.02 56.54 56.69 55.07 57.20 55.39 56.42 59.34 58.70 56.02 37.90 46.92 49.13 54.72 52.55 50.28 50.57 50.56 50.62 51.69 47.39 47.26 47.39 45.12 45.10 45.18 44.84 45.07 46.30 44.32 44.75 43.48 43.11 42.39 41.22 40.97 39.15 43.73 42.97 40.23 42.17 43.80 44.42 45.10 45.71
56.14 56.21 55.11 56.05 58.14 56.40 58.06 57.89 56.21 44.97 37.73 45.36 49.23 48.42 48.59 48.75 48.01 49.74 48.27 50.24 48.50 46.51 47.30 45.72 47.89 46.17 46.08 46.03 45.36 44.56 42.89 42.28 42.90 41.93 37.63 40.72 40.12 43.81 40.69 42.00 43.11 43.86 43.90 44.68 45.14
56.63 55.98 56.79 57.39 55.06 57.71 58.00 55.88 44.85 40.28 46.45 44.42 45.31 47.45 46.98 45.41 45.41 46.63 44.32 43.08 43.38 41.54 42.37 43.85 44.25 44.79 45.58 43.55 44.69 43.85 41.55 38.75 37.35 37.43 38.33 40.55 39.16 43.31 44.48 42.93 44.41 42.94 43.46 44.81 45.33
55.19 55.87 52.17 51.82 56.68 57.04 56.49 49.51 39.95 42.18 44.00 45.88 45.63 46.09 44.71 43.96 44.16 44.78 43.71 42.29 40.70 40.76 41.77 40.55 38.99 42.47 42.97 42.95 41.45 41.21 40.56 38.25 33.38 35.94 37.74 38.26 36.76 42.94 41.95 43.59 44.59 44.61 44.75 44.73 44.67
54.19 52.05 52.39 50.23 54.46 56.78 52.59 43.45 42.88 43.90 44.83 44.59 44.74 43.59 43.57 42.17 42.32 43.02 42.63 41.70 39.93 39.78 39.01 38.98 37.68 40.66 40.85 42.18 42.25 40.33 39.33 41.26 36.81 35.92 34.71 39.67 40.04 42.62 40.71 41.26 42.20 42.67 43.49 43.78 43.85
53.56 51.81 49.44 48.61 53.82 55.87 49.53 43.81 43.64 42.45 43.09 43.37 43.30 43.13 41.54 42.89 40.46 40.85 40.59 41.70 39.03 39.28 40.91 38.24 36.10 38.18 39.82 41.46 41.69 40.82 41.88 37.33 38.72 32.99 32.28 37.09 36.68 39.44 38.65 39.71 41.01 41.72 42.70 43.91 43.74
51.82 49.32 48.41 49.63 53.17 52.74 45.49 43.94 41.48 42.24 43.35 42.57 43.26 41.63 42.42 41.96 40.65 39.96 39.11 40.26 41.50 38.40 40.01 38.85 36.39 36.11 38.26 38.56 39.27 38.70 38.71 38.05 38.02 37.15 34.54 33.79 38.23 42.60 41.71 42.52 42.35 43.10 44.06 44.37 43.96
51.00 46.33 48.86 50.80 48.78 46.38 46.14 41.83 42.46 41.38 43.20 41.92 42.65 41.76 41.41 39.67 38.76 38.71 38.53 40.17 40.61 39.95 37.01 37.99 37.34 36.00 36.60 37.63 38.65 38.59 37.88 39.22 36.24 35.20 35.75 33.86 35.70 41.91 41.87 42.17 42.61 43.84 44.50 44.79 44.22
48.11 46.92 49.52 48.88 45.27 44.74 41.23 40.00 40.85 40.38 40.27 40.39 39.81 40.35 40.12 38.91 37.26 38.00 39.45 40.42 39.66 38.88 37.59 38.65 36.96 36.35 35.82 37.06 38.05 36.66 37.67 37.31 36.32 36.67 34.73 33.68 37.69 40.92 41.28 41.84 42.54 42.53 43.61 44.06 43.69
47.31 44.17 46.01 46.32 43.93 44.15 41.24 39.70 38.34 40.35 39.89 39.99 39.31 39.87 39.00 37.49 38.07 37.17 38.39 39.22 39.75 40.39 40.10 39.39 36.66 36.39 36.30 36.35 37.48 35.74 35.93 36.41 37.08 34.38 36.39 35.94 38.67 42.04 42.30 41.93 42.29 42.46 42.85 43.26 43.53
46.73 44.00 41.61 42.55 41.84 42.04 41.47 40.03 37.82 37.39 39.70 40.33 38.46 38.50 38.01 36.28 36.56 36.48 38.27 38.66 39.03 42.23 39.33 38.92 35.40 34.68 36.56 35.82 34.41 34.58 35.10 35.60 34.30 36.72 34.19 38.15 38.23 40.85 42.41 42.56 42.93 42.91 41.82 41.56 41.93
46.89 44.52 42.19 40.73 39.57 41.12 39.67 39.00 37.52 37.41 38.70 37.44 37.36 38.35 38.15 36.89 37.78 36.67 38.66 38.90 38.74 39.98 39.35 37.90 35.69 34.09 33.69 33.08 33.01 32.05 35.49 36.00 35.42 35.71 35.83 36.73 35.65 42.14 42.91 42.02 41.08 40.91 41.15 40.58 41.15
45.47 44.16 46.88 37.21 39.81 41.68 41.24 39.72 39.36 40.21 38.64 39.45 38.62 39.03 37.34 37.98 39.22 39.75 40.61 39.31 39.81 39.09 38.62 36.50 35.58 33.17 32.41 31.71 32.31 32.06 36.12 36.96 37.13 37.39 36.81 34.46 40.72 41.53 40.08 40.03 40.84 41.30 40.90 40.42 40.79

GFSSW_sfc_wetblb_045.txt.gz
Wetbulb
59.63 60.40 60.88 60.52 60.07 59.66 59.63 60.04 60.59 60.78 61.18 61.60 62.35 62.83 63.55 63.70 62.66 63.57 56.63 61.20 63.93 70.51 69.76 62.12 62.27 61.15 63.01 62.18 62.70 60.68 57.44 54.51 51.80 51.16 52.07 54.08 52.52 55.52 55.99 54.63 54.72 55.38 55.77 58.18 62.37
59.51 59.11 59.42 59.69 59.51 59.92 60.11 60.34 60.56 60.64 61.10 61.71 62.22 62.93 62.88 63.01 63.08 55.51 64.17 69.61 70.19 71.05 60.45 59.14 58.39 59.34 60.29 59.50 60.74 58.28 56.32 52.13 53.49 54.11 53.32 53.75 53.23 53.59 53.64 53.60 53.46 54.09 56.69 59.82 62.27
59.85 59.56 59.51 59.67 59.82 60.21 60.28 60.22 60.40 60.62 61.33 61.70 62.38 62.67 62.50 62.27 59.28 54.48 67.59 69.61 69.44 66.61 60.89 60.32 59.48 58.66 57.13 58.77 57.62 56.63 54.14 54.44 54.11 55.16 54.19 52.62 52.50 53.70 53.54 51.60 51.20 51.20 53.74 56.88 58.54
59.43 59.81 60.17 59.88 59.99 60.21 60.18 60.24 60.49 60.84 61.50 61.86 62.18 62.71 62.56 62.28 49.66 56.29 67.16 67.87 68.37 61.92 59.63 58.45 57.49 56.24 55.90 55.21 55.60 54.61 54.52 54.36 54.28 53.22 52.86 52.40 53.82 50.95 53.14 51.23 52.33 52.89 54.19 55.07 55.45
58.63 59.36 59.69 59.98 60.12 60.20 60.30 60.38 60.63 60.99 61.34 61.65 61.84 62.11 61.40 55.75 52.88 57.40 65.44 65.67 59.12 59.37 57.97 56.95 55.29 55.28 54.14 54.42 54.01 53.09 53.12 52.73 53.22 53.52 53.66 53.49 51.81 50.71 49.51 51.32 52.78 53.05 53.60 53.54 53.99
57.97 58.66 59.24 59.87 59.95 59.92 60.06 60.06 60.34 60.65 61.10 61.38 61.50 61.37 59.27 50.93 56.64 57.79 56.90 56.69 58.10 58.06 57.06 57.40 56.02 56.42 54.26 53.22 52.52 53.42 51.97 51.67 53.06 52.58 53.05 51.36 50.44 51.29 49.75 51.73 51.53 51.94 51.98 52.29 51.98
57.80 58.38 59.07 59.60 59.42 59.46 59.35 59.59 59.99 60.28 60.59 60.86 61.38 60.88 56.33 52.64 57.31 57.21 56.68 55.75 57.52 57.46 55.04 56.62 56.04 54.01 53.97 51.94 53.45 51.92 49.68 50.81 51.46 52.32 50.99 52.88 48.96 49.53 50.79 51.38 50.49 50.88 51.00 50.76 50.76
57.60 58.22 58.97 58.74 59.10 59.02 59.23 59.49 59.74 60.04 60.39 61.16 61.63 59.95 52.68 56.35 58.03 55.46 56.58 55.70 57.53 58.60 58.07 58.22 57.22 54.42 53.51 53.61 51.33 49.62 49.53 47.36 51.10 51.82 51.14 50.43 46.42 49.72 50.54 50.40 49.97 50.15 50.26 49.83 49.49
57.95 58.31 58.50 58.39 58.72 58.87 59.04 59.02 59.57 60.23 60.89 61.57 60.11 57.52 50.05 57.14 53.67 55.26 56.10 53.95 55.70 56.83 57.83 57.30 57.32 54.56 53.17 50.23 48.10 49.44 44.50 47.41 48.01 50.97 50.86 49.78 47.93 50.35 50.52 50.01 49.54 49.88 49.83 49.35 48.97
57.95 57.90 58.00 58.30 58.43 58.43 58.40 58.44 59.09 59.82 60.00 60.30 57.93 52.23 51.66 50.54 54.08 54.86 56.48 55.66 53.92 54.32 54.67 54.70 53.82 51.11 50.62 48.37 42.99 45.56 45.77 46.55 46.43 49.69 49.50 48.98 48.72 49.89 49.52 49.12 49.34 49.52 49.50 49.33 48.82
57.77 57.83 58.15 58.12 58.22 57.99 56.70 57.49 55.77 54.48 55.33 51.80 51.15 50.64 51.19 54.04 55.59 54.68 55.77 54.38 54.17 52.97 49.54 52.12 49.26 47.06 48.68 49.59 49.09 47.51 46.49 46.00 48.56 49.59 47.05 47.27 47.99 48.82 48.83 48.58 48.79 48.81 48.81 48.80 48.85
58.27 58.25 58.25 58.23 57.93 57.01 58.30 55.67 55.21 57.11 49.88 53.63 52.95 52.81 54.00 54.52 51.34 54.06 56.31 51.46 50.80 48.61 50.04 49.08 46.79 50.26 49.60 49.12 48.25 47.94 46.88 47.00 48.50 48.22 47.10 48.12 48.04 50.06 49.15 47.80 48.86 48.66 48.53 48.55 48.77
58.12 58.40 58.50 57.97 56.61 56.34 58.23 56.99 60.56 58.83 51.75 51.05 52.87 52.02 52.78 54.07 51.28 52.42 54.47 52.19 50.22 48.57 48.97 47.60 49.33 49.82 48.76 47.98 47.10 47.90 46.47 46.09 45.25 47.77 49.12 47.02 46.12 47.82 49.03 48.21 48.58 49.10 49.60 49.19 48.69
57.95 58.54 58.20 57.31 53.34 58.82 57.75 59.91 61.35 60.26 48.01 47.41 50.30 52.28 53.62 54.20 50.98 54.27 54.08 52.75 50.77 48.76 48.91 49.07 50.32 48.05 47.79 47.20 47.79 44.95 47.60 46.04 45.44 44.99 42.38 46.48 39.51 46.81 47.00 45.47 46.36 47.16 47.89 48.33 48.64
58.14 58.14 57.57 54.58 58.75 56.28 58.69 61.58 61.07 58.44 39.18 48.41 50.17 55.97 53.86 51.40 52.31 52.06 53.44 53.32 49.59 49.53 49.13 47.00 47.15 46.83 46.61 47.27 47.94 46.06 47.23 46.16 46.16 44.53 43.66 44.24 40.78 45.91 47.22 43.77 45.01 46.41 47.57 48.17 48.76
57.08 56.61 56.50 57.41 60.36 59.22 60.74 60.50 58.30 46.27 39.49 46.67 50.69 49.60 49.77 50.71 50.42 51.63 50.66 52.49 51.61 48.87 49.57 48.59 50.02 48.33 48.27 48.16 47.80 47.63 45.79 45.76 45.18 43.63 38.33 43.94 42.45 44.82 44.35 45.43 46.61 47.50 47.65 47.93 47.66
56.55 56.58 56.59 59.45 57.20 60.66 60.59 57.45 46.26 41.67 48.46 46.29 47.35 49.35 49.17 48.32 48.03 48.73 47.56 46.81 45.62 43.53 44.17 46.25 46.58 47.10 47.59 45.62 47.45 46.17 44.34 39.65 39.02 38.63 39.89 43.52 41.10 44.12 47.79 46.52 47.39 47.38 47.30 47.26 47.60
56.18 56.43 56.16 56.33 60.28 60.19 58.35 51.03 41.98 44.91 45.97 48.85 48.29 48.28 46.61 47.83 47.55 47.61 47.03 45.74 44.03 43.79 43.12 42.42 41.40 45.26 45.95 45.70 44.29 44.28 43.70 39.60 34.60 37.10 39.56 41.94 38.79 43.82 45.60 46.83 47.13 48.18 47.51 47.24 47.16
55.46 56.68 57.10 54.95 58.11 59.39 54.22 45.06 45.38 46.46 48.25 47.28 47.37 45.87 46.43 45.82 44.93 45.90 45.20 45.39 43.73 42.84 41.04 41.47 41.19 43.82 43.66 44.73 44.41 43.36 40.22 44.17 39.59 41.34 37.58 41.37 43.44 44.39 44.02 44.10 45.34 45.76 46.32 46.40 46.91
56.49 55.30 53.96 53.30 57.43 57.48 51.18 46.37 46.46 46.40 46.58 46.99 45.20 46.52 44.78 45.80 43.28 43.99 44.25 44.55 42.31 41.71 43.31 42.07 38.01 41.81 42.44 43.50 44.06 42.73 44.30 39.71 40.53 34.61 34.81 39.96 40.90 41.09 41.75 42.53 43.93 44.36 45.12 46.15 47.26
54.03 51.95 51.62 54.75 56.23 53.96 47.47 46.56 45.17 45.35 46.39 45.63 46.04 45.50 45.28 44.77 44.72 43.89 42.67 43.03 43.94 41.47 42.58 41.74 39.85 38.79 40.34 40.50 41.79 40.86 40.59 40.16 40.30 39.91 35.66 34.94 39.54 44.39 43.73 44.60 44.45 44.95 46.04 46.56 47.09
55.32 48.17 52.46 55.29 49.91 51.86 48.62 45.74 42.98 44.56 46.05 45.24 45.62 45.34 44.48 43.98 42.76 42.73 41.74 43.13 43.34 42.76 40.33 41.52 40.68 38.16 39.59 40.84 41.68 41.62 41.16 41.63 37.93 37.88 39.43 37.48 37.69 46.24 44.65 44.34 44.50 44.97 46.08 47.01 47.53
51.65 49.98 53.00 53.29 46.58 46.54 45.61 43.49 44.02 43.43 43.92 43.62 43.25 43.67 43.67 42.79 40.46 41.06 41.84 42.87 42.11 41.57 40.75 41.87 40.08 37.42 37.74 39.37 40.48 38.11 40.99 40.74 40.91 39.30 35.87 34.89 38.32 44.65 44.13 43.85 44.76 44.21 45.37 45.72 46.14
49.84 46.51 48.62 51.10 49.46 46.88 45.12 44.14 41.87 42.95 43.02 43.05 42.34 42.88 41.79 40.84 41.65 40.28 41.07 41.63 41.73 42.20 40.48 40.95 40.36 38.74 36.87 38.55 39.50 38.60 39.70 40.12 39.20 36.10 37.72 38.84 40.94 44.49 45.68 44.36 45.45 45.58 45.74 45.42 45.31
51.21 48.58 46.09 45.34 45.46 46.39 45.78 44.39 41.54 40.10 42.30 43.07 41.13 41.59 40.82 39.00 39.36 39.02 41.13 41.20 41.07 43.19 41.75 41.29 37.93 39.82 40.00 39.92 39.27 38.00 37.64 38.86 37.52 38.44 36.04 38.89 39.16 42.20 43.78 43.96 43.92 44.26 44.20 43.71 43.93
50.01 47.98 46.80 45.83 44.32 44.79 40.93 42.23 41.20 39.80 41.34 40.38 39.95 41.04 40.61 39.47 40.35 39.12 40.94 41.15 40.99 42.24 41.23 41.49 37.86 38.30 36.40 38.75 37.04 35.30 37.89 38.67 38.79 38.84 38.55 38.94 38.60 44.68 43.70 44.35 43.55 44.23 44.36 43.37 43.40
50.38 48.91 50.12 42.04 44.68 45.23 45.48 43.54 42.08 42.91 41.19 42.13 41.46 41.65 40.01 41.00 41.84 42.37 43.44 42.25 42.45 41.34 40.85 39.38 38.08 36.19 34.49 36.51 36.97 34.73 39.69 40.50 40.68 41.07 40.16 36.59 41.60 43.89 42.55 42.77 43.63 43.94 43.54 42.84 43.01

GFSSW_sfc_wetblb_048.txt.gz
Wetbulb
59.95 60.77 61.50 62.23 61.87 61.19 60.40 60.48 60.91 61.21 61.30 61.47 62.18 62.73 63.66 63.70 62.40 61.96 59.19 60.64 63.98 70.76 69.43 63.68 62.68 64.43 63.76 66.47 66.68 66.38 56.36 51.46 52.24 53.52 52.13 55.51 53.24 54.52 55.40 52.66 53.15 54.08 54.38 56.88 60.79
59.65 59.33 59.69 60.19 60.24 60.02 60.25 60.56 60.90 61.07 61.14 61.49 62.23 62.69 63.05 63.20 60.17 60.30 64.30 69.88 70.63 70.93 61.08 58.95 60.28 60.66 60.79 64.25 62.73 59.01 55.64 53.31 54.82 54.34 53.45 54.38 53.34 53.13 53.30 52.32 51.56 52.00 55.35 58.26 60.06
60.31 59.71 59.52 59.59 59.85 60.19 60.44 60.54 60.70 60.90 61.13 61.76 62.42 63.19 62.89 61.56 59.22 54.89 66.32 67.90 69.13 67.54 60.69 59.33 59.28 59.58 61.05 61.28 60.29 58.28 53.70 54.81 55.27 55.67 54.47 54.21 52.50 53.93 53.08 49.38 49.84 49.44 52.03 54.81 55.93
59.68 59.94 60.26 60.18 60.21 60.38 60.55 60.53 60.71 60.91 61.49 61.69 62.37 62.80 62.76 60.52 49.42 55.48 67.50 67.58 68.51 62.82 59.28 58.13 58.20 59.38 59.16 57.44 59.47 54.18 54.83 56.26 57.16 55.25 54.06 53.24 53.82 50.34 50.77 49.74 51.99 52.06 52.13 52.83 52.17
58.91 59.31 59.87 60.07 60.31 60.41 60.49 60.61 60.88 61.00 61.32 61.50 61.90 62.31 60.39 56.07 52.97 57.88 67.08 65.95 59.55 59.29 57.56 57.96 55.78 59.58 55.46 56.95 56.14 54.65 53.30 53.41 54.10 54.93 53.67 54.50 51.84 49.79 48.59 50.77 51.79 52.80 53.13 50.95 50.79
57.90 58.56 59.20 59.71 60.09 60.11 60.29 60.42 60.38 60.47 60.92 61.20 61.58 61.74 57.99 52.10 56.69 57.36 57.08 57.22 57.85 58.58 57.36 57.91 56.24 56.23 55.36 54.63 53.30 54.97 53.48 52.11 52.99 52.45 52.96 50.94 50.23 50.58 49.51 51.08 50.83 51.39 50.16 49.02 49.19
57.73 58.49 58.97 59.43 59.72 59.71 59.81 59.76 59.82 60.25 60.43 60.68 61.24 59.90 57.21 52.34 57.08 56.83 57.15 56.51 58.09 58.37 57.51 56.92 56.51 54.52 55.66 54.01 56.18 53.05 49.02 50.10 51.15 51.72 51.37 52.70 48.16 47.39 49.71 50.77 49.46 49.25 47.58 48.30 48.20
57.59 58.23 58.63 59.10 59.04 59.42 59.48 59.50 59.75 60.23 60.29 60.83 61.76 58.53 52.85 56.49 57.72 55.65 56.48 56.00 58.74 59.57 59.53 59.85 58.93 57.46 55.00 54.86 52.06 48.59 47.99 44.71 50.06 51.27 51.23 49.83 43.66 49.63 49.62 48.89 48.06 48.23 46.51 46.96 47.09
57.71 58.15 58.54 58.75 58.85 59.18 59.08 59.10 59.53 60.18 60.62 61.39 58.47 57.55 49.93 59.05 53.78 55.18 56.77 54.19 56.34 57.64 60.55 57.03 58.81 56.16 55.61 49.25 46.31 47.76 41.85 44.61 47.39 51.61 50.37 47.84 45.52 48.95 49.31 48.79 47.94 46.40 46.29 46.44 45.70
57.95 58.21 58.29 58.46 58.79 58.62 58.54 58.84 60.01 59.17 59.63 59.57 59.29 52.07 51.62 50.50 54.31 54.97 56.57 56.43 54.95 56.51 55.87 56.04 53.57 49.59 49.35 46.79 40.02 43.26 43.73 45.20 44.99 48.03 48.74 46.89 45.61 48.13 48.35 47.86 47.19 46.57 45.98 45.74 45.51
57.85 58.10 58.20 58.47 58.33 58.18 57.09 56.00 54.26 54.30 55.89 51.66 50.77 50.83 51.05 53.70 55.82 54.53 55.78 54.38 54.62 53.34 49.07 53.25 47.52 44.66 47.77 49.60 48.43 46.23 44.40 43.84 46.46 49.33 47.71 45.97 45.98 47.68 47.91 46.90 46.08 46.16 45.44 45.47 45.68
58.05 58.58 58.47 58.30 58.09 58.13 55.47 54.63 55.00 56.59 49.05 53.38 52.79 52.54 53.86 54.57 51.07 53.72 56.31 51.30 51.51 47.79 50.77 48.97 43.97 49.85 50.78 49.84 48.09 46.82 44.72 44.28 48.09 48.77 46.31 44.96 44.76 48.07 47.55 46.23 46.61 46.51 45.31 45.42 45.60
58.37 58.54 58.45 58.09 58.05 55.06 55.82 57.49 60.41 59.75 50.76 50.74 52.78 51.75 52.26 53.74 51.55 52.04 54.23 53.10 49.94 48.32 48.32 45.76 49.14 50.32 48.74 48.87 46.30 46.39 44.80 44.68 43.63 47.45 47.57 45.24 43.14 45.69 48.12 47.34 47.23 47.24 47.01 46.46 45.62
58.01 58.30 58.15 58.04 52.01 57.62 57.14 59.89 61.67 60.84 46.85 46.24 49.31 51.86 53.12 54.47 50.85 54.71 54.32 52.79 51.00 47.66 49.69 48.46 50.11 48.24 48.37 46.16 47.52 43.54 47.41 46.63 45.43 43.04 38.05 44.81 34.73 42.35 44.82 43.74 44.74 44.95 44.93 45.18 45.23
57.59 58.34 58.43 56.65 55.32 55.69 58.65 61.48 61.75 58.40 37.67 48.40 49.77 55.85 53.85 51.14 52.22 51.99 54.93 53.32 48.85 49.33 50.13 47.32 48.29 47.76 46.15 46.99 48.43 45.06 48.29 46.12 45.48 42.03 39.93 40.64 36.24 39.90 44.40 41.33 42.34 43.60 44.63 44.99 45.31
57.23 57.67 56.85 56.34 57.29 59.45 60.68 61.14 58.12 44.98 38.00 46.09 50.45 48.85 48.82 50.59 50.67 52.17 51.25 53.87 52.56 48.77 49.30 47.99 50.74 48.98 47.56 48.62 48.23 48.12 45.36 45.08 43.95 40.34 32.59 39.13 38.72 38.77 40.61 42.99 43.38 44.33 44.88 45.50 45.59
56.53 56.66 55.12 58.67 56.23 60.91 60.59 57.06 44.95 40.13 49.19 45.67 47.10 49.08 48.26 48.14 48.27 49.01 48.27 46.69 44.85 42.31 42.28 46.45 46.32 47.32 47.79 45.22 47.51 46.05 41.40 34.78 33.17 32.99 33.91 42.22 38.84 38.52 42.87 43.44 43.60 44.65 44.33 45.01 44.91
56.23 56.45 57.94 56.80 59.62 60.89 57.75 50.46 41.17 45.63 46.59 49.91 48.70 48.59 46.44 48.62 47.68 47.99 47.23 44.70 46.04 44.00 41.49 40.39 39.25 45.10 47.15 45.47 42.17 44.10 41.20 34.68 29.34 30.87 33.79 41.17 34.60 39.17 43.58 44.37 43.52 45.09 45.16 44.85 44.05
55.48 56.00 56.83 56.16 58.98 59.01 53.38 44.01 43.45 46.86 48.56 47.40 47.61 45.39 45.69 46.79 45.29 46.15 45.79 44.78 42.56 42.34 39.28 39.41 39.16 44.18 44.67 45.13 44.40 42.21 37.13 41.75 35.78 37.02 32.82 36.84 39.57 40.83 41.70 41.30 41.53 42.08 43.28 42.95 43.45
54.87 54.75 55.37 55.35 58.64 56.24 50.27 45.67 45.81 47.19 47.99 48.29 44.53 47.12 44.39 45.30 42.91 44.64 44.50 44.45 42.77 42.42 42.98 41.12 35.81 42.58 42.15 44.05 44.10 41.09 42.98 35.70 35.52 29.13 27.55 34.74 35.82 35.04 37.10 38.72 40.36 40.47 40.69 42.57 43.60
53.47 51.47 52.09 56.15 56.04 52.55 45.46 44.95 45.43 46.68 48.06 45.90 45.86 45.66 45.84 45.12 45.04 44.54 42.46 43.21 44.56 42.47 42.69 40.97 38.54 37.69 40.74 38.97 40.05 38.68 37.09 37.85 36.80 34.78 28.74 27.60 32.63 38.34 40.59 41.20 40.67 41.04 42.55 43.31 43.62
55.40 47.17 53.58 55.77 48.49 50.81 47.43 46.54 43.82 45.49 46.98 46.34 46.12 45.82 44.97 45.11 44.08 44.17 42.28 43.01 43.92 43.42 41.24 40.28 37.68 34.90 38.39 40.61 41.89 40.48 39.09 38.90 32.64 32.04 34.26 30.60 32.12 41.47 40.93 41.59 42.02 41.51 43.26 43.13 43.55
52.10 50.13 53.78 53.87 44.89 45.86 46.24 44.18 45.45 44.36 45.12 44.64 44.41 44.81 45.08 44.12 41.13 42.59 42.81 43.83 43.77 42.90 39.97 40.60 36.98 32.37 33.43 37.42 39.65 36.67 39.46 39.27 37.49 34.72 30.63 26.19 31.39 41.34 40.97 40.63 41.44 39.67 40.13 42.38 42.09
50.30 46.03 49.09 50.76 50.82 46.05 45.65 44.50 42.20 44.30 44.27 44.11 43.18 43.91 42.73 41.54 43.16 40.93 41.53 42.16 43.44 43.34 41.42 41.26 38.21 35.73 31.70 34.61 38.25 35.61 38.75 39.09 36.17 28.86 31.07 32.72 36.61 40.06 40.82 40.67 40.49 40.23 40.21 40.41 41.74
51.47 49.44 47.09 44.73 45.79 46.10 46.75 45.46 42.59 40.29 42.92 43.70 41.64 41.78 41.93 39.81 39.97 39.31 42.26 40.66 41.26 43.62 41.91 39.69 34.78 37.44 38.24 39.22 38.94 37.47 37.12 37.30 35.20 36.05 30.96 34.81 35.54 38.82 39.20 38.12 38.82 39.66 40.99 40.16 41.10
49.16 48.57 47.65 46.27 45.37 45.03 42.55 42.64 42.26 40.39 41.54 40.65 40.35 41.96 41.77 39.73 39.78 39.55 42.05 41.23 41.06 41.83 40.64 40.56 34.86 36.74 34.05 39.20 37.06 35.03 36.93 37.04 37.04 37.26 36.63 36.86 36.07 40.37 40.35 40.48 39.86 39.86 41.41 41.18 40.76
51.35 50.99 50.07 43.80 46.03 45.06 45.24 43.76 42.85 42.55 41.77 42.58 42.85 42.36 40.72 40.65 42.07 41.90 42.12 41.91 41.27 40.99 39.48 38.56 35.50 33.27 30.20 36.74 36.40 31.90 37.49 38.10 37.46 39.00 37.84 32.86 37.60 40.32 39.38 40.66 40.00 40.24 41.06 40.61 40.33

GFSSW_sfc_wetblb_051.txt.gz
Wetbulb
60.10 60.83 61.75 63.03 63.20 62.92 61.87 60.95 60.96 61.35 61.57 61.77 61.90 62.68 63.21 63.69 62.66 60.37 58.50 61.54 64.59 71.35 69.77 63.24 62.19 59.92 60.82 58.58 59.97 57.00 49.62 44.49 46.02 48.32 47.47 50.81 49.91 51.76 52.14 49.61 50.76 51.55 51.30 54.20 57.96
60.06 59.54 60.03 60.42 61.09 61.45 61.08 60.77 60.89 61.19 61.31 61.43 62.03 62.65 62.86 63.32 58.39 57.93 63.16 67.68 69.33 69.87 60.54 57.77 56.18 56.54 54.29 56.80 56.97 51.72 46.44 47.93 51.28 50.63 48.93 51.40 50.40 50.48 49.44 48.29 47.45 49.07 52.35 55.45 55.56
60.29 59.69 59.40 59.54 59.78 60.26 60.94 60.81 60.79 61.01 61.09 61.58 62.41 62.96 62.57 62.09 56.95 54.17 67.12 66.37 68.43 67.81 60.88 59.40 57.31 57.28 54.30 55.04 53.45 52.32 47.55 51.11 53.29 53.19 51.66 51.19 49.80 51.63 48.64 45.57 46.68 47.10 49.21 51.69 51.85
60.06 60.15 60.11 60.16 60.12 60.31 60.59 60.88 60.75 60.97 61.17 61.68 62.29 62.72 62.39 58.44 47.10 53.76 66.05 67.88 68.69 65.39 59.31 57.43 55.87 53.13 52.37 51.48 53.55 48.69 51.74 53.69 54.19 53.16 52.18 50.31 50.90 47.52 47.20 46.67 49.75 49.34 49.15 49.61 48.67
59.22 59.31 59.68 59.87 60.18 60.39 60.54 60.62 60.80 60.97 61.19 61.41 61.73 62.37 58.32 53.72 52.32 56.45 67.18 66.91 61.80 59.88 57.19 56.55 52.57 52.11 50.26 50.83 51.35 49.04 50.04 51.72 51.76 51.99 50.92 51.39 48.53 46.75 45.94 48.26 49.52 50.57 49.96 47.94 47.27
57.99 58.48 58.97 59.34 59.84 60.13 60.23 60.20 60.46 60.41 60.73 61.08 61.40 61.42 55.23 49.66 54.26 55.00 57.00 56.05 57.38 58.74 55.48 54.02 52.22 52.52 50.55 49.85 48.89 50.62 50.56 49.82 50.68 50.25 50.44 48.68 47.35 47.86 46.77 48.43 48.47 49.08 46.80 45.84 46.58
57.88 58.14 58.81 59.13 59.64 59.77 59.85 59.79 59.94 60.11 60.43 60.75 60.98 58.18 54.91 52.84 53.71 52.60 55.67 54.23 56.77 58.18 56.76 55.47 53.99 50.68 50.93 49.17 52.33 49.48 45.65 46.91 47.68 48.72 48.45 49.35 44.88 45.28 47.52 48.03 46.92 46.02 43.98 45.52 45.93
57.33 57.97 58.50 58.99 59.28 59.29 59.43 59.54 59.99 60.37 60.13 60.74 61.48 56.10 51.07 55.25 53.07 54.36 55.06 54.74 56.59 57.57 58.35 56.96 56.19 54.04 51.08 50.28 48.62 44.68 43.15 39.00 45.69 48.40 49.00 46.71 39.26 46.04 46.70 46.20 44.99 44.19 42.83 44.39 44.70
57.07 57.57 58.37 58.83 59.23 58.99 59.30 59.37 59.51 59.92 60.26 61.08 57.00 53.44 46.65 57.77 52.17 53.35 54.02 54.15 55.24 55.92 56.64 56.25 56.57 52.00 49.69 43.80 40.37 41.15 35.91 38.89 43.74 48.55 47.63 44.43 40.49 45.08 46.29 46.17 44.57 42.15 42.21 43.27 42.67
57.16 57.77 58.74 58.90 58.72 58.83 58.88 58.83 58.93 58.93 59.02 58.03 57.53 49.68 50.65 49.12 52.79 53.89 53.79 55.61 53.82 53.89 54.25 53.22 49.03 44.29 44.12 41.02 35.00 37.15 37.22 39.94 40.70 45.86 45.72 43.23 42.09 44.45 45.40 45.11 44.38 42.06 41.80 42.51 42.31
57.81 58.49 58.53 58.29 58.42 58.42 56.27 52.75 49.93 49.91 53.58 49.52 49.69 48.29 49.49 51.92 53.78 51.82 54.26 53.73 53.14 50.01 44.46 48.81 42.89 39.22 41.57 44.40 44.34 41.94 39.83 38.68 41.49 47.18 44.11 42.03 42.35 44.18 44.72 43.83 42.90 42.66 41.29 41.68 42.75
57.69 58.23 58.50 58.58 58.54 57.67 53.62 51.34 51.78 51.61 45.67 52.07 51.62 51.00 52.26 51.88 49.39 51.62 54.23 48.51 48.17 43.73 46.13 43.32 38.86 45.19 48.07 47.19 45.40 43.46 40.45 39.80 43.65 46.91 43.28 42.13 42.35 44.14 45.05 44.66 44.79 43.63 41.64 41.88 41.74
57.88 58.50 58.81 58.65 57.51 53.22 51.98 54.02 56.78 55.95 45.45 49.90 51.82 50.32 51.03 51.94 50.15 49.29 51.93 49.39 45.91 44.10 43.76 40.45 45.82 49.45 48.09 45.57 44.49 42.47 40.28 40.36 39.98 44.19 44.04 41.35 39.42 41.38 43.54 43.52 44.74 44.68 44.03 43.01 42.19
58.51 58.59 58.80 58.08 51.15 53.17 51.48 57.15 57.36 56.24 39.12 44.01 48.13 50.36 51.53 53.01 49.01 53.67 52.19 50.32 47.19 42.91 45.05 43.26 47.77 47.02 44.94 44.15 44.58 39.05 45.23 44.97 43.55 39.18 33.53 40.64 30.38 36.92 39.45 40.13 42.40 42.76 41.94 42.92 41.84
57.70 57.85 58.10 56.63 51.36 52.49 55.31 56.62 55.41 52.76 30.55 46.22 48.64 54.23 51.38 49.43 49.91 50.87 53.03 50.24 45.42 45.46 43.49 41.02 43.91 43.75 43.65 44.73 45.68 42.30 45.99 43.23 42.40 37.17 33.99 35.51 32.19 34.46 39.29 37.57 39.44 40.68 42.06 42.51 42.42
56.71 57.18 56.78 53.74 51.95 54.76 56.35 55.60 52.91 39.39 33.52 44.80 48.61 47.02 46.14 48.32 48.52 51.08 49.51 49.91 48.97 45.25 45.00 44.03 47.36 45.18 44.25 46.62 45.89 46.16 42.13 40.64 39.16 35.52 28.27 33.88 34.26 33.23 36.79 39.47 39.67 40.15 41.97 43.23 42.79
56.16 56.55 55.04 56.76 51.59 55.38 55.22 51.34 37.84 33.46 46.37 43.36 44.63 46.98 45.32 44.72 45.89 46.91 45.01 41.59 39.47 35.75 35.09 41.90 42.79 43.96 45.97 41.64 44.15 42.27 35.77 29.11 28.54 28.11 28.50 37.75 34.50 35.41 39.56 40.12 41.44 41.58 41.17 42.36 42.68
55.48 55.94 55.22 55.66 53.61 54.53 51.78 44.02 33.73 42.75 43.07 48.17 47.22 46.54 43.35 45.49 44.45 45.33 42.97 39.46 40.49 38.44 35.37 35.32 34.49 41.00 44.35 40.99 38.10 39.37 36.49 29.75 25.63 26.37 29.25 37.28 31.20 34.79 38.28 40.36 40.95 42.46 42.02 42.06 41.64
54.85 49.94 51.44 51.22 54.02 52.38 46.54 36.58 37.15 41.91 46.27 45.64 45.75 41.11 41.19 44.05 42.91 42.10 39.92 38.72 37.38 37.70 33.60 32.70 34.54 41.49 41.98 42.01 40.90 37.35 32.94 36.72 31.37 30.02 26.80 31.11 33.67 37.09 38.69 38.77 39.82 39.72 40.12 39.92 40.69
47.57 47.82 48.95 51.09 52.36 49.61 42.94 40.52 39.58 45.10 45.98 46.15 40.49 42.80 39.14 40.60 39.00 39.21 38.66 40.88 39.30 39.77 37.82 34.92 30.58 39.24 40.56 40.93 40.70 37.01 39.09 32.02 30.65 24.68 23.11 28.90 29.47 32.26 34.43 35.73 37.79 38.12 38.84 40.22 41.47
46.05 43.94 47.18 50.19 49.55 44.87 37.76 38.12 42.28 45.63 46.37 43.57 41.48 42.14 41.44 40.68 39.58 38.18 37.97 40.52 42.22 39.89 38.11 35.17 32.75 32.90 36.33 35.00 35.15 34.97 32.64 33.54 32.35 29.81 24.53 22.54 28.36 35.90 35.84 36.73 36.72 36.02 38.86 40.76 41.56
45.74 39.48 47.13 49.27 41.82 40.11 38.99 41.94 43.97 44.19 45.01 44.08 42.80 42.59 40.33 40.40 38.55 37.91 38.05 39.02 41.25 40.19 36.69 35.29 32.48 29.18 32.71 36.25 38.39 36.32 34.38 34.16 28.07 27.74 27.94 24.43 27.69 36.54 37.43 38.40 39.12 38.53 40.25 39.93 41.54
43.98 40.91 46.42 47.55 37.00 35.53 38.55 41.83 42.95 42.82 42.49 42.34 41.78 42.24 41.00 38.88 35.35 38.06 38.93 41.59 40.76 39.62 35.88 36.13 30.74 26.17 29.37 33.99 36.28 32.51 35.18 35.63 33.04 29.22 26.21 22.09 27.91 37.79 37.26 37.46 38.28 37.30 39.00 39.45 40.22
41.43 37.93 40.99 42.53 40.97 39.03 38.44 38.79 38.51 41.85 42.18 41.68 40.01 40.52 38.48 36.87 38.09 35.87 37.55 40.53 40.67 41.39 42.15 39.14 32.39 30.51 26.99 29.82 33.77 31.05 35.45 35.49 32.71 22.60 25.77 27.81 30.04 36.07 36.29 36.43 36.94 36.51 36.73 37.04 39.07
41.54 39.99 39.85 36.05 38.87 37.69 38.42 40.55 38.32 37.17 39.53 39.54 37.34 38.65 37.17 34.11 35.33 35.08 38.09 37.36 39.14 43.09 38.52 35.67 30.69 32.45 34.21 35.88 35.76 34.82 34.83 34.81 32.27 31.42 26.98 30.91 32.39 34.99 35.74 34.62 35.59 36.84 39.01 38.64 39.45
40.68 39.95 38.75 37.47 38.51 37.00 36.94 35.84 38.29 38.14 37.30 36.96 36.27 39.22 36.36 33.99 34.78 34.83 37.44 36.21 36.15 37.53 35.58 35.40 29.78 31.78 30.56 35.89 34.66 32.99 34.76 34.44 34.10 34.26 33.03 33.20 32.31 36.46 36.95 36.01 37.51 36.89 38.53 38.95 39.17
42.63 42.24 43.20 38.85 37.27 37.07 36.23 37.51 39.23 38.52 38.29 39.56 38.79 37.24 36.50 37.36 37.47 36.44 36.69 37.13 37.25 36.80 35.20 33.79 30.68 27.41 24.32 33.00 32.60 28.16 33.86 34.84 34.88 35.18 34.11 29.10 33.89 37.20 36.67 38.05 37.29 37.83 38.43 38.45 37.99

GFSSW_sfc_wetblb_054.txt.gz
Wetbulb
60.82 60.90 61.95 62.83 63.15 63.21 63.03 61.45 61.17 61.36 61.59 61.75 61.88 62.26 62.98 63.41 61.85 59.33 56.67 62.14 62.97 70.95 69.94 61.98 61.26 59.53 59.26 57.00 58.56 56.13 45.82 42.91 44.81 45.74 46.15 50.09 48.27 50.48 50.69 48.83 49.80 50.50 50.55 53.19 56.22
60.72 60.19 60.21 60.62 60.91 61.30 60.91 60.60 60.82 61.10 61.29 61.44 61.79 62.37 62.59 62.93 57.72 56.43 65.77 66.23 69.42 69.49 59.22 57.31 55.82 56.06 52.89 55.41 55.43 51.22 45.21 45.93 50.07 49.19 47.21 50.78 48.83 49.03 48.12 46.75 46.90 48.22 51.30 52.72 53.02
60.81 60.24 59.91 59.57 59.62 59.88 60.45 60.59 60.72 60.88 61.10 61.30 61.85 62.29 62.35 60.71 55.92 57.18 67.45 66.84 69.32 67.81 59.78 58.70 57.17 56.19 55.15 53.76 52.17 50.79 47.04 49.82 51.89 50.81 51.35 49.90 48.75 50.78 47.11 44.42 45.97 47.32 48.80 50.17 49.68
60.63 60.46 60.11 59.84 59.93 60.15 60.45 60.68 60.72 60.85 61.14 61.34 61.72 62.32 62.48 57.47 46.32 53.24 66.88 67.64 69.92 64.73 59.02 56.95 55.07 53.35 51.22 49.84 52.54 48.00 51.38 52.05 52.56 52.14 50.47 48.51 49.61 46.42 46.74 46.25 48.93 48.53 48.97 47.87 47.56
59.43 59.41 59.52 59.76 60.01 60.29 60.49 60.58 60.66 60.79 60.96 61.07 61.33 61.93 56.69 52.24 54.02 54.97 67.46 66.20 61.65 59.42 56.82 55.82 52.01 52.35 49.21 49.67 50.11 48.43 49.29 51.42 50.89 50.83 49.64 49.93 47.34 46.16 45.01 47.21 48.47 48.90 48.27 46.31 45.77
58.06 58.29 58.73 59.25 59.57 60.00 60.25 60.24 60.25 60.31 60.37 60.76 61.00 61.83 53.80 48.94 53.36 54.83 54.81 55.11 57.60 59.34 55.58 55.58 51.68 52.18 49.48 48.91 48.19 49.90 49.53 48.93 49.76 49.14 49.29 47.54 45.90 46.36 45.73 47.08 47.55 46.89 45.00 44.47 45.39
57.49 58.22 58.56 59.05 59.41 59.72 59.94 59.97 59.95 59.95 60.10 60.38 60.65 58.67 54.05 52.76 52.82 51.86 54.33 53.09 55.88 57.70 56.47 55.98 54.64 50.64 50.02 48.16 50.82 48.89 45.61 46.00 46.46 47.26 47.14 48.02 43.84 44.18 46.12 46.56 45.97 44.52 42.63 43.57 44.08
57.18 57.89 58.26 58.81 59.07 59.47 59.54 59.60 59.67 59.72 59.91 60.26 60.96 56.53 50.41 56.22 52.09 52.83 54.45 53.68 55.93 56.90 57.31 56.94 55.77 52.88 49.93 49.71 47.12 43.94 42.43 38.11 43.63 47.04 47.50 45.76 39.77 44.56 45.78 45.01 43.84 43.27 41.55 43.28 42.96
56.62 57.33 57.70 58.54 59.03 59.16 59.23 59.35 59.37 59.54 60.00 60.24 56.61 53.12 48.59 57.26 50.80 51.87 53.70 52.97 54.16 54.37 55.29 55.61 55.49 50.51 48.39 42.90 39.69 40.20 35.12 37.12 41.00 47.06 46.46 43.69 40.12 44.75 44.65 45.02 43.21 41.10 40.75 42.27 41.17
56.58 57.02 57.29 58.94 58.76 58.76 58.81 58.78 58.42 58.16 58.25 57.66 57.13 49.25 51.04 48.17 51.66 52.93 51.91 54.13 52.28 52.30 52.52 51.56 48.15 44.10 43.13 40.40 34.52 36.24 36.08 38.41 38.68 44.24 44.76 41.87 41.02 42.78 43.99 43.63 43.35 40.66 39.91 40.62 40.77
56.80 57.23 58.28 58.34 58.27 58.44 55.53 51.36 48.46 48.97 51.26 47.89 49.75 47.99 48.27 50.58 52.57 50.63 53.29 53.08 51.58 48.17 43.66 47.69 42.52 38.48 40.63 43.35 42.45 40.86 38.93 38.08 40.31 45.57 43.24 41.09 41.21 42.80 43.93 42.02 41.61 40.09 39.75 40.15 40.91
57.33 57.80 58.44 58.36 58.43 57.66 53.12 49.90 50.55 49.64 44.93 52.03 51.26 49.67 50.53 50.66 48.28 50.32 53.17 47.19 46.68 42.59 44.95 42.28 38.83 43.21 46.57 46.15 44.14 42.15 39.07 37.89 42.58 45.77 42.93 41.51 41.55 43.87 43.62 43.80 44.10 42.57 40.75 40.65 40.23
57.50 58.03 58.49 58.58 57.65 53.22 49.96 52.25 55.15 54.17 43.23 48.24 50.57 48.67 49.20 50.89 48.55 48.00 50.80 48.19 44.49 42.99 42.30 39.02 44.02 47.97 46.29 44.19 43.19 41.28 38.92 38.37 39.16 42.51 42.16 40.20 38.45 39.97 42.55 42.57 43.36 42.80 42.55 41.54 41.07
58.03 58.42 58.33 58.27 50.05 50.32 48.60 54.73 55.02 53.90 37.78 42.45 46.65 49.00 49.60 51.88 47.49 52.27 50.72 48.98 45.87 41.73 43.81 41.79 46.34 45.66 43.58 42.70 42.81 37.38 43.81 43.63 42.33 37.72 33.07 39.41 29.56 36.51 37.94 38.23 40.81 41.58 40.67 40.67 40.26
57.80 57.72 57.93 56.46 51.28 51.02 54.02 54.68 53.82 50.54 29.69 44.43 46.84 52.71 49.44 48.11 48.57 49.61 51.52 49.08 43.66 43.87 42.54 40.51 42.96 42.59 42.10 43.04 44.35 40.81 44.54 41.84 40.64 35.33 33.08 33.47 31.01 34.48 36.73 36.25 38.51 40.23 41.03 40.92 40.16
57.12 56.93 57.10 53.99 50.98 52.42 54.60 54.24 51.13 37.42 31.66 42.57 47.22 45.52 44.41 46.55 46.96 49.67 47.73 48.32 47.41 43.42 42.85 41.97 46.12 44.07 43.54 45.02 44.29 45.01 40.52 38.70 36.50 33.50 27.45 32.09 32.11 31.69 35.02 38.02 37.55 38.98 40.86 41.67 40.91
56.55 57.06 54.81 55.69 50.29 53.77 53.50 49.46 35.05 32.94 44.36 41.61 42.37 45.14 43.12 42.61 43.92 45.29 43.20 40.12 38.12 34.69 33.68 39.96 41.14 42.55 44.65 40.27 42.85 40.48 33.95 27.51 27.23 27.42 27.84 34.67 31.83 32.77 36.89 37.82 39.50 40.91 40.53 41.21 41.25
55.48 55.76 54.59 54.51 52.53 52.14 49.74 43.03 31.92 40.89 41.17 46.31 45.47 44.21 41.05 43.82 42.57 43.63 41.26 37.40 38.37 37.24 34.06 33.98 33.50 39.51 42.60 39.55 37.49 37.46 34.99 28.51 25.64 25.67 28.76 33.68 29.81 34.50 37.21 39.39 38.86 40.43 40.95 41.02 40.74
54.41 48.53 49.47 50.49 53.11 50.98 45.14 35.57 36.24 39.96 44.28 44.08 44.14 39.48 39.48 42.43 42.04 40.78 37.64 36.65 36.18 36.01 33.73 31.63 33.96 40.00 40.87 40.55 39.90 35.84 32.47 34.94 30.31 27.65 25.20 28.81 33.10 37.11 37.00 37.87 38.21 38.02 39.54 40.26 40.56
46.21 46.01 46.92 50.13 50.73 48.34 41.55 39.10 38.37 43.21 44.30 44.54 38.97 41.11 37.60 39.07 37.77 37.31 37.10 39.04 38.15 38.37 36.59 33.14 29.62 37.58 39.34 39.81 39.23 35.82 37.80 31.07 28.94 23.78 22.53 26.80 27.91 30.72 33.89 33.81 35.76 35.99 36.56 38.65 39.89
44.47 42.60 47.67 49.06 48.74 44.06 36.09 37.08 40.90 44.14 44.88 42.19 40.14 39.98 39.83 38.75 37.81 36.43 36.57 38.62 40.28 38.40 36.69 33.56 31.54 31.31 35.00 33.42 33.45 33.80 31.84 31.90 30.97 28.37 23.84 22.17 26.88 33.26 33.60 35.63 35.24 35.44 38.24 39.12 39.62
44.07 38.52 46.03 48.18 40.53 36.35 37.65 40.09 44.21 42.62 43.66 42.57 41.48 41.02 38.79 38.68 36.77 35.77 36.64 37.55 39.76 38.73 34.81 33.51 31.15 28.27 31.39 35.16 36.94 35.24 32.62 32.01 26.92 26.13 24.98 22.25 26.90 36.05 34.17 37.79 38.43 37.52 38.91 38.80 39.43
42.50 39.20 44.39 46.90 36.18 34.19 36.72 40.31 41.51 41.48 40.56 40.57 39.79 40.67 39.35 37.09 33.83 36.67 37.14 40.17 39.46 38.22 35.27 34.54 29.16 25.15 28.80 32.99 34.91 31.22 33.49 33.81 31.27 27.17 25.10 21.40 26.68 36.26 34.44 36.01 36.53 35.62 35.82 38.36 38.26
39.63 36.79 39.69 40.38 38.29 37.03 36.72 36.79 37.01 40.28 40.44 39.70 38.55 39.01 37.32 35.29 37.02 35.23 35.83 39.00 39.30 39.82 42.59 38.43 30.40 29.36 26.49 29.26 32.07 30.70 33.64 33.96 30.85 21.32 24.58 26.30 28.58 34.02 35.29 34.74 35.33 35.78 36.48 37.53 38.75
39.22 38.45 37.84 34.56 37.31 36.60 37.41 38.65 36.72 35.56 38.08 38.00 36.01 37.21 35.87 32.78 33.33 34.00 36.42 35.73 37.67 42.33 37.06 34.49 28.89 30.13 31.94 34.05 33.83 33.76 33.85 33.59 30.69 29.79 26.68 28.76 30.44 33.49 34.21 32.74 34.60 35.44 37.89 38.10 38.53
39.90 38.40 36.55 35.31 36.75 36.31 35.72 36.78 36.96 36.17 36.12 35.48 35.05 37.62 34.73 33.41 34.35 33.85 36.50 34.69 34.36 35.94 34.08 33.62 28.59 29.82 28.95 34.07 33.38 31.93 33.66 33.69 32.63 32.36 31.30 31.19 30.19 35.07 35.78 35.34 36.19 36.11 36.90 36.83 36.52
40.93 39.78 40.32 37.87 34.72 35.40 35.12 36.62 38.07 37.53 36.79 38.25 37.46 35.72 34.58 35.94 36.06 35.40 35.51 35.72 36.89 35.33 33.90 32.45 29.82 26.34 24.36 30.39 31.01 26.30 31.84 33.77 33.18 32.93 32.15 27.92 30.83 34.59 35.13 36.61 35.93 36.15 35.35 35.69 35.79

GFSSW_sfc_wetblb_057.txt.gz
Wetbulb
61.01 61.12 61.35 62.34 63.13 63.41 63.36 63.13 62.00 61.55 61.66 61.67 61.87 62.14 62.58 63.10 62.22 57.18 53.38 60.22 61.52 70.25 69.37 60.91 59.55 56.61 57.89 56.00 57.15 54.78 45.23 42.31 44.27 44.50 45.54 48.36 47.20 49.43 49.71 48.39 49.04 49.46 49.63 51.79 55.63
60.88 60.84 60.64 60.81 61.18 61.55 61.17 60.73 60.91 61.14 61.26 61.36 61.76 62.12 62.36 62.71 56.42 54.91 62.83 67.29 67.95 68.98 58.49 55.82 54.47 54.51 52.24 54.18 53.94 50.22 44.61 45.26 48.43 48.09 45.86 49.12 47.79 48.17 47.43 46.36 46.85 48.15 50.24 51.36 53.48
60.66 61.04 60.40 60.11 59.88 59.83 60.11 60.36 60.66 60.93 61.15 61.32 61.56 61.93 62.06 61.58 53.92 54.33 69.43 68.66 68.04 67.79 59.12 58.05 56.24 53.73 51.59 52.56 51.04 49.90 47.80 48.81 50.60 49.99 50.47 49.08 47.63 49.54 46.27 43.86 46.34 47.96 48.52 48.55 49.46
60.31 60.78 60.51 60.05 59.93 60.13 60.26 60.58 60.76 60.96 61.15 61.26 61.39 61.80 62.30 57.02 43.44 52.18 68.09 68.83 68.26 65.47 58.30 56.29 54.63 50.31 50.34 48.90 51.50 47.83 49.90 50.46 51.80 51.64 49.15 47.94 48.56 46.04 45.95 45.32 48.16 49.27 48.47 47.13 47.09
59.28 59.45 59.56 59.76 59.89 60.30 60.44 60.60 60.69 60.84 60.94 60.83 61.02 61.40 56.31 50.87 53.01 56.62 68.16 66.51 62.25 59.65 57.33 55.83 51.02 50.00 50.14 49.66 49.51 47.74 48.72 50.58 50.01 49.93 48.62 49.09 46.29 45.33 44.93 46.19 46.92 48.15 47.35 45.52 45.10
58.05 58.34 58.75 59.11 59.48 59.78 60.15 60.28 60.29 60.33 60.37 60.32 60.80 60.94 52.53 46.80 55.22 53.44 54.13 53.76 57.69 58.64 56.04 54.57 52.49 51.14 49.21 49.23 47.47 48.85 48.41 47.80 48.80 48.30 48.33 46.75 44.92 45.30 44.80 46.19 45.63 46.06 44.49 43.61 44.37
58.20 58.11 58.62 58.83 59.17 59.50 59.85 59.92 60.04 59.98 59.96 59.87 60.41 58.21 52.21 51.45 52.44 50.26 52.76 51.91 56.11 58.35 55.25 55.90 54.77 50.89 49.23 48.38 49.41 48.29 45.15 45.06 45.56 46.59 45.91 46.94 42.06 43.28 45.22 45.58 44.55 43.03 41.75 42.75 43.06
57.39 57.46 58.18 58.46 58.85 59.21 59.54 59.50 59.55 59.65 59.70 59.97 60.73 55.26 49.04 57.90 51.40 51.62 52.75 52.41 54.93 57.73 58.04 58.19 54.97 52.50 50.34 48.39 45.79 42.93 41.61 37.88 42.59 45.83 46.00 44.18 38.58 43.33 44.63 44.18 43.09 41.89 39.86 41.39 41.82
56.12 56.96 57.57 57.73 58.38 58.98 59.16 59.18 59.30 59.66 59.74 60.03 55.00 51.58 47.87 56.56 49.59 51.36 51.78 51.51 53.12 53.60 54.85 57.62 55.86 51.07 49.08 42.16 38.89 39.51 34.98 36.58 40.08 45.75 45.16 42.47 39.71 42.87 43.69 43.80 42.54 40.95 39.99 40.75 40.10
56.38 56.68 56.88 57.04 57.81 58.63 58.61 58.75 58.57 57.90 57.08 57.51 56.25 47.82 50.57 47.38 51.48 52.10 50.77 53.07 51.12 51.02 51.47 50.24 46.70 44.03 42.23 38.98 34.47 36.08 36.02 37.15 36.88 41.85 43.08 40.37 40.58 41.10 42.47 42.63 42.44 40.81 39.59 39.95 39.98
56.64 56.35 56.71 56.99 58.17 58.10 55.98 49.80 47.07 48.07 50.05 47.61 48.09 47.09 49.03 51.66 53.28 51.46 52.32 50.71 50.06 47.37 43.36 46.27 41.54 37.77 41.15 41.65 40.84 39.97 38.02 37.30 38.93 43.33 42.15 40.20 40.97 42.39 43.07 41.37 40.70 39.82 39.15 39.29 39.72
56.97 57.18 57.78 57.90 58.08 57.86 52.96 47.83 49.23 48.21 43.98 51.31 51.56 50.41 52.00 51.79 49.60 50.66 52.87 46.81 45.30 41.04 44.17 42.16 38.78 42.41 44.47 44.96 43.24 41.35 38.08 37.29 40.85 44.57 42.29 40.07 40.55 42.91 42.42 42.28 43.04 42.20 39.89 40.01 39.14
57.01 57.28 57.68 57.64 57.84 53.30 48.92 50.15 54.52 52.18 41.83 47.34 50.38 49.51 49.89 50.22 48.85 47.93 51.15 46.38 42.96 41.56 41.34 38.81 42.63 46.51 45.07 42.89 41.64 40.13 37.91 37.51 38.49 41.65 40.97 39.48 37.75 38.96 41.44 41.61 43.02 42.67 42.25 41.42 40.44
57.35 57.98 58.00 58.19 50.72 49.36 48.49 51.48 53.40 51.48 36.20 41.37 46.34 49.08 50.00 51.71 47.13 51.17 49.68 47.58 44.57 40.87 42.30 40.74 44.74 44.39 42.35 41.35 41.55 36.36 42.39 42.38 41.24 37.43 32.79 38.50 30.13 36.11 36.62 38.58 39.24 39.59 39.19 40.01 39.60
57.89 57.92 58.02 56.49 49.91 50.53 53.22 53.39 52.42 48.48 28.22 42.77 46.75 51.45 48.73 47.60 46.99 48.69 50.32 48.11 42.52 42.54 41.73 39.37 41.72 41.39 40.91 41.60 43.22 39.98 43.64 40.53 39.59 34.63 32.81 32.76 29.72 33.91 37.18 37.36 38.10 38.01 38.99 39.48 39.64
57.53 57.11 57.08 55.07 50.92 52.01 52.69 52.54 48.90 36.02 30.05 40.97 45.67 44.15 43.69 45.46 45.65 48.01 46.13 47.63 45.98 42.20 41.68 40.57 44.61 42.76 42.29 43.69 43.43 43.78 39.62 37.20 35.63 32.66 27.00 30.67 30.54 32.09 34.54 36.22 37.98 37.51 40.06 40.84 40.03
56.84 56.75 55.51 54.06 50.16 51.66 51.72 47.05 34.46 32.45 42.65 39.68 40.80 43.55 41.48 40.80 42.36 43.71 41.57 38.13 36.87 33.23 32.97 38.84 39.71 41.33 43.46 39.96 41.98 39.52 33.53 27.56 26.18 26.72 26.33 32.88 30.29 32.83 35.81 36.40 37.01 38.97 40.30 40.60 40.00
55.77 56.36 54.54 53.89 51.82 51.26 48.13 42.27 30.72 38.90 39.25 44.58 43.40 42.17 39.41 42.18 40.84 41.85 39.29 35.75 36.88 36.18 32.90 32.61 32.35 38.46 41.08 38.20 36.34 36.04 33.74 27.69 24.96 25.18 28.30 32.61 28.74 33.82 35.86 37.24 37.49 38.66 39.49 39.86 40.13
54.62 48.56 49.18 50.59 52.41 49.89 43.81 34.79 34.83 38.46 42.42 42.76 42.76 38.02 37.75 40.91 40.75 39.45 35.93 36.24 35.08 35.08 33.58 30.76 32.17 38.64 39.82 39.36 38.85 34.55 32.08 34.25 29.01 25.50 24.17 27.62 31.30 35.28 36.60 37.03 37.51 38.03 39.14 38.80 39.65
45.41 45.50 46.37 49.44 50.26 47.13 41.25 38.54 37.39 41.73 43.01 43.11 37.57 39.61 36.52 38.16 37.21 36.36 35.58 37.52 36.90 37.15 35.44 32.29 29.05 35.83 38.06 38.76 38.21 35.17 37.24 29.88 27.83 23.41 21.74 25.22 25.75 29.91 32.46 34.37 36.75 37.57 37.97 38.63 39.69
43.88 42.35 47.10 47.87 48.17 42.64 35.53 36.46 39.75 42.85 43.36 40.99 39.25 38.53 38.26 37.54 36.78 34.88 35.80 37.38 38.77 37.04 35.69 32.33 30.99 30.13 34.00 32.03 31.97 33.29 31.17 30.54 29.66 27.02 23.51 21.52 25.93 32.12 31.97 34.63 34.14 35.46 36.93 37.68 38.07
42.37 37.82 44.80 46.65 39.63 34.52 36.48 38.49 43.65 41.15 42.44 41.31 40.49 39.62 37.97 37.39 35.27 34.51 35.49 36.25 38.40 37.45 33.54 32.16 29.98 27.33 30.59 33.48 35.67 33.44 31.42 30.97 25.72 24.64 23.30 21.11 26.16 34.88 32.55 34.94 36.15 35.29 37.49 37.51 38.35
41.48 38.07 43.25 45.74 35.13 33.87 35.52 38.89 40.21 40.19 39.09 39.48 38.44 39.43 38.19 36.18 33.03 35.53 35.92 38.87 38.48 37.12 33.95 33.73 28.18 24.64 27.82 31.72 33.47 29.98 32.45 32.03 29.73 26.49 23.80 21.27 26.30 35.07 34.32 35.77 35.83 35.25 35.51 36.84 37.80
38.36 35.98 39.06 39.25 36.47 36.00 35.04 35.37 35.84 39.14 39.13 38.15 37.43 37.58 36.14 33.98 35.82 34.52 34.28 37.78 38.24 38.33 43.17 37.39 28.90 28.36 25.64 28.46 31.12 28.90 31.86 31.55 29.63 20.78 23.58 24.95 27.26 32.24 34.00 33.41 33.84 34.87 35.26 36.10 37.18
37.87 36.75 36.80 34.05 36.99 34.64 35.76 36.84 35.16 34.86 36.96 36.63 34.78 36.01 35.13 31.61 32.05 33.15 35.01 34.19 36.42 41.81 35.76 32.99 27.68 28.09 30.34 32.14 31.80 31.62 32.40 32.25 29.52 28.54 26.19 28.53 28.97 31.35 31.79 31.98 32.80 34.50 36.17 36.33 36.71
39.14 37.25 34.86 33.66 35.40 35.43 36.27 35.35 36.45 34.85 35.44 34.61 33.70 36.09 33.35 32.15 32.51 32.88 35.22 32.81 32.72 34.45 32.16 32.21 27.50 28.50 27.66 32.38 31.79 31.01 32.72 32.53 31.71 30.78 29.73 29.65 29.13 32.36 33.47 32.69 34.56 34.32 35.00 35.13 35.94
38.56 38.45 38.85 36.05 32.95 33.99 34.15 35.45 37.15 36.61 35.64 36.76 35.71 34.36 33.65 34.38 35.15 33.94 34.79 35.70 35.71 34.04 32.36 31.28 29.00 26.17 24.46 28.70 29.76 26.62 30.47 31.61 31.51 31.66 30.82 27.56 30.38 33.28 33.27 35.36 34.87 34.95 35.43 35.85 36.04

GFSSW_sfc_wetblb_060.txt.gz
Wetbulb
61.17 61.19 61.23 61.45 62.33 63.02 63.16 62.87 62.82 61.92 61.55 61.72 61.80 62.03 62.36 62.90 61.81 54.92 51.86 55.96 62.14 67.83 68.45 59.20 58.23 56.17 56.67 55.47 55.97 52.72 44.65 41.27 43.73 43.59 44.60 47.00 46.45 48.57 48.93 47.92 48.17 48.48 48.84 51.52 54.92
60.47 61.13 60.98 60.93 61.15 61.33 61.07 60.86 60.87 60.99 61.09 61.31 61.63 61.98 62.09 62.35 56.00 53.14 60.24 68.55 68.20 68.06 59.06 55.68 53.67 54.21 51.99 53.31 52.73 49.34 44.38 45.08 48.04 47.23 45.26 47.54 46.79 47.44 46.84 46.35 46.59 47.11 49.24 52.08 51.24
59.77 60.57 60.96 60.69 60.22 60.01 60.10 60.33 60.54 60.79 60.99 61.25 61.54 61.62 61.69 60.52 52.31 51.35 67.99 70.19 68.45 66.63 61.30 58.72 55.87 54.01 50.96 51.67 50.21 49.23 47.35 48.19 49.41 49.37 49.22 48.03 46.74 48.13 45.62 43.18 47.08 47.76 48.15 48.82 47.37
59.35 60.15 60.53 60.48 59.86 59.90 60.15 60.47 60.70 60.91 61.07 61.24 61.24 61.18 61.91 55.27 42.41 51.29 70.43 69.75 67.55 64.03 59.23 58.41 55.51 51.49 49.67 48.01 50.20 47.12 48.91 49.75 50.58 50.25 49.02 47.13 48.17 45.42 45.06 44.39 47.12 49.36 47.76 47.16 44.87
58.51 59.42 59.35 59.47 59.80 59.95 60.21 60.50 60.72 60.84 60.77 60.68 60.69 61.05 55.17 49.73 50.79 58.75 68.28 66.92 61.63 58.19 56.43 56.40 53.07 50.86 48.33 48.29 48.49 47.02 48.14 49.12 49.14 49.06 47.63 48.21 45.40 44.83 44.87 44.99 47.07 47.57 47.23 45.86 43.87
58.06 58.34 58.60 59.04 59.34 59.60 59.79 60.10 60.38 60.43 60.28 60.26 60.38 60.45 51.01 46.25 54.64 53.13 53.52 54.12 56.59 56.78 55.60 55.55 52.78 51.64 49.13 48.54 46.44 47.58 47.50 46.94 47.86 47.64 47.38 46.20 44.18 44.77 44.35 44.92 45.07 45.66 44.40 43.64 43.37
57.88 58.43 58.32 58.54 58.89 59.27 59.56 59.84 60.01 59.96 59.84 59.75 60.04 57.61 51.51 51.11 54.17 49.54 52.00 50.84 55.34 56.54 54.35 56.94 55.63 52.09 48.97 47.30 48.83 47.74 44.44 43.85 44.65 45.85 45.32 46.12 41.14 42.81 44.23 44.54 43.51 42.70 41.31 42.39 42.63
57.64 57.39 57.47 58.12 58.34 58.85 59.23 59.47 59.51 59.49 59.56 59.78 60.31 53.91 48.55 57.21 54.39 50.60 51.26 51.00 55.81 57.04 56.49 58.18 55.72 51.81 49.53 48.51 45.51 42.65 40.90 38.58 41.84 45.26 45.17 43.19 38.03 41.94 43.73 43.39 41.91 41.13 39.64 40.84 41.52
56.65 56.81 56.81 57.61 57.58 57.83 58.63 59.02 59.15 59.35 59.42 59.81 53.70 50.17 47.08 57.39 48.45 49.90 50.64 50.34 52.59 53.63 54.66 56.83 54.69 48.84 47.81 42.91 39.29 39.22 36.56 36.14 39.88 44.71 44.28 41.40 38.55 41.55 42.62 42.90 41.75 39.55 38.87 39.84 39.46
56.05 56.16 56.47 56.79 57.16 57.79 58.54 58.62 58.37 57.75 56.39 57.53 55.01 46.93 49.46 45.68 49.43 50.47 50.18 52.07 50.01 50.57 50.74 49.91 46.07 45.09 41.69 40.18 36.19 36.93 35.30 36.33 36.28 40.71 42.01 39.32 40.15 40.86 41.73 41.72 41.69 40.23 38.67 38.73 38.99
56.38 56.12 56.58 56.74 57.17 57.99 55.42 48.58 45.27 46.15 49.51 46.44 47.79 47.45 47.45 50.56 51.73 49.95 52.23 50.41 49.30 46.91 40.93 44.67 39.94 39.37 45.11 42.51 40.50 39.00 37.35 36.54 38.03 41.90 40.75 39.26 39.91 41.99 41.84 40.38 40.10 39.44 39.07 38.70 38.83
55.83 56.51 56.72 56.83 57.52 57.55 51.92 45.57 46.99 47.84 43.22 49.27 50.17 50.47 51.21 51.12 47.46 49.20 51.61 45.80 44.37 40.37 42.64 41.38 37.46 41.09 43.48 43.54 42.69 40.60 37.54 36.79 39.80 43.34 41.22 39.47 39.94 42.36 40.96 40.67 41.94 41.76 40.13 39.87 38.61
57.09 57.06 57.19 57.21 57.37 52.93 49.22 47.52 53.48 50.04 41.07 46.42 49.68 47.58 48.64 50.81 46.82 45.99 49.74 46.60 44.20 40.25 40.14 38.41 41.35 45.05 44.20 42.05 40.93 39.07 36.83 36.31 37.67 40.68 39.93 38.50 37.41 39.03 39.88 40.06 41.19 41.37 40.66 40.47 40.32
57.26 57.61 57.60 57.74 50.65 48.69 48.84 51.47 51.85 49.54 35.79 40.46 44.75 48.04 49.21 50.57 46.46 50.48 49.43 47.14 43.37 39.87 40.34 39.85 43.85 43.59 41.67 40.52 40.72 35.38 41.45 41.43 40.11 36.68 32.30 37.94 29.46 35.55 36.92 38.70 39.16 39.31 38.96 39.94 39.56
57.47 57.88 58.02 55.90 48.32 50.69 53.11 52.05 51.56 47.77 27.23 42.16 45.16 50.67 49.16 46.82 46.16 47.99 50.60 48.40 42.33 41.65 40.61 37.57 40.35 40.55 39.87 40.49 42.04 38.66 42.38 39.48 38.36 34.09 31.73 32.54 29.70 33.60 36.73 37.42 38.09 39.02 38.69 38.92 39.45
57.51 57.48 57.26 55.25 52.60 51.87 52.09 51.01 48.31 36.43 27.71 39.84 45.20 44.15 44.79 45.40 45.24 46.77 46.14 47.21 45.17 41.22 40.75 39.64 43.30 41.96 40.82 42.23 42.60 42.52 38.12 36.25 34.71 32.42 27.06 30.14 29.85 31.25 33.61 35.97 36.64 37.69 39.40 39.72 39.44
57.31 57.18 55.77 53.15 50.46 50.98 50.33 45.21 34.94 31.78 41.09 38.47 40.35 43.43 41.95 41.02 41.45 42.62 39.95 36.93 36.05 31.97 31.84 37.44 38.40 40.22 42.59 39.05 40.74 38.34 33.83 27.96 25.86 26.65 25.76 32.15 30.00 32.81 35.38 36.12 36.00 36.48 37.49 39.55 39.26
56.14 56.19 54.81 54.66 50.84 50.55 47.46 41.91 30.68 37.59 37.71 43.68 41.85 41.04 38.44 41.18 39.66 40.52 37.97 34.82 35.69 34.79 31.95 31.83 31.06 37.03 39.93 37.01 35.45 34.23 33.21 27.33 24.68 24.51 26.99 31.49 27.77 32.99 35.57 36.79 36.55 37.54 37.98 38.75 38.46
54.84 49.03 48.76 49.51 50.92 48.98 42.77 33.44 34.11 37.12 41.09 41.25 40.94 35.92 35.89 39.51 39.76 38.55 34.76 35.23 33.85 33.94 32.52 30.69 30.83 37.38 38.76 38.27 37.86 33.52 31.33 32.81 27.62 24.38 23.59 27.21 30.14 34.98 35.79 36.25 36.83 37.66 38.61 39.00 39.32
45.41 44.50 45.91 47.60 49.25 45.92 40.08 37.56 36.17 40.33 41.73 41.57 35.62 37.74 34.53 36.04 36.27 35.41 34.19 36.17 35.66 35.97 34.33 31.58 28.89 34.11 37.02 38.01 37.47 34.02 36.38 29.56 27.13 22.88 20.98 24.06 24.65 28.76 31.54 33.36 35.77 34.84 34.51 35.98 37.19
43.27 42.55 46.55 45.59 47.00 42.19 34.59 35.45 38.60 41.69 42.01 40.10 37.80 37.42 37.05 36.35 35.98 33.99 34.58 36.39 37.52 35.77 34.80 31.33 30.67 29.04 32.87 31.19 31.68 32.55 30.23 29.21 28.56 25.75 23.29 21.24 25.24 30.67 30.46 33.17 33.02 33.28 35.13 35.95 36.54
41.20 38.95 44.44 46.12 39.83 34.07 36.17 38.08 43.11 40.39 41.66 40.77 40.10 38.99 37.68 36.35 34.31 33.20 34.67 35.18 37.39 36.30 32.06 31.00 29.41 26.81 29.04 31.94 34.36 32.20 30.62 30.19 26.06 23.64 21.99 20.16 25.14 33.56 31.13 33.07 34.24 33.77 35.35 35.64 36.56
40.64 37.52 42.89 45.55 34.84 34.29 35.19 38.21 39.44 39.50 38.37 38.81 37.71 38.64 37.16 35.05 32.52 34.44 34.72 37.71 37.86 35.95 32.53 32.56 27.69 24.19 26.45 30.16 31.84 28.83 30.96 30.29 28.14 26.01 22.78 21.17 26.00 33.69 32.25 33.27 33.36 33.22 34.29 35.81 36.72
37.89 35.55 38.32 38.30 35.50 35.89 34.48 34.78 35.32 38.27 37.98 37.42 36.17 36.57 34.98 32.89 35.09 33.42 32.76 36.68 37.66 37.31 43.41 36.85 27.66 27.35 25.00 27.28 29.90 27.43 30.21 30.18 28.33 20.36 23.17 24.59 25.89 30.14 32.04 31.78 32.93 33.78 33.67 34.18 35.83
37.09 35.72 35.73 33.89 36.31 34.75 35.08 35.37 33.97 34.15 36.02 35.74 33.89 34.92 33.83 30.46 31.05 32.17 33.59 32.70 35.83 41.02 34.28 31.81 27.09 26.28 28.77 30.44 30.41 30.14 31.28 30.20 28.44 27.49 26.06 26.86 27.79 29.17 29.97 31.18 31.63 33.01 34.63 35.08 36.37
38.40 36.56 33.75 32.43 34.41 34.30 35.45 34.31 35.65 33.56 33.96 33.50 32.70 34.77 32.43 31.26 31.09 32.29 34.07 31.39 31.04 33.30 30.70 31.04 26.85 27.62 25.99 30.84 30.46 29.83 31.97 31.18 30.22 29.63 28.55 27.84 27.97 32.48 32.44 32.94 33.21 33.12 34.51 35.18 35.33
37.45 37.56 37.91 34.83 31.95 33.79 33.92 35.07 36.79 35.86 34.33 35.38 34.77 33.42 32.62 33.05 33.87 32.75 33.68 34.15 34.59 32.93 30.96 30.15 28.27 26.07 24.78 27.38 28.45 26.44 29.08 30.91 30.42 30.28 30.31 26.83 29.77 32.70 32.02 33.88 33.76 34.18 34.80 34.68 34.85

GFSSW_sfc_wetblb_063.txt.gz
Wetbulb
60.15 61.26 61.37 61.24 61.46 62.26 62.45 62.73 62.62 62.29 61.62 61.58 61.85 62.04 62.31 62.67 61.58 55.06 51.80 58.42 62.02 67.36 67.65 59.48 60.44 58.64 59.06 59.44 59.03 56.40 51.96 47.99 48.70 47.23 50.06 50.04 49.82 51.07 52.18 52.05 52.49 52.89 54.66 56.93 57.40
58.77 59.99 61.08 61.11 61.01 61.12 60.82 60.77 60.88 61.03 61.19 61.34 61.66 61.99 62.07 62.08 56.36 52.45 59.11 66.50 70.35 66.32 58.18 56.80 55.42 56.24 56.59 57.13 56.82 54.88 52.12 51.26 51.98 51.39 50.30 50.20 50.62 50.89 51.09 51.29 51.51 52.25 54.04 55.74 55.67
58.28 59.42 60.57 60.87 60.73 60.26 60.24 60.31 60.52 60.78 61.14 61.39 61.56 61.52 61.45 60.62 51.54 52.20 66.52 67.24 70.61 65.52 60.52 59.40 57.37 54.90 55.27 56.53 54.61 53.44 53.16 52.12 51.62 52.08 51.86 50.62 49.89 50.76 50.28 48.99 52.41 52.86 53.74 53.41 53.47
57.94 58.89 60.34 60.62 60.39 59.94 60.30 60.50 60.69 60.80 61.06 61.17 61.07 60.96 61.76 56.45 44.21 53.92 69.40 70.49 70.25 63.02 59.76 58.86 57.19 54.65 54.69 52.63 53.31 52.06 51.37 52.23 52.56 52.51 51.42 50.26 51.14 49.64 49.74 50.64 50.98 54.72 54.65 52.10 52.60
57.95 58.63 59.48 59.41 59.54 59.84 60.16 60.37 60.46 60.63 60.64 60.66 60.62 60.78 55.52 50.66 49.46 57.43 69.28 69.70 64.29 59.50 57.47 57.29 54.82 54.70 52.49 51.74 52.33 51.28 51.13 50.72 50.94 50.82 50.03 50.57 48.92 49.23 49.35 49.43 51.83 52.49 52.40 50.49 50.57
58.07 58.07 58.69 58.85 59.16 59.41 59.64 59.92 60.18 60.33 60.21 60.15 60.21 60.34 52.46 44.11 56.22 54.58 56.26 58.17 57.64 57.81 56.65 57.33 55.25 55.22 52.34 51.56 51.77 50.59 50.15 49.61 50.36 50.18 50.08 49.17 47.84 48.78 48.82 48.89 49.63 50.95 51.12 49.03 48.87
58.12 57.79 58.47 58.41 58.66 58.82 59.25 59.53 59.85 59.85 59.79 59.81 59.90 57.86 51.88 48.11 58.28 53.94 52.18 52.74 56.21 57.80 55.36 56.93 57.63 54.20 54.45 50.51 51.95 49.78 48.26 48.28 48.61 49.22 48.64 49.47 45.98 46.72 48.21 48.48 48.45 48.76 49.62 48.06 47.47
57.42 57.76 57.41 57.71 58.15 58.31 58.56 58.91 59.03 59.40 59.48 59.66 59.92 56.18 45.77 56.61 57.92 55.24 52.50 53.44 57.84 59.08 58.04 58.13 58.56 55.42 52.89 51.91 47.78 46.47 46.10 45.59 46.45 48.20 47.96 47.54 44.73 46.48 47.20 47.48 47.48 47.28 46.97 47.31 46.33
57.04 56.97 57.62 56.95 58.02 57.31 57.63 58.14 59.06 59.31 59.36 59.37 55.67 52.01 47.02 58.00 50.53 51.67 53.01 52.01 54.24 56.28 57.26 57.98 56.65 52.03 51.53 46.11 44.71 43.46 43.39 42.17 44.86 47.43 47.41 46.17 44.77 46.23 46.29 46.60 46.54 46.52 46.02 45.93 46.02
56.72 56.32 55.99 56.44 56.64 56.98 58.11 58.50 58.39 57.99 56.48 57.32 55.35 47.85 49.89 47.36 50.59 51.49 53.89 53.04 51.84 54.18 53.07 51.96 49.91 46.52 44.82 45.45 41.80 42.53 40.71 40.42 41.74 44.71 45.95 44.10 44.56 46.15 46.06 45.69 46.81 46.09 45.40 44.91 45.32
56.28 56.59 56.18 56.13 56.44 56.79 55.41 49.22 44.98 46.60 50.11 44.76 47.74 48.18 48.38 51.04 53.01 51.25 54.02 52.03 51.80 49.85 45.79 47.88 45.16 42.98 45.49 46.26 44.31 43.40 41.66 41.17 42.37 44.62 44.79 43.51 43.23 45.85 46.38 44.74 45.18 45.46 44.84 44.40 44.69
55.97 56.45 56.79 56.80 56.51 57.13 52.72 45.23 46.43 49.46 43.96 49.22 48.99 49.79 52.17 52.25 48.35 50.07 53.15 47.99 47.98 43.62 46.33 45.04 42.14 45.73 47.43 46.16 45.43 43.51 41.37 41.12 42.96 45.06 44.59 42.65 42.93 45.85 44.94 44.80 45.14 45.85 44.97 44.50 44.17
55.80 56.43 56.84 56.67 56.54 54.35 49.90 47.32 52.71 50.29 43.97 46.39 49.18 48.95 49.43 51.88 48.21 47.97 50.93 48.06 45.11 44.29 44.15 41.39 44.69 45.69 45.45 43.57 42.56 42.70 40.95 40.65 41.22 42.96 43.00 41.29 41.04 42.35 43.51 44.38 45.14 45.71 46.13 46.04 45.07
56.58 57.29 57.28 57.65 52.25 49.44 47.97 52.12 52.71 50.43 38.03 41.45 45.97 49.08 50.78 51.71 47.23 51.47 51.86 49.27 46.56 42.67 43.26 43.91 46.17 44.74 43.86 42.74 43.26 40.08 44.14 43.53 42.15 40.48 37.07 40.94 34.71 39.56 40.29 43.21 43.05 43.67 43.53 44.52 44.88
57.41 57.36 57.74 57.20 48.48 50.48 53.27 52.67 52.96 49.25 28.98 43.32 46.26 52.48 50.89 47.41 48.03 48.16 51.01 49.75 44.65 43.72 44.01 41.99 43.42 43.35 43.14 42.98 44.55 41.75 43.99 42.00 40.43 37.99 37.70 36.97 35.78 38.58 40.47 41.10 41.97 42.17 43.29 43.20 43.96
57.42 57.36 57.36 55.52 53.86 52.67 53.04 51.21 50.44 37.92 30.28 41.37 46.48 45.12 45.28 46.74 47.07 48.34 47.77 47.82 47.69 43.62 44.14 43.33 46.13 44.66 44.04 43.33 43.96 43.26 40.13 38.51 37.79 36.39 32.21 34.61 34.63 36.38 37.78 38.96 40.28 41.64 42.19 43.71 43.49
57.44 57.44 56.46 54.09 49.65 51.61 50.61 47.83 37.56 33.27 42.07 39.11 41.40 43.71 43.21 43.53 44.24 44.27 41.30 39.06 39.42 36.91 38.42 40.52 41.47 43.38 44.73 41.71 43.63 41.21 38.87 33.67 31.58 31.46 30.92 35.20 33.50 37.39 39.42 39.95 39.20 39.68 41.53 43.78 43.94
56.61 56.53 55.16 55.17 52.44 52.43 48.25 42.51 32.44 38.59 39.05 43.78 42.83 42.68 40.21 43.24 42.11 42.62 41.08 37.18 38.37 38.20 35.56 34.89 34.52 40.61 41.85 41.56 39.97 38.65 39.07 33.57 28.96 29.16 31.42 34.38 32.46 36.99 39.67 40.00 40.52 41.14 42.44 43.56 43.34
54.96 49.78 50.05 49.85 51.12 50.02 44.47 34.32 35.32 38.75 41.49 42.38 42.18 38.72 39.21 41.47 41.29 40.09 38.14 37.24 37.12 37.76 36.41 34.96 35.69 40.11 39.99 41.30 41.59 38.07 36.36 37.62 31.69 29.50 29.53 32.26 34.82 39.48 39.28 39.19 39.05 39.12 40.55 40.38 41.45
46.54 43.96 45.64 46.92 49.73 46.18 40.28 38.18 37.89 41.02 42.70 43.05 37.43 39.70 36.86 38.53 38.55 38.65 37.57 38.58 37.74 38.10 38.80 36.51 33.15 37.01 39.34 41.12 39.84 40.14 39.13 34.41 32.84 28.89 26.89 30.30 31.08 35.18 36.99 37.67 37.59 38.19 38.61 39.69 41.03
42.77 42.24 46.26 45.05 46.63 42.35 35.42 35.99 39.98 42.56 42.84 41.50 39.82 38.78 38.67 38.03 37.90 37.06 36.68 38.25 39.29 38.03 38.04 36.03 35.59 34.46 37.75 36.91 36.11 36.33 34.92 32.74 33.64 31.36 30.13 28.57 32.19 36.12 36.92 36.94 36.82 37.45 38.59 39.47 40.34
41.42 39.18 44.92 46.00 40.20 34.53 36.40 38.77 42.79 40.90 42.03 41.27 40.99 40.34 39.20 37.77 36.71 36.14 36.55 37.36 38.52 38.54 35.53 35.70 33.56 31.23 33.85 36.02 37.94 37.47 35.43 34.64 32.60 29.38 27.73 28.77 32.34 38.06 37.14 37.08 37.90 37.52 38.53 39.82 40.69
40.46 39.56 43.46 45.72 35.79 35.11 36.86 38.82 39.55 39.94 38.51 39.58 38.72 39.67 38.99 36.52 34.97 36.56 36.65 38.88 39.25 38.04 35.89 35.94 31.74 29.14 31.88 34.97 36.75 34.71 34.62 32.70 31.57 31.13 28.12 29.95 32.90 36.22 36.87 36.80 37.26 38.38 39.09 39.95 40.74
37.96 35.97 38.88 39.05 36.55 37.48 35.81 36.29 36.50 39.12 38.64 38.35 37.43 38.36 37.09 34.96 36.66 34.90 34.68 37.92 39.09 39.73 43.02 38.35 30.79 31.16 30.05 33.02 34.63 33.01 32.84 33.31 33.10 29.99 29.83 31.02 32.84 35.12 35.90 36.11 37.74 38.45 39.20 40.04 40.69
36.90 35.87 35.62 34.82 37.51 35.82 36.64 36.84 35.43 35.59 37.32 37.00 35.85 36.72 36.05 32.81 33.53 33.98 35.43 34.97 37.66 40.99 36.32 34.56 30.69 31.45 32.24 33.11 33.74 33.55 33.68 31.88 31.32 31.85 31.89 33.01 31.01 34.78 35.71 36.47 38.06 38.54 39.10 39.89 40.64
37.79 36.64 33.63 32.62 34.41 35.19 36.03 35.31 36.14 34.51 35.58 35.03 34.56 35.44 34.26 33.70 34.68 33.79 34.89 33.77 34.10 35.91 34.01 33.69 30.75 32.37 31.33 33.12 32.69 31.87 33.56 32.97 32.07 32.31 31.36 31.32 32.16 35.92 37.27 38.16 38.16 38.64 38.66 38.65 38.84
37.88 37.52 38.45 34.23 32.55 33.92 34.55 35.98 37.16 36.00 35.03 36.34 35.92 34.44 33.92 34.78 35.74 35.29 35.24 34.89 35.97 34.66 32.88 32.84 31.21 30.79 30.72 29.62 30.90 30.41 32.49 32.55 33.71 33.64 33.85 31.56 35.36 36.62 36.36 37.32 38.31 38.51 38.13 38.01 38.33

GFSSW_sfc_wetblb_066.txt.gz
Wetbulb
59.02 59.29 60.72 61.78 61.33 61.51 61.87 62.21 62.17 61.94 61.71 61.72 61.91 62.16 62.39 62.58 61.91 58.43 53.60 60.86 63.53 67.83 68.23 61.28 61.27 60.56 61.98 62.90 62.76 61.36 57.55 55.02 55.28 53.89 54.78 54.61 54.83 54.35 55.39 55.41 58.56 59.76 60.22 63.56 67.26
58.95 58.69 59.64 60.96 61.43 61.03 60.86 60.81 61.02 61.11 61.29 61.56 61.90 62.10 61.92 61.95 57.86 53.98 62.25 66.92 68.70 70.03 60.36 58.64 58.00 58.83 59.73 60.83 61.63 59.75 57.39 56.53 58.27 57.51 55.44 54.16 54.62 54.55 54.17 54.96 56.94 57.14 58.81 63.75 64.72
59.19 58.43 59.04 60.44 60.99 60.68 60.30 60.53 60.70 60.98 61.26 61.50 61.55 61.44 61.44 60.88 52.81 52.31 68.73 67.92 69.99 68.69 61.08 60.93 60.09 57.64 57.26 60.07 59.11 59.12 57.22 57.72 55.98 56.44 56.47 54.61 53.80 55.66 54.28 53.81 56.15 56.18 59.07 62.34 64.04
59.22 58.33 59.18 60.59 60.49 60.18 60.20 60.53 60.75 60.88 61.07 61.13 61.05 60.94 61.62 57.11 44.05 57.61 69.94 70.50 71.13 64.08 60.74 61.22 59.66 56.62 56.31 56.29 57.90 56.04 55.46 55.98 56.06 56.04 54.89 54.13 55.63 53.45 55.01 55.49 55.95 58.25 61.29 62.32 62.83
58.95 58.22 59.09 59.55 59.38 59.64 59.86 60.07 60.22 60.53 60.71 60.71 60.63 60.62 57.53 51.07 50.90 58.41 68.14 70.64 65.02 60.95 58.34 60.48 58.52 57.14 54.99 55.71 55.37 55.72 55.12 54.70 54.77 54.30 54.97 55.23 53.97 53.97 54.18 55.03 55.70 58.70 60.63 61.22 62.65
58.06 58.40 58.55 58.69 58.86 59.13 59.53 59.75 59.96 59.92 60.25 60.22 60.19 60.17 53.64 46.00 56.50 58.76 59.40 62.43 60.34 59.20 58.65 60.57 59.68 57.95 55.54 53.71 53.08 54.48 54.97 53.87 53.94 53.75 53.71 53.20 52.43 52.46 54.02 54.81 56.32 57.99 58.71 60.39 61.29
57.67 58.33 58.11 58.31 58.37 58.66 58.97 59.35 59.65 59.70 59.88 59.97 59.98 58.17 51.81 50.46 58.35 60.66 57.44 56.17 58.60 59.12 57.98 59.66 59.73 57.66 55.85 52.86 53.61 53.19 51.28 52.20 52.97 53.31 52.39 53.38 50.75 51.44 53.62 54.72 55.24 57.30 58.63 58.56 58.99
57.45 57.51 57.69 57.50 57.62 58.17 58.20 58.41 58.95 58.83 59.51 59.68 59.82 57.01 48.75 56.07 59.48 59.24 58.97 55.31 59.22 60.25 59.38 60.33 60.51 57.76 55.23 54.12 50.70 50.20 51.26 49.18 50.76 51.79 51.09 50.96 52.02 51.32 52.80 53.61 54.01 55.53 57.18 56.91 56.56
57.19 57.28 57.38 57.76 57.03 57.47 57.45 57.90 58.59 59.48 59.38 59.39 56.54 53.38 47.64 59.87 55.64 57.71 56.35 54.34 57.88 58.57 59.12 59.37 59.37 56.05 53.08 51.42 48.57 48.03 48.76 50.33 50.27 51.18 50.39 49.63 51.63 51.05 52.07 52.38 53.24 54.34 54.96 55.43 55.34
56.65 57.00 56.38 56.32 56.57 56.78 56.98 57.94 58.71 58.19 57.79 57.46 55.96 50.99 53.42 51.03 53.39 53.88 56.00 56.95 55.21 56.06 54.78 55.18 55.57 54.99 52.65 50.38 46.59 45.32 44.94 47.94 50.26 49.18 49.22 48.71 49.01 51.37 51.14 51.61 52.34 53.26 53.88 53.88 54.13
56.21 56.86 56.68 56.25 56.46 56.69 56.81 55.13 49.81 49.87 51.95 47.51 49.36 50.08 52.27 55.90 55.32 53.44 55.39 54.62 55.35 54.42 50.90 51.94 53.16 51.61 53.15 52.98 52.35 50.38 47.63 46.90 45.92 47.68 47.70 48.24 48.26 49.99 52.21 51.19 51.34 52.58 52.59 52.38 52.83
55.85 56.29 56.85 56.36 56.69 56.71 56.11 50.06 49.80 51.95 47.44 52.23 49.85 50.46 53.52 55.32 49.93 52.57 55.59 51.06 50.89 48.95 51.22 49.36 48.60 54.68 53.33 49.03 48.05 46.72 45.47 45.95 45.99 47.50 47.72 48.03 47.74 50.36 50.01 50.07 50.67 51.49 52.40 52.52 52.59
55.52 55.89 56.44 56.12 56.16 55.33 53.59 51.65 55.64 54.30 48.10 48.88 51.61 49.95 51.50 53.49 50.09 50.37 53.30 51.19 48.85 47.54 49.47 51.11 50.74 48.59 48.84 48.18 48.73 47.68 46.28 45.82 44.09 46.39 47.06 46.13 45.55 46.75 47.88 49.22 49.50 50.38 51.53 52.87 52.53
56.14 56.21 56.65 57.05 53.68 54.54 51.08 54.76 56.90 55.54 44.31 44.48 48.42 50.88 52.85 54.20 49.11 53.24 54.22 51.71 48.86 46.53 47.57 47.40 48.58 47.47 47.11 46.36 47.31 44.25 46.55 45.84 44.71 44.12 40.96 45.49 38.63 45.36 45.96 47.68 47.65 48.31 49.68 50.72 52.09
56.33 56.23 56.90 57.04 53.87 52.71 55.58 56.88 56.11 52.89 34.25 45.84 48.35 54.77 53.17 50.64 50.49 50.17 53.10 52.57 47.63 46.97 47.84 45.53 46.84 46.72 45.98 45.95 47.29 45.63 47.62 46.27 44.50 44.11 42.60 42.38 40.57 44.11 46.22 45.64 46.36 47.94 48.44 49.31 50.54
56.45 56.93 56.80 55.64 54.82 55.73 56.61 55.06 52.71 43.09 33.69 43.27 48.25 47.69 48.55 49.47 49.12 50.23 50.36 52.41 51.46 48.20 48.86 47.04 48.72 48.28 47.06 47.10 47.76 47.65 45.90 44.97 44.60 43.34 38.05 40.63 39.98 41.66 44.01 43.18 45.07 47.65 48.43 48.77 48.92
57.37 57.37 56.47 56.68 54.58 56.46 55.62 50.60 42.77 36.14 44.43 41.98 43.64 46.29 46.59 45.82 46.77 47.01 46.15 46.16 45.31 42.26 43.21 45.82 45.20 46.94 48.25 46.11 46.91 45.96 44.67 39.56 37.68 37.46 37.07 40.23 38.87 42.71 43.56 43.73 44.54 45.25 47.58 48.53 49.35
56.99 56.99 57.10 56.70 57.99 56.55 51.52 48.26 36.20 41.61 42.18 46.43 45.28 45.36 43.83 45.79 45.17 45.58 44.36 43.13 44.05 44.70 43.57 42.30 39.50 44.56 45.21 45.53 44.75 44.90 44.50 40.00 33.42 35.70 38.74 39.16 37.46 41.81 43.19 44.74 45.67 46.83 48.09 49.14 49.09
55.72 56.00 54.81 55.63 56.69 55.53 49.37 41.27 41.43 43.03 44.34 44.34 45.08 42.16 42.73 44.35 45.38 44.04 44.07 43.14 42.32 43.61 42.66 40.93 39.45 43.17 43.61 45.27 45.20 43.10 41.54 43.23 38.57 37.76 37.08 40.90 40.64 43.20 43.78 43.55 44.86 45.62 46.76 46.43 47.22
54.18 52.31 52.90 53.32 56.06 51.23 48.16 42.80 43.69 44.75 44.97 44.99 39.93 42.82 40.69 41.95 43.26 43.54 42.85 42.87 41.33 41.85 43.58 42.70 38.83 41.29 42.21 44.51 44.49 44.30 44.32 39.73 41.18 34.02 32.69 36.98 37.51 41.15 41.10 41.87 43.34 44.16 44.95 45.59 46.78
51.56 49.49 51.86 52.04 54.10 50.35 44.09 43.73 44.40 45.65 45.36 45.07 43.78 43.13 43.36 42.90 43.66 42.62 41.69 42.13 42.62 41.29 43.16 42.85 42.36 38.38 41.66 41.72 42.21 41.40 41.57 40.42 40.71 38.96 35.49 34.58 38.05 42.94 43.10 42.60 42.72 43.50 44.64 45.60 46.26
50.64 45.58 50.65 52.69 47.66 47.70 45.39 44.54 44.06 44.89 45.82 44.99 45.68 44.88 44.35 43.17 42.50 41.97 41.46 42.14 42.00 42.21 40.95 40.79 42.62 39.24 38.51 39.96 41.51 41.94 41.61 42.29 38.40 35.90 38.08 37.20 38.05 42.56 43.13 43.11 43.34 43.21 44.13 45.41 46.14
49.11 49.41 50.97 51.88 44.06 44.63 45.25 43.14 43.50 43.73 43.07 43.78 43.28 43.71 43.78 42.28 41.06 41.88 41.59 41.06 42.52 41.98 41.05 41.77 39.59 36.53 36.26 39.00 40.32 39.25 40.26 40.09 39.56 40.14 37.11 35.62 38.74 42.41 42.46 42.30 42.91 43.65 44.57 45.12 45.60
48.66 45.02 47.01 49.39 47.08 45.11 43.58 43.45 42.71 43.16 43.06 42.70 42.78 43.33 42.72 41.29 42.69 40.55 40.03 40.61 42.41 43.74 42.27 42.80 39.11 37.92 37.46 38.42 40.62 37.54 37.81 39.47 40.58 37.66 38.58 38.18 39.80 39.51 41.18 41.57 42.72 43.71 44.55 45.10 45.61
47.86 46.07 44.95 43.84 45.47 45.26 44.18 43.46 41.62 41.27 42.68 42.05 41.55 41.76 42.25 39.72 40.14 39.78 39.83 39.41 41.83 42.76 41.08 41.61 37.48 37.52 37.47 37.76 38.10 38.72 38.66 38.01 37.71 40.21 36.74 38.93 37.64 40.23 42.23 42.85 43.54 44.30 44.14 44.16 44.48
48.38 45.60 43.56 43.36 42.11 44.79 42.95 43.30 42.43 40.90 41.76 41.26 40.47 40.22 40.82 40.91 41.90 40.44 40.90 40.36 40.29 40.72 40.40 39.87 38.31 38.26 36.80 37.27 37.34 36.38 39.17 39.01 38.44 38.27 37.49 38.34 38.23 44.03 43.35 44.02 43.06 43.71 43.40 43.47 43.93
49.13 47.09 45.94 40.32 42.00 43.28 44.15 44.38 43.48 42.36 40.29 41.09 41.74 41.21 40.23 39.92 42.17 42.92 42.55 42.99 42.78 41.13 39.47 39.11 39.38 38.61 37.61 36.40 37.05 36.33 39.58 39.29 39.25 39.83 40.22 37.24 41.62 42.07 40.86 41.54 42.70 43.17 43.24 43.03 43.00

GFSSW_sfc_wetblb_069.txt.gz
Wetbulb
59.13 59.23 59.18 60.18 61.42 61.62 61.46 61.46 61.67 61.73 61.70 61.81 62.10 62.32 62.39 62.61 61.87 59.61 55.53 60.52 64.32 67.52 67.31 62.69 62.23 62.02 63.55 62.72 64.98 64.40 58.26 55.61 56.71 56.35 57.09 58.98 58.59 57.35 57.55 56.70 58.07 61.58 61.60 65.70 69.32
59.12 59.43 58.96 59.48 60.75 61.42 61.03 60.86 61.00 61.21 61.44 61.69 61.95 62.09 61.84 61.89 58.35 55.60 62.47 66.75 68.61 68.97 60.21 61.13 59.56 60.78 59.83 61.23 62.76 59.96 57.77 57.80 60.20 59.84 58.21 57.39 58.26 56.44 54.88 55.40 57.37 59.03 61.53 66.06 68.50
58.87 59.65 58.95 59.25 60.61 61.10 60.72 60.65 60.95 61.14 61.33 61.54 61.59 61.46 61.42 60.92 54.59 52.16 69.38 68.43 67.76 68.23 61.61 62.08 60.94 59.80 58.01 61.31 61.14 60.21 57.72 60.46 59.30 59.93 59.67 57.08 56.14 57.39 55.32 55.65 57.94 58.30 59.64 63.66 65.82
58.46 59.51 58.68 59.57 60.58 60.44 60.45 60.55 60.80 60.90 61.09 61.12 61.09 61.06 61.54 58.41 44.94 58.40 69.39 69.24 69.97 63.95 61.19 61.17 60.97 58.37 56.53 57.36 60.80 57.07 60.46 59.80 58.72 57.48 57.79 56.18 57.36 55.48 56.53 58.20 58.51 59.23 60.76 62.93 64.48
58.32 58.66 58.76 59.15 59.60 59.77 60.00 60.15 60.38 60.56 60.60 60.75 60.68 60.66 58.37 52.27 51.67 58.25 66.00 68.46 65.70 62.36 59.67 59.85 60.56 59.16 56.54 58.01 59.32 56.84 58.28 57.31 57.95 56.84 57.20 57.60 56.20 56.23 56.31 58.36 57.72 58.58 60.79 61.96 63.11
58.07 58.09 58.76 58.78 58.98 59.22 59.47 59.85 60.19 60.33 60.10 60.40 60.46 59.89 55.73 47.78 57.28 57.89 58.45 63.38 63.73 61.09 59.69 60.49 61.92 62.65 58.16 56.47 55.64 57.00 57.14 55.85 55.72 55.71 56.04 55.52 55.39 54.57 57.73 58.17 56.84 58.11 59.66 61.21 62.21
57.67 57.94 58.49 58.43 58.28 58.56 58.98 59.19 59.42 59.27 59.27 59.98 60.26 58.61 53.57 51.55 57.99 60.34 59.21 57.02 61.42 61.18 59.18 61.36 63.81 60.59 60.19 55.89 56.33 55.66 53.33 54.21 54.75 55.22 54.69 55.95 53.20 53.36 57.70 56.65 56.19 57.35 58.74 60.12 61.69
57.09 57.84 57.73 57.92 57.67 57.85 58.40 58.31 58.46 58.83 59.25 59.84 60.02 57.35 50.61 58.24 58.79 57.17 58.28 57.88 57.60 59.57 61.04 62.06 62.16 62.11 58.43 57.17 54.41 53.20 54.47 50.35 53.28 53.14 53.51 52.69 52.78 55.76 55.83 54.77 55.02 56.78 58.11 59.06 59.90
56.75 57.27 57.22 56.85 57.28 57.15 57.61 57.82 58.18 58.93 59.65 59.60 57.02 54.85 49.09 60.21 54.66 56.63 58.72 54.82 57.30 59.01 60.55 61.58 61.32 58.58 57.01 53.78 52.02 51.82 50.52 51.23 52.71 53.88 53.29 50.99 52.34 52.63 54.14 53.86 54.34 55.45 56.57 57.99 58.16
56.48 56.77 56.75 56.54 56.29 56.91 57.36 57.75 58.93 58.65 58.58 57.89 56.42 50.76 53.16 51.86 56.26 57.18 58.82 56.29 56.49 57.29 56.44 57.58 58.13 55.36 54.88 53.03 47.53 50.22 50.25 52.30 51.40 54.55 51.18 50.95 51.10 54.28 53.20 53.06 53.22 54.18 55.20 55.97 56.71
56.02 56.40 56.74 56.74 56.69 57.06 56.70 57.63 52.98 51.62 52.83 49.73 50.40 49.92 52.79 56.28 55.75 53.70 55.61 55.53 56.24 55.50 52.25 55.05 53.22 51.25 54.49 55.20 54.87 53.55 52.59 51.07 51.68 48.68 47.92 49.52 51.26 52.34 53.38 53.33 52.62 53.28 53.76 54.43 55.13
55.55 55.77 56.62 56.66 57.03 56.79 56.31 52.91 52.23 53.78 47.84 54.16 51.73 51.35 53.81 54.53 50.98 52.64 56.19 52.21 52.47 50.02 54.64 51.43 50.21 55.72 57.31 56.31 54.26 52.37 51.16 50.89 51.22 48.43 47.73 50.32 50.00 51.52 52.15 52.15 52.36 52.58 53.47 54.19 54.72
55.59 55.30 56.20 56.89 56.33 55.76 55.07 54.00 57.15 56.49 48.90 50.91 53.26 51.84 52.54 53.77 50.79 50.90 54.02 52.76 50.61 50.22 53.00 50.73 52.78 54.33 55.60 51.11 49.89 50.93 50.00 49.19 47.77 48.41 48.78 46.77 45.32 48.55 50.12 51.04 51.08 51.79 53.04 53.80 54.70
56.05 55.81 56.36 56.83 53.81 56.35 54.28 56.85 58.84 57.89 45.28 45.82 49.07 51.50 53.31 54.48 49.28 54.56 55.30 52.60 50.32 49.24 52.06 53.23 51.71 50.65 51.03 51.79 51.92 49.43 51.76 48.82 47.51 44.51 40.83 47.22 39.57 46.49 48.30 48.95 49.25 50.50 51.59 52.55 53.87
55.93 56.47 56.37 56.35 56.41 55.08 57.29 58.94 58.01 54.63 34.48 46.88 48.96 55.51 54.20 51.57 50.86 50.89 55.07 53.39 48.45 49.49 51.19 47.86 47.62 48.74 49.14 49.46 52.14 49.50 49.54 48.05 47.40 45.56 44.53 44.22 41.34 44.37 47.55 46.95 47.41 49.44 50.68 51.59 52.89
56.35 56.87 56.21 56.67 56.52 56.13 57.78 56.38 55.16 43.72 34.48 44.56 48.94 48.48 48.96 50.56 49.99 51.70 51.77 54.31 53.94 49.40 50.03 48.97 51.89 50.39 49.51 49.08 49.61 50.21 48.14 47.59 47.09 45.37 39.10 43.17 42.39 43.03 45.01 44.89 46.16 49.05 50.01 50.73 51.13
57.48 57.27 56.26 58.08 56.75 57.92 56.44 54.37 44.06 38.14 46.14 42.93 44.27 47.65 48.02 46.61 47.25 48.52 47.50 47.80 46.35 43.75 44.96 46.99 47.20 48.56 50.27 46.96 48.79 48.17 46.05 40.48 39.37 39.04 38.24 43.27 41.24 44.02 45.39 45.79 46.95 48.04 49.05 50.14 51.20
57.40 57.32 57.30 57.15 59.08 58.16 54.54 48.63 38.13 43.99 42.30 47.49 46.05 46.18 44.52 46.29 46.96 46.79 46.52 45.10 47.25 46.77 46.01 43.15 40.00 46.70 48.07 47.58 46.12 45.99 45.96 40.80 34.70 36.81 40.32 42.88 39.25 43.18 45.69 47.45 48.72 49.56 49.91 50.44 50.47
56.60 56.95 56.41 57.37 58.92 57.54 51.53 43.43 42.38 43.87 46.10 45.61 44.80 42.61 42.96 44.71 46.31 46.13 45.88 45.62 45.42 46.10 44.50 44.70 41.23 45.68 46.37 47.83 47.49 45.37 41.85 46.12 41.91 42.34 38.70 41.36 43.35 44.51 45.70 45.99 47.59 48.09 48.52 48.37 49.26
55.59 53.82 53.73 58.16 58.12 54.90 48.77 44.53 45.78 46.69 45.76 45.93 41.92 44.13 41.00 44.13 43.68 44.08 44.58 45.15 44.36 44.62 46.64 45.42 40.33 44.40 44.47 47.05 46.88 46.17 46.94 41.02 42.19 35.18 34.91 39.83 39.98 41.34 42.44 43.63 45.48 46.02 46.56 47.38 48.48
53.91 49.55 54.32 56.36 57.36 51.45 44.58 46.13 46.62 47.93 47.01 45.40 45.04 44.50 44.53 42.53 44.10 43.15 44.09 44.57 44.86 44.59 46.00 45.97 44.47 40.85 44.06 43.93 44.34 43.56 43.13 43.26 43.14 41.62 36.62 35.79 39.42 45.78 45.00 45.17 44.99 45.87 46.87 47.38 47.74
52.32 45.76 53.53 56.03 48.61 50.09 46.20 47.16 44.61 47.32 48.46 47.10 47.33 47.14 45.80 44.72 44.72 44.89 43.45 44.92 44.52 44.83 44.01 45.00 45.23 40.42 41.48 42.77 44.02 44.87 44.55 44.79 39.92 38.49 40.00 39.10 38.95 45.44 46.40 45.80 46.24 45.87 46.58 47.42 47.84
48.89 49.92 53.58 54.36 45.38 47.88 49.22 46.44 46.70 46.12 46.39 45.76 45.25 46.45 46.81 45.78 43.45 44.84 44.08 43.42 44.65 44.26 43.67 45.05 42.78 37.91 37.85 40.69 42.19 41.11 43.38 43.73 43.05 42.31 38.42 36.84 39.04 44.98 45.07 45.01 45.88 45.89 46.58 47.02 47.37
50.28 45.59 49.17 50.63 51.21 47.87 46.81 46.48 45.18 45.89 45.90 45.08 45.07 45.41 44.86 44.36 45.55 43.29 42.57 42.82 44.29 45.53 43.37 45.44 42.77 41.18 38.70 40.26 43.01 39.53 41.06 42.04 41.72 38.91 39.97 40.42 41.20 41.91 43.39 43.93 44.94 45.94 46.69 46.90 46.77
49.56 47.42 48.42 45.51 46.92 47.85 47.76 46.84 44.90 43.84 45.47 45.20 44.33 44.24 44.29 42.34 43.49 43.04 43.53 42.03 43.91 44.24 43.90 44.43 40.28 40.18 40.07 40.20 40.52 40.65 40.70 40.71 39.83 41.49 38.90 41.27 39.84 43.30 44.15 45.01 45.83 46.51 46.45 45.96 46.00
47.86 47.27 48.47 47.02 46.98 47.03 45.55 45.09 44.91 45.61 44.90 43.77 42.86 44.20 44.23 42.80 43.77 42.88 43.94 43.54 42.35 43.08 42.69 43.01 40.33 40.35 39.07 40.16 40.05 38.90 41.17 41.15 41.10 41.10 40.94 41.23 40.47 46.11 46.97 46.08 45.26 45.26 45.46 45.11 45.73
51.99 53.02 48.31 45.93 45.94 44.96 45.95 45.81 45.83 46.67 43.62 43.96 44.09 43.72 42.74 42.61 44.81 45.95 46.24 45.60 45.01 43.24 42.07 41.59 41.71 40.13 38.62 40.19 40.41 38.36 41.89 42.49 42.47 42.86 41.97 38.68 42.46 44.69 43.01 43.74 44.56 45.35 45.28 44.81 44.47

GFSSW_sfc_wetblb_072.txt.gz
Wetbulb
59.42 59.72 59.79 59.48 59.83 61.12 61.85 61.33 61.37 61.53 61.68 61.92 62.21 62.33 62.31 62.56 61.84 57.81 53.58 58.91 63.58 69.45 67.05 61.08 62.24 62.59 63.40 62.98 64.17 65.92 56.87 53.62 55.26 56.24 56.43 58.81 57.54 58.94 57.06 55.73 57.02 58.55 61.84 63.66 67.52
59.06 59.26 60.15 59.41 59.61 60.55 61.45 61.05 61.13 61.35 61.54 61.71 61.92 62.01 61.93 62.21 57.02 54.07 61.50 68.04 69.05 69.51 57.97 58.60 59.52 61.23 59.41 60.85 62.37 58.91 55.57 56.30 59.78 58.79 57.71 58.25 58.18 55.04 53.67 53.33 54.76 57.55 61.23 66.25 67.22
58.30 58.86 59.90 59.16 60.04 60.94 61.01 60.79 60.97 61.17 61.32 61.45 61.50 61.46 61.43 60.47 53.05 52.65 69.64 71.09 68.35 67.64 58.52 59.01 60.37 60.43 57.80 60.10 60.05 59.79 54.81 59.57 60.35 60.85 60.79 57.35 57.75 56.71 53.72 52.84 55.52 55.98 57.86 62.75 64.59
58.47 58.61 59.18 59.08 59.61 60.23 60.29 60.46 60.71 60.86 61.05 61.06 61.04 61.18 61.46 57.08 44.27 57.09 68.75 68.70 69.56 61.86 57.62 58.73 58.27 57.50 56.70 55.46 60.66 55.95 59.10 60.05 61.24 58.82 58.99 56.38 57.45 54.65 54.86 56.19 56.64 57.55 59.46 61.42 61.71
57.87 58.63 58.54 59.10 59.23 59.72 59.86 60.01 60.29 60.55 60.58 60.46 60.54 60.76 57.44 50.66 50.90 58.19 66.47 66.08 65.28 62.10 55.96 57.59 57.14 58.13 55.48 57.07 58.60 56.70 58.13 59.00 58.62 57.98 57.78 57.89 55.55 55.86 54.66 56.89 56.12 57.94 59.99 59.39 60.46
57.36 58.20 58.37 59.08 58.94 59.22 59.33 59.54 59.81 59.92 59.78 59.84 60.24 60.21 54.09 45.76 57.92 58.42 57.10 57.63 62.90 59.96 57.57 59.27 58.41 61.43 58.82 57.68 56.55 56.85 58.38 57.53 56.49 57.37 56.88 56.20 55.50 54.81 56.25 57.09 55.57 55.60 56.69 58.43 59.25
57.08 57.77 58.25 58.48 58.40 58.41 58.54 58.86 59.12 59.05 59.23 59.58 59.95 58.27 52.12 49.84 58.18 58.58 58.18 57.66 58.31 61.90 58.27 60.18 60.65 61.07 60.77 56.67 57.59 56.56 54.06 54.65 55.18 55.87 54.19 54.73 53.05 51.89 56.54 55.91 54.37 54.24 54.94 56.91 58.53
57.05 57.47 57.91 58.03 58.11 57.89 57.73 58.07 58.51 58.74 58.95 59.56 60.14 56.26 48.40 57.71 59.07 57.44 57.36 56.19 57.69 59.35 61.00 61.69 61.93 61.40 60.26 57.77 55.29 53.26 54.30 48.70 53.20 54.09 53.35 52.70 49.66 53.55 55.15 53.35 52.70 53.74 53.68 55.61 57.52
57.28 57.10 57.45 56.86 56.69 56.76 57.14 57.69 58.21 58.83 59.33 59.76 55.81 53.59 48.10 59.77 54.85 56.60 56.20 53.99 56.82 56.21 58.68 60.74 61.34 58.38 59.22 52.87 50.12 51.32 46.60 49.24 50.28 55.47 53.15 50.77 49.13 52.25 53.19 52.98 52.04 51.56 52.52 55.26 55.27
56.56 56.71 57.11 57.16 57.41 57.15 57.90 57.70 58.65 58.76 58.19 58.07 56.01 49.19 51.94 51.91 55.46 55.39 55.78 56.31 54.48 55.27 55.98 56.61 56.24 53.91 53.62 51.05 44.57 47.37 47.25 49.89 50.05 54.21 53.59 50.34 47.94 52.16 55.16 51.62 50.80 49.92 50.80 52.47 54.37
56.59 56.35 57.08 56.72 57.24 57.17 55.90 55.95 52.76 51.68 52.27 48.88 50.05 48.93 50.78 54.76 56.65 54.28 56.61 55.27 54.66 54.34 49.81 53.52 50.35 48.67 50.48 52.95 53.64 52.73 50.76 49.46 49.44 51.47 51.69 50.49 49.96 52.19 54.35 51.05 50.47 49.23 49.68 50.06 53.04
56.49 56.18 56.88 57.01 57.41 56.99 54.79 52.81 51.71 53.11 46.45 53.07 53.09 52.41 52.95 53.53 49.19 52.29 55.15 50.04 51.54 48.15 51.78 50.20 47.89 53.51 55.17 54.10 52.96 52.60 50.62 49.63 50.15 48.82 48.13 48.84 49.07 52.51 53.61 50.98 49.81 49.34 48.75 49.87 50.05
56.29 56.12 56.74 57.38 57.61 55.46 53.89 53.91 57.68 57.16 47.81 51.28 53.55 52.45 52.61 53.44 49.92 50.25 53.16 51.84 49.76 48.23 49.56 48.28 51.09 54.90 53.88 53.36 51.77 51.42 48.93 49.30 47.94 47.79 49.93 47.90 43.70 46.73 48.98 49.71 50.27 49.43 49.67 50.20 50.27
56.22 56.85 56.80 57.43 53.94 56.99 54.38 58.35 58.65 57.36 43.71 45.79 48.65 51.22 52.47 53.75 49.38 54.24 54.41 52.74 50.08 47.71 50.26 50.42 52.86 52.38 53.57 51.25 51.64 47.25 52.18 51.46 49.65 45.06 40.94 45.29 35.53 43.20 45.89 46.78 47.48 47.81 48.44 49.12 50.06
56.24 56.47 57.26 56.40 53.58 53.92 55.68 57.89 57.03 54.50 32.66 47.43 48.76 55.14 53.84 50.81 50.60 50.06 55.96 53.07 47.52 48.92 51.05 49.27 48.79 50.08 49.63 50.81 52.93 48.40 50.75 49.34 49.16 44.30 41.67 41.64 36.86 40.11 44.96 44.43 44.44 46.33 47.67 47.72 49.63
56.07 56.75 57.03 55.45 55.50 56.19 58.41 56.78 53.83 43.41 33.35 44.52 48.79 48.06 47.83 50.09 49.65 51.00 50.48 54.12 53.59 49.26 49.61 48.93 52.00 51.71 51.30 49.50 49.71 49.99 47.65 46.80 45.76 42.09 34.40 40.62 39.09 37.86 40.15 41.13 43.56 45.70 46.37 47.33 47.66
57.11 57.39 56.14 56.73 54.51 58.57 57.70 52.80 42.33 36.24 46.95 42.92 44.45 47.64 47.73 46.91 47.33 46.74 46.57 46.10 44.63 42.40 42.78 46.00 46.73 49.37 50.95 46.73 49.50 47.93 43.27 36.44 34.44 33.42 33.54 41.37 38.50 37.93 41.59 43.65 44.82 44.78 44.90 46.26 47.00
57.40 57.34 56.50 56.34 57.66 57.63 54.72 47.37 37.18 42.75 43.23 46.62 46.30 46.25 43.98 46.53 46.67 46.37 45.04 43.79 47.64 45.81 44.61 40.90 37.89 45.82 49.65 47.29 44.47 44.33 43.07 36.77 30.96 32.48 35.41 41.66 34.92 36.30 43.50 45.59 46.31 46.67 46.10 46.50 46.74
56.51 54.88 54.12 56.76 58.52 57.21 50.09 42.08 41.32 43.27 46.43 45.06 44.35 41.80 42.26 45.77 45.71 45.74 44.93 44.95 44.73 44.64 40.63 41.60 39.65 45.72 46.86 47.97 46.19 44.01 39.41 44.45 38.46 38.21 33.52 37.55 38.06 40.50 43.52 43.99 44.99 44.63 45.11 44.98 45.66
53.62 53.74 53.75 57.93 58.25 54.40 46.99 43.17 45.40 47.28 46.99 47.45 40.04 42.60 38.43 42.78 43.40 44.21 44.26 45.42 45.37 45.33 45.47 43.84 37.45 44.85 44.90 47.08 47.02 44.86 45.57 38.23 38.17 30.85 29.12 35.99 35.79 35.47 38.85 40.76 43.16 42.59 42.36 43.77 44.97
52.28 48.55 54.49 57.91 56.51 50.33 42.57 44.69 46.56 48.81 47.69 45.29 44.52 42.96 43.85 44.25 44.04 43.41 44.04 44.62 45.49 46.00 46.51 44.75 42.48 39.93 43.85 42.36 42.30 41.54 40.51 40.84 39.62 37.91 30.97 29.43 32.13 40.67 40.68 41.75 41.51 41.95 43.28 43.83 44.01
50.42 44.47 54.05 56.19 46.76 48.41 45.81 46.80 45.46 47.76 49.01 46.73 47.07 46.92 45.70 43.90 41.65 42.71 43.87 44.20 45.21 45.08 43.75 44.75 41.95 37.55 39.48 42.19 43.84 43.15 42.13 41.93 34.98 33.68 35.35 32.50 31.56 42.47 42.45 43.06 43.46 42.81 44.39 44.18 44.67
47.93 48.05 54.00 53.19 41.91 45.54 49.23 47.88 47.48 46.42 47.24 46.53 45.97 47.91 47.43 45.41 42.59 45.27 44.78 44.76 45.86 45.19 42.23 42.75 40.19 34.18 35.03 38.28 40.52 39.20 42.08 42.62 40.72 38.30 33.52 29.13 31.89 42.29 41.83 41.70 42.78 42.29 42.98 43.75 44.37
48.12 43.89 48.09 48.87 48.26 44.92 45.14 46.23 46.26 47.85 45.82 46.25 45.27 46.19 45.28 43.96 46.24 44.14 43.32 44.21 45.77 46.04 45.12 43.42 41.29 38.21 33.88 37.34 40.37 37.15 39.83 40.55 38.59 32.22 33.78 34.47 35.71 38.40 40.12 40.84 41.44 42.10 43.15 43.06 43.94
47.70 44.28 48.29 42.99 44.99 45.48 46.25 46.59 44.92 44.65 45.79 45.97 44.55 44.26 43.66 41.79 43.40 42.88 43.43 42.31 44.72 44.73 44.16 42.09 38.31 38.74 38.74 39.68 39.68 39.33 39.82 39.31 37.14 37.49 33.01 36.73 37.38 39.66 40.71 40.95 41.71 42.99 43.63 43.24 43.54
45.31 46.31 47.62 44.94 46.72 44.62 44.72 44.74 44.81 45.92 45.53 44.80 42.59 45.10 43.84 42.10 41.36 41.03 43.71 42.74 42.22 42.65 41.56 41.96 37.79 38.38 36.99 39.76 39.47 37.99 39.78 39.49 39.57 39.32 38.27 38.43 36.85 41.76 42.15 41.75 41.37 41.63 42.81 42.04 41.88
50.80 50.83 47.27 44.83 44.81 43.53 43.30 44.64 45.86 46.96 45.34 45.10 43.92 43.94 42.75 42.96 44.65 44.57 44.55 44.00 43.57 41.49 40.00 39.60 38.41 36.65 34.00 39.68 39.29 35.23 39.28 40.20 40.29 40.54 38.79 34.28 37.98 41.13 39.60 41.29 40.36 40.44 42.53 42.20 41.39

GFSSW_sfc_wetblb_075.txt.gz
Wetbulb
59.14 59.61 59.65 60.49 59.85 60.27 60.77 61.68 61.31 61.41 61.64 61.92 62.16 62.25 62.20 62.43 61.81 56.34 51.61 56.92 60.43 68.49 67.03 59.00 59.80 59.63 60.22 57.71 59.89 61.17 52.03 49.93 52.04 53.37 54.29 56.53 53.56 54.55 54.40 54.48 55.05 56.86 58.82 60.99 63.65
58.56 58.84 59.36 60.26 59.55 60.64 61.23 61.29 61.11 61.27 61.43 61.51 61.77 61.89 61.82 62.02 56.48 52.27 59.29 64.58 68.34 69.70 57.44 54.97 55.11 58.09 54.69 55.82 57.97 54.79 50.46 52.27 57.41 56.47 55.74 57.05 53.84 52.33 50.62 50.95 53.04 56.03 62.20 63.98 64.82
57.93 58.86 59.12 59.68 59.35 60.21 60.64 60.78 60.89 61.01 61.08 61.12 61.15 61.12 61.32 60.76 51.52 51.62 69.75 69.51 70.84 67.77 58.21 56.03 55.57 55.55 53.25 55.77 56.17 55.64 51.25 56.71 58.81 60.37 58.96 56.84 54.08 53.80 50.01 48.28 53.04 54.20 60.46 63.55 62.88
57.74 58.34 59.01 58.93 59.36 59.72 60.21 60.26 60.40 60.63 60.46 60.33 60.65 60.93 61.21 56.78 38.83 55.17 67.62 67.52 69.90 65.89 56.85 55.21 55.32 52.04 51.77 51.68 56.02 53.06 57.07 58.55 58.01 59.39 57.04 56.18 55.08 51.54 51.35 52.39 54.53 56.20 60.14 61.82 61.70
57.49 58.04 58.63 58.67 59.29 59.36 59.71 59.80 60.00 60.24 60.34 60.12 60.25 60.40 56.88 48.86 49.16 57.30 65.05 62.91 58.86 63.82 54.52 52.73 52.45 52.33 51.10 53.53 55.69 53.96 55.63 58.35 56.32 56.78 56.80 56.24 53.37 52.45 52.00 53.30 55.03 57.32 59.46 59.71 59.90
57.82 57.49 58.37 58.52 58.87 59.00 58.93 59.01 59.40 59.67 59.57 59.64 60.03 60.06 53.31 44.47 56.37 57.52 57.33 56.67 56.57 60.26 56.27 53.34 54.07 55.86 54.73 54.81 53.18 55.56 56.27 56.29 55.48 55.41 55.62 53.11 52.95 54.14 53.63 53.41 53.18 56.16 56.59 57.13 58.58
57.67 57.48 57.92 58.21 58.72 58.63 58.48 58.43 58.67 58.91 59.13 59.37 59.94 57.63 51.10 47.94 56.42 56.18 56.48 55.21 56.10 57.09 54.77 55.20 55.86 54.46 57.12 53.88 55.64 53.75 50.89 52.00 53.11 54.89 52.83 54.65 51.84 50.98 54.12 53.46 52.34 52.07 52.85 55.65 57.25
57.43 57.67 57.66 57.83 58.15 57.19 57.38 57.64 58.60 58.56 58.89 59.46 59.63 55.43 46.55 56.00 56.12 55.78 56.53 55.27 56.38 56.02 56.76 58.84 58.65 55.75 54.89 55.29 53.03 50.14 49.69 44.64 50.94 52.59 51.95 52.42 47.65 51.23 52.08 52.40 51.49 52.04 50.67 53.45 55.52
57.39 57.20 57.32 57.50 57.59 57.23 57.54 57.82 58.18 58.79 59.44 59.70 55.52 51.80 46.25 58.94 54.29 56.47 55.86 53.07 53.75 54.43 54.32 58.86 57.02 54.06 56.96 49.67 45.36 46.98 42.04 45.09 46.48 52.80 51.63 50.98 46.50 51.32 55.39 53.14 49.19 49.41 50.06 53.06 54.22
57.01 57.36 56.90 57.19 57.34 57.72 58.11 58.01 58.03 57.94 57.48 57.64 55.72 46.78 49.92 50.08 53.52 54.09 54.81 54.63 51.54 52.47 51.23 51.94 51.84 48.71 50.11 45.88 39.70 41.31 42.89 45.97 45.87 51.47 51.47 48.27 48.92 52.78 55.32 55.04 52.56 49.96 48.34 50.98 53.23
56.94 57.60 57.34 56.87 57.01 57.36 55.09 51.64 47.70 48.58 51.54 46.73 48.63 47.61 49.99 52.88 54.41 51.77 53.52 51.40 51.27 49.03 44.70 49.61 45.38 43.51 47.86 49.71 50.03 48.26 45.71 45.43 47.72 53.48 51.15 50.09 49.89 51.00 51.97 50.71 49.75 49.13 47.85 46.19 50.58
56.14 57.45 57.21 57.23 57.47 57.53 54.12 49.91 50.32 50.47 45.06 51.60 51.44 51.49 53.14 53.86 48.35 50.55 53.22 47.09 46.76 43.89 47.95 45.55 42.85 49.21 52.24 52.38 50.81 49.55 46.70 45.44 46.71 48.53 46.10 47.15 46.73 49.85 51.83 51.32 49.16 48.84 48.30 47.88 45.74
55.74 56.95 57.35 57.53 57.35 54.16 51.61 52.28 55.07 54.05 44.74 49.28 52.93 51.26 52.15 53.12 48.65 48.87 50.78 47.99 46.11 44.51 45.47 42.65 47.19 52.24 51.30 50.16 48.88 48.66 45.73 44.81 45.39 46.82 46.85 46.02 42.87 45.03 48.26 47.58 48.41 48.14 49.04 48.76 48.70
55.82 56.42 56.48 57.39 53.02 53.24 52.47 56.04 54.43 53.94 39.53 44.86 48.40 50.83 52.15 52.66 48.57 53.08 54.08 50.66 46.85 44.21 45.79 45.58 50.51 50.30 49.34 48.77 50.52 45.06 50.01 49.21 44.66 41.84 37.13 44.33 33.03 38.44 42.87 43.34 44.40 44.94 45.18 46.33 47.77
56.57 56.43 56.66 56.77 50.53 49.62 54.50 55.20 53.77 50.99 29.49 46.57 48.27 54.23 52.04 49.82 50.13 49.62 55.14 51.76 45.08 45.71 46.24 45.79 47.58 47.21 47.86 49.65 50.11 46.62 49.49 47.63 45.61 41.26 37.36 37.87 33.56 35.79 40.97 39.45 40.75 42.49 44.78 45.69 46.63
56.83 56.68 56.54 53.61 51.78 52.91 54.59 55.09 52.02 41.93 32.20 43.64 48.36 47.54 46.78 48.27 48.81 50.47 50.47 52.73 51.01 47.13 48.41 48.19 51.46 49.25 46.41 48.39 49.67 48.70 45.19 43.68 40.87 37.55 30.60 36.56 35.56 33.13 36.65 38.43 39.89 41.41 43.34 45.24 46.19
56.88 57.19 55.68 55.14 50.07 53.98 53.85 48.84 38.75 33.95 46.14 42.14 43.67 47.01 46.31 44.75 46.13 45.64 45.92 44.47 41.33 38.61 39.88 44.67 44.43 47.28 49.82 44.14 46.92 44.82 39.16 31.54 30.36 28.76 28.67 37.36 34.73 34.30 38.29 40.63 41.47 41.51 42.05 43.92 44.09
56.74 56.63 55.98 55.11 54.33 53.65 49.59 42.36 31.93 41.04 41.40 46.73 45.58 45.60 42.21 45.33 44.86 44.29 42.27 41.60 45.12 42.82 40.15 36.88 35.12 43.40 48.29 45.29 40.84 41.18 38.37 32.48 28.31 27.77 31.62 38.11 30.97 34.40 40.71 42.46 42.92 43.26 43.09 43.57 43.62
55.74 50.93 51.50 53.03 54.90 52.55 44.44 35.84 37.02 39.83 45.82 44.06 43.82 40.46 40.11 44.31 44.18 41.94 40.45 41.31 41.52 43.51 38.42 38.42 36.13 44.12 45.33 46.21 44.68 40.72 36.53 41.25 34.44 34.02 29.52 32.84 33.34 37.63 40.82 41.74 41.49 41.44 42.28 42.23 42.67
48.75 48.28 49.76 55.21 54.46 49.07 41.09 39.18 40.58 45.20 46.54 45.72 39.39 41.75 38.92 40.47 41.31 40.83 40.56 43.59 43.85 44.37 43.62 41.04 33.59 41.77 43.70 44.35 43.39 40.74 42.59 34.54 33.37 26.80 25.14 31.26 29.64 31.46 36.05 38.51 40.22 39.69 39.65 40.98 41.88
47.32 42.50 49.61 54.42 52.11 44.84 36.84 38.84 44.29 47.09 46.65 43.80 42.62 41.63 41.73 41.28 41.26 40.24 41.10 43.30 43.05 43.37 43.40 40.88 39.26 36.79 40.39 38.42 38.31 37.84 36.93 37.09 36.18 33.90 28.03 25.62 29.02 36.75 37.54 39.86 39.20 39.20 40.48 41.12 41.07
44.06 38.57 49.27 51.69 41.42 41.27 38.02 43.91 46.33 46.57 46.79 44.83 44.40 44.20 42.01 41.38 39.92 40.06 42.42 43.70 44.31 43.41 39.80 41.70 37.47 32.57 35.28 38.40 40.57 39.08 38.07 37.44 30.96 30.67 31.50 28.27 28.98 38.88 39.89 40.76 41.28 39.73 41.50 41.05 41.56
42.32 41.04 47.68 48.06 35.59 36.85 41.31 43.90 45.63 44.78 44.59 43.76 42.82 45.14 44.54 43.02 40.09 42.52 41.73 44.19 44.29 43.50 40.85 40.16 36.22 29.50 31.16 34.76 36.75 35.10 38.59 39.32 37.07 33.37 30.31 26.44 29.84 39.12 38.85 39.07 40.19 39.59 40.22 41.24 41.76
41.38 37.30 40.80 41.97 40.88 38.53 38.94 40.09 41.96 44.83 43.97 43.99 41.94 43.18 41.11 41.59 43.53 41.01 40.21 43.19 43.87 44.58 45.57 42.05 36.15 33.33 30.32 32.55 35.28 32.36 36.43 37.97 34.86 28.06 28.53 29.99 31.85 35.15 37.61 38.49 39.00 39.42 40.14 40.54 41.68
40.68 36.96 40.39 35.02 38.02 38.58 39.12 40.67 40.44 41.25 42.56 42.32 40.14 41.40 40.15 37.00 39.45 39.85 40.21 40.26 42.53 45.11 41.37 38.40 33.61 34.36 35.22 36.62 36.73 36.36 37.36 36.82 34.23 33.71 30.28 33.03 34.00 36.25 37.62 38.43 39.23 40.35 40.32 40.17 41.06
38.83 39.57 41.06 39.04 40.24 38.36 39.58 38.05 40.09 42.49 41.96 40.51 39.18 41.73 39.47 36.59 37.03 37.11 40.45 38.14 37.33 38.72 36.90 38.11 33.82 34.37 33.36 37.31 36.84 35.75 37.56 37.09 36.48 36.27 34.82 34.95 33.73 37.81 38.05 38.61 38.08 39.20 40.18 39.90 39.38
43.50 44.70 41.07 39.00 37.40 37.06 38.30 40.15 41.82 41.55 41.49 41.79 40.06 38.72 39.52 39.94 40.07 39.15 39.99 40.32 40.03 38.12 36.42 35.71 34.10 32.60 29.77 36.68 36.08 32.07 35.99 36.94 37.25 37.60 37.30 32.50 35.87 37.90 37.40 39.02 37.76 38.45 39.98 38.83 38.15

GFSSW_sfc_wetblb_078.txt.gz
Wetbulb
58.54 59.19 59.33 60.05 59.98 59.82 61.10 61.18 61.36 61.28 61.55 61.68 61.88 61.94 61.87 62.07 61.42 55.30 50.70 54.62 58.20 64.47 68.86 58.64 56.87 58.32 59.39 55.62 58.50 59.24 50.63 49.05 51.57 52.85 53.83 55.87 52.00 53.20 54.59 54.04 54.50 56.97 58.09 60.00 62.49
58.43 58.50 59.10 59.53 59.79 59.57 60.68 61.23 61.08 61.21 61.27 61.14 61.33 61.44 61.43 61.61 56.23 51.69 58.31 62.62 64.43 65.91 60.88 54.88 53.03 54.42 53.24 54.16 55.80 53.51 49.02 50.49 55.96 57.13 54.54 55.26 52.91 52.07 51.76 52.06 53.01 56.88 59.13 62.27 62.33
58.34 58.29 58.77 59.26 59.20 59.53 60.11 60.60 60.56 60.69 60.38 60.33 60.20 60.31 60.94 60.25 50.33 49.60 66.65 65.39 66.54 68.42 61.09 54.77 54.69 54.51 51.68 54.21 54.14 54.05 50.12 54.75 56.68 57.59 58.85 55.24 52.28 52.73 50.27 48.24 52.88 56.99 58.57 61.34 61.12
58.33 58.02 58.67 58.95 58.97 59.50 59.50 59.85 60.11 59.96 59.89 59.97 59.75 59.79 60.41 56.14 36.84 52.09 68.25 67.43 64.76 60.14 58.94 53.40 51.82 49.89 50.11 50.13 54.30 52.33 56.19 57.41 57.63 56.94 56.01 54.94 55.25 50.18 50.26 50.42 54.10 60.10 61.35 61.46 61.04
58.10 58.25 58.10 58.92 58.84 59.14 59.32 59.25 59.44 59.79 60.05 60.04 59.94 59.67 56.52 47.99 47.58 55.57 61.90 60.43 57.01 59.89 56.15 51.36 49.92 50.52 49.32 51.27 53.18 52.31 55.02 57.46 57.31 55.65 54.40 54.95 52.52 51.61 51.47 52.60 54.34 60.19 61.82 61.46 61.71
57.87 58.06 58.03 58.43 58.63 58.60 58.97 59.04 59.26 59.31 59.30 59.55 59.77 59.37 52.65 43.09 54.38 56.25 56.38 55.64 55.61 54.72 55.86 51.48 51.04 53.33 52.32 52.79 51.98 54.77 55.57 56.39 54.62 54.26 55.03 52.05 53.27 54.44 52.17 52.96 54.45 59.01 59.21 59.58 60.46
57.71 58.04 58.10 58.07 58.16 58.02 57.89 57.91 58.18 58.36 58.59 59.14 59.26 56.49 50.41 46.97 54.80 54.82 55.12 53.45 54.71 54.23 51.95 54.77 52.68 51.01 53.43 52.64 55.73 53.30 50.71 50.58 51.54 52.67 52.25 54.76 49.57 49.85 51.55 52.02 53.37 54.42 55.22 57.26 58.47
57.03 57.62 57.57 57.53 57.78 57.92 58.15 58.16 58.62 58.64 58.68 59.20 59.11 54.72 45.81 54.82 54.62 54.78 55.48 54.12 55.63 55.62 54.45 55.47 54.42 53.52 52.36 53.90 52.06 49.66 48.56 43.75 49.68 50.76 50.86 53.14 46.11 52.25 55.22 52.18 49.98 50.95 52.20 54.24 55.79
56.76 56.96 57.22 57.09 57.30 57.58 57.80 58.34 58.63 58.71 59.10 59.42 55.22 50.89 44.64 57.46 52.42 55.89 55.39 52.36 53.56 53.45 52.83 54.93 55.94 51.68 51.81 46.99 45.20 46.59 40.75 43.02 45.38 51.19 50.87 50.28 46.56 51.23 55.03 53.28 50.20 48.72 48.81 51.74 53.73
56.10 56.51 56.92 56.86 57.06 57.32 58.28 58.46 58.06 57.33 57.10 57.42 55.56 47.16 48.86 49.40 52.94 53.70 53.13 54.39 51.06 50.57 50.23 49.32 49.31 46.24 48.61 44.49 39.87 40.08 41.98 43.98 42.66 48.56 49.44 47.06 46.83 51.76 54.77 55.77 54.62 52.51 49.71 50.14 53.75
55.86 57.09 57.04 56.58 56.83 57.29 55.74 51.13 47.64 46.51 50.43 46.55 47.63 47.48 49.27 52.37 55.00 51.49 53.03 51.67 50.11 47.32 40.81 47.20 42.98 41.45 45.93 49.47 47.64 46.29 44.77 44.09 46.24 51.24 48.72 46.10 48.22 51.05 53.26 52.41 51.86 50.86 47.29 47.09 50.85
55.62 56.14 56.52 56.67 57.14 57.04 53.77 49.42 49.74 50.06 43.90 50.74 50.37 50.13 52.02 52.72 47.89 51.19 51.80 45.47 45.03 40.80 44.41 44.87 40.88 47.31 51.31 51.66 49.38 47.56 44.24 42.99 44.47 51.74 48.36 48.35 48.55 51.79 52.28 51.04 51.17 48.65 47.29 45.73 46.01
55.44 55.73 56.29 56.39 56.78 53.45 51.32 51.37 54.84 51.97 43.34 47.51 51.69 50.36 51.19 52.43 48.18 48.14 50.29 46.50 43.89 41.96 43.99 41.39 45.36 50.67 49.75 49.38 47.82 46.93 44.60 43.30 43.03 45.98 45.27 43.96 41.97 44.30 48.00 47.44 47.38 47.76 46.87 46.76 45.98
56.07 56.21 56.27 56.93 51.63 50.71 50.98 55.37 54.14 52.59 38.49 43.30 47.54 49.76 51.21 52.74 47.09 52.85 53.10 49.72 46.56 42.87 44.51 44.02 48.41 48.80 47.12 47.18 48.60 44.39 49.07 48.18 45.91 42.52 38.92 43.81 34.80 36.74 41.01 42.06 44.11 43.68 43.47 44.35 44.57
56.36 56.34 56.48 56.21 47.67 49.63 52.48 53.61 53.44 50.09 28.48 46.42 47.60 53.65 50.27 48.50 48.95 48.69 54.93 50.55 45.02 45.10 44.73 42.82 45.72 45.74 45.70 47.36 49.34 46.32 48.87 47.71 46.22 41.04 36.96 37.02 33.51 35.53 38.65 38.04 40.17 40.47 41.77 42.30 43.56
56.67 56.97 56.34 52.89 50.81 51.79 52.92 52.04 50.85 37.97 30.63 43.77 48.35 46.79 46.53 48.01 48.02 49.65 50.49 51.34 50.31 46.73 46.47 45.03 49.69 48.31 45.99 47.98 48.91 48.54 43.88 42.64 40.98 37.16 31.46 36.29 35.30 33.34 35.89 37.74 38.48 39.50 41.29 42.57 43.55
56.52 56.96 55.80 54.38 45.92 52.50 51.92 47.90 37.82 31.68 44.19 41.25 43.42 46.49 44.35 43.61 45.22 45.44 44.93 42.44 41.19 38.41 37.45 43.24 44.71 47.16 49.33 43.71 46.34 44.62 40.95 32.38 30.25 28.65 29.11 35.40 33.60 36.16 36.44 38.96 40.48 40.81 40.03 41.45 40.75
56.36 56.58 54.43 54.82 53.11 52.60 48.78 42.12 30.54 39.69 39.41 45.73 45.15 45.31 40.59 44.26 43.91 44.05 41.49 39.96 44.45 43.41 39.69 37.66 34.67 42.97 47.77 44.22 41.91 41.86 41.81 32.55 27.20 26.33 30.17 35.67 30.69 34.21 38.09 40.45 41.41 41.84 41.50 41.37 41.36
55.51 49.39 49.96 51.90 54.20 51.54 44.55 34.73 36.38 38.13 44.29 43.77 43.50 39.62 38.93 43.01 43.04 41.66 39.35 40.26 40.44 43.79 39.84 38.99 37.11 43.94 45.73 46.92 44.23 39.72 37.18 39.72 33.21 30.83 28.61 31.23 31.98 36.44 38.86 39.03 39.54 39.86 40.60 40.29 40.19
47.98 46.16 46.98 53.56 53.43 47.68 40.91 38.51 39.29 43.97 45.22 45.10 38.11 41.74 37.99 39.97 40.57 39.66 39.43 41.61 41.62 43.03 41.33 38.42 33.31 40.74 43.12 44.61 45.42 40.99 43.27 34.72 32.70 26.41 23.87 27.99 28.01 30.97 35.08 36.69 38.38 38.47 38.61 39.28 39.60
45.96 40.66 47.89 53.03 49.44 43.39 36.31 37.82 42.51 46.45 45.51 43.50 41.11 41.25 40.74 39.76 39.20 39.24 40.14 41.18 42.20 42.96 41.41 38.98 36.97 35.88 39.69 38.50 39.56 39.36 38.13 37.78 36.41 31.67 26.61 24.22 28.75 34.80 37.09 38.65 37.92 38.18 39.14 39.62 39.71
42.75 34.85 47.83 49.02 38.47 38.10 37.59 42.54 45.72 44.15 45.17 43.87 43.06 44.05 41.87 41.39 38.57 39.89 41.63 43.10 43.24 42.40 39.02 39.53 37.00 31.64 34.96 38.29 39.90 39.01 37.14 35.92 30.84 29.56 28.40 25.91 28.15 36.60 38.10 40.39 40.46 38.74 40.05 40.03 40.57
41.82 39.74 45.92 46.29 33.23 33.62 38.85 42.58 43.51 42.46 42.67 42.69 41.14 43.52 42.41 40.20 39.25 40.78 41.64 44.20 43.99 43.03 39.96 38.94 35.31 29.42 31.92 34.49 36.09 34.66 37.22 36.95 34.38 31.49 28.26 24.82 28.92 37.35 36.56 37.97 39.21 38.38 38.81 39.65 40.19
40.34 36.12 39.86 40.35 38.10 36.68 35.66 38.32 39.90 44.08 42.82 43.05 40.90 41.19 39.82 38.54 41.66 39.40 40.58 42.73 43.01 43.78 45.74 42.62 36.85 32.69 29.14 31.61 33.57 30.84 34.72 36.09 33.59 28.01 28.31 29.22 30.66 33.77 35.70 37.26 37.83 38.28 38.99 39.58 40.35
39.62 35.58 38.30 33.46 36.45 36.54 36.26 38.42 38.52 38.65 42.17 41.33 38.78 39.55 38.36 35.05 37.24 38.54 40.23 39.93 41.41 45.47 40.14 38.39 33.59 32.95 34.45 35.71 35.32 34.45 35.27 35.51 33.01 32.01 29.97 31.39 32.61 35.61 36.42 37.42 39.02 39.75 38.92 38.67 39.23
38.64 39.22 39.60 36.90 37.78 36.57 37.16 35.42 38.87 40.74 40.09 39.94 37.32 39.58 37.87 35.43 37.32 35.01 37.34 37.06 37.39 38.04 36.06 36.40 33.40 33.21 31.92 35.96 35.61 34.02 35.81 35.75 35.10 34.93 33.11 33.78 33.55 36.39 37.04 36.46 36.97 37.77 38.80 38.18 37.97
43.31 43.95 40.79 38.07 35.30 34.26 35.40 37.49 40.53 40.33 41.86 40.59 38.85 37.12 36.86 38.65 38.64 38.72 39.21 38.58 38.10 36.35 35.24 33.97 33.30 31.90 28.23 35.08 35.32 32.03 35.27 35.74 35.64 35.95 35.92 31.54 34.82 36.28 35.58 37.48 37.13 37.31 38.21 37.62 36.97

GFSSW_sfc_wetblb_081.txt.gz
Wetbulb
58.67 58.67 59.18 59.56 59.66 59.75 60.03 61.16 60.06 61.00 61.23 61.08 60.59 60.78 61.11 61.62 61.13 54.61 49.67 53.32 57.89 63.90 65.07 60.12 56.04 56.37 57.89 54.46 57.23 58.52 50.34 48.70 50.78 51.81 53.35 55.20 52.43 52.97 54.69 54.01 54.24 58.15 56.72 58.31 60.32
58.34 58.46 58.37 59.31 59.31 59.38 59.55 60.42 60.67 60.59 60.43 60.20 60.65 60.31 60.55 60.95 55.41 51.28 56.94 61.09 64.53 66.98 59.29 55.23 51.20 52.79 51.73 52.68 54.38 52.97 48.32 50.28 55.08 55.48 53.43 55.00 51.94 51.00 52.66 52.84 53.45 56.25 58.53 60.36 61.34
58.34 58.30 58.08 58.69 58.99 59.04 59.50 59.53 59.99 60.02 59.57 59.56 59.51 59.60 60.12 59.69 49.90 47.11 61.55 65.38 65.44 62.72 61.33 58.01 52.72 51.63 49.50 52.30 52.55 52.50 49.45 53.63 55.22 56.58 57.33 54.66 50.98 51.40 51.46 49.49 54.26 56.31 57.03 59.50 60.04
57.89 58.26 58.28 58.24 59.09 58.92 58.97 59.28 59.43 59.39 59.61 59.81 59.51 59.40 60.18 55.03 35.87 49.39 63.43 63.84 63.45 58.34 57.75 56.86 51.76 46.78 47.48 48.61 53.57 50.98 54.42 55.66 56.30 55.22 54.77 53.85 52.71 48.94 52.16 51.76 54.92 58.38 59.43 59.49 58.83
57.80 57.86 58.08 58.11 58.47 58.59 58.50 58.75 59.08 58.99 59.03 58.94 59.26 59.55 55.68 47.02 46.45 54.55 61.10 59.05 55.79 54.72 56.27 50.29 47.61 47.50 47.13 49.24 51.46 51.08 54.04 56.95 56.68 55.14 53.78 53.64 51.26 49.94 49.46 51.93 55.28 59.67 59.81 59.64 59.72
57.51 57.64 57.87 58.02 58.02 58.19 58.25 58.22 58.47 58.63 58.57 58.52 58.72 59.02 51.59 41.74 52.78 54.86 54.98 53.93 54.35 53.04 51.36 52.04 48.55 50.78 49.30 50.59 49.47 52.72 54.10 55.01 55.61 53.58 54.37 51.74 51.30 51.74 50.94 52.14 57.91 59.16 58.72 59.21 59.67
57.01 57.42 57.52 57.59 57.53 57.81 58.04 58.26 58.68 58.74 58.73 58.97 58.39 56.38 49.90 47.05 53.75 53.63 54.37 52.88 53.38 52.96 50.45 53.36 51.56 47.73 49.52 49.95 54.22 53.64 50.92 50.61 51.14 52.05 51.65 54.25 48.82 48.01 51.44 52.06 55.56 56.99 56.67 58.39 59.47
57.15 57.33 57.24 57.21 57.31 57.65 57.99 58.16 58.25 58.55 58.94 58.99 58.67 55.26 46.16 54.11 53.80 54.07 54.78 52.99 54.38 54.41 53.79 53.81 53.88 49.71 50.24 51.70 50.55 48.70 47.55 44.00 49.17 50.32 49.97 51.32 44.86 49.96 53.76 51.81 51.78 54.49 55.08 56.79 57.96
56.79 57.03 57.17 57.25 57.20 57.61 57.86 58.36 59.04 59.18 58.77 58.65 55.12 51.22 44.11 55.68 50.89 54.20 54.98 51.85 52.62 52.56 52.58 54.72 52.35 47.38 48.80 45.29 42.45 44.27 39.88 41.66 45.02 51.16 49.86 49.11 45.01 49.39 54.00 51.74 50.11 49.49 51.58 53.72 54.61
56.35 56.53 57.03 57.10 57.20 57.43 57.98 58.37 58.45 57.29 56.94 57.48 55.34 47.74 48.56 47.94 51.82 52.89 52.96 52.87 50.32 49.15 48.77 47.66 48.36 44.14 44.48 43.03 37.44 38.84 40.72 41.51 41.78 47.58 49.91 46.87 46.73 50.26 53.62 54.44 50.06 48.98 49.93 52.16 52.89
56.36 56.36 57.11 56.93 57.35 57.53 55.14 51.30 47.41 46.26 48.62 45.61 46.90 47.27 48.80 51.82 53.71 51.12 53.02 50.76 48.73 45.73 40.02 44.44 41.10 39.17 41.93 45.45 45.98 44.63 43.77 42.37 44.50 48.95 46.82 46.17 46.89 48.77 52.89 52.88 52.39 52.21 49.88 47.74 49.56
56.44 56.20 56.79 56.99 57.15 57.09 52.75 48.43 48.69 49.06 42.54 49.41 49.28 49.42 51.52 51.78 46.80 49.72 51.25 44.13 43.45 39.37 42.34 41.67 37.82 44.18 47.69 50.19 47.90 45.85 45.20 42.47 43.89 50.24 46.32 45.33 45.55 49.60 51.45 51.10 50.43 51.17 48.63 46.06 48.19
56.58 56.17 56.11 57.07 57.01 52.24 50.24 51.01 54.14 51.07 42.48 46.43 50.31 49.46 50.49 50.57 47.17 47.40 49.52 46.79 42.69 39.52 41.31 39.03 43.69 48.94 49.39 49.24 47.26 45.07 42.95 41.92 43.41 45.92 44.45 44.99 42.72 45.15 47.67 49.36 47.16 46.02 45.64 45.45 46.44
56.20 56.33 56.43 57.11 50.84 49.71 50.21 54.24 53.21 51.56 37.46 41.74 46.76 49.25 50.31 51.45 46.32 52.22 52.00 48.53 45.68 41.58 42.69 42.89 47.05 47.22 46.01 46.01 47.86 42.36 48.03 46.46 44.75 42.28 38.46 43.03 35.90 38.62 40.34 43.12 42.77 42.18 42.45 43.00 44.37
56.07 56.76 56.90 56.65 47.77 48.61 51.70 51.83 51.54 48.45 28.01 44.93 46.74 52.87 50.74 47.42 47.73 48.55 53.25 49.73 44.99 44.00 43.83 40.68 44.51 43.76 44.30 45.86 48.40 44.88 48.73 46.94 44.92 40.81 38.09 37.13 35.09 37.45 37.17 38.25 39.94 40.07 41.07 41.74 43.01
56.32 56.62 56.90 51.58 49.03 50.75 51.97 51.07 49.81 36.39 28.97 42.02 47.33 46.35 45.07 46.91 47.22 48.89 49.08 50.57 49.48 46.29 45.16 43.49 48.21 46.73 44.97 46.51 48.45 47.59 43.22 41.90 40.49 38.36 32.15 37.31 37.45 36.16 35.81 38.31 38.12 38.59 40.21 41.68 42.59
56.86 56.49 55.49 54.92 44.75 51.41 50.79 46.86 36.58 30.12 41.99 40.46 42.03 45.07 43.40 42.08 44.32 43.92 43.70 42.33 40.09 35.85 36.64 42.80 43.37 45.73 48.02 42.85 45.26 43.99 39.77 31.22 30.67 32.74 31.57 35.65 34.75 38.70 37.28 37.92 39.47 40.20 38.18 39.29 39.69
56.56 56.42 54.49 54.60 52.20 51.60 47.68 41.35 30.33 38.29 37.73 44.40 43.64 43.41 39.31 42.86 42.91 43.35 40.85 40.82 43.66 43.45 38.83 37.11 35.71 42.04 46.33 43.15 40.42 40.64 40.36 31.79 27.31 25.99 29.98 35.15 30.57 35.36 37.22 39.15 39.87 40.61 39.45 39.28 39.11
54.51 48.17 48.98 50.83 53.24 50.76 41.42 32.25 35.09 37.20 41.65 42.26 41.85 38.39 38.38 41.68 41.46 40.78 38.53 39.72 40.73 44.50 38.43 37.73 36.13 44.79 45.35 45.21 45.12 39.97 37.18 42.51 32.65 29.72 28.30 30.40 32.05 35.44 37.49 37.90 38.32 38.74 38.97 38.33 38.68
47.00 45.52 45.46 52.42 52.16 46.01 37.95 36.91 38.23 42.93 43.36 42.77 35.64 39.05 36.82 38.64 38.91 39.06 38.62 41.21 40.69 42.95 43.85 40.60 34.74 41.38 43.71 44.92 43.43 41.06 45.19 35.73 33.78 26.94 24.81 27.08 27.55 31.19 33.92 35.83 37.22 37.15 36.75 37.41 38.10
44.18 40.48 45.60 52.06 48.14 40.67 33.21 35.43 41.35 45.58 43.99 41.60 38.95 38.82 39.38 38.16 38.42 36.74 39.05 41.44 41.86 42.16 41.01 39.05 37.82 35.91 39.23 38.62 39.33 38.22 35.76 35.45 34.51 30.77 26.26 24.34 28.99 34.45 36.05 37.36 37.09 37.13 37.50 37.89 38.03
41.58 34.40 45.80 47.31 38.47 35.45 35.40 40.69 45.17 43.19 43.59 42.41 41.18 41.77 39.81 39.74 37.65 37.44 39.64 42.42 42.49 41.29 38.93 39.74 35.32 31.82 34.73 39.22 40.42 39.64 36.17 36.78 31.66 29.74 26.98 25.77 28.92 34.97 35.65 38.74 38.95 37.69 38.59 38.32 39.20
40.34 39.27 45.78 45.81 33.36 32.23 36.78 40.51 41.90 41.01 41.46 41.37 40.20 41.81 41.16 38.00 35.73 38.77 40.41 43.20 43.06 42.05 38.06 39.45 35.47 28.76 30.43 34.01 36.63 36.06 38.02 35.92 34.54 30.87 26.46 24.79 29.41 35.86 34.99 37.37 38.73 37.79 37.83 38.88 39.35
38.31 34.47 39.02 40.09 37.30 34.74 34.47 36.47 37.78 41.99 41.50 41.79 40.13 39.56 37.74 36.47 38.96 38.77 40.03 41.68 41.98 41.32 46.16 41.73 36.03 32.52 29.08 31.03 33.06 30.80 34.11 34.81 33.51 27.45 27.49 28.07 30.05 32.66 34.26 36.88 37.07 37.31 38.30 38.18 38.80
38.29 33.74 37.32 33.24 35.49 35.08 35.50 36.29 36.64 37.55 40.19 40.15 38.46 37.86 36.73 33.83 35.22 35.27 37.88 39.84 40.65 44.66 39.22 38.24 33.81 32.76 34.19 34.94 33.33 32.94 33.95 34.49 32.66 31.22 30.16 31.11 31.70 34.97 35.86 37.25 38.62 38.69 37.77 37.53 37.65
36.98 36.70 38.30 35.95 36.35 35.05 36.09 33.40 36.60 39.02 37.82 37.64 35.89 38.77 35.97 34.05 35.45 34.13 36.24 35.74 36.57 37.94 36.18 35.43 32.46 32.74 32.17 34.72 34.67 33.43 34.94 34.43 33.83 32.72 32.18 32.06 32.11 35.84 35.78 36.54 36.86 37.20 37.73 37.50 37.02
42.51 42.18 39.84 37.31 33.69 32.45 32.99 35.71 38.34 38.83 40.07 40.14 37.30 36.01 35.88 37.45 37.77 37.36 37.90 37.79 37.04 34.80 34.63 33.27 31.96 30.40 28.16 34.25 34.67 32.14 34.65 34.83 34.57 34.72 34.83 30.94 34.77 35.69 34.69 36.74 36.38 36.60 37.90 37.41 36.65

GFSSW_sfc_wetblb_084.txt.gz
Wetbulb
58.14 58.48 58.47 59.09 59.36 59.12 59.66 59.89 60.81 60.49 60.53 60.07 60.25 60.32 60.61 61.14 60.75 54.34 49.49 52.44 57.34 65.66 66.08 58.25 54.84 54.35 55.82 53.30 56.30 57.64 50.06 47.74 50.70 51.20 52.64 54.46 53.04 53.29 54.18 54.53 55.15 57.32 55.58 56.82 64.16
58.18 58.34 58.32 58.49 59.17 58.95 59.18 59.61 59.64 59.62 59.87 60.28 60.22 60.10 60.34 60.76 55.01 51.06 56.93 61.91 65.53 65.54 59.25 54.49 49.70 51.05 50.08 51.14 53.21 52.91 48.31 49.89 54.60 55.15 52.90 54.60 52.22 51.24 52.66 52.57 52.59 54.99 56.95 61.24 65.84
58.21 58.41 58.49 58.28 58.60 58.89 58.71 58.91 59.21 59.05 59.12 59.55 59.82 59.74 59.67 59.10 47.88 44.13 61.05 63.05 65.84 62.07 56.88 57.89 55.90 50.16 47.24 50.24 50.87 51.33 48.74 52.61 55.35 56.14 56.42 54.65 51.76 52.84 51.96 49.71 53.28 55.24 55.45 61.68 64.21
58.24 58.19 58.18 58.16 58.31 58.23 58.40 58.46 58.68 58.96 59.01 59.01 58.92 59.16 60.19 53.63 34.61 49.08 61.92 61.78 61.93 56.93 56.31 56.08 53.90 44.67 45.33 46.76 51.82 48.93 53.07 54.58 55.77 54.95 54.44 52.84 52.54 48.91 52.57 53.20 54.37 57.58 57.70 60.03 62.88
57.67 58.22 58.37 58.24 58.42 58.43 58.52 58.49 58.58 58.73 58.83 58.75 58.53 59.10 54.59 46.30 45.21 53.27 60.61 57.66 54.21 53.66 55.41 51.48 46.25 45.22 45.02 47.52 49.34 50.32 52.42 55.25 55.34 54.48 53.15 53.55 50.93 49.86 50.71 52.41 53.89 57.77 58.23 58.62 61.80
57.46 57.91 58.26 58.28 58.21 58.21 58.47 58.72 59.03 59.27 58.96 58.43 58.29 58.65 50.02 41.51 51.43 53.07 53.59 53.23 53.29 51.39 49.99 51.69 47.39 49.01 47.31 48.37 48.22 50.51 52.98 54.67 55.13 52.79 53.72 50.84 50.40 49.87 49.41 51.70 56.01 56.69 56.92 57.58 59.29
57.48 57.72 58.09 58.06 57.99 58.06 58.42 58.78 59.04 58.94 58.78 58.20 58.11 55.86 49.79 46.27 53.19 53.21 53.70 52.01 52.73 52.00 48.67 51.31 52.16 46.74 46.31 47.55 52.49 51.52 49.32 50.38 52.09 51.28 51.45 52.47 48.24 47.97 51.71 51.67 55.45 54.83 54.95 56.55 57.81
57.34 57.50 57.70 57.69 58.02 58.18 58.45 58.71 59.21 59.58 59.34 58.67 58.01 54.78 45.58 54.10 53.50 53.59 53.70 52.38 53.43 53.07 52.35 52.63 52.95 48.89 45.63 48.92 48.93 48.49 48.38 43.95 49.13 50.04 49.81 50.64 44.60 49.13 52.45 52.02 53.93 54.83 54.98 56.51 57.89
56.89 57.00 57.20 57.48 57.65 58.08 58.42 58.69 59.43 58.73 58.98 58.66 53.70 49.39 44.09 55.00 50.25 52.58 53.93 51.24 51.87 51.95 52.01 54.46 51.12 46.74 45.33 42.79 41.13 43.21 39.39 41.09 44.40 49.23 49.11 48.58 44.28 48.60 52.78 52.04 51.88 53.59 54.61 56.70 57.42
56.82 56.78 56.75 57.05 57.35 57.60 58.14 58.49 58.34 57.50 57.05 57.12 54.65 45.56 47.20 46.87 51.24 52.34 52.22 52.84 49.63 48.44 47.42 46.40 46.39 41.77 40.79 40.24 36.54 37.37 39.15 40.19 41.37 46.52 47.95 45.82 45.63 49.58 52.26 51.60 50.64 50.85 52.18 54.79 57.06
56.60 56.83 57.07 56.67 57.16 57.26 55.00 49.76 46.16 44.54 47.13 45.13 45.95 46.03 48.05 50.95 53.11 50.30 51.98 49.98 47.66 43.95 38.38 42.64 38.76 37.45 38.66 42.90 44.01 43.02 42.41 40.95 42.92 47.50 46.70 45.81 46.20 48.53 51.66 52.45 51.66 49.24 48.75 49.11 50.92
56.63 56.83 56.75 56.61 57.20 57.09 52.05 47.44 47.09 47.76 42.35 48.33 47.99 48.61 50.71 50.91 45.99 48.79 50.97 43.07 42.09 37.61 40.46 39.15 35.91 41.57 45.22 44.80 44.38 44.98 44.11 42.52 43.50 48.26 45.12 44.59 45.45 48.54 49.99 51.43 51.99 52.31 51.66 50.70 46.87
56.40 56.48 56.64 57.11 56.94 51.51 49.17 49.58 52.78 49.92 41.84 45.72 49.05 48.43 49.65 49.83 46.22 46.44 48.19 44.96 41.50 39.02 40.44 36.91 40.93 45.13 45.36 44.71 44.92 45.51 43.68 43.45 42.81 44.80 43.78 44.39 42.17 44.47 48.51 50.00 49.88 47.23 49.31 48.02 46.83
56.25 56.23 56.69 57.29 49.60 49.12 48.88 52.64 51.46 50.46 36.39 40.71 45.74 48.22 49.94 50.32 45.25 51.28 49.65 47.17 44.84 41.13 41.35 40.47 45.05 45.02 44.52 44.18 46.03 40.49 46.71 45.46 44.81 42.16 38.16 42.37 35.22 39.92 41.86 44.50 43.41 42.30 42.81 43.89 44.42
56.62 56.34 56.32 56.23 49.11 46.55 50.20 50.69 50.54 47.15 26.55 43.14 45.98 51.78 50.25 46.14 46.63 47.47 52.03 48.39 43.96 43.51 41.74 38.75 42.81 42.49 42.88 44.01 47.34 42.82 47.64 45.04 44.07 39.39 37.39 36.46 35.92 38.52 36.69 38.87 40.73 40.73 42.26 42.05 42.26
56.92 56.67 56.32 50.37 48.44 49.55 51.02 50.09 49.27 35.20 28.03 40.07 46.05 45.19 44.31 45.56 46.23 48.46 47.47 50.31 49.58 45.29 44.90 42.39 46.97 45.65 43.58 45.56 46.81 46.38 43.20 42.08 39.31 37.28 32.25 37.95 37.58 37.58 36.24 38.03 37.37 38.83 41.18 41.16 41.44
56.66 56.55 54.94 54.52 45.25 50.97 50.17 45.81 35.24 29.84 40.51 38.85 40.92 43.86 42.17 40.80 43.17 43.59 42.10 42.48 40.89 37.72 37.14 41.19 42.01 45.08 47.63 41.82 44.39 43.74 39.84 31.66 30.77 30.72 31.58 34.37 35.04 41.38 37.45 37.10 38.61 40.07 39.75 38.08 38.16
56.29 56.14 54.00 53.76 51.46 51.51 46.36 39.03 27.60 36.82 36.58 42.31 42.62 42.31 38.91 41.72 41.92 42.75 39.20 39.72 43.59 43.13 39.23 35.95 33.36 40.81 44.39 41.53 39.66 40.36 39.55 32.60 28.24 27.49 31.13 35.01 32.33 37.47 38.64 38.80 39.00 39.70 38.12 37.96 38.42
53.75 46.49 46.79 49.56 52.17 50.21 40.09 31.37 33.67 36.97 40.65 40.31 40.70 36.53 36.56 41.27 40.56 39.42 36.71 37.79 39.60 44.59 36.87 35.09 35.52 42.61 44.29 43.94 43.15 38.84 36.92 39.11 30.66 27.53 27.82 30.43 32.65 35.17 37.58 37.73 38.09 37.46 37.96 37.70 38.09
46.09 44.32 44.11 51.31 51.41 44.21 36.92 35.56 36.24 42.25 41.33 41.52 34.51 37.28 34.56 37.37 37.51 37.13 37.93 39.74 40.09 42.79 43.18 40.04 33.36 41.08 44.80 43.56 41.30 40.21 42.80 37.90 34.94 25.64 23.12 25.69 27.30 32.35 34.01 35.87 36.58 35.89 36.40 36.67 37.03
42.83 38.99 44.61 51.05 46.28 39.56 32.30 33.53 39.56 44.45 43.34 40.55 38.14 37.29 37.73 37.07 36.84 35.96 37.62 41.05 40.95 41.05 40.74 39.58 37.81 35.55 41.97 38.27 37.55 36.77 35.18 35.45 37.85 33.53 28.29 26.34 29.29 34.76 34.78 37.12 36.59 36.70 36.93 37.10 37.16
40.49 34.12 44.36 45.82 37.48 33.61 34.01 39.03 44.24 42.00 42.07 41.44 40.29 39.87 37.93 37.70 36.80 35.83 37.32 40.31 41.92 40.33 38.19 39.32 36.34 32.00 34.79 38.82 39.49 39.91 37.23 36.96 31.91 29.02 27.20 28.02 29.89 34.43 34.81 37.16 38.37 37.38 37.70 37.27 38.00
38.84 38.78 45.70 45.88 31.59 30.58 35.35 39.06 40.50 40.08 40.02 39.69 39.21 40.98 40.12 36.29 33.92 36.97 39.85 41.90 41.33 40.53 37.16 36.94 33.73 27.86 30.55 35.57 38.00 37.78 37.84 36.23 34.79 31.79 26.06 25.49 30.03 36.03 34.14 35.69 37.82 37.39 37.09 37.50 37.87
37.44 33.19 38.23 39.33 35.74 33.26 33.12 35.17 36.53 41.08 39.73 40.37 38.97 38.71 36.82 34.76 37.15 36.35 37.09 41.71 41.30 40.48 47.03 40.94 35.44 31.22 27.88 30.69 32.91 31.80 35.64 35.25 33.29 28.48 27.22 28.17 30.95 32.85 33.93 36.24 36.30 36.49 37.21 36.95 37.45
37.39 33.04 35.46 32.87 33.80 33.24 34.76 35.10 34.94 35.94 39.22 38.71 37.15 37.24 35.64 32.46 33.52 32.89 35.91 37.60 40.00 43.41 38.36 35.86 32.45 31.16 32.95 34.30 32.93 32.53 33.19 33.62 31.68 30.71 30.64 31.00 31.20 34.78 35.49 35.77 36.74 37.34 36.98 36.57 36.66
36.24 35.56 36.60 34.72 34.84 31.75 35.17 32.78 34.24 36.90 36.35 36.96 34.19 36.26 35.34 33.40 34.14 32.59 34.25 33.30 33.78 37.22 35.10 35.11 30.87 30.65 30.58 34.91 33.37 32.51 34.17 33.42 32.61 31.75 31.52 30.56 31.25 34.94 33.25 35.20 36.18 36.61 36.72 36.37 35.97
41.21 41.43 38.90 35.49 31.84 31.55 32.07 34.49 37.25 37.19 38.32 39.36 36.45 35.35 34.06 36.24 36.68 37.09 37.07 36.69 36.05 33.84 33.18 32.42 31.16 29.73 27.99 33.79 34.21 31.58 33.90 33.71 32.87 33.02 33.85 30.25 34.03 34.76 33.16 34.93 34.70 36.03 36.98 36.79 35.94

GFSSW_sfc_wetblb_090.txt.gz
Wetbulb
58.72 59.11 58.97 59.11 59.25 58.88 59.27 59.58 59.72 60.07 60.12 60.04 60.34 60.50 60.51 60.86 60.69 57.95 53.46 58.56 62.69 67.30 63.46 59.85 55.79 56.53 58.73 58.31 60.46 62.09 55.14 53.52 55.68 56.48 58.44 61.29 60.00 60.81 62.81 61.12 62.47 63.45 63.25 65.10 69.28
58.29 58.65 58.72 58.76 59.24 59.19 59.32 59.47 59.75 59.81 60.01 60.29 60.46 60.44 60.37 60.34 56.79 55.76 58.71 61.52 64.51 64.46 57.00 56.71 51.70 54.17 54.65 55.39 58.18 57.41 54.06 54.92 59.50 60.47 60.02 61.33 60.91 60.41 59.48 60.20 60.48 62.25 63.92 67.46 69.05
58.61 58.58 58.36 58.62 58.92 58.90 59.08 59.03 59.27 59.75 59.96 60.11 59.98 59.79 59.88 59.52 51.66 55.20 62.82 62.35 62.87 62.14 58.62 59.21 57.33 52.51 51.14 55.15 55.01 55.39 52.53 57.29 58.87 60.83 62.07 60.97 59.92 60.92 59.69 58.34 60.73 60.63 63.74 67.15 67.79
58.40 58.38 58.58 58.60 59.04 59.12 59.19 59.16 59.43 59.86 60.02 59.99 59.73 59.41 60.18 56.40 43.34 56.04 60.53 60.64 61.91 58.58 58.71 56.19 53.84 48.82 47.88 48.37 52.69 51.22 54.32 55.95 58.66 60.65 60.44 59.75 61.19 59.20 60.36 61.40 62.36 62.58 65.86 67.05 66.93
58.24 58.37 58.64 59.10 59.23 59.37 59.54 59.72 60.14 60.45 60.06 59.91 59.63 59.29 57.70 51.45 48.14 55.41 58.50 58.58 57.62 56.31 54.00 52.27 50.00 49.68 46.18 47.51 50.15 50.39 51.82 54.61 57.62 58.93 60.29 60.72 59.29 59.62 58.78 62.61 60.53 60.47 65.23 66.31 67.00
58.04 58.28 58.59 58.75 58.75 59.01 59.20 59.59 59.86 60.09 59.65 59.71 59.64 58.66 54.44 46.52 55.91 56.34 56.38 56.75 56.01 55.81 53.93 54.69 50.62 51.80 48.84 48.15 47.41 50.72 52.70 52.38 54.78 57.96 59.14 57.06 58.52 56.28 59.34 60.92 59.93 61.72 63.60 66.08 66.60
57.83 58.01 58.23 58.16 58.25 58.55 58.98 59.22 59.45 59.67 60.07 59.75 59.25 57.18 53.14 50.56 57.49 58.40 57.39 55.80 56.02 55.72 53.37 53.86 54.08 51.50 50.65 47.32 50.61 50.39 46.65 50.62 54.00 53.15 56.66 58.60 55.80 54.65 60.15 58.21 59.47 60.60 63.11 64.86 66.08
57.74 57.92 57.94 57.94 58.02 58.24 58.71 58.89 59.40 59.89 59.88 59.07 58.53 56.51 51.60 57.50 59.54 57.71 57.87 56.65 56.97 56.88 55.45 55.92 55.40 52.96 51.58 51.54 48.58 46.79 49.16 42.90 48.99 54.52 55.44 56.47 51.30 58.64 59.06 57.65 58.30 60.05 61.71 62.01 64.63
57.48 57.60 57.71 57.81 57.80 58.26 58.47 59.01 59.03 59.80 59.47 58.71 56.55 53.89 50.10 57.54 54.98 56.99 57.40 54.55 55.40 55.56 55.81 55.58 53.60 50.29 50.54 45.92 43.19 44.24 39.79 44.25 45.39 54.53 54.74 54.59 51.57 58.14 58.59 57.81 58.23 59.97 60.54 61.25 62.70
57.10 57.20 57.40 57.42 57.77 58.07 58.35 57.93 59.36 59.28 58.74 58.36 57.01 51.31 53.72 52.10 55.35 56.21 57.35 55.80 53.38 52.31 51.32 50.80 50.15 46.73 46.91 44.11 36.66 38.89 39.87 42.64 44.72 49.71 54.04 52.73 53.23 55.28 56.74 56.88 58.47 60.03 60.88 61.58 61.96
56.81 56.93 56.96 57.26 57.68 57.88 58.19 56.85 53.33 52.74 53.21 50.08 50.83 50.53 52.89 56.05 56.76 55.09 55.88 53.90 52.40 49.86 46.00 47.84 44.28 42.16 44.02 44.87 44.62 42.63 40.91 41.33 46.37 50.31 51.58 51.75 52.65 53.58 55.23 55.49 56.80 59.17 60.21 60.97 61.18
57.21 56.80 56.82 57.11 57.26 57.04 57.62 52.49 51.00 51.92 47.81 52.65 52.01 51.67 53.87 54.28 50.87 53.70 55.66 50.06 48.10 45.50 46.41 45.03 42.48 46.97 47.34 45.04 43.61 42.84 40.75 42.06 46.80 50.13 51.21 50.68 51.94 55.36 54.72 55.46 56.64 56.89 58.57 59.89 61.03
57.15 57.12 56.71 56.92 56.96 56.16 55.68 53.47 55.66 54.75 48.40 51.11 52.65 51.69 52.95 53.28 50.83 51.32 52.97 50.29 47.44 45.09 46.32 43.71 45.72 48.72 45.71 43.86 42.08 42.67 41.40 41.43 43.75 49.73 51.93 49.92 48.26 52.20 54.94 55.57 56.72 57.57 58.46 58.30 58.80
57.05 57.04 56.72 56.24 53.31 54.35 54.51 55.68 56.38 55.35 46.27 45.96 49.32 52.40 53.25 53.10 49.59 54.44 53.84 50.84 48.42 44.98 46.51 45.47 48.25 45.87 44.75 42.87 44.29 39.37 45.31 43.94 45.43 45.34 41.74 50.97 40.34 48.96 53.48 53.79 54.85 56.72 57.56 57.71 57.01
56.77 56.79 56.40 55.54 53.26 51.99 53.34 55.80 56.41 53.84 36.21 47.51 49.17 55.96 53.80 50.02 50.78 51.17 54.29 51.49 46.89 46.90 46.62 44.22 45.82 44.94 43.54 43.60 46.13 42.44 46.45 44.25 44.59 45.52 45.92 45.99 43.61 48.19 51.51 51.77 54.16 55.85 57.53 57.48 58.26
55.93 56.46 56.58 54.16 54.42 53.69 55.49 55.26 55.04 43.85 35.57 44.62 48.60 47.67 48.19 49.33 49.55 51.67 50.49 53.14 51.95 46.91 45.68 45.73 50.35 47.77 46.86 48.64 48.65 48.82 46.49 45.95 45.91 44.93 38.62 44.41 44.71 45.29 48.49 50.94 53.61 54.57 55.03 55.03 54.65
55.75 55.39 55.58 55.61 50.30 55.33 55.38 53.10 44.18 38.80 45.68 43.33 44.05 46.92 46.40 45.53 46.78 48.18 47.01 46.30 44.26 40.03 38.17 42.32 44.52 47.66 47.51 45.26 48.74 47.81 43.84 36.19 34.63 33.35 35.59 45.09 43.71 47.23 50.42 49.52 49.61 49.07 51.71 52.68 52.08
55.19 53.83 54.68 55.60 56.44 55.77 53.28 47.19 37.99 41.63 42.67 46.40 45.37 45.91 42.97 45.76 45.54 46.19 45.60 44.24 47.07 44.78 40.14 36.51 35.29 43.90 47.01 44.91 43.97 44.29 43.53 37.51 32.09 34.64 38.11 42.49 40.22 45.38 48.65 47.95 47.76 47.91 50.96 50.55 50.19
53.58 53.97 53.55 54.61 55.44 55.58 48.88 40.01 41.31 43.13 44.84 44.03 45.35 42.29 42.48 44.19 43.92 44.62 44.24 43.69 44.66 46.56 39.13 36.29 37.25 45.82 47.19 47.82 46.66 43.26 41.50 42.95 36.63 39.02 40.28 42.06 44.74 47.43 45.57 45.87 46.18 47.28 48.46 48.22 48.57
53.39 51.60 53.20 55.05 56.21 51.82 46.21 40.62 42.93 45.95 46.11 45.07 40.21 42.85 40.38 42.67 42.48 43.28 43.00 44.96 44.62 45.29 47.98 41.18 35.95 43.86 45.35 47.82 46.17 45.23 46.46 37.42 38.32 33.27 33.18 38.45 39.55 43.73 44.71 45.47 45.82 46.13 47.54 46.79 47.28
51.48 47.19 53.30 55.26 53.71 48.89 41.32 41.01 43.34 47.12 46.63 43.69 42.46 41.92 42.76 41.58 42.64 41.97 42.33 44.74 45.61 44.84 45.38 45.13 39.99 38.78 45.22 43.14 41.09 44.27 41.83 43.88 43.49 40.36 36.77 36.22 38.79 44.23 44.31 44.98 46.30 47.18 47.19 47.07 47.24
49.62 42.23 51.46 53.07 46.03 45.30 42.77 42.84 43.99 45.16 46.23 45.02 44.77 43.76 42.65 42.97 41.86 41.51 41.46 43.69 45.32 45.11 41.88 45.06 41.20 34.58 40.07 46.62 46.19 42.11 42.20 45.06 40.77 37.33 38.89 39.25 39.98 44.12 44.69 44.73 47.75 46.90 46.22 46.90 46.91
45.71 46.73 52.57 52.40 40.69 42.25 43.04 42.43 43.89 43.75 43.73 43.45 42.64 43.71 44.39 41.93 39.22 41.97 43.25 46.79 45.82 44.46 42.69 43.57 41.18 36.57 36.51 42.02 43.71 42.75 44.36 42.65 42.11 42.98 38.97 37.70 39.72 44.19 46.54 45.10 47.57 46.64 46.20 46.05 45.72
45.97 40.98 47.35 49.99 45.58 42.79 41.26 41.48 40.98 44.83 43.28 43.83 43.24 43.27 41.83 40.82 42.74 41.01 41.64 44.66 45.78 44.80 47.14 45.21 41.05 38.23 35.21 36.84 38.26 38.55 41.79 42.27 42.61 39.75 39.37 39.88 42.57 45.21 45.14 44.96 46.12 46.78 46.81 46.61 46.36
46.37 41.92 43.90 40.88 43.02 42.94 42.20 41.61 40.27 40.27 44.01 43.98 41.28 40.96 39.44 38.42 40.36 39.54 41.77 42.71 44.37 44.43 43.99 42.90 38.88 38.98 40.31 40.77 39.73 39.09 38.49 40.45 39.05 41.26 38.07 40.27 39.92 44.14 45.22 44.28 47.33 47.98 46.95 46.15 45.63
43.84 43.09 44.45 43.75 41.08 41.22 40.38 39.77 39.00 40.28 41.41 40.27 40.32 41.51 40.78 38.68 40.25 38.84 40.30 41.40 40.85 43.38 42.48 42.70 39.52 38.93 37.12 39.72 40.10 37.31 39.77 39.57 39.04 39.57 39.99 41.12 40.68 43.57 43.92 45.40 46.66 47.19 46.22 45.78 45.73
47.66 48.03 46.03 40.67 39.96 39.83 39.72 39.84 39.82 41.35 42.83 43.55 42.33 40.96 39.90 41.69 42.62 43.31 43.79 43.45 42.91 40.77 40.40 40.08 39.46 38.55 35.75 38.78 39.48 37.35 39.51 39.77 39.68 40.12 40.47 38.63 42.11 44.03 43.38 43.79 45.69 46.74 46.77 46.57 46.55

GFSSW_sfc_wetblb_093.txt.gz
Wetbulb
59.05 59.41 59.38 59.50 59.67 59.81 59.68 60.23 60.28 60.47 60.57 60.81 61.06 61.16 61.05 61.24 60.96 60.51 54.94 59.97 63.28 66.71 65.52 59.13 56.43 56.61 58.65 58.64 61.71 62.81 55.55 53.48 55.91 56.92 58.27 62.49 61.13 64.23 65.24 63.61 63.48 63.36 63.70 66.00 68.68
59.23 59.27 59.09 59.33 59.51 59.61 59.61 59.69 59.90 60.20 60.52 60.67 60.97 60.99 60.71 60.56 59.25 56.35 59.67 62.50 65.00 64.70 58.38 56.61 52.51 53.65 53.71 54.49 57.41 56.69 53.07 53.94 59.01 60.06 59.39 61.44 62.02 62.47 60.78 61.83 61.95 62.38 65.25 68.04 68.43
59.12 59.10 59.22 59.23 59.38 59.65 59.59 59.72 60.00 60.13 60.71 61.03 60.74 60.32 60.39 60.12 54.91 55.17 62.54 62.62 63.27 63.32 57.63 58.41 56.96 53.30 50.72 53.74 53.84 54.13 51.58 54.79 56.75 59.88 61.11 61.09 61.68 63.47 60.68 59.71 62.44 61.69 63.61 67.29 67.29
58.88 58.95 59.02 59.22 59.55 59.67 59.83 59.98 60.41 60.81 61.07 60.92 60.58 60.49 60.56 59.20 44.60 56.00 60.59 61.36 62.47 60.67 57.99 55.47 54.17 50.54 48.47 48.03 52.15 49.52 52.62 53.96 55.19 57.41 59.93 59.44 62.32 61.19 61.65 62.28 64.82 64.57 65.22 67.36 66.65
58.71 58.89 59.10 59.33 59.41 59.57 59.68 59.89 60.48 60.79 60.73 60.18 60.22 60.24 59.53 53.74 51.14 57.94 58.64 61.08 58.87 58.06 54.82 53.70 50.58 50.38 47.67 48.14 48.83 47.88 49.96 52.60 53.90 55.61 57.44 60.27 59.96 60.44 61.03 63.77 63.69 63.15 64.62 66.64 66.94
58.52 58.75 58.92 59.09 59.09 59.22 59.41 59.70 60.10 60.40 60.34 60.46 60.20 59.23 57.62 49.31 56.60 57.62 57.50 57.89 57.53 57.24 55.47 54.83 52.29 52.45 49.33 48.48 47.78 49.45 49.96 51.39 51.98 52.76 55.91 55.17 56.79 59.96 61.58 63.82 62.71 62.00 62.40 65.87 66.99
58.36 58.68 58.82 58.78 58.85 58.97 59.27 59.56 59.96 60.20 60.51 60.37 59.64 59.23 55.81 52.81 58.38 59.67 59.28 58.32 58.27 57.40 54.82 55.76 55.15 52.09 51.15 48.66 51.20 49.66 46.73 48.65 49.39 52.55 51.54 55.80 53.77 55.17 60.95 62.02 61.36 61.74 63.04 64.77 66.64
58.25 58.44 58.46 58.43 58.54 58.87 59.29 59.46 59.68 60.22 59.85 59.22 58.71 59.20 53.27 58.99 60.66 59.15 59.75 58.65 58.93 58.61 57.33 57.55 56.80 53.34 51.40 52.34 49.68 46.63 46.42 42.78 48.90 48.62 51.85 51.75 48.22 55.44 59.60 60.64 59.44 61.05 62.18 63.64 65.91
57.86 57.96 58.02 58.02 58.19 58.75 59.09 59.44 59.58 59.86 59.03 58.60 58.97 56.71 51.58 58.72 57.03 59.02 59.20 56.35 57.18 57.48 57.65 56.86 54.81 51.75 50.92 47.17 44.91 45.49 40.57 42.34 44.32 50.59 48.65 51.26 47.94 53.94 56.98 59.92 59.06 60.57 60.95 63.04 64.85
57.66 57.57 57.60 57.60 57.96 58.50 58.89 59.41 59.92 59.18 60.05 60.30 59.50 54.22 55.37 53.42 57.35 57.99 59.46 57.55 55.37 54.55 53.44 52.70 51.60 48.42 48.62 45.71 38.51 41.05 41.52 42.84 42.42 46.21 49.11 48.37 50.22 53.77 54.93 58.90 58.84 60.29 60.78 61.19 62.86
57.87 57.73 57.43 57.44 57.71 57.73 58.59 58.81 55.78 55.64 56.10 52.64 53.65 52.82 54.64 57.65 58.88 56.92 57.79 56.04 55.03 52.57 48.22 50.70 45.94 44.01 46.53 47.28 46.21 44.16 42.44 41.41 43.85 46.44 46.52 48.55 50.22 53.02 55.17 58.19 57.97 59.67 60.30 60.43 61.12
57.60 57.58 57.52 57.31 57.46 57.40 58.03 54.09 52.69 54.15 50.13 55.68 54.97 54.47 56.51 56.56 52.78 55.58 57.26 52.15 51.20 47.53 50.09 48.15 43.90 48.76 49.03 48.61 46.09 43.75 41.27 41.04 43.91 45.77 46.41 47.34 48.42 52.52 55.00 57.10 57.81 59.28 60.18 60.07 60.94
57.25 57.38 57.36 57.26 57.27 57.76 57.02 54.21 57.93 56.97 51.01 53.21 55.09 53.86 54.59 55.18 52.53 53.07 54.65 53.28 49.94 47.54 48.03 44.84 47.48 49.57 47.56 45.96 44.14 43.37 40.79 41.14 41.24 44.31 46.83 48.06 46.05 49.68 53.45 57.48 58.07 59.20 60.74 60.81 60.67
56.74 57.05 57.16 56.67 55.15 55.73 56.32 56.97 58.50 57.54 48.09 48.20 50.65 53.75 54.73 55.06 51.49 56.03 55.93 52.58 50.40 47.13 47.88 46.79 49.90 48.25 46.85 44.90 45.27 40.00 45.40 43.78 42.43 41.38 38.78 48.49 39.25 47.14 50.97 54.36 56.47 57.94 58.58 58.73 59.66
56.88 56.42 56.76 56.17 55.13 52.85 54.73 57.39 58.59 56.40 38.03 48.68 50.06 56.83 54.66 51.07 52.05 52.99 56.61 53.03 48.30 48.14 47.94 45.03 46.44 46.15 44.83 44.83 47.19 42.73 46.61 44.09 43.76 41.02 42.76 43.15 41.82 45.30 49.88 50.58 54.07 57.17 58.48 58.75 58.62
57.14 55.92 56.04 57.26 56.27 55.81 57.28 57.30 56.84 46.44 37.48 45.93 49.88 49.14 49.42 50.38 50.13 52.71 52.98 54.53 54.12 49.13 48.82 47.18 51.00 49.00 47.82 48.56 48.91 48.97 45.08 44.67 44.67 43.16 34.31 39.12 41.45 42.87 46.44 49.30 52.77 56.52 58.77 59.23 58.95
56.75 55.28 55.31 56.85 53.03 57.50 57.70 54.34 45.71 40.34 47.75 44.89 45.89 48.90 47.85 47.33 48.17 49.17 48.31 48.01 45.66 41.21 42.21 45.19 45.68 49.29 49.26 45.82 48.72 47.59 42.17 32.87 33.14 34.85 35.50 42.32 39.56 43.32 50.33 53.45 53.46 55.28 57.77 59.33 58.77
55.48 53.79 56.20 56.80 58.81 58.39 56.55 49.17 38.83 44.15 44.36 48.77 47.79 47.97 45.15 47.30 47.29 47.83 47.05 44.79 47.66 45.66 42.85 39.01 36.55 45.11 48.74 46.49 43.53 44.84 42.64 35.48 29.34 31.90 35.55 44.89 39.79 44.26 50.32 51.42 51.51 52.24 55.24 55.55 54.32
53.88 56.56 56.08 57.87 58.89 58.52 51.49 42.09 41.82 44.94 46.95 45.86 46.72 44.20 44.74 46.58 46.17 46.70 46.12 44.60 45.32 46.19 40.11 39.55 38.15 47.85 48.38 49.23 47.39 44.05 39.27 42.92 34.33 36.85 34.36 39.68 45.15 48.00 49.54 49.13 50.86 51.14 51.57 51.68 52.27
53.59 53.07 55.22 57.81 59.22 55.21 47.69 42.49 43.53 47.87 47.48 46.46 41.54 44.76 42.03 44.43 44.14 44.93 44.95 46.50 44.56 46.50 47.46 44.34 37.49 45.51 47.70 49.79 48.17 45.04 46.19 37.48 38.02 34.01 31.62 38.24 39.07 40.19 46.02 47.43 48.53 49.38 50.24 49.81 50.44
53.70 47.82 55.53 57.52 57.29 50.60 43.02 43.54 44.83 48.04 47.76 44.78 43.90 43.46 44.36 43.64 44.25 43.69 43.99 46.25 46.52 45.20 47.17 45.82 43.37 42.50 46.76 44.30 42.92 43.90 42.47 42.26 43.57 41.03 34.76 33.94 36.99 44.97 44.95 47.74 48.33 49.20 49.47 49.38 49.91
50.36 45.28 54.83 57.03 47.10 48.41 43.34 45.02 44.77 46.24 48.26 46.48 46.35 45.50 44.37 44.52 43.23 43.37 42.96 45.19 47.55 46.53 43.05 45.77 42.28 39.26 41.01 47.28 48.14 45.61 41.92 43.95 37.46 36.80 41.03 37.85 37.91 47.63 47.48 49.10 49.62 48.33 48.70 49.19 49.55
46.59 47.96 54.98 55.11 44.15 44.69 45.41 44.23 45.35 44.64 45.47 44.95 44.33 45.49 46.20 43.41 40.79 44.02 44.38 48.06 47.60 45.71 43.88 45.03 41.82 37.36 38.83 43.72 45.34 42.25 46.16 45.47 44.65 43.34 38.57 36.76 38.30 48.10 48.20 48.93 49.37 47.98 48.03 48.07 48.30
46.93 44.77 49.23 51.26 49.54 44.32 42.83 42.36 42.64 46.76 45.51 45.76 45.37 46.00 44.17 43.28 45.09 42.43 43.46 45.98 47.68 46.23 47.24 46.94 42.32 39.99 35.91 38.87 41.97 39.71 41.65 45.48 44.42 40.12 39.38 39.57 41.99 45.48 46.49 46.96 48.32 48.06 48.42 47.90 48.10
46.85 45.60 46.97 45.62 46.31 44.58 43.49 42.24 40.59 40.62 45.84 46.45 44.06 43.37 42.37 39.93 41.60 41.71 44.13 44.68 46.43 45.93 46.37 45.13 38.72 41.88 41.83 42.17 41.75 40.95 40.35 41.32 40.03 40.84 37.93 41.41 41.15 43.68 44.70 45.94 48.50 48.79 48.56 47.85 47.50
45.62 44.18 46.47 45.43 44.66 42.66 41.43 40.63 40.17 40.65 41.86 40.31 41.09 43.23 43.59 40.62 41.60 40.06 42.55 42.90 41.94 45.21 44.16 45.69 39.18 41.86 40.23 41.49 42.02 39.95 42.62 42.56 41.88 41.03 40.74 41.59 41.28 45.40 46.49 47.95 48.74 48.46 48.02 47.49 47.39
49.04 50.08 46.69 44.74 43.52 42.57 43.55 42.32 40.32 42.35 42.42 44.22 43.34 41.86 39.85 41.28 43.99 44.44 44.83 44.91 44.36 42.55 41.94 42.20 41.08 39.84 38.17 41.02 41.64 39.10 40.43 41.44 42.04 42.66 41.74 39.73 42.81 46.18 45.27 46.31 47.80 48.71 48.46 48.16 48.08

GFSSW_sfc_wetblb_096.txt.gz
Wetbulb
59.63 59.92 59.98 59.89 59.94 60.13 60.23 60.33 60.67 60.75 60.95 61.37 61.38 61.49 61.45 61.70 61.22 60.78 55.42 59.99 62.60 66.01 65.50 60.56 57.50 55.85 57.62 58.00 60.06 62.19 52.53 49.85 52.59 54.36 56.25 61.11 59.93 62.06 62.13 61.49 62.46 62.11 61.94 64.61 66.50
59.57 59.72 59.86 59.94 59.97 60.11 60.22 60.38 60.69 60.96 61.16 61.18 61.60 61.49 61.38 61.14 58.20 56.63 60.39 63.75 64.27 64.70 58.61 55.63 54.30 55.10 52.60 53.98 55.99 54.48 50.67 51.26 56.33 57.53 57.09 59.55 59.73 61.36 59.11 59.89 60.38 59.94 64.43 65.91 65.94
59.54 59.66 59.79 59.79 59.98 60.26 60.31 60.43 60.77 61.13 61.58 61.61 61.21 61.03 61.14 60.25 56.17 54.99 62.82 61.79 63.24 63.07 57.40 56.62 56.24 54.42 50.29 52.04 52.35 52.60 48.72 53.21 54.28 55.76 57.08 56.97 58.83 61.76 58.77 57.43 60.24 59.61 62.61 64.54 64.41
59.33 59.50 59.68 59.82 60.01 60.16 60.22 60.28 60.67 61.21 61.60 61.35 61.03 61.07 61.26 58.37 43.65 57.43 60.79 61.31 62.99 61.59 57.40 54.48 53.48 51.86 49.26 47.50 50.25 46.99 50.96 51.73 53.41 54.76 54.37 53.56 59.28 58.92 58.47 59.16 62.18 63.23 64.51 64.80 63.76
59.06 59.27 59.50 59.69 59.90 59.98 60.04 60.14 60.54 60.97 61.19 61.09 60.99 60.90 58.91 55.01 51.41 59.59 60.27 62.18 59.24 57.54 55.20 53.08 51.24 50.64 47.16 48.41 48.57 46.13 47.92 49.92 51.23 52.32 52.99 54.93 54.52 57.05 58.96 61.53 62.72 64.03 62.28 64.45 64.15
58.87 59.19 59.38 59.44 59.44 59.63 59.79 60.00 60.58 60.89 60.94 61.11 61.19 60.51 57.62 49.83 56.76 58.20 57.78 58.19 58.11 56.82 55.25 54.69 51.51 51.90 48.52 47.14 46.52 48.50 48.09 48.09 50.00 50.87 51.35 50.73 53.20 54.95 57.39 61.06 61.14 61.92 60.92 64.05 64.73
58.77 58.97 59.15 59.09 59.05 59.17 59.57 59.91 60.36 60.43 60.79 60.88 60.71 59.26 56.06 52.18 58.22 59.80 59.56 58.58 58.93 57.28 54.42 56.21 55.14 51.36 50.94 47.53 50.65 49.15 45.18 46.90 47.51 48.77 49.91 51.43 47.95 50.76 55.72 58.01 59.69 59.57 60.22 60.86 64.97
58.51 58.69 58.63 58.55 58.58 58.91 59.43 59.73 60.20 60.20 60.70 60.07 59.72 59.41 53.56 58.68 60.17 59.17 59.77 58.28 59.39 58.78 57.30 57.74 56.80 52.94 50.48 51.43 48.96 45.60 45.13 39.62 45.91 47.82 48.29 48.47 42.47 49.78 55.77 56.02 56.66 59.23 59.37 60.20 63.60
58.55 58.46 58.33 58.18 58.23 58.72 59.40 59.46 59.88 60.54 60.36 59.73 58.30 57.43 51.72 58.60 56.83 59.10 59.36 56.34 57.43 57.75 57.82 57.53 54.95 51.11 50.99 45.53 42.56 44.45 38.45 40.42 43.20 47.70 47.34 45.32 42.75 50.42 52.96 54.55 55.10 57.63 58.80 59.91 61.36
58.36 58.18 58.18 58.08 58.13 58.73 58.95 59.75 61.24 59.83 60.26 60.66 59.62 54.06 55.65 53.46 57.02 58.03 59.36 57.83 55.04 55.10 53.45 52.43 50.70 47.25 47.21 44.40 36.60 39.60 39.61 41.40 40.70 45.27 45.79 44.26 43.39 48.32 51.99 52.03 53.18 56.64 58.71 58.74 60.72
57.91 58.03 58.13 57.91 58.09 58.23 57.79 59.00 54.04 55.20 55.35 52.31 52.78 52.62 54.08 57.14 58.70 56.93 58.30 56.02 55.37 52.73 47.26 51.09 45.41 41.95 45.24 47.18 46.57 44.80 42.17 40.55 42.58 45.73 43.80 42.49 43.49 46.85 50.83 52.76 52.62 54.95 57.73 57.95 60.90
57.33 57.40 57.88 57.89 57.78 57.43 56.73 53.37 52.60 53.78 48.03 55.87 55.43 54.71 56.47 56.84 52.21 55.62 57.61 52.04 50.99 46.64 49.50 47.33 42.83 47.92 48.31 47.94 46.08 44.55 41.91 40.38 42.55 45.01 43.21 41.97 41.60 45.84 50.84 52.62 53.81 56.08 56.75 57.35 57.77
57.36 56.99 57.42 57.73 57.43 56.45 56.37 53.73 58.03 57.56 48.95 53.37 55.49 53.57 54.28 55.09 52.05 52.91 55.16 52.74 49.05 46.61 46.68 43.45 46.21 49.57 47.78 46.00 43.41 43.09 41.21 40.76 39.80 42.72 43.90 41.81 39.52 42.53 48.29 52.18 56.13 56.87 57.59 58.61 57.94
57.86 57.08 56.55 56.74 55.08 54.87 55.42 56.10 58.07 57.97 46.04 48.99 51.01 53.76 54.35 55.46 50.82 56.02 56.32 52.50 49.48 46.08 47.11 45.95 49.36 47.08 45.93 44.09 45.04 39.52 45.21 43.78 41.70 39.57 33.14 41.72 31.93 40.93 46.66 48.53 53.66 55.10 55.72 56.25 57.09
57.88 57.26 56.28 55.41 53.82 52.26 54.53 56.65 58.05 55.81 36.90 48.45 50.48 56.18 54.37 50.97 51.42 52.69 57.08 52.91 47.50 47.49 47.13 44.37 45.20 44.92 43.90 44.62 46.51 42.26 45.24 43.07 43.06 39.12 37.02 37.60 35.02 40.83 46.24 45.94 51.41 53.58 54.82 56.06 56.95
57.76 56.87 55.73 56.12 56.22 55.70 56.79 56.66 55.82 45.49 36.82 46.06 50.05 49.20 49.02 50.80 50.48 52.43 52.21 54.45 53.42 48.12 47.44 46.57 51.12 48.77 46.67 47.89 48.17 48.50 44.12 42.59 41.95 39.27 30.87 36.44 37.43 38.00 42.67 45.97 51.15 53.37 55.10 55.37 55.75
57.05 56.18 54.71 56.51 52.43 57.82 57.83 53.62 43.96 39.78 47.73 44.85 45.52 48.10 47.32 47.01 47.96 48.92 47.91 46.59 43.34 38.49 38.71 44.28 45.33 48.68 49.37 45.29 48.10 46.08 40.51 30.75 29.57 30.84 29.34 40.20 36.49 38.28 45.01 48.30 49.89 51.61 51.86 55.72 55.59
55.99 54.76 56.93 56.00 58.21 58.33 55.72 47.89 38.18 44.33 44.15 48.36 46.77 46.23 44.71 47.03 46.78 47.10 46.27 43.66 45.39 43.21 38.89 36.32 35.91 44.17 48.23 45.42 42.99 43.35 40.25 33.02 25.06 30.35 33.15 39.68 35.12 40.44 48.39 49.44 51.53 53.23 55.88 56.58 54.87
54.11 55.44 55.18 57.61 58.88 57.38 50.26 40.93 40.79 43.36 46.17 44.07 44.68 43.03 43.83 46.12 45.55 45.15 44.73 43.54 44.39 43.83 37.35 37.20 38.23 46.68 48.48 48.18 47.18 42.25 38.99 41.66 34.36 35.50 34.00 35.22 40.03 45.20 48.13 48.28 48.89 49.38 49.77 49.87 50.22
50.87 52.65 53.90 58.00 58.92 54.89 46.69 42.33 43.83 47.12 46.37 45.27 39.69 44.06 40.32 42.75 42.88 43.11 43.39 45.73 43.73 45.26 45.95 42.46 35.90 45.23 47.55 49.57 48.28 44.80 45.17 36.88 36.36 30.21 27.84 34.22 34.83 35.95 42.38 44.60 46.79 46.15 45.77 46.77 47.96
51.15 48.10 55.11 57.76 56.39 49.24 42.20 43.23 44.58 47.62 47.56 44.03 42.32 41.27 41.87 41.80 42.86 41.84 42.87 44.93 45.56 44.36 45.66 43.99 40.56 39.75 44.94 43.56 41.79 42.36 40.43 41.76 40.21 38.33 33.40 29.31 32.94 42.38 42.76 44.92 44.99 45.04 45.60 46.06 46.73
50.10 44.09 54.17 55.55 46.07 47.56 43.24 44.22 45.33 44.94 47.80 46.23 45.95 44.51 43.18 43.15 41.42 41.54 41.87 43.91 46.91 45.65 41.53 44.05 39.44 35.19 40.08 46.09 47.51 44.96 41.70 42.76 36.19 34.33 36.70 34.85 32.62 44.07 45.70 46.04 45.72 45.37 48.06 47.24 47.76
46.38 47.64 54.62 53.25 42.59 43.78 45.99 44.51 45.55 44.39 44.57 44.70 43.74 45.74 45.58 42.22 39.41 42.93 43.54 47.78 47.60 45.38 42.54 42.85 38.10 33.30 36.48 40.48 43.11 40.43 42.09 44.73 43.39 41.84 36.81 34.18 36.60 44.72 45.44 45.29 45.49 43.79 44.45 45.75 46.72
46.55 43.25 48.04 50.06 49.32 43.17 43.11 42.93 42.48 47.33 45.42 45.90 44.39 45.79 43.74 41.98 43.93 41.53 42.07 46.89 47.07 46.86 48.82 46.34 39.96 36.27 32.01 36.13 39.64 37.29 40.22 41.11 41.80 37.37 36.32 36.92 38.12 40.60 43.31 44.76 44.85 44.65 44.40 44.73 45.75
46.17 44.47 46.25 43.86 45.58 45.05 44.70 43.22 41.14 40.38 45.52 46.05 43.57 43.59 42.11 38.55 39.52 39.16 42.12 42.76 44.99 46.75 45.52 42.71 36.38 38.94 39.84 41.03 40.76 39.68 39.61 39.82 37.37 36.99 32.99 36.34 37.23 39.79 42.23 43.43 45.42 45.94 45.53 44.72 45.17
44.27 43.46 45.91 43.82 45.19 44.00 42.61 42.00 41.60 41.55 40.94 40.28 39.96 42.10 42.18 38.70 39.75 37.59 40.25 40.58 40.04 43.57 41.52 42.59 36.88 38.92 37.45 41.85 40.79 39.21 41.11 40.94 40.67 39.83 38.28 39.26 37.73 42.95 43.97 45.15 44.29 43.91 44.77 44.13 44.02
48.55 49.65 46.54 43.95 43.76 42.18 43.01 42.97 42.26 42.44 42.93 43.03 42.50 40.04 38.04 39.72 41.71 41.88 41.73 41.14 40.54 39.01 39.16 39.47 38.48 36.49 33.67 40.87 40.64 36.41 38.70 40.08 40.41 39.69 38.05 35.62 38.83 42.51 42.08 44.16 43.47 44.24 45.29 44.76 44.60

GFSSW_sfc_wetblb_099.txt.gz
Wetbulb
59.84 60.22 60.33 60.50 60.60 60.58 60.88 61.07 61.37 61.61 61.75 62.01 62.24 62.12 61.96 62.10 61.35 57.59 53.69 57.83 60.34 65.20 65.56 58.95 59.29 56.17 54.27 52.45 56.44 58.05 48.33 46.86 49.58 52.07 54.38 59.24 56.99 61.28 61.98 60.49 61.05 61.88 60.95 63.37 65.28
59.79 60.01 60.19 60.39 60.42 60.62 60.75 60.93 61.24 61.41 61.66 62.01 62.26 62.12 61.71 61.35 56.69 54.19 59.93 62.60 63.80 64.46 59.02 52.69 52.18 52.72 47.39 49.27 50.50 50.84 47.24 48.78 54.39 55.25 54.46 55.53 54.17 59.82 57.54 57.33 58.50 59.75 63.12 65.02 65.19
59.71 59.92 60.05 60.23 60.37 60.55 60.60 60.63 60.91 61.18 61.62 61.95 61.94 61.60 61.50 60.18 53.21 54.50 63.55 61.03 63.28 63.50 58.94 56.06 54.12 52.46 45.85 46.60 47.65 47.79 46.18 51.29 52.55 53.88 53.92 52.87 52.28 61.38 58.66 56.13 59.55 58.53 60.95 63.67 63.81
59.51 59.63 59.88 60.04 60.28 60.44 60.46 60.53 60.83 61.28 61.83 61.87 61.78 61.72 61.69 57.56 40.91 57.08 62.23 61.99 64.26 62.37 58.27 53.41 50.66 46.16 44.29 42.64 46.79 42.35 47.74 51.30 52.70 53.74 52.46 50.82 53.11 53.73 58.55 59.24 61.85 62.55 61.53 63.35 62.71
59.27 59.56 59.82 59.97 60.10 60.21 60.27 60.33 60.70 61.27 61.51 61.51 61.83 61.76 57.58 52.16 48.55 60.85 62.93 61.15 59.79 57.10 54.36 52.04 47.76 45.93 42.21 43.92 44.73 42.52 44.87 48.35 48.97 49.16 49.53 50.34 49.61 51.37 56.52 58.37 60.74 62.02 63.59 62.41 62.40
59.13 59.38 59.58 59.61 59.56 59.69 59.84 60.07 60.57 60.95 60.91 61.25 61.62 61.06 55.22 45.73 54.67 57.41 56.91 56.61 58.00 55.92 53.96 53.08 49.69 50.10 45.23 44.26 42.00 44.97 45.69 46.03 47.32 47.18 48.39 48.78 48.86 50.26 53.08 59.81 59.66 61.14 61.96 62.39 62.98
59.12 59.30 59.29 59.14 59.08 59.21 59.55 59.84 60.09 60.24 60.62 61.28 61.00 58.67 53.70 50.76 55.17 55.48 58.24 56.67 57.53 57.10 53.78 55.00 53.86 49.47 48.14 44.54 48.16 47.12 42.12 43.74 44.66 45.99 45.74 48.56 45.14 46.96 52.66 56.31 57.98 58.63 59.24 61.00 62.77
59.23 59.26 59.15 58.93 58.90 59.05 59.41 59.97 59.96 60.15 60.62 61.10 60.66 55.57 49.62 56.83 55.86 57.23 57.88 56.52 57.85 57.37 56.31 55.96 55.11 51.22 48.38 48.63 46.93 43.28 41.46 35.63 42.62 44.80 46.30 45.37 38.87 46.37 50.36 51.33 52.30 56.53 56.95 58.35 62.44
58.81 58.75 58.68 58.56 58.67 59.01 59.66 59.70 60.19 60.82 60.85 61.03 55.86 52.76 48.84 59.48 55.03 56.81 56.76 55.48 56.17 56.21 55.69 57.30 54.15 48.32 48.29 42.17 37.89 39.31 33.75 36.22 39.60 45.51 44.27 42.66 40.16 45.21 49.46 50.68 50.76 52.59 56.88 58.50 57.34
58.30 58.06 58.07 58.08 58.51 59.07 59.12 59.54 60.66 59.76 59.76 59.66 58.59 49.01 53.08 51.58 55.47 56.45 55.49 56.86 53.95 53.64 52.24 50.62 47.21 42.82 41.94 39.40 34.27 37.50 36.70 38.74 37.63 42.81 43.96 40.98 39.62 44.20 47.75 49.81 49.81 50.21 56.55 57.75 58.85
58.04 57.82 57.55 57.99 58.42 58.58 56.10 53.12 48.16 48.49 51.02 47.70 49.65 50.38 52.40 55.06 56.73 54.32 56.52 54.75 53.76 50.12 42.92 46.91 43.30 39.04 42.21 43.23 43.79 42.35 40.47 38.95 42.01 45.51 41.42 40.13 40.22 41.74 44.66 46.41 47.45 49.00 52.35 57.68 58.57
58.28 58.13 57.55 57.56 57.34 57.39 54.37 49.57 49.93 50.37 44.58 52.90 53.77 53.35 54.91 54.80 50.59 53.36 55.74 49.18 47.90 43.09 45.71 42.21 38.10 44.90 47.18 46.89 44.54 42.29 39.47 37.95 41.23 44.16 40.98 39.72 39.08 42.17 42.98 45.25 47.94 49.35 50.39 53.57 57.14
58.26 58.12 57.72 57.27 56.93 53.82 51.65 51.30 54.67 54.11 44.65 51.23 54.05 52.74 53.03 53.58 50.46 51.20 53.44 50.02 46.10 43.21 43.32 39.08 43.31 48.75 47.16 44.51 42.54 41.40 38.88 39.14 38.97 42.08 41.62 38.44 36.44 38.49 42.97 43.72 48.29 51.66 54.37 55.74 57.37
58.42 57.75 57.35 56.53 52.28 50.61 50.81 53.23 53.86 54.54 41.39 47.24 49.82 52.46 54.03 54.55 49.15 55.60 54.85 50.88 46.99 43.34 44.22 42.84 47.47 45.93 44.41 43.30 44.43 38.38 44.61 43.55 41.43 37.54 30.71 37.28 28.48 35.36 39.20 42.10 45.04 50.19 52.96 55.75 57.25
57.94 57.11 56.69 55.93 49.24 49.45 51.62 52.60 52.55 51.32 30.50 47.32 49.68 55.39 52.28 49.68 49.59 51.20 55.34 50.73 44.89 45.35 42.89 39.66 43.41 43.56 43.04 43.66 45.49 41.49 46.19 43.04 42.16 37.66 33.73 35.45 29.22 33.14 38.98 41.14 43.54 47.44 51.57 55.18 56.69
57.76 56.82 55.82 52.81 51.69 51.61 53.38 53.42 50.62 41.17 32.77 45.23 49.52 47.65 46.19 48.31 48.59 50.74 51.21 52.23 50.69 46.13 43.32 41.65 47.97 47.33 45.07 46.91 47.15 46.97 43.92 42.35 40.72 38.10 28.16 33.37 32.34 31.26 38.08 41.20 44.38 48.12 52.19 54.18 54.58
57.21 56.36 53.73 54.56 48.27 53.31 53.51 48.81 37.50 34.55 45.33 42.40 43.54 45.25 44.01 43.38 45.81 46.52 44.86 41.40 37.70 33.32 33.63 39.07 43.06 46.16 47.62 43.07 46.28 45.55 39.32 29.56 26.08 28.52 28.71 38.23 33.91 34.18 43.00 46.72 47.21 47.85 50.08 52.17 53.55
56.27 55.33 53.72 54.88 52.54 53.70 50.53 41.79 32.28 41.85 41.00 46.04 43.77 43.38 40.87 44.87 43.90 43.95 41.49 38.28 41.29 38.96 34.03 31.12 32.03 41.45 45.59 43.03 40.87 41.86 39.21 31.69 23.28 27.53 31.27 36.12 31.83 38.73 45.54 48.73 49.54 50.61 52.16 52.15 52.50
54.24 48.99 49.56 52.58 55.52 52.23 44.19 34.32 34.76 39.81 43.76 41.99 42.03 38.76 39.65 43.10 41.93 41.19 38.93 39.36 39.77 39.91 33.11 32.30 34.59 44.19 45.01 46.66 44.50 40.41 39.02 40.11 32.53 33.80 32.00 33.82 37.89 44.05 46.65 47.24 47.51 48.67 48.35 48.73 49.61
46.73 46.46 47.67 54.85 54.80 49.62 40.51 38.56 39.69 44.98 44.59 43.38 36.40 40.37 35.85 38.47 38.94 38.12 37.66 41.93 41.43 42.92 40.83 37.62 31.73 40.55 44.49 46.09 45.46 41.91 44.53 36.96 35.63 29.96 23.33 32.52 33.22 35.20 42.59 44.02 44.93 44.85 47.99 48.32 50.13
46.64 43.03 50.77 53.79 50.94 43.14 35.67 36.71 42.76 45.59 45.95 41.92 39.16 38.61 38.74 38.49 38.55 36.84 38.66 41.97 43.02 42.27 42.25 38.04 34.03 34.46 39.94 39.51 37.86 38.60 37.07 41.05 40.19 36.28 31.84 27.26 31.20 42.16 40.98 42.85 42.35 41.88 44.16 45.98 46.24
45.06 38.75 50.58 50.60 39.85 39.44 35.90 41.53 44.98 43.76 45.14 44.28 42.98 41.78 39.80 40.06 37.91 37.16 38.07 40.91 44.11 42.63 38.80 39.76 34.48 29.81 35.02 42.02 44.23 40.14 37.27 41.65 34.77 34.16 36.44 34.48 31.51 41.60 42.29 42.69 43.31 42.72 44.16 44.33 45.06
41.06 41.40 49.94 47.71 36.07 35.46 39.11 43.35 44.04 43.07 42.87 42.86 41.76 43.50 42.71 39.69 35.99 38.83 39.96 45.09 44.27 42.48 38.82 39.08 33.11 27.70 30.56 35.30 38.42 35.75 38.49 39.46 41.19 39.07 33.11 28.18 31.74 41.73 41.50 41.25 41.78 41.28 43.92 45.52 44.62
40.91 37.59 43.21 42.73 41.15 35.75 36.35 39.97 39.75 44.44 43.57 43.92 42.21 42.87 40.63 38.90 40.03 36.85 37.53 42.72 43.53 43.92 49.10 44.22 35.18 32.11 27.59 31.49 35.11 33.85 37.06 37.89 37.12 29.53 31.40 32.99 33.64 37.39 39.82 40.68 41.20 41.03 41.89 42.52 43.50
40.26 37.48 42.24 38.33 40.06 37.79 38.87 38.98 39.07 38.17 42.32 42.07 40.22 40.83 38.28 35.12 36.09 35.70 37.14 38.16 41.38 46.72 41.20 37.41 31.54 33.86 35.88 37.63 37.89 36.97 37.49 38.04 34.34 33.02 29.20 33.08 34.64 37.04 39.39 41.98 41.76 42.61 43.17 43.18 43.26
38.34 37.15 40.13 37.96 41.30 39.04 39.19 37.84 39.06 39.13 37.68 37.08 35.88 39.37 37.08 33.31 34.35 32.71 35.02 34.19 35.33 38.13 35.89 37.05 32.36 34.40 33.42 38.87 38.34 35.94 37.91 37.91 37.60 36.58 35.30 36.09 35.41 40.40 42.15 42.47 41.80 41.52 42.57 42.41 42.70
42.21 43.67 41.62 40.43 39.51 37.90 38.24 39.09 39.57 38.87 40.35 40.75 39.17 36.27 35.02 36.75 38.40 38.30 37.99 37.19 37.24 33.17 32.41 33.03 32.96 31.44 28.43 35.77 36.48 32.82 35.77 36.41 35.54 36.26 34.63 32.37 36.47 39.19 39.04 40.49 39.53 40.57 42.84 42.44 42.38

GFSSW_sfc_wetblb_102.txt.gz
Wetbulb
59.91 60.29 60.43 60.77 60.90 61.00 61.15 61.34 61.47 61.54 61.69 62.10 62.54 62.48 62.20 61.92 61.29 56.86 49.80 53.91 59.02 64.94 64.98 58.96 56.96 56.21 52.45 49.88 53.51 55.71 46.83 44.82 47.62 50.74 53.25 57.72 55.12 60.48 61.36 59.30 60.89 62.36 60.40 62.78 64.63
59.91 60.11 60.29 60.56 60.71 60.78 60.99 61.09 61.31 61.41 61.69 62.19 62.46 62.32 61.85 61.76 56.34 52.31 56.95 63.41 63.71 64.66 57.15 53.63 50.51 51.68 46.09 47.13 47.99 48.23 45.06 47.02 53.02 53.66 53.00 53.42 52.24 58.28 57.88 56.21 57.46 59.61 62.14 64.09 64.65
59.82 60.01 60.12 60.35 60.54 60.75 60.80 60.83 61.01 61.23 61.89 62.22 62.12 61.72 61.77 60.63 50.03 51.84 63.36 62.55 64.11 64.15 58.29 56.14 53.83 50.89 44.99 45.05 44.69 44.76 44.52 50.05 51.85 53.31 53.85 51.72 51.17 55.63 56.46 54.82 57.60 57.87 59.79 63.09 64.17
59.68 59.84 60.05 60.22 60.34 60.49 60.52 60.47 60.75 61.21 61.88 61.87 61.90 62.15 61.88 57.08 40.35 54.07 64.03 63.22 65.09 61.83 55.86 53.06 49.51 45.25 42.98 41.33 44.94 40.31 45.05 45.82 50.47 53.27 52.61 50.51 50.95 53.83 57.72 58.35 61.95 62.76 60.88 62.30 62.40
59.42 59.71 59.86 59.99 60.07 60.15 60.20 60.25 60.61 60.99 61.27 61.36 61.73 61.79 56.98 49.38 47.57 58.30 64.40 61.96 57.57 56.29 53.56 51.43 46.51 44.70 41.04 42.52 43.30 40.58 43.03 46.08 47.15 47.50 47.78 48.55 47.96 48.69 55.55 59.48 62.24 63.16 62.48 61.96 62.64
59.59 59.68 59.81 59.82 59.70 59.77 59.88 60.03 60.41 60.49 60.54 61.13 61.61 60.79 53.77 43.89 53.47 57.97 58.44 55.12 57.07 55.22 52.94 52.46 49.58 49.37 44.61 43.78 41.26 43.28 44.96 44.80 45.61 45.72 46.39 46.01 46.98 49.13 51.99 58.88 59.98 61.17 61.17 61.52 61.95
59.51 59.64 59.60 59.37 59.33 59.44 59.68 59.83 59.96 60.03 60.35 61.02 61.10 58.40 52.62 48.88 54.02 53.99 56.04 55.45 56.40 55.88 52.89 53.92 53.06 48.34 47.31 43.99 47.22 46.07 41.62 43.02 43.96 44.13 43.93 46.46 42.94 44.00 50.19 57.88 56.64 58.35 59.81 61.30 62.10
59.23 59.12 58.95 58.83 58.91 59.11 59.31 59.68 60.08 60.16 60.44 60.94 60.65 55.04 48.20 56.94 54.68 55.75 56.45 55.38 56.67 56.28 55.40 54.94 54.44 50.43 47.37 47.87 46.13 42.05 40.11 35.03 42.39 43.59 44.62 43.54 35.97 44.02 47.62 47.92 52.97 55.55 59.26 60.93 61.47
58.82 58.28 57.79 57.87 58.16 58.59 59.18 59.57 60.29 60.80 60.84 61.13 55.09 51.79 47.02 58.96 53.93 55.66 55.83 54.25 55.09 55.02 54.77 56.81 53.00 47.47 47.00 40.95 37.35 38.31 33.05 35.55 38.99 44.92 43.75 41.44 36.88 43.65 45.65 46.34 47.27 47.77 54.75 58.52 60.67
58.39 58.21 58.07 58.05 58.22 58.83 58.97 59.31 60.57 59.49 59.35 59.39 57.79 46.08 50.21 50.14 54.27 55.40 54.44 55.78 52.92 52.53 51.17 49.66 45.95 41.70 40.69 37.57 31.89 35.04 35.56 37.91 37.48 41.88 43.38 40.56 38.50 41.78 44.21 44.27 45.29 47.18 48.39 55.35 59.46
58.40 58.42 58.03 58.32 58.30 58.15 55.84 49.98 47.48 45.25 49.59 46.37 47.57 48.97 50.84 53.97 55.36 53.24 55.38 53.52 52.40 48.52 42.08 45.45 40.13 36.93 40.14 42.04 42.09 40.48 38.40 37.16 40.72 44.41 41.42 40.41 39.98 40.56 42.85 41.75 42.02 43.91 46.29 50.44 56.25
58.70 58.16 57.74 57.70 57.49 57.38 52.36 48.83 48.72 49.64 44.22 51.44 52.03 51.98 53.72 53.41 49.32 51.98 54.42 47.91 46.84 41.86 43.83 41.18 37.26 43.32 45.92 45.90 43.59 41.43 38.30 37.48 40.35 43.37 41.58 40.14 39.07 40.74 41.83 41.96 42.37 43.24 45.14 49.50 53.43
58.10 57.95 57.30 57.30 57.07 52.17 50.10 49.99 53.05 53.01 43.88 49.27 53.00 51.59 51.68 52.51 48.87 49.71 52.39 48.68 44.59 42.24 42.20 37.77 42.06 47.18 45.97 43.51 42.18 40.58 38.46 38.19 38.53 41.73 41.04 38.02 37.19 37.39 40.89 41.82 42.87 43.90 46.00 49.18 51.72
58.16 57.62 57.21 57.03 49.33 49.27 48.77 51.96 51.51 53.08 39.77 45.58 48.31 50.96 52.42 53.06 48.12 54.18 53.50 49.64 45.70 42.09 42.85 40.25 45.87 45.18 44.13 42.79 43.28 37.64 43.71 43.06 41.71 38.85 32.68 37.32 28.93 34.04 37.56 38.79 40.86 44.22 45.63 51.51 56.96
57.92 57.36 56.67 55.64 47.93 48.38 50.63 51.24 51.52 50.41 29.57 46.10 48.36 54.05 50.63 48.82 48.28 49.64 53.95 49.47 43.62 43.73 40.98 37.33 40.10 42.16 42.23 42.88 44.48 41.03 45.98 43.15 42.15 38.83 36.23 36.30 30.67 31.55 36.73 38.27 42.33 44.40 46.83 49.41 56.87
57.96 57.19 56.09 51.88 49.50 50.72 52.16 52.05 50.70 38.58 31.02 43.48 48.03 45.72 44.13 46.37 47.12 49.24 49.43 49.40 48.50 42.94 40.67 39.64 44.82 45.78 43.66 45.77 45.60 46.75 44.03 41.11 39.25 37.24 29.34 34.62 31.21 29.51 37.09 40.47 43.53 46.85 48.26 48.98 55.00
57.55 56.77 54.72 53.62 47.59 51.48 52.13 47.45 36.28 32.37 43.67 40.82 41.73 42.77 41.77 41.60 44.42 44.58 41.51 38.91 36.10 32.00 31.98 36.93 39.52 44.61 46.15 41.20 44.60 44.48 38.83 29.92 24.83 28.43 28.59 36.02 32.85 31.58 41.08 44.30 45.55 46.40 47.99 50.31 51.43
56.36 55.30 53.66 53.67 51.64 52.48 48.60 40.21 31.42 39.91 38.91 44.30 42.44 41.68 40.00 42.41 41.65 41.83 39.48 36.55 39.87 37.20 32.11 29.81 29.68 39.74 43.58 40.66 39.07 40.44 40.03 32.11 21.81 27.01 29.06 36.98 31.34 37.41 42.94 46.16 48.06 47.75 49.15 51.45 52.38
53.46 46.00 48.61 51.39 53.13 50.82 42.34 33.08 33.90 38.27 42.24 40.62 40.60 36.78 37.16 40.73 39.69 39.20 37.31 37.29 38.16 38.02 31.83 30.89 32.01 41.98 42.71 43.44 42.84 38.88 36.97 39.79 32.83 34.16 28.95 33.92 38.18 41.93 46.38 46.38 47.56 47.96 48.32 49.03 51.20
45.95 45.26 45.90 53.37 52.61 46.19 38.80 37.37 38.21 43.27 43.27 41.86 34.88 38.17 33.53 36.42 36.73 35.89 35.67 40.11 39.85 41.34 39.14 35.32 29.89 38.32 41.32 43.79 43.85 40.26 42.07 35.62 36.16 28.18 21.06 30.46 32.11 33.78 42.65 43.66 45.75 47.83 48.33 48.95 50.41
44.99 41.05 47.55 52.04 48.26 41.59 35.02 35.74 41.14 44.13 44.38 39.93 37.44 36.92 36.80 36.23 36.40 34.58 36.29 40.38 41.59 41.06 40.61 35.86 32.28 33.33 37.83 36.29 36.10 35.55 34.79 39.88 37.36 36.74 30.21 24.27 28.82 39.33 38.99 42.06 41.58 45.39 49.22 47.80 47.20
42.78 37.10 48.10 48.46 40.11 38.29 36.50 39.73 44.64 42.26 43.65 42.09 41.37 40.24 37.80 38.14 35.90 35.67 36.39 38.95 42.33 41.09 37.23 37.73 32.94 28.39 33.05 39.45 40.61 37.45 34.79 38.58 32.55 31.75 35.46 32.70 30.64 38.94 39.09 40.68 42.21 42.32 43.70 44.50 45.63
38.47 39.10 48.05 46.48 36.22 36.39 37.68 41.63 43.01 42.02 41.37 41.29 40.26 41.75 40.73 37.57 34.44 37.06 37.62 42.88 42.41 40.57 37.11 37.14 31.57 25.95 29.61 33.41 36.80 34.23 36.50 38.12 38.88 36.65 31.99 27.17 31.37 40.19 39.27 39.68 40.90 42.27 43.11 43.39 43.83
38.91 35.54 41.96 42.34 39.81 37.56 36.04 38.30 38.85 43.69 42.71 42.32 40.64 41.07 38.68 36.71 38.51 35.86 36.19 40.56 41.24 40.33 48.45 42.95 33.47 30.44 26.10 30.42 33.39 32.23 35.80 36.88 35.67 26.76 27.51 29.64 31.06 37.10 38.82 38.63 40.03 41.05 41.27 41.81 43.20
38.15 36.85 40.55 36.29 38.14 38.30 38.61 38.66 37.19 37.01 41.17 41.33 37.90 38.68 36.30 32.85 34.23 34.58 35.53 35.63 38.55 43.47 38.75 35.81 29.76 31.61 33.81 35.75 35.85 34.94 34.83 35.94 32.55 31.40 27.29 30.46 31.77 35.23 38.13 39.65 40.26 41.42 42.22 42.28 41.93
36.19 35.27 37.86 36.52 39.27 38.47 39.36 37.78 37.87 38.39 37.64 36.00 34.99 37.63 35.13 32.54 34.16 32.13 33.92 32.60 33.38 36.07 33.10 33.18 29.30 32.00 31.47 36.10 35.74 34.53 35.95 35.37 34.46 33.16 32.70 33.96 33.06 37.94 38.85 40.03 39.79 40.26 40.97 40.55 40.72
40.39 41.73 40.15 38.57 37.23 37.17 37.32 39.03 40.01 39.74 39.57 40.13 38.07 35.02 33.71 35.96 37.39 37.99 37.48 36.94 36.72 33.14 31.32 30.51 30.54 29.49 26.77 33.45 34.28 31.15 33.55 34.35 33.12 34.72 33.23 30.85 34.27 37.27 37.21 38.62 37.61 38.53 40.72 40.42 40.03

GFSSW_sfc_wetblb_105.txt.gz
Wetbulb
60.03 60.44 60.68 60.86 61.07 61.12 61.25 61.52 61.64 61.66 61.84 62.45 62.74 62.77 62.37 62.15 61.07 55.77 46.30 51.91 58.33 65.12 64.15 56.16 53.97 52.24 50.34 48.07 51.33 54.59 46.49 43.29 46.24 49.55 52.39 56.37 53.38 59.61 60.87 58.62 60.39 61.69 58.99 61.15 64.47
60.00 60.18 60.36 60.57 60.89 60.91 60.95 61.14 61.34 61.50 61.71 62.32 62.45 62.51 61.98 62.07 55.33 50.46 56.44 63.17 63.80 65.40 56.22 52.88 50.40 50.81 45.15 45.53 46.54 46.71 44.29 45.64 51.35 52.21 52.05 53.56 51.94 51.29 55.09 55.77 56.53 59.57 61.03 62.87 65.06
59.92 60.13 60.32 60.50 60.65 60.68 60.67 60.80 60.98 61.15 61.58 62.07 61.93 62.09 62.24 60.51 47.06 48.66 62.35 63.69 64.16 64.94 57.47 55.43 53.30 49.58 43.92 43.37 42.52 43.28 42.14 48.74 49.74 50.55 51.73 51.53 50.23 51.19 53.91 52.96 55.77 56.37 58.83 61.43 63.71
59.74 59.94 60.18 60.29 60.39 60.43 60.42 60.42 60.70 60.96 61.38 61.46 61.65 62.19 62.05 55.58 40.41 51.23 64.39 64.01 65.34 58.77 53.95 51.67 48.28 43.78 41.17 40.02 43.68 38.77 43.54 44.30 45.70 48.82 49.44 48.37 50.17 47.92 55.22 54.85 59.00 60.34 60.77 61.46 62.11
59.84 60.07 60.13 60.18 60.19 60.20 60.14 60.24 60.50 60.85 60.83 60.99 61.67 61.64 56.58 46.54 46.66 54.67 65.88 61.92 56.07 55.30 52.69 50.43 46.20 44.14 40.31 41.35 42.42 38.95 41.56 45.47 46.22 46.09 46.03 46.93 45.75 46.96 47.33 56.09 59.39 62.47 61.61 61.57 61.32
59.74 59.80 59.84 59.75 59.67 59.71 59.78 59.94 60.25 60.42 60.43 60.81 61.66 60.97 51.82 43.64 52.58 55.34 58.63 54.37 55.79 54.36 52.08 51.45 48.65 48.64 43.93 42.78 40.67 42.64 43.43 44.03 44.83 44.89 45.00 44.39 44.48 46.95 48.31 52.68 58.40 61.04 60.29 60.64 61.50
59.44 59.30 58.95 58.62 58.66 58.88 59.30 59.67 59.95 60.10 60.21 60.74 61.16 57.90 51.11 47.65 52.92 52.11 55.50 53.99 55.32 54.96 52.03 52.76 52.05 47.44 46.44 43.07 46.33 45.02 40.69 42.52 42.13 43.36 42.66 44.27 40.78 42.09 47.11 51.24 54.99 57.54 59.49 60.85 60.86
59.29 59.10 58.70 58.52 58.34 58.63 59.14 59.49 60.11 60.17 60.17 60.50 60.13 54.17 46.72 56.30 53.59 54.71 54.90 54.39 55.57 55.22 54.44 54.01 53.35 49.81 46.35 46.80 45.04 40.90 38.92 34.84 42.48 43.17 44.58 42.42 35.40 43.27 45.60 44.45 44.87 51.08 55.01 59.69 61.04
58.76 58.29 58.02 58.05 58.47 58.86 59.21 59.69 60.74 60.95 60.61 60.66 54.27 51.08 45.13 58.37 52.59 54.66 54.80 53.10 53.95 53.86 53.70 56.22 51.94 46.34 46.02 39.72 36.57 37.78 33.11 34.96 38.81 44.27 43.48 40.79 36.92 42.88 45.96 44.04 44.11 44.51 48.48 57.72 59.75
58.44 58.52 57.97 58.13 58.73 59.22 59.40 58.81 60.92 59.65 59.02 58.98 56.94 43.86 47.93 48.31 52.92 54.49 53.35 54.44 51.89 51.60 49.90 48.69 44.69 40.79 39.87 36.99 32.02 34.18 34.16 36.63 36.33 41.59 42.55 40.34 38.50 41.77 43.39 42.57 42.03 42.03 44.02 51.76 59.12
58.61 58.51 58.00 57.97 58.48 59.04 54.07 48.36 46.14 43.73 48.80 45.26 46.26 47.35 49.62 53.09 53.84 51.94 54.08 52.25 50.93 47.16 40.88 44.19 39.39 36.03 39.58 41.19 40.65 39.57 37.25 36.05 39.52 43.09 40.56 39.33 39.04 40.52 42.69 41.45 40.47 40.70 40.80 44.19 52.69
58.59 58.31 57.81 57.68 57.98 57.21 50.74 47.72 47.21 48.40 42.66 50.08 50.56 50.70 52.76 52.22 48.19 50.20 53.15 46.93 45.73 40.78 42.36 39.76 35.89 42.07 44.34 44.91 42.63 40.75 37.89 37.58 40.27 42.69 40.46 39.25 38.91 40.63 41.17 41.27 42.13 41.29 41.04 42.11 45.62
58.34 58.20 57.78 57.25 57.25 51.27 48.83 48.41 51.33 51.91 43.07 48.06 51.95 50.38 51.12 51.54 47.49 48.12 51.26 47.41 43.25 41.19 40.42 36.48 40.99 45.94 45.13 43.05 41.33 40.13 37.94 37.64 37.86 42.21 41.33 38.30 35.64 37.62 39.98 40.68 41.59 41.64 43.02 45.62 44.94
58.36 58.01 57.53 56.76 49.92 48.45 47.73 50.99 50.47 52.20 38.81 43.35 47.30 49.47 51.03 51.39 46.38 52.89 52.22 48.33 44.63 40.99 41.53 38.22 44.04 42.49 42.36 41.54 42.12 36.57 42.95 42.99 41.67 39.51 35.11 40.03 30.22 36.50 38.98 38.27 39.92 44.17 44.12 46.32 48.27
58.16 57.72 57.03 54.53 47.04 47.50 49.67 50.86 51.31 49.08 28.96 44.66 47.12 52.88 48.84 47.42 46.95 48.45 52.49 48.51 42.36 42.73 40.12 36.36 38.34 39.89 40.67 41.41 43.01 39.53 43.93 42.39 40.82 37.42 36.98 35.87 33.00 32.01 36.80 39.34 42.77 45.30 47.05 48.22 48.34
58.18 57.51 56.43 50.73 48.59 49.91 51.20 50.87 50.07 37.13 29.62 42.19 46.58 43.15 42.60 44.68 45.42 47.83 45.43 46.38 46.37 39.81 38.90 38.30 42.56 43.76 42.37 44.47 43.86 44.81 42.46 39.62 37.29 34.50 27.86 34.72 34.21 29.13 37.52 41.21 43.36 46.03 47.26 48.48 49.46
57.59 56.91 54.57 52.70 46.56 51.08 51.53 46.22 35.88 31.55 42.18 40.33 40.12 41.77 40.35 40.59 42.47 42.75 39.73 37.58 35.20 31.51 31.09 35.39 37.90 41.37 44.55 39.18 42.00 42.31 37.44 29.44 23.31 24.59 28.32 36.05 33.72 31.78 39.14 43.07 45.75 45.32 46.63 50.77 51.98
56.49 54.66 53.51 52.57 51.11 51.76 46.92 38.60 31.13 38.41 37.51 43.30 41.09 40.43 38.27 40.60 39.64 40.01 37.79 35.09 38.24 35.38 30.46 28.55 28.54 37.88 42.51 38.30 36.53 38.90 36.90 33.16 22.21 24.78 27.99 36.54 31.65 37.11 44.28 46.64 49.33 49.06 50.30 52.67 53.90
52.91 44.93 46.75 49.76 52.40 49.24 40.73 32.96 33.56 36.93 41.00 39.44 39.36 35.53 35.48 38.96 37.83 37.25 35.28 35.57 36.85 37.05 30.54 29.63 30.18 39.65 41.70 41.07 40.95 37.50 34.15 37.75 32.67 33.87 27.87 32.52 38.28 41.84 45.82 46.41 48.47 48.80 47.85 48.86 52.01
44.48 44.03 45.14 52.28 51.05 45.03 38.85 36.89 37.12 41.83 41.61 40.51 33.45 36.62 32.06 35.06 35.62 34.81 34.08 38.91 38.62 39.92 37.76 33.57 28.25 36.21 39.46 41.76 41.58 38.98 40.36 33.54 33.60 27.06 24.94 28.30 29.57 33.02 38.59 42.21 44.01 48.30 46.41 46.70 48.22
42.76 38.96 44.81 50.32 47.31 41.17 35.56 36.21 40.43 42.80 43.03 38.67 36.04 35.38 35.24 35.00 34.47 33.20 34.76 38.84 40.13 40.17 38.70 34.54 31.22 31.87 35.96 34.38 32.73 33.70 32.34 37.19 35.46 35.59 29.46 25.04 28.34 36.93 37.91 40.77 41.11 44.44 45.10 45.91 44.74
39.99 35.66 46.03 46.66 39.02 36.19 35.98 39.12 44.30 41.16 42.21 40.80 40.19 39.01 36.40 36.45 34.46 34.04 34.85 37.15 41.10 40.28 35.80 36.01 31.32 27.38 31.71 37.25 38.07 35.55 32.58 35.82 29.65 26.99 34.04 32.51 29.31 38.09 37.46 40.74 42.64 42.54 45.02 44.48 45.16
36.87 37.24 45.78 44.64 35.44 35.52 37.37 41.20 41.97 40.56 40.11 40.25 39.31 40.49 39.13 36.05 33.06 35.90 36.52 41.78 40.18 38.68 34.58 35.51 30.09 24.13 28.20 32.38 35.50 33.12 34.60 34.32 37.35 33.31 29.31 24.67 29.70 40.10 38.76 38.99 40.33 41.79 42.21 43.31 43.63
37.53 34.46 40.56 41.17 38.60 37.58 36.30 38.75 38.68 42.27 41.15 41.17 39.44 39.89 37.16 35.11 37.25 35.03 34.99 40.05 39.56 40.02 46.29 40.68 31.77 28.22 24.17 28.56 31.93 31.01 34.35 34.38 32.34 25.30 25.33 27.64 30.41 35.15 38.00 38.42 39.63 39.54 40.59 41.09 41.16
36.84 35.44 38.86 35.39 37.83 36.23 38.49 39.42 37.92 37.37 39.88 40.59 37.17 38.18 35.68 31.02 32.78 33.26 34.97 35.42 37.46 40.92 36.85 34.40 28.43 29.12 32.00 33.95 33.91 33.38 33.67 34.01 30.20 29.99 26.39 28.86 30.67 34.75 36.17 36.81 37.74 40.02 40.79 40.23 39.79
35.23 34.78 37.17 37.51 38.38 37.68 38.35 37.34 37.66 38.04 37.20 35.41 34.61 36.75 35.50 32.71 34.45 32.27 33.51 32.31 32.04 34.80 31.53 31.65 26.47 29.34 29.62 34.36 34.02 32.53 34.96 34.64 32.24 31.26 31.35 32.07 31.74 36.13 37.71 37.08 38.13 37.70 39.68 39.07 38.84
38.37 40.32 39.53 37.51 35.50 36.48 36.49 37.93 39.05 39.88 39.07 38.62 37.50 35.48 33.59 35.42 36.36 36.77 36.63 35.77 35.01 32.84 30.51 29.80 27.57 27.93 25.11 31.49 32.31 29.58 32.65 32.76 32.02 33.22 31.97 30.01 32.96 36.72 36.00 37.78 36.77 37.42 39.21 38.74 38.32

GFSSW_sfc_wetblb_108.txt.gz
Wetbulb
60.15 60.47 60.79 61.02 61.17 61.18 61.26 61.42 61.48 61.54 61.69 62.32 62.68 62.59 62.71 62.43 60.97 53.11 46.30 50.97 58.21 65.32 63.18 54.88 52.97 51.22 48.83 46.76 49.86 53.67 45.06 41.44 44.76 47.93 50.47 54.44 52.09 56.87 59.83 57.29 59.09 60.46 58.89 61.09 63.99
60.08 60.35 60.56 60.75 60.81 60.83 60.85 60.95 61.16 61.31 61.53 61.97 62.24 62.33 62.59 62.25 54.56 48.37 56.62 62.47 64.26 65.89 55.44 52.11 49.49 49.90 44.46 44.02 45.19 45.64 43.19 43.98 50.14 50.72 49.87 52.20 51.35 50.29 50.92 50.95 54.66 59.46 60.70 63.98 63.87
59.97 60.29 60.40 60.53 60.56 60.63 60.62 60.65 60.84 61.02 61.39 61.71 61.71 62.08 62.12 59.44 46.00 46.96 62.49 63.24 64.57 63.77 56.47 54.36 51.89 47.84 42.66 42.08 41.32 42.50 40.66 47.08 46.92 48.37 48.67 48.57 47.85 51.14 50.62 49.49 53.88 55.41 58.77 62.55 63.08
60.08 60.27 60.37 60.41 60.43 60.41 60.36 60.37 60.57 60.76 61.21 61.32 61.48 62.18 61.77 53.53 39.84 49.88 64.44 64.38 65.14 57.42 53.05 50.25 47.65 43.07 40.01 38.99 42.33 37.47 42.62 43.08 44.52 46.77 45.49 44.74 47.05 46.57 51.04 50.59 54.42 57.36 59.51 62.33 62.27
59.93 60.05 59.98 59.94 59.87 59.90 59.87 60.05 60.39 60.74 60.89 60.87 61.43 61.84 55.75 45.99 46.39 52.53 66.21 60.12 54.75 54.59 51.84 49.59 46.03 43.67 39.97 40.70 41.70 37.84 40.29 44.13 45.43 45.57 44.83 45.37 43.73 44.03 45.41 51.30 54.70 58.37 59.89 60.95 62.32
59.78 59.59 59.37 59.01 58.85 58.92 59.15 59.54 60.31 60.69 60.54 60.64 61.44 61.02 49.95 42.73 51.97 53.33 56.40 54.04 54.83 53.53 51.28 50.45 47.52 47.82 43.22 41.88 40.20 41.60 42.56 43.17 44.30 44.42 44.05 43.05 43.07 43.50 45.77 47.42 49.36 57.26 58.80 59.80 61.96
59.62 59.44 58.90 58.67 58.67 58.91 59.43 59.87 60.21 60.17 60.20 60.48 61.09 57.45 49.12 47.17 52.00 52.05 54.53 52.52 54.24 53.99 51.25 51.77 51.08 46.96 45.68 42.55 45.53 44.26 40.03 41.78 41.51 42.72 42.83 43.10 40.42 40.06 44.62 45.37 47.33 53.55 57.56 59.17 60.56
59.14 58.60 58.09 58.41 58.32 59.04 59.69 59.91 60.07 60.47 60.12 60.46 60.17 52.98 45.43 55.00 53.47 54.26 53.32 53.50 54.36 54.07 53.54 53.08 52.32 48.85 45.37 46.03 43.89 40.09 38.18 35.05 42.51 42.80 44.15 41.44 36.23 43.30 44.23 43.59 43.41 43.23 48.35 58.54 59.50
58.58 58.05 58.06 58.05 58.41 59.22 59.76 59.93 61.30 60.89 60.78 60.53 53.69 50.03 43.84 57.34 51.60 53.45 53.43 52.10 53.06 52.72 52.68 55.61 50.72 45.20 44.92 39.06 36.21 37.21 32.99 34.53 38.20 43.03 42.80 39.70 37.15 42.94 45.56 43.86 42.40 42.03 41.85 49.70 58.84
58.33 58.61 58.41 58.37 58.91 59.60 59.23 59.04 61.67 59.19 58.45 58.27 56.03 42.70 47.00 47.42 51.68 53.50 52.18 53.40 51.03 50.68 48.53 47.69 43.83 40.12 39.07 37.06 31.82 34.03 33.32 35.80 35.11 40.72 41.29 39.66 38.63 42.07 43.95 42.74 41.49 41.21 40.48 41.38 52.81
58.78 58.69 58.29 58.23 58.71 59.12 52.84 46.07 44.44 43.03 47.76 44.04 45.29 45.73 48.41 52.02 52.58 50.56 52.83 51.22 49.73 45.64 39.97 42.74 38.85 35.09 38.33 40.19 39.97 38.48 36.85 35.75 39.69 42.87 39.75 38.82 38.87 40.95 43.29 41.63 40.29 40.11 40.47 40.88 42.16
58.83 58.64 58.22 58.00 57.94 57.08 49.88 46.95 46.20 47.71 40.58 48.84 49.53 49.57 51.51 51.27 47.19 48.85 52.09 46.24 44.94 39.95 41.07 38.62 34.67 40.47 43.35 44.00 41.83 40.16 37.15 36.59 40.15 42.40 40.56 39.82 38.92 42.43 42.78 42.24 41.55 41.46 40.59 40.17 41.08
58.31 58.44 58.11 57.47 56.54 50.91 47.79 46.85 50.06 50.43 42.07 47.09 50.66 49.63 50.29 50.49 46.38 47.35 50.17 46.15 41.99 40.07 38.58 35.66 39.34 44.48 42.76 41.63 39.87 38.53 36.64 36.33 37.25 41.44 41.27 40.61 35.89 37.13 40.86 40.21 40.99 42.73 44.20 45.56 46.12
58.44 58.17 57.87 56.79 50.29 47.81 46.93 50.10 49.91 51.08 37.35 41.73 46.63 48.08 49.78 50.18 44.76 51.62 51.20 47.18 43.27 39.60 39.95 37.47 41.43 40.37 40.52 39.87 40.45 35.06 41.10 41.12 40.35 36.78 31.81 40.44 28.49 35.10 38.25 38.23 42.60 44.27 45.12 46.27 47.21
58.43 57.84 57.35 55.30 46.07 46.62 48.81 50.60 51.13 46.95 28.42 43.50 46.21 51.39 46.33 46.09 45.62 47.03 49.96 47.18 41.35 39.88 38.46 34.87 36.93 37.52 38.94 39.96 41.29 38.02 42.31 40.89 39.23 36.04 31.43 35.97 31.06 30.86 37.93 38.50 41.89 44.64 46.72 47.67 49.37
58.60 57.52 56.69 49.46 47.49 48.73 51.01 50.60 48.61 36.86 28.49 40.74 45.03 41.79 41.91 44.01 44.38 46.21 44.39 44.90 44.06 38.41 37.50 37.64 40.86 40.64 41.21 43.36 42.19 43.94 40.85 37.28 35.14 32.58 27.43 35.53 32.11 29.38 36.84 39.75 42.01 45.47 47.25 49.97 51.74
57.91 56.81 53.92 51.92 44.94 49.87 50.77 45.50 35.53 31.15 40.77 38.99 38.75 40.67 38.63 38.94 40.97 41.11 38.87 36.85 34.15 30.17 29.12 33.86 36.18 39.40 43.12 37.51 39.76 41.39 35.65 26.85 24.06 23.47 23.07 36.29 34.45 34.68 41.37 45.01 47.18 47.21 48.99 51.63 52.85
56.55 54.79 51.79 52.01 50.14 50.75 45.48 39.30 30.79 37.22 36.44 41.44 39.52 39.16 36.47 39.10 38.13 38.57 36.66 34.26 37.22 34.53 29.33 26.89 27.54 36.09 40.60 36.56 34.31 37.91 35.52 29.22 25.54 25.47 27.85 35.11 30.70 36.24 43.17 46.23 48.80 49.37 49.58 51.52 53.30
52.49 43.20 44.85 48.29 51.39 47.96 40.96 33.74 34.24 36.10 40.07 37.83 37.52 34.40 34.22 37.38 36.56 35.80 34.15 34.59 35.82 35.59 29.56 28.49 28.38 37.70 39.52 39.41 39.29 34.90 32.92 36.65 32.33 28.79 28.45 26.95 36.81 42.05 42.67 42.47 45.15 47.98 48.02 47.93 49.00
43.65 42.04 43.39 51.03 49.71 43.43 38.29 36.90 37.35 40.87 40.84 39.38 31.84 35.12 30.52 33.73 34.55 33.59 32.76 37.29 37.47 38.65 36.62 32.11 27.08 34.25 38.01 40.14 39.38 38.71 39.47 31.47 30.86 22.43 23.99 27.20 27.88 32.16 37.35 39.63 43.53 46.02 45.34 44.80 44.98
40.22 36.58 43.27 48.88 45.84 40.13 34.80 35.06 39.65 42.47 42.32 38.22 35.46 34.03 34.09 33.74 33.22 31.72 33.61 37.04 38.52 38.91 37.43 33.45 30.29 30.65 34.24 33.00 31.22 32.76 30.85 34.44 33.77 32.64 24.11 26.68 27.13 37.72 37.65 40.22 42.52 45.14 45.48 44.73 44.48
37.39 32.88 43.78 44.68 38.05 34.63 35.12 38.51 43.99 40.93 41.44 40.19 38.99 38.02 35.47 35.18 32.93 32.56 33.48 36.19 39.12 38.00 32.90 34.48 29.86 26.08 30.63 34.77 36.42 34.14 30.64 33.66 28.46 27.40 30.72 28.93 30.92 37.27 37.40 40.91 42.99 42.67 43.94 43.05 43.57
35.79 34.63 43.67 42.90 33.85 33.98 36.57 39.60 41.66 40.33 39.44 39.43 38.52 39.62 38.12 35.22 31.69 34.69 35.40 40.11 38.77 36.70 32.23 34.18 28.90 23.23 26.57 30.75 33.31 31.84 32.95 32.97 34.29 31.18 27.03 22.43 26.99 37.07 38.89 38.51 40.96 41.10 40.35 41.24 41.36
36.10 32.93 39.05 39.21 37.15 37.14 35.53 37.33 38.36 41.98 40.72 39.83 38.22 38.82 36.09 34.07 36.02 33.72 34.03 38.62 38.34 39.39 44.80 39.70 30.27 27.06 22.86 26.82 29.99 29.65 32.70 32.46 30.55 24.66 24.32 26.29 28.93 34.07 35.44 37.53 38.43 39.02 39.95 39.94 40.25
34.42 34.26 37.79 34.90 36.62 35.65 37.22 38.74 37.29 37.19 39.95 39.24 35.91 37.56 35.52 30.57 31.67 32.15 34.04 34.04 36.12 39.79 34.63 32.48 27.16 27.78 30.13 31.68 31.51 31.44 32.02 32.50 29.68 28.90 25.83 28.38 29.08 34.15 34.37 36.06 37.59 38.71 38.94 38.94 39.53
32.88 32.27 35.56 36.64 37.81 36.52 38.16 36.61 37.61 38.06 38.84 37.31 34.60 37.09 35.16 32.44 34.44 33.08 32.74 30.59 31.21 33.38 29.78 30.70 25.81 27.78 27.10 32.12 32.04 31.21 33.26 33.04 32.31 30.35 30.55 30.99 31.28 35.71 36.17 36.90 37.29 37.36 38.05 37.68 38.03
36.33 37.94 38.16 37.20 35.71 36.01 35.95 37.76 38.72 39.60 38.82 39.05 37.59 34.78 32.76 35.46 36.63 37.05 35.69 34.62 33.68 32.19 29.91 29.17 26.88 26.94 24.15 29.66 30.81 28.90 31.93 32.32 30.70 32.20 31.31 28.90 32.81 35.28 35.86 37.59 36.82 36.94 38.06 37.76 37.67

GFSSW_sfc_wetblb_111.txt.gz
Wetbulb
60.34 60.74 60.95 61.04 61.20 61.18 61.25 61.41 61.54 61.53 61.70 62.23 62.46 62.57 62.88 62.70 61.10 55.20 49.48 53.86 59.85 65.49 62.87 55.95 54.91 52.86 52.13 51.25 53.84 56.55 49.21 45.54 47.75 49.66 51.15 55.64 53.49 56.80 61.07 56.32 58.80 62.31 61.26 62.67 64.93
60.24 60.59 60.71 60.91 60.93 60.91 60.90 61.04 61.17 61.24 61.46 61.96 62.08 62.37 62.65 62.24 55.31 50.81 59.13 61.74 64.45 66.37 56.37 53.60 51.48 51.87 48.47 48.18 49.23 50.76 47.41 46.20 51.83 53.29 51.84 52.92 50.93 52.31 51.50 51.60 54.10 59.20 62.69 64.15 65.27
60.37 60.67 60.74 60.76 60.71 60.71 60.61 60.70 60.78 60.99 61.35 61.80 61.68 62.17 62.18 60.23 49.64 50.27 63.10 63.22 65.12 61.78 57.69 55.67 52.44 49.77 46.93 46.93 45.66 47.06 44.32 48.48 50.08 49.56 49.91 48.52 48.73 50.97 49.96 49.75 53.87 52.83 60.81 63.23 63.78
60.27 60.37 60.21 60.00 59.85 59.84 59.91 60.07 60.42 60.95 61.48 61.50 61.42 62.17 61.90 55.30 43.49 52.58 66.44 64.74 64.12 58.27 55.10 52.17 50.56 47.10 44.36 43.46 45.50 42.27 44.73 46.07 46.69 47.61 46.99 45.83 48.37 47.06 50.08 51.42 54.75 56.08 61.19 63.49 63.03
59.96 59.89 59.82 59.75 59.71 59.64 59.72 59.85 60.23 61.03 61.28 61.13 61.31 61.99 57.19 49.73 50.48 54.06 67.00 60.17 56.08 56.24 53.31 51.45 48.86 47.20 44.41 44.60 44.95 42.47 43.55 45.45 46.94 47.01 46.86 47.63 45.69 46.20 46.74 50.93 55.51 55.45 60.04 62.64 63.35
59.92 59.67 59.18 59.01 58.94 59.24 59.70 60.21 60.69 60.82 60.68 60.74 61.33 61.22 52.35 46.63 53.86 54.93 56.63 55.06 56.30 55.47 53.51 52.68 50.21 50.26 46.61 45.14 44.25 44.91 44.72 45.49 46.55 46.90 46.41 44.88 45.64 45.73 47.95 49.61 49.37 51.60 55.33 59.85 62.99
59.51 59.05 58.56 58.46 58.65 59.20 59.92 60.42 60.57 60.35 60.33 60.51 61.11 57.47 51.67 49.92 54.41 54.89 54.96 54.34 55.86 56.02 53.17 53.57 53.19 50.42 48.61 45.45 47.58 46.34 43.09 44.95 45.96 46.18 45.87 45.60 44.21 43.45 47.20 47.66 48.31 48.35 52.62 60.78 61.65
58.79 58.38 58.27 58.72 58.72 59.50 60.07 60.26 60.55 60.57 60.12 60.38 60.43 55.32 47.88 55.87 55.90 55.32 55.69 55.57 56.24 56.34 55.71 55.71 54.73 50.77 48.31 48.57 45.96 43.02 42.63 40.05 46.27 46.05 46.74 45.73 40.50 46.72 49.44 46.74 48.64 49.07 47.27 51.71 61.55
58.57 58.44 58.40 58.35 58.87 59.48 59.81 60.73 61.33 60.83 60.65 60.58 55.55 52.30 46.84 58.21 52.72 54.89 56.04 53.90 54.51 54.74 54.98 55.28 52.43 47.77 47.25 42.88 40.97 41.10 37.79 38.44 40.84 45.72 44.94 44.17 41.72 47.06 49.39 48.32 47.44 48.74 47.49 46.97 53.11
58.59 58.77 58.49 58.62 59.02 59.42 59.13 59.56 61.49 58.39 58.02 57.94 55.34 46.63 49.27 48.65 52.36 53.98 55.54 54.98 53.09 52.40 50.38 49.54 46.60 44.21 42.84 41.74 35.45 37.50 37.42 38.92 38.88 43.93 44.46 42.97 42.25 46.00 48.12 47.29 47.07 47.38 48.21 46.68 46.78
58.68 58.66 58.35 58.47 58.52 58.76 52.58 46.72 45.08 45.23 48.64 46.09 47.11 46.55 48.77 52.70 53.56 51.99 54.36 52.94 51.81 48.09 43.55 45.38 41.92 39.58 41.83 42.27 42.53 40.90 38.77 38.66 41.98 45.08 42.35 42.28 42.50 44.40 47.24 46.65 46.30 47.08 47.18 46.87 46.71
58.68 58.57 58.19 58.16 57.65 57.16 50.24 46.99 47.28 48.12 43.29 49.28 49.79 50.07 51.42 52.44 47.99 49.89 53.99 48.85 47.55 42.99 44.31 41.50 38.60 43.07 44.16 44.06 43.09 41.81 39.38 38.87 41.91 44.17 42.43 41.95 41.14 44.31 44.87 45.03 44.70 45.10 46.87 48.41 49.70
58.62 58.43 58.07 57.36 56.16 50.90 48.34 47.71 50.29 51.79 43.46 47.55 51.11 50.63 51.09 51.63 48.00 48.39 51.57 48.68 45.70 43.09 41.82 39.08 41.37 44.75 42.87 42.42 40.95 40.56 38.37 38.80 38.73 42.56 43.07 41.05 38.81 40.68 44.32 45.38 46.69 48.61 49.02 50.51 50.71
58.82 58.44 57.75 56.77 50.09 48.35 47.72 50.73 50.81 52.21 38.69 42.50 46.95 49.32 50.39 51.35 46.57 52.36 51.63 49.57 46.42 42.19 41.95 40.09 42.61 41.12 41.03 40.64 41.75 36.41 42.27 41.38 40.62 38.14 33.84 40.89 30.42 37.78 42.14 43.73 45.34 47.84 48.73 49.90 51.34
58.73 58.07 57.15 54.59 46.94 46.48 49.47 51.26 52.44 47.71 30.85 43.99 46.39 51.16 47.53 47.04 46.87 47.77 49.95 49.23 44.03 42.27 41.96 37.64 38.59 38.71 40.28 41.00 42.39 39.61 43.25 41.71 40.11 37.74 36.41 36.29 32.66 36.30 41.63 39.88 40.39 45.71 48.60 50.81 52.85
58.75 57.74 56.24 49.05 47.42 49.20 51.19 51.40 48.22 38.05 31.41 41.66 45.32 42.12 42.74 44.01 44.21 45.74 45.13 45.90 45.82 40.53 39.26 39.81 42.00 41.77 43.54 43.89 43.73 44.61 41.74 39.22 37.23 35.54 31.31 34.32 33.58 34.42 37.75 39.02 41.86 46.81 48.14 50.85 53.84
58.21 56.95 53.19 51.69 45.13 50.21 50.66 45.51 36.80 32.72 41.36 39.53 39.59 40.87 39.75 39.80 41.50 41.17 40.52 38.59 36.70 33.33 31.78 35.33 38.06 40.87 43.65 39.32 41.66 42.96 38.49 32.18 30.90 29.64 29.46 36.13 34.15 35.54 40.15 42.52 43.80 47.04 48.00 50.63 53.50
56.91 53.83 49.35 51.55 50.09 50.79 45.89 39.31 32.36 37.78 37.81 41.83 39.85 39.72 38.04 39.37 39.32 38.84 39.01 36.47 39.10 36.71 32.34 30.78 30.76 37.71 41.26 40.05 37.50 39.74 38.14 31.90 24.96 26.99 29.93 35.51 32.21 36.17 42.03 44.63 47.28 49.13 48.40 48.68 49.84
51.34 42.14 44.12 47.66 50.71 47.19 41.22 34.39 35.03 37.38 40.74 38.78 38.21 35.53 35.87 38.16 37.98 37.50 37.37 36.96 38.49 38.87 34.00 31.56 31.30 38.62 40.55 41.41 41.57 38.25 35.84 39.97 32.84 31.55 30.39 32.94 37.13 41.07 42.15 42.29 44.78 47.67 47.45 46.77 46.90
43.79 39.91 41.41 50.46 49.38 43.40 38.97 37.13 37.70 41.61 41.06 39.86 34.09 36.90 33.15 35.10 36.16 35.46 35.46 39.29 39.15 40.45 39.96 36.45 30.13 36.44 38.71 42.47 40.58 40.23 41.58 34.73 34.04 26.28 25.60 31.28 31.77 32.08 36.67 38.97 43.78 45.65 45.30 45.63 46.32
39.29 35.81 41.71 48.78 45.10 40.47 35.83 35.78 39.45 42.83 42.53 38.59 36.23 35.55 35.69 35.83 35.82 34.70 35.70 38.74 40.09 39.67 39.80 37.26 33.84 33.38 36.58 35.90 34.85 36.00 34.71 36.33 36.96 35.25 29.64 27.37 32.22 39.37 38.27 41.74 42.78 43.88 45.11 44.58 45.06
36.47 32.50 42.56 44.53 38.24 34.23 34.95 38.40 43.38 40.92 42.37 41.26 39.71 38.71 36.96 36.92 35.44 35.18 35.51 38.26 39.21 39.56 35.01 37.96 32.80 29.15 33.02 37.09 37.50 38.09 35.23 35.38 31.98 30.25 34.28 33.42 32.78 40.27 40.28 42.59 43.00 42.22 43.40 43.84 43.69
34.22 33.88 43.35 42.57 33.65 34.16 37.23 39.41 41.25 39.92 39.71 39.81 39.53 40.58 39.55 36.94 33.78 36.16 37.23 40.97 39.78 38.53 35.98 37.24 31.96 27.52 29.69 34.42 36.18 34.77 35.89 36.01 35.47 34.23 31.20 29.41 32.38 39.22 40.53 41.22 41.67 41.76 42.09 42.64 43.16
34.53 31.00 37.59 39.70 36.88 36.46 35.45 36.82 37.76 41.35 40.38 40.52 39.49 40.31 37.68 35.94 37.28 35.63 36.23 39.94 39.50 40.87 44.48 40.82 32.54 30.49 27.28 29.77 32.93 31.62 33.53 35.04 34.03 30.12 30.08 30.99 33.30 37.37 38.80 39.73 40.84 41.12 41.23 42.16 42.27
34.46 33.41 36.81 34.44 35.96 36.41 37.46 38.22 37.11 37.06 39.96 40.15 37.84 38.55 37.18 33.34 33.63 33.74 35.98 36.10 37.31 40.18 36.11 34.70 29.97 30.80 31.70 32.76 32.37 31.92 32.10 32.87 32.58 32.84 31.80 32.77 32.68 37.69 39.37 40.14 41.12 41.39 41.09 41.49 41.21
31.61 30.99 34.26 34.98 37.04 36.76 37.74 36.22 37.24 37.95 38.40 37.62 36.40 38.51 36.46 34.08 36.03 34.76 34.84 33.62 33.96 35.38 33.13 32.91 29.30 30.23 29.03 33.41 32.67 31.51 33.96 34.16 33.92 34.01 32.89 33.33 34.46 40.22 40.82 41.27 41.19 40.89 40.67 40.19 40.01
37.64 36.59 38.48 36.81 34.99 35.11 34.43 37.11 38.31 39.08 38.96 40.20 39.38 36.52 34.88 36.55 37.57 38.37 37.53 36.38 36.06 34.16 31.91 31.84 30.02 29.85 27.51 30.82 31.82 31.23 34.12 34.31 34.54 34.95 34.87 32.58 37.64 39.74 39.47 40.24 41.15 41.11 41.00 40.69 40.31

GFSSW_sfc_wetblb_114.txt.gz
Wetbulb
60.42 60.88 61.08 61.24 61.39 61.32 61.33 61.44 61.50 61.53 61.75 62.32 62.71 62.71 63.21 63.20 62.62 58.30 53.59 56.79 61.66 66.41 64.04 57.90 57.18 55.42 56.26 55.81 58.74 60.22 49.42 46.06 47.89 48.75 50.80 56.47 55.80 59.06 60.01 58.96 58.09 60.62 62.73 65.38 69.41
60.49 60.85 60.97 61.11 61.08 60.99 60.99 61.00 61.13 61.31 61.58 62.04 62.39 62.48 63.09 62.66 58.55 55.86 58.97 61.76 64.94 66.49 58.22 55.53 53.29 54.36 52.35 51.57 54.40 53.15 48.30 46.40 51.29 52.19 51.71 53.91 54.88 55.86 55.18 57.01 57.47 58.34 62.94 66.11 69.01
60.41 60.53 60.43 60.28 60.32 60.22 60.27 60.35 60.67 61.04 61.65 62.12 62.03 62.05 62.71 61.77 53.84 54.47 62.17 63.28 65.66 62.34 58.97 56.97 54.70 53.03 49.99 50.92 49.39 50.23 46.15 48.31 49.98 52.20 53.02 51.94 52.01 53.82 52.47 51.74 55.20 56.27 57.99 64.80 67.05
60.30 60.41 60.36 60.21 60.22 60.26 60.23 60.31 60.59 60.97 61.80 61.95 61.74 62.11 62.55 58.62 46.06 56.23 63.67 64.30 63.22 60.14 57.96 55.81 54.70 50.79 49.34 47.80 49.41 45.84 48.14 49.09 49.58 50.09 49.17 48.26 50.06 48.47 49.38 50.64 54.19 55.88 56.05 60.14 64.87
60.29 60.07 59.71 59.55 59.54 59.60 59.92 60.40 60.91 61.40 61.53 61.51 61.54 62.14 60.60 53.85 53.35 57.44 66.15 62.48 59.42 58.55 56.55 55.12 53.24 51.82 48.74 49.51 49.26 47.14 49.03 49.64 51.01 50.95 51.13 51.86 50.19 50.16 49.94 52.10 53.30 53.68 55.75 58.35 62.23
59.85 59.42 59.09 59.09 59.22 59.75 60.23 60.66 61.24 61.39 61.25 61.09 61.42 61.36 56.86 49.69 57.63 58.29 58.39 58.09 58.39 57.87 56.17 56.08 53.79 53.64 50.72 49.78 48.81 50.12 50.21 50.53 51.04 51.05 51.12 49.27 50.27 48.73 50.57 51.91 51.80 52.41 53.18 54.69 57.61
59.05 59.00 58.97 58.87 59.15 59.81 60.37 60.66 60.94 60.90 60.75 60.80 61.20 59.97 55.07 53.15 59.08 59.37 57.88 57.59 58.18 57.81 55.37 56.46 56.19 53.68 52.76 49.53 51.25 50.42 47.20 49.72 49.90 50.29 49.62 49.25 47.28 47.75 51.07 52.51 51.38 51.85 53.39 53.64 58.52
58.84 58.67 58.61 59.10 59.14 59.82 59.93 60.61 61.33 60.55 60.27 60.44 60.62 59.33 52.30 59.41 60.93 58.44 58.85 58.02 58.74 58.78 57.42 57.58 57.07 53.72 52.02 52.90 50.32 47.51 47.47 44.55 49.42 49.70 49.49 48.60 43.58 49.77 52.61 51.78 51.83 52.88 53.49 53.61 53.63
58.61 58.43 58.41 58.43 59.00 59.60 59.19 61.08 61.86 61.08 60.71 60.54 59.39 56.64 50.67 59.93 55.81 57.97 58.77 56.30 57.04 57.35 57.71 56.80 55.57 52.05 51.54 48.38 47.03 46.96 42.22 43.62 45.50 50.16 48.62 47.87 45.22 50.28 53.39 52.62 51.79 52.65 53.18 53.43 54.16
58.60 58.91 58.57 58.59 58.75 59.38 58.49 59.68 60.56 59.10 60.15 59.96 57.46 52.27 53.57 52.08 55.88 56.90 58.69 57.45 55.46 54.62 53.30 52.86 52.95 49.71 49.91 46.52 39.38 41.26 42.21 43.51 43.62 47.51 48.31 46.69 46.36 49.85 51.79 51.26 51.42 52.55 53.00 53.29 53.22
58.85 59.06 58.50 58.56 58.16 58.28 57.06 55.18 52.96 51.23 54.64 50.83 51.52 50.88 52.52 56.72 57.01 55.31 57.35 55.98 54.84 52.68 46.98 50.15 47.54 43.71 45.23 46.54 46.33 45.11 43.63 42.92 45.85 48.14 46.05 45.61 45.40 46.95 49.59 49.55 48.79 50.59 52.14 52.56 52.23
58.76 59.03 58.39 58.27 57.84 55.10 56.84 52.56 51.84 53.00 49.80 52.79 53.18 53.72 54.84 55.91 51.42 53.94 57.73 51.74 50.93 46.83 48.61 46.95 44.42 46.55 47.48 47.06 45.57 44.88 43.11 43.37 45.75 47.11 46.22 44.67 43.60 46.05 49.25 49.46 50.22 51.08 51.88 52.84 54.30
58.68 58.89 58.13 57.36 57.06 56.34 54.73 51.95 55.21 55.70 50.50 51.16 54.17 53.76 53.78 54.58 50.59 51.97 53.37 51.90 49.00 46.37 45.59 43.36 44.92 46.71 45.15 45.23 43.51 44.11 42.10 42.19 42.67 45.86 46.32 44.30 42.19 44.19 48.46 50.03 50.44 51.29 53.32 54.13 54.42
58.76 58.74 57.61 56.42 54.89 54.58 52.90 55.13 56.56 57.03 46.68 46.72 49.93 52.23 52.89 52.68 49.28 53.58 53.02 51.46 49.10 44.97 45.39 44.23 45.42 43.45 44.61 43.71 44.33 41.23 45.34 44.66 43.65 42.20 37.96 43.91 37.35 42.43 45.40 46.06 47.62 49.88 50.92 53.09 55.03
58.64 58.34 57.03 54.02 54.87 52.82 54.08 57.38 57.63 56.01 38.91 47.43 49.25 53.36 51.63 49.62 49.52 50.10 51.73 51.05 46.25 45.71 45.11 42.02 42.67 42.36 43.01 42.99 45.07 42.81 46.60 44.63 43.37 42.46 41.13 40.90 37.04 40.17 44.00 39.93 43.31 46.78 49.22 52.10 54.89
58.61 58.06 56.44 53.97 55.68 54.79 57.03 56.97 56.16 45.57 38.17 44.84 48.11 45.39 46.56 47.54 47.48 49.42 49.16 50.45 48.13 44.07 43.86 43.23 45.38 44.53 45.27 45.86 45.41 47.30 45.74 43.47 43.02 42.09 37.77 38.64 36.31 37.84 37.53 39.35 41.63 45.79 48.90 49.72 52.76
58.16 57.48 54.45 54.42 52.40 56.50 57.10 54.53 44.89 40.46 45.46 43.61 43.62 44.23 44.04 43.76 44.82 45.26 44.83 43.91 41.88 39.26 39.67 42.16 41.74 44.34 45.51 43.68 46.22 46.19 44.29 39.65 37.63 37.07 34.77 40.60 38.25 37.75 40.96 42.45 43.98 47.58 47.63 49.14 51.46
57.16 53.10 52.91 55.05 57.10 56.49 55.11 47.55 39.90 42.41 43.20 45.05 43.33 43.40 42.41 43.27 43.12 43.54 43.48 42.68 43.82 42.17 40.27 37.26 36.57 41.42 44.36 42.92 41.22 42.62 42.72 37.22 30.62 31.82 35.09 40.64 35.31 38.72 42.38 46.49 49.38 49.28 48.63 48.51 49.33
52.18 51.17 52.06 54.81 55.86 55.67 50.06 43.66 43.80 43.98 45.55 43.31 42.16 41.04 40.97 41.87 42.89 42.52 42.28 42.04 42.55 43.20 38.06 37.55 37.30 42.93 43.24 45.10 45.17 41.94 39.68 43.55 36.25 36.62 35.00 38.49 40.90 43.26 44.92 47.18 47.75 47.96 47.21 46.48 47.55
52.77 47.99 49.17 55.19 56.24 52.76 47.78 43.99 44.38 46.02 44.76 43.51 40.25 41.65 39.59 40.40 41.01 41.24 40.58 43.11 42.15 43.43 44.15 40.67 35.67 40.68 41.79 45.58 44.76 43.72 44.82 38.65 40.95 31.83 30.07 35.70 36.22 36.11 41.54 43.78 46.07 47.21 45.54 45.10 46.42
49.18 43.26 50.14 55.59 52.77 49.41 44.04 44.90 44.79 46.69 45.94 42.89 41.58 40.73 41.00 40.86 41.17 40.32 40.37 42.42 43.72 42.03 43.59 42.00 38.72 38.80 40.73 39.66 39.17 41.61 40.72 40.61 41.38 39.44 33.53 32.30 35.36 42.94 42.71 44.16 44.71 46.27 46.68 44.77 44.45
45.41 39.14 50.53 51.81 45.46 46.17 44.35 44.84 45.78 45.12 45.78 44.27 44.18 42.86 42.36 42.42 40.57 40.24 40.18 42.65 43.87 42.46 38.88 41.98 39.46 35.69 37.19 41.19 41.82 41.71 39.91 39.34 37.20 33.74 39.64 37.07 37.40 44.99 44.91 45.07 45.88 46.13 46.43 45.12 44.73
42.35 42.00 50.05 49.16 41.00 42.57 44.26 43.24 45.26 43.51 43.99 43.70 42.98 44.17 43.86 42.16 39.57 41.28 41.88 43.72 42.95 41.83 40.59 42.39 38.61 34.86 36.06 39.65 40.62 38.49 39.31 39.20 39.53 40.41 35.94 34.71 37.27 44.42 45.42 45.82 45.67 45.52 47.07 44.55 45.72
42.26 38.64 44.48 46.75 45.61 43.76 43.34 42.70 42.20 44.43 44.06 44.34 43.49 44.26 41.93 40.13 42.32 40.53 41.17 42.82 42.65 43.07 44.84 44.01 39.79 37.03 34.38 36.13 37.62 35.90 37.24 38.57 37.99 36.84 36.66 37.64 38.15 42.23 43.27 44.53 45.70 44.41 46.62 45.88 46.07
42.56 40.58 45.10 40.00 41.59 42.54 44.57 44.50 41.81 39.98 43.58 43.90 40.93 42.15 40.80 37.65 38.56 39.67 41.58 41.53 40.28 42.23 41.25 42.20 36.55 37.06 37.93 37.91 37.36 36.47 35.95 37.27 36.29 39.86 36.30 37.46 37.16 41.48 44.02 45.31 45.92 46.42 45.95 46.52 46.22
42.15 40.19 40.93 43.35 42.77 42.06 42.02 41.96 42.19 42.03 42.84 41.72 41.10 42.50 41.90 40.18 41.30 39.78 41.42 40.85 40.76 40.28 39.58 38.57 36.08 35.54 35.82 37.53 37.25 36.03 39.06 39.41 39.24 39.53 39.27 39.42 38.35 44.65 46.09 46.88 46.10 46.52 46.67 46.06 45.28
45.29 44.00 44.37 41.37 41.59 40.33 40.95 42.56 42.50 44.03 44.10 45.58 44.62 42.40 40.38 43.18 45.00 44.76 45.01 43.99 42.93 40.27 39.01 37.64 37.52 35.30 34.68 36.77 37.88 36.55 39.66 40.10 40.72 41.30 39.87 37.15 42.13 45.66 44.50 45.14 46.26 46.39 46.91 46.38 45.98

GFSSW_sfc_wetblb_117.txt.gz
Wetbulb
60.80 61.29 61.59 61.62 61.64 61.51 61.43 61.49 61.55 61.74 61.92 62.32 63.01 62.97 63.38 63.65 62.91 61.04 55.22 57.99 62.12 67.15 66.51 58.66 58.10 55.86 56.82 56.39 58.64 58.82 50.46 46.90 48.12 48.84 50.80 55.06 54.69 58.47 60.32 59.17 60.25 61.31 63.26 65.50 69.39
60.74 60.99 60.93 60.95 60.78 60.74 60.75 60.88 61.16 61.38 61.73 62.29 62.81 62.70 63.17 63.08 60.90 56.74 59.90 61.85 65.56 67.88 59.34 57.11 54.98 54.93 53.48 52.55 54.82 53.46 49.37 48.91 51.83 52.44 51.07 52.96 53.85 55.51 56.27 56.04 56.80 58.44 62.33 65.72 69.17
60.51 60.76 60.76 60.80 60.58 60.59 60.71 60.82 61.04 61.28 61.73 62.47 62.65 62.37 62.86 62.68 57.15 55.36 62.45 63.34 65.61 64.97 59.89 58.56 57.16 54.29 51.51 52.08 51.23 50.73 47.87 50.18 49.83 51.17 51.76 51.25 52.02 53.98 52.17 50.99 54.50 56.21 59.41 64.02 65.89
60.64 60.52 60.18 60.09 59.98 60.05 60.27 60.54 61.10 61.59 62.09 62.30 62.21 62.17 62.79 62.02 48.25 57.68 63.32 63.38 64.76 62.04 59.64 57.49 56.55 53.21 51.23 50.15 51.65 47.42 50.03 50.18 51.36 52.09 51.11 49.20 51.21 49.87 50.42 50.91 53.40 55.04 57.35 59.45 61.86
60.35 60.04 59.70 59.72 59.67 60.16 60.55 60.91 61.38 61.96 62.14 62.01 61.85 62.12 62.18 56.11 53.98 59.83 62.78 63.75 60.96 59.98 57.43 56.17 54.40 53.37 50.86 51.20 51.54 49.66 50.57 51.94 52.69 52.56 52.44 52.93 51.05 51.03 51.41 53.65 53.84 53.51 53.44 53.90 56.30
59.72 59.60 59.60 59.47 59.54 60.08 60.60 61.02 61.46 61.64 61.73 61.63 61.65 61.45 60.27 51.05 59.24 60.16 59.66 59.53 59.66 59.18 57.54 56.92 54.57 55.02 52.49 51.69 50.41 52.05 51.40 51.54 52.45 52.00 52.47 50.63 51.14 51.90 52.21 53.49 52.70 52.62 52.67 53.21 55.76
59.39 59.28 59.09 58.99 59.29 59.93 60.39 60.58 61.43 61.26 61.16 61.30 61.50 61.92 57.02 54.47 60.37 61.02 59.89 59.10 59.69 59.22 56.85 57.73 57.55 54.78 53.95 51.40 53.55 52.09 48.80 51.33 50.81 51.50 50.51 51.59 47.69 49.12 53.14 53.07 52.47 52.66 52.62 53.68 54.18
58.96 58.86 58.64 59.02 58.96 59.78 59.93 60.68 61.15 60.35 60.52 60.79 61.09 60.82 53.59 60.38 61.63 59.73 60.37 59.28 60.24 60.07 58.78 59.03 58.52 55.54 53.41 54.71 52.71 49.77 50.11 46.26 50.85 50.85 51.32 49.72 44.77 51.20 53.53 52.96 52.48 53.30 53.99 54.30 54.79
58.86 58.89 58.60 58.32 58.76 59.38 59.36 60.78 61.72 60.89 60.85 61.27 61.15 58.51 52.31 59.42 56.97 59.10 60.03 57.17 58.47 58.75 58.96 57.99 57.19 53.69 53.64 49.71 48.18 49.40 43.86 45.35 47.17 51.47 49.96 49.29 46.31 51.56 54.26 53.62 52.85 53.83 54.17 54.26 54.47
58.93 59.42 59.11 58.73 58.81 59.00 58.70 60.20 59.85 58.93 61.40 61.14 59.02 53.97 54.56 52.89 57.21 58.02 59.71 58.75 56.50 56.28 55.31 54.45 53.61 50.91 49.91 46.77 39.77 42.12 43.41 45.42 45.31 48.85 49.07 47.55 47.42 50.39 51.95 51.59 51.53 52.41 53.64 54.27 54.16
58.99 59.44 59.02 58.78 58.55 58.39 56.37 57.67 54.97 53.31 56.40 52.95 52.87 51.43 52.65 56.83 58.68 56.54 58.13 56.76 56.25 54.26 47.97 51.35 48.46 45.02 46.45 47.54 46.98 45.91 44.88 44.52 47.29 49.11 47.47 46.75 46.55 47.49 50.62 50.84 50.89 51.33 53.27 53.60 54.11
58.82 59.27 58.96 58.35 57.73 57.57 57.18 53.73 54.36 56.27 50.63 54.70 54.75 55.01 56.30 56.71 52.56 54.76 57.50 51.85 50.70 47.94 49.37 48.07 45.64 47.53 48.25 47.88 46.63 45.72 44.63 44.52 47.19 48.62 47.67 46.45 45.34 48.02 49.85 49.98 51.03 51.09 51.55 53.81 54.76
58.59 59.06 58.83 57.60 57.10 58.19 56.97 54.14 57.92 58.11 52.14 52.23 54.97 54.50 54.56 55.08 51.14 52.58 53.85 51.84 49.18 47.32 46.62 44.63 46.65 47.29 46.22 46.27 44.36 45.31 43.66 43.31 43.67 47.42 48.56 46.22 43.75 45.62 48.38 49.82 49.75 50.77 52.08 53.11 54.75
58.64 58.79 58.45 56.41 54.72 56.80 55.43 57.89 59.28 59.41 48.25 48.91 51.06 53.94 54.06 53.01 50.57 54.11 53.69 51.44 49.44 46.27 46.73 45.74 47.34 45.24 45.19 44.57 45.08 42.12 46.59 46.48 45.56 43.86 39.99 46.48 38.08 44.39 46.16 46.65 47.60 49.02 50.08 52.74 54.14
58.48 58.41 57.98 56.30 56.90 55.01 56.05 60.21 60.59 58.53 40.65 49.19 50.94 54.98 52.53 50.81 51.02 51.76 53.54 51.28 46.81 46.43 45.72 43.79 44.05 44.18 43.91 43.89 46.22 44.08 47.79 46.42 46.01 44.31 43.69 42.84 38.65 41.69 45.47 41.91 44.35 46.48 49.01 50.22 51.79
58.53 58.20 57.26 56.87 57.25 56.93 59.52 59.87 58.86 47.23 40.17 46.53 50.48 47.98 47.50 49.10 49.28 50.49 49.92 52.12 50.10 46.13 46.52 44.54 47.16 46.05 45.92 46.67 47.45 48.20 47.29 47.05 46.34 44.85 37.54 40.91 38.86 39.52 39.96 40.76 43.12 47.80 48.35 48.91 50.59
58.29 57.82 56.07 54.27 54.84 59.12 60.04 57.59 46.88 42.21 48.11 45.70 46.18 46.55 46.12 45.93 46.62 46.52 46.11 45.76 44.02 41.43 41.88 44.13 43.91 45.85 46.79 45.01 47.88 47.14 45.29 40.42 37.57 37.53 35.63 42.56 39.70 40.43 44.49 44.79 46.99 47.19 46.84 48.30 50.16
57.64 56.23 55.32 54.80 58.65 58.76 57.47 50.21 41.78 45.74 45.80 47.68 46.10 45.49 44.50 45.36 45.31 45.52 45.28 44.91 45.75 44.42 42.30 39.33 38.12 42.51 45.47 44.93 42.49 44.58 44.05 37.72 29.91 32.40 35.56 42.60 36.22 40.81 47.29 48.39 49.44 49.27 47.39 47.93 49.17
56.21 54.59 51.38 54.46 58.43 58.04 52.32 44.54 45.59 47.39 48.50 46.08 44.44 43.30 43.83 44.25 44.67 44.82 44.41 44.39 44.42 44.88 40.11 39.53 39.31 44.54 44.50 46.74 46.22 43.49 40.65 44.73 38.29 40.06 37.04 40.31 41.87 46.85 48.82 48.39 48.50 47.71 46.71 46.09 47.83
54.11 50.03 49.00 57.28 57.88 55.42 49.11 45.01 47.57 49.27 48.01 47.73 43.68 45.05 42.81 43.19 43.25 43.64 43.11 45.46 44.11 44.85 45.84 42.72 37.28 42.76 42.93 46.24 46.63 44.27 45.76 40.19 42.34 33.34 31.79 37.80 37.48 37.78 43.31 45.21 47.39 47.21 45.20 45.36 48.21
51.91 44.31 52.66 58.20 57.29 50.53 44.14 46.91 48.12 49.81 48.75 46.13 45.49 44.30 44.36 43.58 44.11 42.96 42.94 44.53 45.49 44.38 45.19 43.17 40.52 40.93 42.83 41.82 41.24 43.30 42.52 42.70 42.94 40.26 34.78 33.74 36.75 44.35 44.17 46.09 46.35 47.60 44.76 44.89 47.06
49.54 39.78 53.88 56.92 45.14 45.53 43.83 47.87 48.49 48.23 48.43 46.35 46.77 46.35 45.15 45.13 43.45 42.83 42.60 44.57 46.59 44.98 41.99 43.83 42.06 38.35 39.42 43.56 44.62 43.77 41.51 41.75 37.59 36.05 40.23 38.91 38.04 46.78 46.89 48.04 48.14 46.51 46.64 46.23 47.02
45.22 44.47 53.38 53.01 40.22 41.75 46.03 46.32 47.64 46.79 46.72 46.18 45.60 46.92 46.60 44.79 41.96 43.54 43.86 45.76 45.42 44.28 42.87 44.70 41.44 37.36 37.76 41.25 42.91 40.34 40.99 40.55 40.62 42.33 39.08 35.48 37.97 47.00 47.62 48.19 48.60 48.71 46.27 45.96 46.48
46.08 39.39 46.83 48.18 47.39 44.22 43.48 44.14 44.03 48.25 47.13 47.09 46.64 46.92 44.91 43.35 44.49 42.02 42.20 44.31 45.19 44.54 45.29 44.73 42.64 39.85 37.07 39.02 40.94 38.57 40.09 40.36 39.17 37.26 38.59 38.94 38.15 43.71 45.12 46.73 48.42 48.80 47.52 45.33 45.71
46.46 42.82 45.06 40.75 42.67 44.45 44.98 44.88 43.46 42.15 46.34 47.12 44.57 45.34 44.23 41.11 41.15 40.04 43.46 43.19 43.32 44.72 44.11 43.86 40.14 40.99 41.19 40.78 40.26 39.39 38.72 39.00 37.67 40.06 37.72 39.71 38.84 41.78 45.51 47.09 49.00 49.55 49.65 49.14 47.24
45.86 43.25 45.40 43.59 43.95 43.04 42.76 42.80 43.12 44.67 44.21 42.87 43.80 45.06 45.10 42.77 43.19 40.79 43.58 44.05 43.40 43.36 42.66 42.75 39.25 38.97 38.72 41.73 39.63 38.56 40.64 40.89 40.85 41.76 41.40 41.79 40.62 44.99 48.02 48.94 48.65 49.74 49.35 48.63 48.37
51.71 51.01 45.38 42.65 43.21 41.76 42.61 42.42 43.69 46.01 45.59 47.30 45.48 45.52 43.33 45.01 47.21 48.07 47.91 46.99 45.87 43.04 42.33 41.10 39.93 39.08 37.45 40.01 40.20 38.23 41.64 42.06 42.07 43.81 43.17 38.54 43.67 47.07 46.03 46.74 47.81 49.47 49.75 48.64 48.33

GFSSW_sfc_wetblb_120.txt.gz
Wetbulb
61.01 61.39 61.46 61.39 61.41 61.32 61.33 61.33 61.50 61.75 61.93 62.36 63.09 63.42 63.28 63.97 63.20 60.24 54.90 57.95 61.85 67.59 67.93 62.45 58.69 57.51 57.96 59.10 59.92 60.80 48.62 45.25 46.89 47.74 49.29 53.69 52.25 55.72 58.61 57.15 58.12 59.42 59.86 64.96 62.88
60.80 61.10 61.39 61.38 61.30 61.19 61.26 61.30 61.47 61.56 61.82 62.25 63.12 63.24 63.07 63.48 59.76 56.23 59.79 63.64 66.55 68.91 60.13 56.90 55.03 55.87 53.88 55.11 55.23 52.40 47.42 47.80 50.62 50.55 48.87 51.27 51.72 52.85 52.71 54.23 55.01 56.05 59.47 63.67 62.51
60.90 61.19 60.92 60.73 60.54 60.79 61.11 60.87 61.18 61.59 62.00 62.53 62.89 62.76 62.67 62.40 56.81 55.68 65.72 64.16 67.60 65.89 60.40 58.73 57.83 55.33 53.08 53.93 51.90 50.78 45.87 49.91 49.21 50.36 50.74 48.85 48.35 50.61 49.08 48.47 51.33 51.30 54.33 64.57 65.58
60.74 60.80 60.53 60.28 60.30 60.31 60.73 61.17 61.55 61.87 62.43 62.61 62.54 62.60 62.93 61.15 48.10 57.92 67.14 66.44 67.39 63.20 59.14 56.94 56.42 55.11 53.19 50.74 54.16 47.37 50.13 50.46 51.56 52.33 51.19 49.36 51.32 49.17 49.66 49.59 51.82 51.71 51.81 52.29 58.42
60.28 60.16 60.10 59.99 59.95 60.25 60.78 61.20 61.72 62.15 62.27 62.26 62.24 62.27 61.29 56.44 53.51 60.08 66.49 66.30 61.18 59.79 57.14 55.25 53.51 52.80 50.11 50.89 51.31 49.05 50.43 51.53 52.18 52.33 51.91 52.34 50.20 49.92 50.13 52.55 53.40 53.11 52.19 50.81 50.97
59.81 59.87 59.72 59.57 59.48 59.85 60.63 60.95 61.26 61.76 61.84 61.87 61.89 61.54 59.07 52.04 59.08 60.33 59.76 59.71 59.58 58.80 57.09 56.47 53.80 54.34 51.74 50.79 50.09 51.19 50.39 50.56 51.71 51.93 51.88 49.90 49.92 50.59 51.42 53.17 52.19 51.98 50.55 50.23 50.08
59.42 59.35 59.33 59.56 59.65 59.61 60.41 60.71 61.42 62.17 61.55 61.62 61.75 61.59 57.48 53.87 60.13 61.05 60.29 59.42 59.69 58.98 56.17 57.36 56.86 53.78 53.42 50.42 54.07 51.48 47.77 50.30 51.25 52.17 50.48 51.12 46.89 48.26 51.50 52.68 50.57 50.64 50.92 50.21 50.75
59.10 59.22 59.30 59.72 59.40 59.29 60.08 60.48 62.09 61.01 60.96 61.42 61.59 59.99 54.24 59.97 61.18 59.60 60.06 58.96 60.42 60.07 58.77 59.75 58.55 55.33 53.18 54.10 51.97 48.70 49.06 44.29 50.10 51.14 50.93 49.80 42.38 50.34 52.81 51.26 50.64 51.60 50.74 52.00 52.02
58.74 59.16 59.13 59.37 59.37 59.22 59.74 60.04 62.32 61.83 61.45 61.80 59.83 58.19 52.68 59.97 56.64 58.87 59.83 56.29 57.47 58.61 59.50 58.30 57.02 53.52 53.32 47.95 44.67 47.48 40.15 42.89 46.24 51.45 49.63 47.88 43.82 50.07 51.98 51.09 50.00 50.31 51.10 52.29 52.67
58.70 59.49 59.47 59.35 59.26 59.19 59.64 59.14 61.84 59.62 60.20 62.22 59.55 53.37 54.64 52.61 57.14 58.05 59.54 58.59 55.94 55.92 54.77 54.27 52.78 49.21 49.00 44.28 36.42 39.30 40.07 42.80 43.17 47.63 48.00 46.45 44.87 48.32 50.11 49.69 48.60 49.26 49.97 51.41 52.06
58.86 59.39 59.10 59.16 59.00 58.67 57.62 56.18 53.50 52.54 56.19 52.94 52.67 51.72 52.64 55.91 58.54 56.55 57.82 56.24 56.06 53.45 48.45 51.30 46.08 43.32 44.74 46.17 45.57 44.34 42.59 42.41 45.12 48.91 46.19 45.79 45.07 46.59 49.29 48.63 47.99 48.69 49.39 50.45 51.94
59.03 59.13 58.85 58.84 58.12 57.53 56.12 54.25 54.03 55.31 50.82 54.78 54.58 54.00 55.24 55.94 51.70 54.49 57.66 51.22 50.43 46.38 49.38 46.47 43.72 46.02 46.96 46.79 45.70 44.29 42.78 42.26 44.98 48.67 46.45 45.46 45.13 47.20 48.10 47.63 48.06 48.02 48.30 50.14 51.85
58.58 58.81 58.77 58.52 57.51 55.61 56.89 55.01 58.02 58.51 52.00 51.64 53.43 53.61 54.83 54.51 51.06 52.16 53.67 51.36 48.01 46.23 47.08 42.82 45.85 47.24 45.52 45.04 43.17 43.07 41.62 42.05 42.48 46.38 47.37 44.79 41.50 44.48 47.72 48.12 48.67 49.41 49.35 50.39 50.99
58.34 58.34 58.66 58.22 55.27 56.30 55.10 58.55 59.29 59.69 47.28 47.75 50.05 52.98 54.63 53.81 49.82 54.83 54.14 51.21 48.75 46.20 46.44 45.07 47.28 44.92 44.40 43.68 43.72 39.68 45.26 45.39 45.41 42.79 37.25 44.75 33.08 41.76 43.39 44.24 45.83 46.95 49.34 49.47 49.44
58.02 58.03 58.00 57.64 53.27 54.73 55.92 60.06 60.43 57.84 37.87 49.49 50.71 55.26 52.77 50.25 51.14 51.33 54.81 50.96 46.26 46.09 45.97 43.95 43.92 43.38 42.69 43.15 45.02 42.15 46.09 45.13 45.46 42.24 41.03 40.24 34.62 39.88 43.25 41.03 43.49 46.58 48.43 48.76 49.85
58.07 58.13 57.55 56.06 55.80 57.33 58.77 60.12 57.98 45.37 38.22 46.40 50.19 48.20 47.31 49.46 49.87 50.69 50.27 52.26 51.82 46.24 46.03 44.82 47.43 46.85 44.51 45.66 46.80 47.79 45.87 46.39 45.20 41.83 34.52 38.44 36.43 35.94 38.77 41.17 44.71 47.76 47.26 47.95 49.64
58.09 58.09 56.48 55.09 52.87 59.33 59.86 56.72 43.81 39.57 49.64 45.24 46.14 47.54 46.75 46.75 46.93 46.63 46.35 46.04 42.91 39.57 40.95 44.20 43.94 46.23 47.11 43.58 47.52 46.14 41.66 35.82 32.47 32.88 30.56 40.91 37.24 36.52 42.96 45.10 47.05 46.03 46.24 47.69 49.38
57.75 57.46 56.22 53.90 56.72 59.15 56.56 49.93 40.04 47.00 46.32 49.61 47.67 46.10 43.94 46.28 45.52 45.87 45.57 44.00 45.74 43.63 40.47 38.16 36.42 42.98 44.70 44.66 41.41 42.62 41.11 33.69 26.69 28.07 31.50 41.68 32.67 38.59 46.62 47.96 48.98 48.09 47.01 47.56 49.24
56.76 53.88 52.65 52.93 54.29 57.33 50.90 41.69 43.17 46.82 48.92 46.04 45.36 42.73 43.39 44.66 44.19 44.60 44.45 44.26 44.25 44.01 38.31 38.16 39.27 44.21 44.67 45.82 44.74 41.61 37.14 43.17 36.62 37.98 33.93 37.33 39.32 44.32 45.54 46.13 47.96 47.25 46.49 46.55 47.90
52.23 50.79 49.27 52.59 56.13 53.97 46.76 42.77 46.49 50.48 49.70 48.09 42.83 44.84 42.74 42.90 42.06 43.16 42.92 45.66 44.19 45.49 45.39 42.16 35.00 42.83 43.34 45.40 46.24 42.97 44.51 36.71 38.53 27.25 27.18 33.83 33.49 33.00 39.93 42.83 46.27 44.46 44.37 46.69 47.58
51.45 45.71 51.64 56.03 54.65 48.65 40.86 43.58 47.92 50.66 49.94 46.93 45.50 44.88 45.02 43.34 43.85 43.00 43.03 44.25 46.42 44.76 45.05 42.59 38.98 39.27 42.61 41.17 39.61 40.92 39.62 39.84 39.27 37.36 29.75 28.40 30.60 40.43 41.41 44.00 44.17 44.85 44.44 45.60 47.40
48.89 39.73 52.89 55.89 44.51 43.92 40.94 45.26 48.77 49.09 49.92 48.13 47.47 47.75 45.38 45.30 43.39 43.33 42.90 44.49 46.65 46.10 42.39 42.55 39.36 35.85 38.52 43.03 44.51 42.22 39.45 38.46 32.11 31.64 34.58 33.92 32.53 43.77 44.46 45.03 45.60 45.17 45.24 45.92 47.58
44.74 44.97 53.43 52.97 37.65 38.47 42.34 43.91 46.57 48.05 46.76 46.34 45.33 48.14 47.96 44.97 41.91 43.97 44.25 46.21 45.88 45.05 42.81 43.33 38.98 33.66 34.87 38.93 41.39 39.02 40.94 39.50 37.86 36.80 34.06 28.14 31.56 44.11 45.25 45.37 46.45 44.51 44.87 45.49 46.53
45.01 38.36 45.47 47.73 46.86 41.22 39.83 41.10 43.43 49.02 47.97 47.74 46.65 47.34 45.10 43.98 45.34 42.46 42.67 44.32 45.00 45.97 47.09 45.50 39.94 37.46 33.44 36.69 39.36 36.89 39.51 39.05 36.20 30.62 33.69 32.85 33.87 40.68 42.94 44.66 45.52 44.90 44.02 44.73 46.66
46.44 40.72 44.85 38.02 39.99 41.61 42.49 42.39 42.94 42.68 46.74 47.24 44.74 44.88 43.75 40.76 41.35 40.84 43.30 41.83 43.74 46.28 43.30 41.83 37.38 40.35 40.55 40.26 39.54 38.35 38.27 38.27 35.60 35.48 31.73 36.09 36.78 37.98 42.40 44.33 45.66 46.57 46.44 45.46 45.15
43.66 41.92 43.60 41.66 41.97 40.32 41.23 41.01 42.27 43.82 43.72 42.94 43.13 44.51 44.71 41.93 42.34 39.68 42.43 41.67 40.77 41.81 41.64 41.47 35.94 37.98 36.56 40.81 40.58 37.66 39.32 39.33 38.44 37.59 37.28 38.84 38.00 42.72 44.52 45.85 45.92 45.80 46.93 46.01 44.97
49.76 50.57 45.86 42.49 40.02 39.14 39.20 41.34 42.56 45.31 45.36 46.61 45.33 44.37 43.34 44.75 46.06 46.49 46.25 45.48 43.46 41.13 40.46 38.99 37.03 36.53 33.91 39.13 38.71 34.95 39.07 39.87 39.99 40.85 40.20 36.10 39.31 43.57 42.93 44.78 45.36 45.99 46.97 46.29 45.57

GFSSW_sfc_wetblb_126.txt.gz
Wetbulb
61.33 61.71 61.56 61.29 61.16 61.07 61.17 61.32 61.52 61.79 62.12 62.38 62.85 63.46 63.64 63.73 62.99 56.72 50.43 56.05 59.12 68.17 68.77 61.87 59.26 55.55 51.90 50.77 52.20 51.32 41.33 38.66 41.21 40.28 42.25 47.16 45.94 49.54 50.07 47.36 51.93 57.72 57.84 59.71 63.14
60.98 61.07 61.06 61.03 60.99 60.85 60.90 61.26 61.77 62.09 62.35 62.50 63.01 63.38 63.18 63.39 57.17 51.46 61.91 66.62 67.92 68.93 57.74 55.15 52.44 51.77 47.34 47.47 48.64 46.11 40.04 41.59 46.02 44.25 43.80 47.24 46.74 47.47 46.87 45.81 46.29 49.87 59.55 61.34 61.10
60.48 60.64 60.78 60.76 60.54 60.41 60.78 60.84 61.58 61.94 62.43 62.85 63.09 63.18 62.78 62.07 53.06 52.65 66.80 68.01 68.75 67.54 59.53 57.51 55.17 52.38 46.75 46.24 45.02 44.82 40.10 44.77 46.36 47.65 49.07 47.48 47.24 49.05 45.92 44.37 46.85 46.98 49.03 60.22 59.58
60.02 60.17 60.24 60.34 60.25 59.88 59.78 60.42 61.19 61.76 62.17 62.39 62.82 63.03 62.79 58.31 44.57 54.75 67.96 69.10 69.01 63.73 58.27 53.90 51.61 47.59 45.39 44.68 48.23 41.07 45.93 46.71 48.33 50.14 49.11 47.08 48.73 46.90 47.01 47.63 50.11 50.17 49.20 58.86 59.09
59.85 59.87 59.84 59.93 59.85 59.52 59.46 60.07 61.03 61.59 61.73 61.99 62.33 62.37 58.57 51.72 52.26 57.14 68.75 67.44 62.55 57.96 54.66 52.46 48.32 46.73 43.56 44.83 46.56 43.62 46.05 48.79 49.31 49.16 48.64 49.16 47.15 46.57 47.28 49.93 50.44 50.96 50.06 48.05 49.24
59.61 59.69 59.59 59.46 59.31 59.39 59.51 60.13 60.98 61.18 61.85 62.00 62.16 61.68 54.15 47.96 56.35 57.82 61.64 57.55 57.78 56.29 53.99 52.51 49.61 50.29 46.69 46.17 44.06 46.63 47.27 47.43 48.71 48.88 48.62 47.32 46.78 47.33 48.39 49.57 49.58 49.97 48.86 49.09 49.36
59.64 59.41 59.18 59.15 59.17 59.16 59.58 59.96 60.33 60.63 61.92 61.21 61.62 59.75 53.79 52.85 56.02 56.40 58.65 55.81 56.76 56.67 53.81 54.48 53.32 49.46 48.66 45.89 49.41 48.33 44.21 45.98 46.69 47.74 47.01 47.99 44.05 44.57 48.46 48.82 47.37 47.25 47.60 49.43 50.31
59.67 59.25 58.73 59.26 59.36 58.89 59.28 59.54 60.21 60.76 61.94 61.23 61.74 56.84 49.30 57.17 55.10 55.83 56.32 55.56 57.00 56.96 56.44 55.39 54.63 51.88 49.03 49.24 47.29 44.25 41.10 36.34 43.68 47.03 47.54 45.54 38.39 45.75 47.55 47.70 46.42 46.61 45.69 48.75 50.10
59.84 59.20 58.45 58.75 59.17 59.05 59.40 59.54 59.94 61.31 62.42 61.49 55.28 51.86 48.19 58.62 53.94 56.06 56.03 54.30 55.09 55.24 55.34 57.28 53.42 48.92 48.29 41.59 36.49 38.08 32.72 35.45 39.68 46.87 46.22 43.41 38.77 45.09 47.85 47.40 46.00 45.53 46.53 47.98 49.17
60.05 59.62 58.90 58.82 58.80 58.99 58.66 58.82 59.77 58.27 58.65 60.53 59.35 47.67 50.76 49.60 53.71 55.10 54.37 55.74 53.25 52.83 51.73 50.59 46.79 42.33 39.97 36.08 29.16 32.95 32.90 36.29 35.67 42.44 44.13 41.44 40.15 44.36 46.33 46.39 44.97 44.79 45.29 46.20 48.72
60.28 59.81 59.03 58.56 58.49 58.40 55.45 50.82 48.43 47.21 50.17 46.89 47.64 47.87 50.45 52.80 55.02 52.92 54.65 53.79 52.64 48.59 42.17 46.21 40.48 36.14 38.06 40.13 40.11 37.99 36.06 35.66 39.53 44.70 42.21 40.42 40.84 43.01 45.44 45.23 44.77 44.61 44.76 46.73 48.75
60.30 59.93 59.00 58.22 57.78 57.20 53.73 48.63 48.91 50.33 45.44 52.43 52.27 50.99 52.75 52.09 48.43 51.00 54.09 47.28 46.63 42.30 42.35 39.20 36.88 42.11 43.08 42.52 40.88 38.67 36.20 35.54 40.95 45.30 42.73 40.31 40.26 43.32 44.44 44.11 44.62 45.12 45.25 46.35 48.45
60.20 59.70 58.89 57.86 56.98 53.02 50.38 50.82 53.49 53.43 44.64 49.38 51.63 50.35 51.03 51.77 48.09 48.65 50.83 46.97 43.50 40.28 40.48 36.52 40.43 44.65 43.03 40.03 38.89 36.93 36.14 36.12 37.87 42.73 42.65 40.24 36.85 39.78 43.50 44.48 45.90 46.09 47.31 48.16 47.46
59.73 59.24 58.65 57.61 51.60 48.08 49.67 54.87 54.46 53.66 36.99 42.24 47.18 49.96 51.73 51.30 46.72 52.17 51.11 47.54 43.77 41.05 41.60 39.16 43.16 42.32 40.06 39.37 39.36 34.17 41.64 41.27 40.57 38.26 32.60 38.38 28.93 36.02 39.86 41.18 42.35 44.57 47.87 47.33 48.79
59.30 58.74 57.67 56.84 47.54 46.97 51.75 54.51 54.51 49.39 26.97 44.91 47.48 53.33 51.30 47.69 48.46 48.39 50.88 47.12 41.98 41.81 40.08 37.48 39.46 38.58 38.30 39.70 40.77 38.00 42.25 40.59 40.42 37.42 34.67 35.10 30.58 32.41 38.74 38.50 40.60 46.01 47.28 48.03 49.68
59.21 58.45 56.88 50.80 51.33 50.42 52.01 53.82 51.40 37.50 29.38 43.01 46.92 45.39 44.75 46.41 46.58 48.78 47.20 47.92 46.69 42.27 40.74 39.69 43.00 41.66 40.29 41.79 42.22 43.57 40.99 38.49 39.54 36.31 30.27 33.75 32.58 30.63 35.14 37.94 41.97 46.27 47.05 48.22 49.30
59.18 58.36 55.63 54.09 44.17 49.86 50.90 49.79 35.76 30.88 43.74 41.53 42.37 44.14 42.25 42.09 43.43 43.90 42.38 39.87 37.54 33.20 33.01 38.22 39.28 42.06 43.33 38.38 41.61 40.20 32.91 23.28 25.19 25.22 27.04 36.15 31.65 33.63 38.80 43.22 44.85 45.55 46.80 48.04 49.12
58.74 57.85 55.87 54.54 51.99 50.16 49.15 43.55 29.53 37.69 40.77 45.53 44.02 42.55 39.57 42.30 41.54 41.85 40.10 37.61 39.75 37.68 33.85 31.89 30.97 39.16 40.58 38.73 35.65 36.31 34.63 23.67 15.99 19.71 23.69 36.07 27.70 34.39 42.84 45.49 45.95 47.27 47.75 48.37 48.57
57.82 54.26 52.16 51.59 53.79 48.49 43.03 35.61 34.86 41.21 44.65 42.71 41.78 37.45 37.51 40.94 40.08 39.38 38.08 38.00 39.53 39.36 33.98 32.42 33.68 39.82 39.96 41.01 40.34 35.69 32.15 37.70 29.48 30.34 26.61 30.49 34.77 40.04 43.13 43.73 43.54 45.78 47.14 47.23 48.11
53.88 50.05 46.92 51.95 50.79 45.69 38.82 37.67 40.35 45.92 45.47 43.14 37.68 38.70 35.17 37.47 37.87 37.35 37.04 40.19 39.96 41.15 38.94 36.70 30.89 38.14 40.64 41.03 41.71 37.08 40.97 32.02 30.77 20.41 21.40 27.19 27.65 29.53 36.62 39.73 42.65 44.59 45.88 46.75 47.68
51.80 44.90 49.25 51.29 48.95 41.18 34.30 35.32 41.51 46.86 46.46 41.97 39.75 37.75 38.01 37.34 37.18 36.06 37.26 39.84 42.06 40.87 40.04 36.39 33.33 33.98 37.31 35.92 36.60 36.51 34.77 34.47 33.21 31.23 25.01 23.98 27.72 34.68 38.49 41.58 41.43 43.35 45.49 46.48 46.98
49.36 40.98 50.61 49.44 37.79 36.13 34.06 38.85 44.88 43.97 45.54 44.75 42.63 41.50 39.12 38.63 36.57 36.54 37.33 39.69 43.53 41.83 37.49 37.26 33.12 30.35 34.21 38.05 39.62 37.11 34.73 33.06 27.14 27.66 28.37 26.80 28.94 41.52 40.94 42.18 43.15 41.95 45.21 46.73 46.77
44.94 45.35 50.89 47.10 32.96 32.11 34.76 38.74 41.66 41.97 42.11 43.23 41.94 43.44 42.14 38.68 36.12 37.94 38.59 42.11 42.66 40.94 37.85 38.10 32.27 27.71 30.53 34.35 36.67 34.06 36.41 34.68 32.40 30.18 27.64 24.83 27.54 40.42 40.49 41.33 42.76 41.48 42.47 46.01 46.29
45.71 39.06 43.04 44.58 42.29 34.80 34.20 35.79 36.79 41.84 41.58 43.75 42.79 42.65 40.70 38.32 38.82 36.72 36.30 40.51 41.52 42.60 48.12 42.85 33.62 31.43 29.08 31.68 34.69 31.68 35.28 34.54 31.90 25.83 27.00 28.56 29.16 37.55 39.82 40.90 41.32 41.62 42.33 44.26 45.79
45.06 39.36 41.15 35.79 36.97 38.32 36.68 36.08 35.30 35.84 40.97 42.31 40.20 41.61 40.30 36.19 35.97 35.48 36.82 37.13 40.29 47.46 39.14 37.29 31.57 33.03 34.96 36.70 36.53 35.69 35.30 34.26 31.51 30.92 28.79 30.91 32.66 36.21 40.61 41.27 41.74 42.12 42.42 41.58 43.73
42.11 38.69 42.04 40.56 39.44 38.23 38.61 37.21 34.97 36.99 39.19 39.69 40.15 41.03 40.06 37.63 39.09 36.35 36.84 35.45 36.04 38.07 36.29 35.87 31.51 32.35 31.68 35.63 34.91 33.44 35.10 34.98 34.19 33.52 32.17 31.98 32.32 37.31 40.90 42.13 41.18 41.27 42.34 42.18 40.89
47.47 47.77 44.11 39.85 39.02 37.73 37.36 37.59 38.05 38.73 39.39 41.94 42.74 41.53 39.42 41.14 42.17 41.45 41.06 40.18 39.14 36.40 34.60 33.81 32.02 30.48 28.08 33.44 33.86 31.05 34.36 35.05 34.83 35.12 35.68 30.92 34.90 39.87 40.59 42.85 42.42 41.83 42.52 42.45 41.44